<?xml version="1.0" encoding="UTF-8" standalone="no" ?>
<gpx xmlns="http://www.topografix.com/GPX/1/1" xmlns:xsi="http://www.w3.org/2001/XMLSchema-instance" xsi:schemaLocation="http://www.topografix.com/GPX/1/1 http://www.topografix.com/GPX/1/1/gpx.xsd" version="1.1" creator="VisuGPX - https://www.visugpx.com">
  <metadata>
    <name>Itinérant Beaujolais rouge . Etape 3 Odenas - Malval</name>
    <desc><![CDATA[étape relativement corsée avec encore un dénivelé et des terrains compliqués]]></desc>
  </metadata>
  <trk>
    <name><![CDATA[SityTrail - Itinérant Beaujolais rouge . Etape 3 Odenas - Malval]]></name>
    <desc><![CDATA[étape relativement corsée avec encore un dénivelé et des terrains compliqués]]></desc>
    <trkseg>
      <trkpt lat="46.10061" lon="4.65189">
        <ele>307</ele>
        <time>2023-10-18T06:41:55.574+00:00</time>
      </trkpt>
      <trkpt lat="46.10061" lon="4.65189">
        <ele>307</ele>
        <time>2023-10-18T06:41:55.574+00:00</time>
      </trkpt>
      <trkpt lat="46.10062" lon="4.65186">
        <ele>307</ele>
        <time>2023-10-18T06:42:01.374+00:00</time>
      </trkpt>
      <trkpt lat="46.10062" lon="4.65185">
        <ele>307</ele>
        <time>2023-10-18T06:42:05.334+00:00</time>
      </trkpt>
      <trkpt lat="46.10062" lon="4.65184">
        <ele>307</ele>
        <time>2023-10-18T06:42:09.214+00:00</time>
      </trkpt>
      <trkpt lat="46.10064" lon="4.65181">
        <ele>307</ele>
        <time>2023-10-18T06:42:14.163+00:00</time>
      </trkpt>
      <trkpt lat="46.10066" lon="4.65176">
        <ele>305</ele>
        <time>2023-10-18T06:42:18.614+00:00</time>
      </trkpt>
      <trkpt lat="46.10069" lon="4.65173">
        <ele>305</ele>
        <time>2023-10-18T06:42:23.154+00:00</time>
      </trkpt>
      <trkpt lat="46.10069" lon="4.65171">
        <ele>305</ele>
        <time>2023-10-18T06:42:27.674+00:00</time>
      </trkpt>
      <trkpt lat="46.10071" lon="4.65167">
        <ele>311</ele>
        <time>2023-10-18T06:42:32.194+00:00</time>
      </trkpt>
      <trkpt lat="46.10072" lon="4.65163">
        <ele>311</ele>
        <time>2023-10-18T06:42:36.314+00:00</time>
      </trkpt>
      <trkpt lat="46.10073" lon="4.6516">
        <ele>311</ele>
        <time>2023-10-18T06:42:41.014+00:00</time>
      </trkpt>
      <trkpt lat="46.10075" lon="4.6515">
        <ele>309</ele>
        <time>2023-10-18T06:42:58.034+00:00</time>
      </trkpt>
      <trkpt lat="46.1008" lon="4.65148">
        <ele>309</ele>
        <time>2023-10-18T06:43:02.474+00:00</time>
      </trkpt>
      <trkpt lat="46.10082" lon="4.65146">
        <ele>309</ele>
        <time>2023-10-18T06:43:06.414+00:00</time>
      </trkpt>
      <trkpt lat="46.10085" lon="4.6514">
        <ele>309</ele>
        <time>2023-10-18T06:43:10.834+00:00</time>
      </trkpt>
      <trkpt lat="46.10088" lon="4.65134">
        <ele>309</ele>
        <time>2023-10-18T06:43:15.374+00:00</time>
      </trkpt>
      <trkpt lat="46.10089" lon="4.6513">
        <ele>309</ele>
        <time>2023-10-18T06:43:19.374+00:00</time>
      </trkpt>
      <trkpt lat="46.10091" lon="4.65126">
        <ele>309</ele>
        <time>2023-10-18T06:43:23.474+00:00</time>
      </trkpt>
      <trkpt lat="46.10093" lon="4.65121">
        <ele>308</ele>
        <time>2023-10-18T06:43:28.174+00:00</time>
      </trkpt>
      <trkpt lat="46.10094" lon="4.65118">
        <ele>308</ele>
        <time>2023-10-18T06:43:32.774+00:00</time>
      </trkpt>
      <trkpt lat="46.10096" lon="4.65119">
        <ele>308</ele>
        <time>2023-10-18T06:43:50.394+00:00</time>
      </trkpt>
      <trkpt lat="46.10096" lon="4.65119">
        <ele>308</ele>
        <time>2023-10-18T06:43:55.194+00:00</time>
      </trkpt>
      <trkpt lat="46.10098" lon="4.65119">
        <ele>315</ele>
        <time>2023-10-18T06:44:00.252+00:00</time>
      </trkpt>
      <trkpt lat="46.10101" lon="4.65119">
        <ele>315</ele>
        <time>2023-10-18T06:44:04.394+00:00</time>
      </trkpt>
      <trkpt lat="46.10105" lon="4.6512">
        <ele>315</ele>
        <time>2023-10-18T06:44:08.494+00:00</time>
      </trkpt>
      <trkpt lat="46.10111" lon="4.65121">
        <ele>315</ele>
        <time>2023-10-18T06:44:12.594+00:00</time>
      </trkpt>
      <trkpt lat="46.10116" lon="4.65121">
        <ele>315</ele>
        <time>2023-10-18T06:44:17.194+00:00</time>
      </trkpt>
      <trkpt lat="46.10118" lon="4.65123">
        <ele>315</ele>
        <time>2023-10-18T06:44:21.394+00:00</time>
      </trkpt>
      <trkpt lat="46.1012" lon="4.65125">
        <ele>315</ele>
        <time>2023-10-18T06:44:25.972+00:00</time>
      </trkpt>
      <trkpt lat="46.10123" lon="4.65127">
        <ele>318</ele>
        <time>2023-10-18T06:44:34.194+00:00</time>
      </trkpt>
      <trkpt lat="46.10125" lon="4.65127">
        <ele>318</ele>
        <time>2023-10-18T06:44:38.294+00:00</time>
      </trkpt>
      <trkpt lat="46.10127" lon="4.65128">
        <ele>326</ele>
        <time>2023-10-18T06:44:42.794+00:00</time>
      </trkpt>
      <trkpt lat="46.10129" lon="4.65129">
        <ele>326</ele>
        <time>2023-10-18T06:44:47.372+00:00</time>
      </trkpt>
      <trkpt lat="46.10132" lon="4.6513">
        <ele>326</ele>
        <time>2023-10-18T06:44:51.394+00:00</time>
      </trkpt>
      <trkpt lat="46.10134" lon="4.6513">
        <ele>326</ele>
        <time>2023-10-18T06:44:55.394+00:00</time>
      </trkpt>
      <trkpt lat="46.10137" lon="4.65131">
        <ele>326</ele>
        <time>2023-10-18T06:45:00.094+00:00</time>
      </trkpt>
      <trkpt lat="46.10139" lon="4.65132">
        <ele>326</ele>
        <time>2023-10-18T06:45:04.194+00:00</time>
      </trkpt>
      <trkpt lat="46.10141" lon="4.65133">
        <ele>326</ele>
        <time>2023-10-18T06:45:09.412+00:00</time>
      </trkpt>
      <trkpt lat="46.10143" lon="4.65135">
        <ele>326</ele>
        <time>2023-10-18T06:45:13.434+00:00</time>
      </trkpt>
      <trkpt lat="46.10146" lon="4.65136">
        <ele>326</ele>
        <time>2023-10-18T06:45:17.434+00:00</time>
      </trkpt>
      <trkpt lat="46.10149" lon="4.65141">
        <ele>326</ele>
        <time>2023-10-18T06:45:21.954+00:00</time>
      </trkpt>
      <trkpt lat="46.10148" lon="4.65148">
        <ele>326</ele>
        <time>2023-10-18T06:45:25.974+00:00</time>
      </trkpt>
      <trkpt lat="46.10147" lon="4.65155">
        <ele>329</ele>
        <time>2023-10-18T06:45:30.174+00:00</time>
      </trkpt>
      <trkpt lat="46.10146" lon="4.65161">
        <ele>329</ele>
        <time>2023-10-18T06:45:34.774+00:00</time>
      </trkpt>
      <trkpt lat="46.10146" lon="4.65168">
        <ele>329</ele>
        <time>2023-10-18T06:45:39.574+00:00</time>
      </trkpt>
      <trkpt lat="46.10146" lon="4.65175">
        <ele>329</ele>
        <time>2023-10-18T06:45:43.774+00:00</time>
      </trkpt>
      <trkpt lat="46.10146" lon="4.65181">
        <ele>330</ele>
        <time>2023-10-18T06:45:48.374+00:00</time>
      </trkpt>
      <trkpt lat="46.10146" lon="4.65187">
        <ele>330</ele>
        <time>2023-10-18T06:45:52.414+00:00</time>
      </trkpt>
      <trkpt lat="46.10145" lon="4.65192">
        <ele>330</ele>
        <time>2023-10-18T06:45:56.834+00:00</time>
      </trkpt>
      <trkpt lat="46.10145" lon="4.652">
        <ele>330</ele>
        <time>2023-10-18T06:46:01.414+00:00</time>
      </trkpt>
      <trkpt lat="46.10145" lon="4.65207">
        <ele>330</ele>
        <time>2023-10-18T06:46:06.114+00:00</time>
      </trkpt>
      <trkpt lat="46.10147" lon="4.65217">
        <ele>330</ele>
        <time>2023-10-18T06:46:14.834+00:00</time>
      </trkpt>
      <trkpt lat="46.1015" lon="4.65216">
        <ele>330</ele>
        <time>2023-10-18T06:46:19.354+00:00</time>
      </trkpt>
      <trkpt lat="46.10153" lon="4.65215">
        <ele>330</ele>
        <time>2023-10-18T06:46:24.154+00:00</time>
      </trkpt>
      <trkpt lat="46.10154" lon="4.65216">
        <ele>335</ele>
        <time>2023-10-18T06:46:28.154+00:00</time>
      </trkpt>
      <trkpt lat="46.10156" lon="4.65217">
        <ele>335</ele>
        <time>2023-10-18T06:46:32.654+00:00</time>
      </trkpt>
      <trkpt lat="46.10158" lon="4.65215">
        <ele>335</ele>
        <time>2023-10-18T06:46:36.894+00:00</time>
      </trkpt>
      <trkpt lat="46.10162" lon="4.65214">
        <ele>335</ele>
        <time>2023-10-18T06:46:41.834+00:00</time>
      </trkpt>
      <trkpt lat="46.10165" lon="4.65213">
        <ele>335</ele>
        <time>2023-10-18T06:46:45.974+00:00</time>
      </trkpt>
      <trkpt lat="46.10168" lon="4.65211">
        <ele>335</ele>
        <time>2023-10-18T06:46:50.074+00:00</time>
      </trkpt>
      <trkpt lat="46.10171" lon="4.6521">
        <ele>335</ele>
        <time>2023-10-18T06:46:54.584+00:00</time>
      </trkpt>
      <trkpt lat="46.10173" lon="4.6521">
        <ele>335</ele>
        <time>2023-10-18T06:46:58.774+00:00</time>
      </trkpt>
      <trkpt lat="46.10176" lon="4.6521">
        <ele>335</ele>
        <time>2023-10-18T06:47:03.292+00:00</time>
      </trkpt>
      <trkpt lat="46.10177" lon="4.6521">
        <ele>335</ele>
        <time>2023-10-18T06:47:07.374+00:00</time>
      </trkpt>
      <trkpt lat="46.1018" lon="4.65211">
        <ele>335</ele>
        <time>2023-10-18T06:47:12.094+00:00</time>
      </trkpt>
      <trkpt lat="46.10181" lon="4.6521">
        <ele>340</ele>
        <time>2023-10-18T06:47:16.194+00:00</time>
      </trkpt>
      <trkpt lat="46.10184" lon="4.6521">
        <ele>340</ele>
        <time>2023-10-18T06:47:20.834+00:00</time>
      </trkpt>
      <trkpt lat="46.10185" lon="4.6521">
        <ele>340</ele>
        <time>2023-10-18T06:47:25.394+00:00</time>
      </trkpt>
      <trkpt lat="46.1019" lon="4.65209">
        <ele>340</ele>
        <time>2023-10-18T06:47:30.094+00:00</time>
      </trkpt>
      <trkpt lat="46.10192" lon="4.65206">
        <ele>341</ele>
        <time>2023-10-18T06:47:34.694+00:00</time>
      </trkpt>
      <trkpt lat="46.10194" lon="4.65201">
        <ele>341</ele>
        <time>2023-10-18T06:47:39.394+00:00</time>
      </trkpt>
      <trkpt lat="46.10196" lon="4.65196">
        <ele>341</ele>
        <time>2023-10-18T06:47:44.094+00:00</time>
      </trkpt>
      <trkpt lat="46.10198" lon="4.65192">
        <ele>341</ele>
        <time>2023-10-18T06:47:48.694+00:00</time>
      </trkpt>
      <trkpt lat="46.10199" lon="4.65189">
        <ele>341</ele>
        <time>2023-10-18T06:47:52.794+00:00</time>
      </trkpt>
      <trkpt lat="46.10201" lon="4.65183">
        <ele>341</ele>
        <time>2023-10-18T06:47:57.372+00:00</time>
      </trkpt>
      <trkpt lat="46.10203" lon="4.65178">
        <ele>341</ele>
        <time>2023-10-18T06:48:01.394+00:00</time>
      </trkpt>
      <trkpt lat="46.10205" lon="4.65173">
        <ele>341</ele>
        <time>2023-10-18T06:48:05.834+00:00</time>
      </trkpt>
      <trkpt lat="46.10206" lon="4.6517">
        <ele>341</ele>
        <time>2023-10-18T06:48:09.894+00:00</time>
      </trkpt>
      <trkpt lat="46.10207" lon="4.65167">
        <ele>341</ele>
        <time>2023-10-18T06:48:14.594+00:00</time>
      </trkpt>
      <trkpt lat="46.10209" lon="4.65163">
        <ele>348</ele>
        <time>2023-10-18T06:48:18.694+00:00</time>
      </trkpt>
      <trkpt lat="46.10211" lon="4.65158">
        <ele>348</ele>
        <time>2023-10-18T06:48:23.294+00:00</time>
      </trkpt>
      <trkpt lat="46.10213" lon="4.65154">
        <ele>348</ele>
        <time>2023-10-18T06:48:27.794+00:00</time>
      </trkpt>
      <trkpt lat="46.10216" lon="4.65148">
        <ele>347</ele>
        <time>2023-10-18T06:48:32.594+00:00</time>
      </trkpt>
      <trkpt lat="46.10219" lon="4.65143">
        <ele>347</ele>
        <time>2023-10-18T06:48:37.194+00:00</time>
      </trkpt>
      <trkpt lat="46.10222" lon="4.65141">
        <ele>347</ele>
        <time>2023-10-18T06:48:41.834+00:00</time>
      </trkpt>
      <trkpt lat="46.10225" lon="4.65138">
        <ele>347</ele>
        <time>2023-10-18T06:48:46.594+00:00</time>
      </trkpt>
      <trkpt lat="46.10226" lon="4.6514">
        <ele>347</ele>
        <time>2023-10-18T06:48:50.714+00:00</time>
      </trkpt>
      <trkpt lat="46.10227" lon="4.65135">
        <ele>347</ele>
        <time>2023-10-18T06:48:55.114+00:00</time>
      </trkpt>
      <trkpt lat="46.1023" lon="4.65131">
        <ele>347</ele>
        <time>2023-10-18T06:48:59.514+00:00</time>
      </trkpt>
      <trkpt lat="46.10233" lon="4.65126">
        <ele>347</ele>
        <time>2023-10-18T06:49:04.390+00:00</time>
      </trkpt>
      <trkpt lat="46.10235" lon="4.65125">
        <ele>347</ele>
        <time>2023-10-18T06:49:08.314+00:00</time>
      </trkpt>
      <trkpt lat="46.10237" lon="4.65124">
        <ele>348</ele>
        <time>2023-10-18T06:49:12.834+00:00</time>
      </trkpt>
      <trkpt lat="46.10241" lon="4.65122">
        <ele>348</ele>
        <time>2023-10-18T06:49:17.014+00:00</time>
      </trkpt>
      <trkpt lat="46.10244" lon="4.6512">
        <ele>348</ele>
        <time>2023-10-18T06:49:21.114+00:00</time>
      </trkpt>
      <trkpt lat="46.10247" lon="4.65121">
        <ele>348</ele>
        <time>2023-10-18T06:49:39.194+00:00</time>
      </trkpt>
      <trkpt lat="46.10248" lon="4.65124">
        <ele>348</ele>
        <time>2023-10-18T06:49:43.694+00:00</time>
      </trkpt>
      <trkpt lat="46.1025" lon="4.65132">
        <ele>351</ele>
        <time>2023-10-18T06:49:48.294+00:00</time>
      </trkpt>
      <trkpt lat="46.10251" lon="4.65138">
        <ele>351</ele>
        <time>2023-10-18T06:49:52.134+00:00</time>
      </trkpt>
      <trkpt lat="46.10251" lon="4.65146">
        <ele>351</ele>
        <time>2023-10-18T06:49:56.734+00:00</time>
      </trkpt>
      <trkpt lat="46.10251" lon="4.65152">
        <ele>351</ele>
        <time>2023-10-18T06:50:01.334+00:00</time>
      </trkpt>
      <trkpt lat="46.10252" lon="4.65157">
        <ele>353</ele>
        <time>2023-10-18T06:50:05.790+00:00</time>
      </trkpt>
      <trkpt lat="46.10252" lon="4.65163">
        <ele>353</ele>
        <time>2023-10-18T06:50:09.774+00:00</time>
      </trkpt>
      <trkpt lat="46.10251" lon="4.6517">
        <ele>353</ele>
        <time>2023-10-18T06:50:14.593+00:00</time>
      </trkpt>
      <trkpt lat="46.10252" lon="4.65175">
        <ele>353</ele>
        <time>2023-10-18T06:50:18.574+00:00</time>
      </trkpt>
      <trkpt lat="46.10252" lon="4.6518">
        <ele>353</ele>
        <time>2023-10-18T06:50:22.574+00:00</time>
      </trkpt>
      <trkpt lat="46.10253" lon="4.65185">
        <ele>353</ele>
        <time>2023-10-18T06:50:26.710+00:00</time>
      </trkpt>
      <trkpt lat="46.10254" lon="4.65191">
        <ele>353</ele>
        <time>2023-10-18T06:50:30.774+00:00</time>
      </trkpt>
      <trkpt lat="46.10254" lon="4.65198">
        <ele>353</ele>
        <time>2023-10-18T06:50:35.374+00:00</time>
      </trkpt>
      <trkpt lat="46.10256" lon="4.65204">
        <ele>353</ele>
        <time>2023-10-18T06:50:39.974+00:00</time>
      </trkpt>
      <trkpt lat="46.10257" lon="4.65209">
        <ele>353</ele>
        <time>2023-10-18T06:50:44.474+00:00</time>
      </trkpt>
      <trkpt lat="46.10259" lon="4.65213">
        <ele>353</ele>
        <time>2023-10-18T06:50:48.434+00:00</time>
      </trkpt>
      <trkpt lat="46.10262" lon="4.65214">
        <ele>353</ele>
        <time>2023-10-18T06:50:52.654+00:00</time>
      </trkpt>
      <trkpt lat="46.10265" lon="4.65211">
        <ele>361</ele>
        <time>2023-10-18T06:50:57.180+00:00</time>
      </trkpt>
      <trkpt lat="46.10267" lon="4.65206">
        <ele>360</ele>
        <time>2023-10-18T06:51:01.587+00:00</time>
      </trkpt>
      <trkpt lat="46.10268" lon="4.65201">
        <ele>360</ele>
        <time>2023-10-18T06:51:05.594+00:00</time>
      </trkpt>
      <trkpt lat="46.10271" lon="4.65197">
        <ele>360</ele>
        <time>2023-10-18T06:51:09.834+00:00</time>
      </trkpt>
      <trkpt lat="46.10273" lon="4.65193">
        <ele>360</ele>
        <time>2023-10-18T06:51:14.154+00:00</time>
      </trkpt>
      <trkpt lat="46.10276" lon="4.6519">
        <ele>360</ele>
        <time>2023-10-18T06:51:18.594+00:00</time>
      </trkpt>
      <trkpt lat="46.10279" lon="4.65187">
        <ele>360</ele>
        <time>2023-10-18T06:51:22.982+00:00</time>
      </trkpt>
      <trkpt lat="46.10282" lon="4.65184">
        <ele>360</ele>
        <time>2023-10-18T06:51:26.834+00:00</time>
      </trkpt>
      <trkpt lat="46.10285" lon="4.65181">
        <ele>360</ele>
        <time>2023-10-18T06:51:31.434+00:00</time>
      </trkpt>
      <trkpt lat="46.10288" lon="4.65178">
        <ele>359</ele>
        <time>2023-10-18T06:51:35.794+00:00</time>
      </trkpt>
      <trkpt lat="46.10292" lon="4.65176">
        <ele>359</ele>
        <time>2023-10-18T06:51:40.220+00:00</time>
      </trkpt>
      <trkpt lat="46.10295" lon="4.65176">
        <ele>365</ele>
        <time>2023-10-18T06:51:43.934+00:00</time>
      </trkpt>
      <trkpt lat="46.10297" lon="4.65182">
        <ele>368</ele>
        <time>2023-10-18T06:51:48.434+00:00</time>
      </trkpt>
      <trkpt lat="46.10298" lon="4.65189">
        <ele>368</ele>
        <time>2023-10-18T06:51:53.034+00:00</time>
      </trkpt>
      <trkpt lat="46.10298" lon="4.65195">
        <ele>368</ele>
        <time>2023-10-18T06:51:57.034+00:00</time>
      </trkpt>
      <trkpt lat="46.10298" lon="4.652">
        <ele>368</ele>
        <time>2023-10-18T06:52:01.534+00:00</time>
      </trkpt>
      <trkpt lat="46.10297" lon="4.65205">
        <ele>368</ele>
        <time>2023-10-18T06:52:05.586+00:00</time>
      </trkpt>
      <trkpt lat="46.10298" lon="4.65211">
        <ele>369</ele>
        <time>2023-10-18T06:52:09.586+00:00</time>
      </trkpt>
      <trkpt lat="46.10299" lon="4.65216">
        <ele>369</ele>
        <time>2023-10-18T06:52:14.134+00:00</time>
      </trkpt>
      <trkpt lat="46.103" lon="4.65222">
        <ele>369</ele>
        <time>2023-10-18T06:52:18.134+00:00</time>
      </trkpt>
      <trkpt lat="46.10299" lon="4.65229">
        <ele>369</ele>
        <time>2023-10-18T06:52:23.584+00:00</time>
      </trkpt>
      <trkpt lat="46.10297" lon="4.65235">
        <ele>369</ele>
        <time>2023-10-18T06:52:28.134+00:00</time>
      </trkpt>
      <trkpt lat="46.10299" lon="4.65241">
        <ele>370</ele>
        <time>2023-10-18T06:52:32.154+00:00</time>
      </trkpt>
      <trkpt lat="46.10302" lon="4.65244">
        <ele>370</ele>
        <time>2023-10-18T06:52:36.354+00:00</time>
      </trkpt>
      <trkpt lat="46.10304" lon="4.65249">
        <ele>370</ele>
        <time>2023-10-18T06:52:40.454+00:00</time>
      </trkpt>
      <trkpt lat="46.10305" lon="4.65253">
        <ele>370</ele>
        <time>2023-10-18T06:52:44.554+00:00</time>
      </trkpt>
      <trkpt lat="46.10305" lon="4.65259">
        <ele>370</ele>
        <time>2023-10-18T06:52:49.112+00:00</time>
      </trkpt>
      <trkpt lat="46.10307" lon="4.65264">
        <ele>370</ele>
        <time>2023-10-18T06:52:53.194+00:00</time>
      </trkpt>
      <trkpt lat="46.1031" lon="4.6527">
        <ele>370</ele>
        <time>2023-10-18T06:52:57.794+00:00</time>
      </trkpt>
      <trkpt lat="46.10314" lon="4.65275">
        <ele>370</ele>
        <time>2023-10-18T06:53:02.294+00:00</time>
      </trkpt>
      <trkpt lat="46.10315" lon="4.65281">
        <ele>370</ele>
        <time>2023-10-18T06:53:06.394+00:00</time>
      </trkpt>
      <trkpt lat="46.10321" lon="4.65286">
        <ele>376</ele>
        <time>2023-10-18T06:53:24.194+00:00</time>
      </trkpt>
      <trkpt lat="46.1032" lon="4.65279">
        <ele>376</ele>
        <time>2023-10-18T06:53:28.834+00:00</time>
      </trkpt>
      <trkpt lat="46.10322" lon="4.65275">
        <ele>376</ele>
        <time>2023-10-18T06:53:32.994+00:00</time>
      </trkpt>
      <trkpt lat="46.10327" lon="4.65276">
        <ele>376</ele>
        <time>2023-10-18T06:53:37.494+00:00</time>
      </trkpt>
      <trkpt lat="46.10331" lon="4.65273">
        <ele>376</ele>
        <time>2023-10-18T06:53:41.554+00:00</time>
      </trkpt>
      <trkpt lat="46.10334" lon="4.65268">
        <ele>376</ele>
        <time>2023-10-18T06:53:45.954+00:00</time>
      </trkpt>
      <trkpt lat="46.10335" lon="4.65264">
        <ele>376</ele>
        <time>2023-10-18T06:53:50.585+00:00</time>
      </trkpt>
      <trkpt lat="46.10337" lon="4.65259">
        <ele>376</ele>
        <time>2023-10-18T06:53:55.254+00:00</time>
      </trkpt>
      <trkpt lat="46.10339" lon="4.65253">
        <ele>376</ele>
        <time>2023-10-18T06:53:59.154+00:00</time>
      </trkpt>
      <trkpt lat="46.1034" lon="4.65248">
        <ele>376</ele>
        <time>2023-10-18T06:54:03.754+00:00</time>
      </trkpt>
      <trkpt lat="46.10342" lon="4.65243">
        <ele>376</ele>
        <time>2023-10-18T06:54:07.954+00:00</time>
      </trkpt>
      <trkpt lat="46.10343" lon="4.65237">
        <ele>376</ele>
        <time>2023-10-18T06:54:12.154+00:00</time>
      </trkpt>
      <trkpt lat="46.10345" lon="4.65232">
        <ele>376</ele>
        <time>2023-10-18T06:54:16.714+00:00</time>
      </trkpt>
      <trkpt lat="46.10347" lon="4.65227">
        <ele>381</ele>
        <time>2023-10-18T06:54:20.814+00:00</time>
      </trkpt>
      <trkpt lat="46.1035" lon="4.65223">
        <ele>381</ele>
        <time>2023-10-18T06:54:25.014+00:00</time>
      </trkpt>
      <trkpt lat="46.10353" lon="4.6522">
        <ele>381</ele>
        <time>2023-10-18T06:54:29.589+00:00</time>
      </trkpt>
      <trkpt lat="46.10356" lon="4.65219">
        <ele>381</ele>
        <time>2023-10-18T06:54:33.514+00:00</time>
      </trkpt>
      <trkpt lat="46.10358" lon="4.65218">
        <ele>381</ele>
        <time>2023-10-18T06:54:38.114+00:00</time>
      </trkpt>
      <trkpt lat="46.1036" lon="4.65217">
        <ele>381</ele>
        <time>2023-10-18T06:54:42.114+00:00</time>
      </trkpt>
      <trkpt lat="46.10364" lon="4.65216">
        <ele>381</ele>
        <time>2023-10-18T06:54:47.014+00:00</time>
      </trkpt>
      <trkpt lat="46.10367" lon="4.65218">
        <ele>381</ele>
        <time>2023-10-18T06:54:51.414+00:00</time>
      </trkpt>
      <trkpt lat="46.1037" lon="4.65221">
        <ele>381</ele>
        <time>2023-10-18T06:54:55.134+00:00</time>
      </trkpt>
      <trkpt lat="46.10374" lon="4.65223">
        <ele>381</ele>
        <time>2023-10-18T06:55:00.152+00:00</time>
      </trkpt>
      <trkpt lat="46.10377" lon="4.65224">
        <ele>389</ele>
        <time>2023-10-18T06:55:04.154+00:00</time>
      </trkpt>
      <trkpt lat="46.10382" lon="4.65224">
        <ele>389</ele>
        <time>2023-10-18T06:55:09.214+00:00</time>
      </trkpt>
      <trkpt lat="46.10384" lon="4.65226">
        <ele>389</ele>
        <time>2023-10-18T06:55:13.414+00:00</time>
      </trkpt>
      <trkpt lat="46.10387" lon="4.65229">
        <ele>389</ele>
        <time>2023-10-18T06:55:18.014+00:00</time>
      </trkpt>
      <trkpt lat="46.10389" lon="4.65231">
        <ele>389</ele>
        <time>2023-10-18T06:55:22.214+00:00</time>
      </trkpt>
      <trkpt lat="46.10392" lon="4.65232">
        <ele>389</ele>
        <time>2023-10-18T06:55:26.834+00:00</time>
      </trkpt>
      <trkpt lat="46.10395" lon="4.65233">
        <ele>389</ele>
        <time>2023-10-18T06:55:31.414+00:00</time>
      </trkpt>
      <trkpt lat="46.10398" lon="4.65233">
        <ele>389</ele>
        <time>2023-10-18T06:55:36.014+00:00</time>
      </trkpt>
      <trkpt lat="46.10401" lon="4.65234">
        <ele>389</ele>
        <time>2023-10-18T06:55:40.579+00:00</time>
      </trkpt>
      <trkpt lat="46.10406" lon="4.65235">
        <ele>396</ele>
        <time>2023-10-18T06:55:45.014+00:00</time>
      </trkpt>
      <trkpt lat="46.10409" lon="4.6524">
        <ele>400</ele>
        <time>2023-10-18T06:55:49.454+00:00</time>
      </trkpt>
      <trkpt lat="46.10411" lon="4.65245">
        <ele>400</ele>
        <time>2023-10-18T06:55:53.394+00:00</time>
      </trkpt>
      <trkpt lat="46.10412" lon="4.65251">
        <ele>400</ele>
        <time>2023-10-18T06:55:57.774+00:00</time>
      </trkpt>
      <trkpt lat="46.10412" lon="4.65257">
        <ele>400</ele>
        <time>2023-10-18T06:56:01.974+00:00</time>
      </trkpt>
      <trkpt lat="46.10413" lon="4.65262">
        <ele>400</ele>
        <time>2023-10-18T06:56:06.774+00:00</time>
      </trkpt>
      <trkpt lat="46.10415" lon="4.65267">
        <ele>402</ele>
        <time>2023-10-18T06:56:11.294+00:00</time>
      </trkpt>
      <trkpt lat="46.10416" lon="4.65272">
        <ele>402</ele>
        <time>2023-10-18T06:56:15.294+00:00</time>
      </trkpt>
      <trkpt lat="46.10417" lon="4.65276">
        <ele>402</ele>
        <time>2023-10-18T06:56:19.534+00:00</time>
      </trkpt>
      <trkpt lat="46.10419" lon="4.6528">
        <ele>402</ele>
        <time>2023-10-18T06:56:24.054+00:00</time>
      </trkpt>
      <trkpt lat="46.10422" lon="4.65284">
        <ele>402</ele>
        <time>2023-10-18T06:56:28.410+00:00</time>
      </trkpt>
      <trkpt lat="46.10423" lon="4.65286">
        <ele>402</ele>
        <time>2023-10-18T06:56:32.374+00:00</time>
      </trkpt>
      <trkpt lat="46.10424" lon="4.6529">
        <ele>402</ele>
        <time>2023-10-18T06:56:37.174+00:00</time>
      </trkpt>
      <trkpt lat="46.10425" lon="4.65294">
        <ele>401</ele>
        <time>2023-10-18T06:56:41.374+00:00</time>
      </trkpt>
      <trkpt lat="46.10426" lon="4.65298">
        <ele>401</ele>
        <time>2023-10-18T06:56:45.474+00:00</time>
      </trkpt>
      <trkpt lat="46.10427" lon="4.653">
        <ele>401</ele>
        <time>2023-10-18T06:56:49.574+00:00</time>
      </trkpt>
      <trkpt lat="46.1043" lon="4.65302">
        <ele>401</ele>
        <time>2023-10-18T06:56:54.454+00:00</time>
      </trkpt>
      <trkpt lat="46.10432" lon="4.65306">
        <ele>410</ele>
        <time>2023-10-18T06:56:59.074+00:00</time>
      </trkpt>
      <trkpt lat="46.10433" lon="4.65313">
        <ele>410</ele>
        <time>2023-10-18T06:57:03.174+00:00</time>
      </trkpt>
      <trkpt lat="46.10432" lon="4.65316">
        <ele>410</ele>
        <time>2023-10-18T06:57:17.374+00:00</time>
      </trkpt>
      <trkpt lat="46.10432" lon="4.65317">
        <ele>410</ele>
        <time>2023-10-18T06:57:22.174+00:00</time>
      </trkpt>
      <trkpt lat="46.10433" lon="4.65318">
        <ele>410</ele>
        <time>2023-10-18T06:57:26.774+00:00</time>
      </trkpt>
      <trkpt lat="46.10434" lon="4.65321">
        <ele>408</ele>
        <time>2023-10-18T06:57:31.573+00:00</time>
      </trkpt>
      <trkpt lat="46.10436" lon="4.65324">
        <ele>408</ele>
        <time>2023-10-18T06:57:35.374+00:00</time>
      </trkpt>
      <trkpt lat="46.1044" lon="4.65337">
        <ele>408</ele>
        <time>2023-10-18T06:58:03.114+00:00</time>
      </trkpt>
      <trkpt lat="46.10441" lon="4.6534">
        <ele>408</ele>
        <time>2023-10-18T06:58:07.214+00:00</time>
      </trkpt>
      <trkpt lat="46.10442" lon="4.65346">
        <ele>408</ele>
        <time>2023-10-18T06:58:11.214+00:00</time>
      </trkpt>
      <trkpt lat="46.10443" lon="4.65352">
        <ele>409</ele>
        <time>2023-10-18T06:58:16.414+00:00</time>
      </trkpt>
      <trkpt lat="46.10446" lon="4.65358">
        <ele>409</ele>
        <time>2023-10-18T06:58:21.530+00:00</time>
      </trkpt>
      <trkpt lat="46.10447" lon="4.65362">
        <ele>409</ele>
        <time>2023-10-18T06:58:25.583+00:00</time>
      </trkpt>
      <trkpt lat="46.10448" lon="4.65367">
        <ele>409</ele>
        <time>2023-10-18T06:58:30.114+00:00</time>
      </trkpt>
      <trkpt lat="46.10449" lon="4.65372">
        <ele>409</ele>
        <time>2023-10-18T06:58:34.714+00:00</time>
      </trkpt>
      <trkpt lat="46.10452" lon="4.65373">
        <ele>409</ele>
        <time>2023-10-18T06:58:38.714+00:00</time>
      </trkpt>
      <trkpt lat="46.10455" lon="4.65366">
        <ele>409</ele>
        <time>2023-10-18T06:58:43.234+00:00</time>
      </trkpt>
      <trkpt lat="46.10456" lon="4.65359">
        <ele>409</ele>
        <time>2023-10-18T06:58:47.434+00:00</time>
      </trkpt>
      <trkpt lat="46.10458" lon="4.65355">
        <ele>409</ele>
        <time>2023-10-18T06:58:51.954+00:00</time>
      </trkpt>
      <trkpt lat="46.1046" lon="4.65352">
        <ele>420</ele>
        <time>2023-10-18T06:58:56.494+00:00</time>
      </trkpt>
      <trkpt lat="46.10462" lon="4.65348">
        <ele>420</ele>
        <time>2023-10-18T06:59:01.414+00:00</time>
      </trkpt>
      <trkpt lat="46.10465" lon="4.65344">
        <ele>420</ele>
        <time>2023-10-18T06:59:05.414+00:00</time>
      </trkpt>
      <trkpt lat="46.10467" lon="4.65338">
        <ele>420</ele>
        <time>2023-10-18T06:59:10.514+00:00</time>
      </trkpt>
      <trkpt lat="46.10469" lon="4.65331">
        <ele>420</ele>
        <time>2023-10-18T06:59:15.628+00:00</time>
      </trkpt>
      <trkpt lat="46.1047" lon="4.65325">
        <ele>420</ele>
        <time>2023-10-18T06:59:20.530+00:00</time>
      </trkpt>
      <trkpt lat="46.10471" lon="4.6532">
        <ele>420</ele>
        <time>2023-10-18T06:59:24.874+00:00</time>
      </trkpt>
      <trkpt lat="46.10473" lon="4.65315">
        <ele>418</ele>
        <time>2023-10-18T06:59:28.834+00:00</time>
      </trkpt>
      <trkpt lat="46.10474" lon="4.6531">
        <ele>418</ele>
        <time>2023-10-18T06:59:32.994+00:00</time>
      </trkpt>
      <trkpt lat="46.10477" lon="4.65305">
        <ele>418</ele>
        <time>2023-10-18T06:59:37.694+00:00</time>
      </trkpt>
      <trkpt lat="46.10479" lon="4.653">
        <ele>418</ele>
        <time>2023-10-18T06:59:42.194+00:00</time>
      </trkpt>
      <trkpt lat="46.10481" lon="4.65294">
        <ele>418</ele>
        <time>2023-10-18T06:59:46.394+00:00</time>
      </trkpt>
      <trkpt lat="46.10484" lon="4.65288">
        <ele>416</ele>
        <time>2023-10-18T06:59:51.194+00:00</time>
      </trkpt>
      <trkpt lat="46.10488" lon="4.65284">
        <ele>424</ele>
        <time>2023-10-18T06:59:55.794+00:00</time>
      </trkpt>
      <trkpt lat="46.10491" lon="4.65281">
        <ele>424</ele>
        <time>2023-10-18T06:59:59.994+00:00</time>
      </trkpt>
      <trkpt lat="46.10494" lon="4.65278">
        <ele>424</ele>
        <time>2023-10-18T07:00:04.194+00:00</time>
      </trkpt>
      <trkpt lat="46.10496" lon="4.65273">
        <ele>424</ele>
        <time>2023-10-18T07:00:08.714+00:00</time>
      </trkpt>
      <trkpt lat="46.10499" lon="4.65269">
        <ele>424</ele>
        <time>2023-10-18T07:00:13.294+00:00</time>
      </trkpt>
      <trkpt lat="46.10501" lon="4.65264">
        <ele>424</ele>
        <time>2023-10-18T07:00:17.394+00:00</time>
      </trkpt>
      <trkpt lat="46.10504" lon="4.6526">
        <ele>420</ele>
        <time>2023-10-18T07:00:21.634+00:00</time>
      </trkpt>
      <trkpt lat="46.10508" lon="4.65255">
        <ele>420</ele>
        <time>2023-10-18T07:00:26.150+00:00</time>
      </trkpt>
      <trkpt lat="46.10511" lon="4.65251">
        <ele>420</ele>
        <time>2023-10-18T07:00:30.134+00:00</time>
      </trkpt>
      <trkpt lat="46.10514" lon="4.65247">
        <ele>426</ele>
        <time>2023-10-18T07:00:34.134+00:00</time>
      </trkpt>
      <trkpt lat="46.10517" lon="4.65242">
        <ele>426</ele>
        <time>2023-10-18T07:00:38.134+00:00</time>
      </trkpt>
      <trkpt lat="46.10521" lon="4.65237">
        <ele>426</ele>
        <time>2023-10-18T07:00:42.734+00:00</time>
      </trkpt>
      <trkpt lat="46.10524" lon="4.65232">
        <ele>420</ele>
        <time>2023-10-18T07:00:46.734+00:00</time>
      </trkpt>
      <trkpt lat="46.10528" lon="4.65228">
        <ele>420</ele>
        <time>2023-10-18T07:00:51.334+00:00</time>
      </trkpt>
      <trkpt lat="46.10532" lon="4.65224">
        <ele>420</ele>
        <time>2023-10-18T07:00:56.354+00:00</time>
      </trkpt>
      <trkpt lat="46.10535" lon="4.65221">
        <ele>420</ele>
        <time>2023-10-18T07:01:00.954+00:00</time>
      </trkpt>
      <trkpt lat="46.10538" lon="4.65218">
        <ele>420</ele>
        <time>2023-10-18T07:01:04.954+00:00</time>
      </trkpt>
      <trkpt lat="46.10542" lon="4.65215">
        <ele>426</ele>
        <time>2023-10-18T07:01:09.554+00:00</time>
      </trkpt>
      <trkpt lat="46.10547" lon="4.65213">
        <ele>426</ele>
        <time>2023-10-18T07:01:13.554+00:00</time>
      </trkpt>
      <trkpt lat="46.10551" lon="4.65213">
        <ele>426</ele>
        <time>2023-10-18T07:01:17.954+00:00</time>
      </trkpt>
      <trkpt lat="46.10555" lon="4.65214">
        <ele>426</ele>
        <time>2023-10-18T07:01:22.534+00:00</time>
      </trkpt>
      <trkpt lat="46.1056" lon="4.65213">
        <ele>426</ele>
        <time>2023-10-18T07:01:27.034+00:00</time>
      </trkpt>
      <trkpt lat="46.10564" lon="4.65212">
        <ele>426</ele>
        <time>2023-10-18T07:01:31.034+00:00</time>
      </trkpt>
      <trkpt lat="46.10568" lon="4.65211">
        <ele>426</ele>
        <time>2023-10-18T07:01:35.581+00:00</time>
      </trkpt>
      <trkpt lat="46.10572" lon="4.65212">
        <ele>430</ele>
        <time>2023-10-18T07:01:39.930+00:00</time>
      </trkpt>
      <trkpt lat="46.10576" lon="4.65213">
        <ele>430</ele>
        <time>2023-10-18T07:01:43.974+00:00</time>
      </trkpt>
      <trkpt lat="46.10581" lon="4.65217">
        <ele>430</ele>
        <time>2023-10-18T07:01:49.494+00:00</time>
      </trkpt>
      <trkpt lat="46.10585" lon="4.6522">
        <ele>430</ele>
        <time>2023-10-18T07:01:54.094+00:00</time>
      </trkpt>
      <trkpt lat="46.10588" lon="4.6522">
        <ele>430</ele>
        <time>2023-10-18T07:01:58.694+00:00</time>
      </trkpt>
      <trkpt lat="46.10592" lon="4.65221">
        <ele>430</ele>
        <time>2023-10-18T07:02:02.794+00:00</time>
      </trkpt>
      <trkpt lat="46.10596" lon="4.65223">
        <ele>430</ele>
        <time>2023-10-18T07:02:07.390+00:00</time>
      </trkpt>
      <trkpt lat="46.106" lon="4.65224">
        <ele>432</ele>
        <time>2023-10-18T07:02:11.394+00:00</time>
      </trkpt>
      <trkpt lat="46.10604" lon="4.65226">
        <ele>432</ele>
        <time>2023-10-18T07:02:15.394+00:00</time>
      </trkpt>
      <trkpt lat="46.10609" lon="4.65227">
        <ele>432</ele>
        <time>2023-10-18T07:02:20.580+00:00</time>
      </trkpt>
      <trkpt lat="46.10612" lon="4.65228">
        <ele>432</ele>
        <time>2023-10-18T07:02:25.114+00:00</time>
      </trkpt>
      <trkpt lat="46.10616" lon="4.6523">
        <ele>432</ele>
        <time>2023-10-18T07:02:29.691+00:00</time>
      </trkpt>
      <trkpt lat="46.10619" lon="4.65232">
        <ele>432</ele>
        <time>2023-10-18T07:02:33.714+00:00</time>
      </trkpt>
      <trkpt lat="46.10622" lon="4.65235">
        <ele>432</ele>
        <time>2023-10-18T07:02:38.314+00:00</time>
      </trkpt>
      <trkpt lat="46.10625" lon="4.65238">
        <ele>442</ele>
        <time>2023-10-18T07:02:42.314+00:00</time>
      </trkpt>
      <trkpt lat="46.10626" lon="4.65242">
        <ele>442</ele>
        <time>2023-10-18T07:02:46.314+00:00</time>
      </trkpt>
      <trkpt lat="46.10628" lon="4.65246">
        <ele>442</ele>
        <time>2023-10-18T07:02:50.832+00:00</time>
      </trkpt>
      <trkpt lat="46.1063" lon="4.65251">
        <ele>442</ele>
        <time>2023-10-18T07:02:55.412+00:00</time>
      </trkpt>
      <trkpt lat="46.10629" lon="4.65254">
        <ele>442</ele>
        <time>2023-10-18T07:02:59.414+00:00</time>
      </trkpt>
      <trkpt lat="46.10624" lon="4.65257">
        <ele>439</ele>
        <time>2023-10-18T07:03:03.414+00:00</time>
      </trkpt>
      <trkpt lat="46.10619" lon="4.6526">
        <ele>439</ele>
        <time>2023-10-18T07:03:08.014+00:00</time>
      </trkpt>
      <trkpt lat="46.10615" lon="4.65263">
        <ele>439</ele>
        <time>2023-10-18T07:03:12.114+00:00</time>
      </trkpt>
      <trkpt lat="46.10611" lon="4.65266">
        <ele>446</ele>
        <time>2023-10-18T07:03:16.580+00:00</time>
      </trkpt>
      <trkpt lat="46.10607" lon="4.65268">
        <ele>446</ele>
        <time>2023-10-18T07:03:20.554+00:00</time>
      </trkpt>
      <trkpt lat="46.10602" lon="4.65271">
        <ele>446</ele>
        <time>2023-10-18T07:03:24.754+00:00</time>
      </trkpt>
      <trkpt lat="46.10599" lon="4.65274">
        <ele>446</ele>
        <time>2023-10-18T07:03:28.954+00:00</time>
      </trkpt>
      <trkpt lat="46.10597" lon="4.65277">
        <ele>440</ele>
        <time>2023-10-18T07:03:33.584+00:00</time>
      </trkpt>
      <trkpt lat="46.10594" lon="4.65281">
        <ele>440</ele>
        <time>2023-10-18T07:03:38.174+00:00</time>
      </trkpt>
      <trkpt lat="46.1059" lon="4.6528">
        <ele>440</ele>
        <time>2023-10-18T07:03:42.374+00:00</time>
      </trkpt>
      <trkpt lat="46.10586" lon="4.65277">
        <ele>440</ele>
        <time>2023-10-18T07:03:46.574+00:00</time>
      </trkpt>
      <trkpt lat="46.10581" lon="4.65272">
        <ele>440</ele>
        <time>2023-10-18T07:03:51.074+00:00</time>
      </trkpt>
      <trkpt lat="46.10578" lon="4.65267">
        <ele>440</ele>
        <time>2023-10-18T07:03:55.414+00:00</time>
      </trkpt>
      <trkpt lat="46.10577" lon="4.65264">
        <ele>440</ele>
        <time>2023-10-18T07:03:59.414+00:00</time>
      </trkpt>
      <trkpt lat="46.10576" lon="4.65264">
        <ele>440</ele>
        <time>2023-10-18T07:04:04.032+00:00</time>
      </trkpt>
      <trkpt lat="46.10571" lon="4.65266">
        <ele>440</ele>
        <time>2023-10-18T07:04:08.414+00:00</time>
      </trkpt>
      <trkpt lat="46.10565" lon="4.65265">
        <ele>437</ele>
        <time>2023-10-18T07:04:13.014+00:00</time>
      </trkpt>
      <trkpt lat="46.10561" lon="4.65259">
        <ele>432</ele>
        <time>2023-10-18T07:04:17.582+00:00</time>
      </trkpt>
      <trkpt lat="46.10559" lon="4.65256">
        <ele>432</ele>
        <time>2023-10-18T07:04:21.583+00:00</time>
      </trkpt>
      <trkpt lat="46.1056" lon="4.65256">
        <ele>432</ele>
        <time>2023-10-18T07:04:26.114+00:00</time>
      </trkpt>
      <trkpt lat="46.10559" lon="4.65254">
        <ele>432</ele>
        <time>2023-10-18T07:04:30.730+00:00</time>
      </trkpt>
      <trkpt lat="46.10556" lon="4.65249">
        <ele>432</ele>
        <time>2023-10-18T07:04:35.454+00:00</time>
      </trkpt>
      <trkpt lat="46.10551" lon="4.65247">
        <ele>432</ele>
        <time>2023-10-18T07:04:39.734+00:00</time>
      </trkpt>
      <trkpt lat="46.1055" lon="4.65246">
        <ele>432</ele>
        <time>2023-10-18T07:09:43.414+00:00</time>
      </trkpt>
      <trkpt lat="46.10551" lon="4.65247">
        <ele>432</ele>
        <time>2023-10-18T07:09:48.054+00:00</time>
      </trkpt>
      <trkpt lat="46.10551" lon="4.6525">
        <ele>432</ele>
        <time>2023-10-18T07:09:52.014+00:00</time>
      </trkpt>
      <trkpt lat="46.10553" lon="4.65254">
        <ele>432</ele>
        <time>2023-10-18T07:09:56.434+00:00</time>
      </trkpt>
      <trkpt lat="46.10558" lon="4.65262">
        <ele>432</ele>
        <time>2023-10-18T07:10:01.034+00:00</time>
      </trkpt>
      <trkpt lat="46.10556" lon="4.65265">
        <ele>437</ele>
        <time>2023-10-18T07:10:49.154+00:00</time>
      </trkpt>
      <trkpt lat="46.1056" lon="4.65268">
        <ele>437</ele>
        <time>2023-10-18T07:10:53.754+00:00</time>
      </trkpt>
      <trkpt lat="46.10564" lon="4.65269">
        <ele>437</ele>
        <time>2023-10-18T07:10:58.333+00:00</time>
      </trkpt>
      <trkpt lat="46.10567" lon="4.65272">
        <ele>437</ele>
        <time>2023-10-18T07:11:02.154+00:00</time>
      </trkpt>
      <trkpt lat="46.1057" lon="4.65277">
        <ele>440</ele>
        <time>2023-10-18T07:11:06.754+00:00</time>
      </trkpt>
      <trkpt lat="46.10574" lon="4.6528">
        <ele>440</ele>
        <time>2023-10-18T07:11:10.954+00:00</time>
      </trkpt>
      <trkpt lat="46.10578" lon="4.65284">
        <ele>440</ele>
        <time>2023-10-18T07:11:15.693+00:00</time>
      </trkpt>
      <trkpt lat="46.10579" lon="4.65286">
        <ele>440</ele>
        <time>2023-10-18T07:11:20.154+00:00</time>
      </trkpt>
      <trkpt lat="46.1058" lon="4.6529">
        <ele>440</ele>
        <time>2023-10-18T07:11:24.254+00:00</time>
      </trkpt>
      <trkpt lat="46.10586" lon="4.65293">
        <ele>443</ele>
        <time>2023-10-18T07:12:23.574+00:00</time>
      </trkpt>
      <trkpt lat="46.10587" lon="4.65293">
        <ele>443</ele>
        <time>2023-10-18T07:12:27.585+00:00</time>
      </trkpt>
      <trkpt lat="46.10588" lon="4.65293">
        <ele>443</ele>
        <time>2023-10-18T07:12:31.932+00:00</time>
      </trkpt>
      <trkpt lat="46.10587" lon="4.653">
        <ele>443</ele>
        <time>2023-10-18T07:12:35.834+00:00</time>
      </trkpt>
      <trkpt lat="46.10585" lon="4.65308">
        <ele>443</ele>
        <time>2023-10-18T07:12:39.834+00:00</time>
      </trkpt>
      <trkpt lat="46.10582" lon="4.65311">
        <ele>443</ele>
        <time>2023-10-18T07:12:44.434+00:00</time>
      </trkpt>
      <trkpt lat="46.10576" lon="4.65315">
        <ele>443</ele>
        <time>2023-10-18T07:12:49.013+00:00</time>
      </trkpt>
      <trkpt lat="46.10571" lon="4.65316">
        <ele>443</ele>
        <time>2023-10-18T07:12:52.954+00:00</time>
      </trkpt>
      <trkpt lat="46.10568" lon="4.65315">
        <ele>438</ele>
        <time>2023-10-18T07:12:57.154+00:00</time>
      </trkpt>
      <trkpt lat="46.10567" lon="4.65315">
        <ele>438</ele>
        <time>2023-10-18T07:13:02.154+00:00</time>
      </trkpt>
      <trkpt lat="46.10567" lon="4.65314">
        <ele>438</ele>
        <time>2023-10-18T07:13:06.754+00:00</time>
      </trkpt>
      <trkpt lat="46.10566" lon="4.65318">
        <ele>438</ele>
        <time>2023-10-18T07:13:11.354+00:00</time>
      </trkpt>
      <trkpt lat="46.10564" lon="4.65325">
        <ele>440</ele>
        <time>2023-10-18T07:13:15.954+00:00</time>
      </trkpt>
      <trkpt lat="46.10563" lon="4.6533">
        <ele>440</ele>
        <time>2023-10-18T07:13:20.154+00:00</time>
      </trkpt>
      <trkpt lat="46.10561" lon="4.65334">
        <ele>440</ele>
        <time>2023-10-18T07:13:24.394+00:00</time>
      </trkpt>
      <trkpt lat="46.10562" lon="4.65336">
        <ele>440</ele>
        <time>2023-10-18T07:13:28.594+00:00</time>
      </trkpt>
      <trkpt lat="46.10562" lon="4.6534">
        <ele>440</ele>
        <time>2023-10-18T07:13:33.094+00:00</time>
      </trkpt>
      <trkpt lat="46.1056" lon="4.65345">
        <ele>440</ele>
        <time>2023-10-18T07:13:37.194+00:00</time>
      </trkpt>
      <trkpt lat="46.10556" lon="4.6535">
        <ele>443</ele>
        <time>2023-10-18T07:13:41.214+00:00</time>
      </trkpt>
      <trkpt lat="46.10554" lon="4.65358">
        <ele>443</ele>
        <time>2023-10-18T07:13:45.714+00:00</time>
      </trkpt>
      <trkpt lat="46.10556" lon="4.65363">
        <ele>443</ele>
        <time>2023-10-18T07:13:49.714+00:00</time>
      </trkpt>
      <trkpt lat="46.10557" lon="4.65367">
        <ele>443</ele>
        <time>2023-10-18T07:13:54.577+00:00</time>
      </trkpt>
      <trkpt lat="46.10558" lon="4.65371">
        <ele>443</ele>
        <time>2023-10-18T07:13:59.154+00:00</time>
      </trkpt>
      <trkpt lat="46.10558" lon="4.65373">
        <ele>443</ele>
        <time>2023-10-18T07:14:03.694+00:00</time>
      </trkpt>
      <trkpt lat="46.10557" lon="4.65379">
        <ele>449</ele>
        <time>2023-10-18T07:14:07.794+00:00</time>
      </trkpt>
      <trkpt lat="46.10557" lon="4.65385">
        <ele>449</ele>
        <time>2023-10-18T07:14:11.994+00:00</time>
      </trkpt>
      <trkpt lat="46.10553" lon="4.6539">
        <ele>449</ele>
        <time>2023-10-18T07:14:16.694+00:00</time>
      </trkpt>
      <trkpt lat="46.10553" lon="4.65395">
        <ele>449</ele>
        <time>2023-10-18T07:14:21.294+00:00</time>
      </trkpt>
      <trkpt lat="46.10556" lon="4.654">
        <ele>449</ele>
        <time>2023-10-18T07:14:25.114+00:00</time>
      </trkpt>
      <trkpt lat="46.10558" lon="4.65402">
        <ele>449</ele>
        <time>2023-10-18T07:14:29.714+00:00</time>
      </trkpt>
      <trkpt lat="46.10557" lon="4.65405">
        <ele>452</ele>
        <time>2023-10-18T07:14:33.814+00:00</time>
      </trkpt>
      <trkpt lat="46.10557" lon="4.6541">
        <ele>452</ele>
        <time>2023-10-18T07:14:38.373+00:00</time>
      </trkpt>
      <trkpt lat="46.10555" lon="4.65414">
        <ele>452</ele>
        <time>2023-10-18T07:14:42.314+00:00</time>
      </trkpt>
      <trkpt lat="46.10551" lon="4.65419">
        <ele>452</ele>
        <time>2023-10-18T07:14:47.114+00:00</time>
      </trkpt>
      <trkpt lat="46.1055" lon="4.65425">
        <ele>452</ele>
        <time>2023-10-18T07:14:51.614+00:00</time>
      </trkpt>
      <trkpt lat="46.10553" lon="4.65428">
        <ele>452</ele>
        <time>2023-10-18T07:14:55.734+00:00</time>
      </trkpt>
      <trkpt lat="46.1056" lon="4.65431">
        <ele>452</ele>
        <time>2023-10-18T07:15:09.832+00:00</time>
      </trkpt>
      <trkpt lat="46.10561" lon="4.65432">
        <ele>452</ele>
        <time>2023-10-18T07:15:14.234+00:00</time>
      </trkpt>
      <trkpt lat="46.10562" lon="4.65433">
        <ele>452</ele>
        <time>2023-10-18T07:15:19.132+00:00</time>
      </trkpt>
      <trkpt lat="46.10564" lon="4.65433">
        <ele>452</ele>
        <time>2023-10-18T07:15:23.114+00:00</time>
      </trkpt>
      <trkpt lat="46.10565" lon="4.65433">
        <ele>452</ele>
        <time>2023-10-18T07:15:27.554+00:00</time>
      </trkpt>
      <trkpt lat="46.10565" lon="4.6543">
        <ele>452</ele>
        <time>2023-10-18T07:15:41.579+00:00</time>
      </trkpt>
      <trkpt lat="46.10566" lon="4.65429">
        <ele>452</ele>
        <time>2023-10-18T07:15:46.134+00:00</time>
      </trkpt>
      <trkpt lat="46.10567" lon="4.65427">
        <ele>452</ele>
        <time>2023-10-18T07:15:51.313+00:00</time>
      </trkpt>
      <trkpt lat="46.10569" lon="4.65424">
        <ele>452</ele>
        <time>2023-10-18T07:15:55.334+00:00</time>
      </trkpt>
      <trkpt lat="46.10573" lon="4.65422">
        <ele>458</ele>
        <time>2023-10-18T07:15:59.354+00:00</time>
      </trkpt>
      <trkpt lat="46.10578" lon="4.65424">
        <ele>458</ele>
        <time>2023-10-18T07:16:07.954+00:00</time>
      </trkpt>
      <trkpt lat="46.1058" lon="4.65424">
        <ele>458</ele>
        <time>2023-10-18T07:16:12.054+00:00</time>
      </trkpt>
      <trkpt lat="46.10582" lon="4.65422">
        <ele>458</ele>
        <time>2023-10-18T07:16:16.531+00:00</time>
      </trkpt>
      <trkpt lat="46.10584" lon="4.65423">
        <ele>458</ele>
        <time>2023-10-18T07:16:20.474+00:00</time>
      </trkpt>
      <trkpt lat="46.10587" lon="4.65426">
        <ele>458</ele>
        <time>2023-10-18T07:16:25.582+00:00</time>
      </trkpt>
      <trkpt lat="46.10588" lon="4.65429">
        <ele>458</ele>
        <time>2023-10-18T07:16:30.352+00:00</time>
      </trkpt>
      <trkpt lat="46.10591" lon="4.65432">
        <ele>459</ele>
        <time>2023-10-18T07:16:34.374+00:00</time>
      </trkpt>
      <trkpt lat="46.10594" lon="4.65435">
        <ele>459</ele>
        <time>2023-10-18T07:16:39.434+00:00</time>
      </trkpt>
      <trkpt lat="46.10597" lon="4.65435">
        <ele>466</ele>
        <time>2023-10-18T07:16:44.034+00:00</time>
      </trkpt>
      <trkpt lat="46.10599" lon="4.65435">
        <ele>466</ele>
        <time>2023-10-18T07:16:48.581+00:00</time>
      </trkpt>
      <trkpt lat="46.10601" lon="4.65439">
        <ele>466</ele>
        <time>2023-10-18T07:16:52.874+00:00</time>
      </trkpt>
      <trkpt lat="46.10603" lon="4.65445">
        <ele>466</ele>
        <time>2023-10-18T07:16:57.414+00:00</time>
      </trkpt>
      <trkpt lat="46.10605" lon="4.65451">
        <ele>466</ele>
        <time>2023-10-18T07:17:02.274+00:00</time>
      </trkpt>
      <trkpt lat="46.10605" lon="4.65458">
        <ele>466</ele>
        <time>2023-10-18T07:17:34.582+00:00</time>
      </trkpt>
      <trkpt lat="46.10608" lon="4.65462">
        <ele>466</ele>
        <time>2023-10-18T07:17:39.134+00:00</time>
      </trkpt>
      <trkpt lat="46.10609" lon="4.65464">
        <ele>466</ele>
        <time>2023-10-18T07:17:43.134+00:00</time>
      </trkpt>
      <trkpt lat="46.10611" lon="4.65468">
        <ele>466</ele>
        <time>2023-10-18T07:17:47.734+00:00</time>
      </trkpt>
      <trkpt lat="46.10613" lon="4.65473">
        <ele>466</ele>
        <time>2023-10-18T07:17:51.734+00:00</time>
      </trkpt>
      <trkpt lat="46.10614" lon="4.65486">
        <ele>466</ele>
        <time>2023-10-18T07:18:01.434+00:00</time>
      </trkpt>
      <trkpt lat="46.10614" lon="4.65486">
        <ele>466</ele>
        <time>2023-10-18T07:18:05.932+00:00</time>
      </trkpt>
      <trkpt lat="46.10614" lon="4.65487">
        <ele>464</ele>
        <time>2023-10-18T07:18:10.554+00:00</time>
      </trkpt>
      <trkpt lat="46.10613" lon="4.65488">
        <ele>464</ele>
        <time>2023-10-18T07:18:14.754+00:00</time>
      </trkpt>
      <trkpt lat="46.10612" lon="4.65493">
        <ele>464</ele>
        <time>2023-10-18T07:18:19.354+00:00</time>
      </trkpt>
      <trkpt lat="46.10613" lon="4.655">
        <ele>464</ele>
        <time>2023-10-18T07:18:23.294+00:00</time>
      </trkpt>
      <trkpt lat="46.10614" lon="4.65505">
        <ele>464</ele>
        <time>2023-10-18T07:18:27.314+00:00</time>
      </trkpt>
      <trkpt lat="46.10618" lon="4.65509">
        <ele>464</ele>
        <time>2023-10-18T07:18:32.413+00:00</time>
      </trkpt>
      <trkpt lat="46.10622" lon="4.65513">
        <ele>464</ele>
        <time>2023-10-18T07:18:36.214+00:00</time>
      </trkpt>
      <trkpt lat="46.10626" lon="4.65516">
        <ele>467</ele>
        <time>2023-10-18T07:18:40.774+00:00</time>
      </trkpt>
      <trkpt lat="46.10628" lon="4.6552">
        <ele>467</ele>
        <time>2023-10-18T07:18:44.974+00:00</time>
      </trkpt>
      <trkpt lat="46.1063" lon="4.65524">
        <ele>467</ele>
        <time>2023-10-18T07:18:49.593+00:00</time>
      </trkpt>
      <trkpt lat="46.10632" lon="4.65526">
        <ele>467</ele>
        <time>2023-10-18T07:18:53.579+00:00</time>
      </trkpt>
      <trkpt lat="46.10634" lon="4.65527">
        <ele>467</ele>
        <time>2023-10-18T07:18:57.494+00:00</time>
      </trkpt>
      <trkpt lat="46.10636" lon="4.65533">
        <ele>467</ele>
        <time>2023-10-18T07:19:02.112+00:00</time>
      </trkpt>
      <trkpt lat="46.10639" lon="4.65538">
        <ele>467</ele>
        <time>2023-10-18T07:19:06.094+00:00</time>
      </trkpt>
      <trkpt lat="46.10643" lon="4.65544">
        <ele>465</ele>
        <time>2023-10-18T07:19:10.694+00:00</time>
      </trkpt>
      <trkpt lat="46.10646" lon="4.65547">
        <ele>465</ele>
        <time>2023-10-18T07:19:14.794+00:00</time>
      </trkpt>
      <trkpt lat="46.1065" lon="4.65551">
        <ele>465</ele>
        <time>2023-10-18T07:19:19.513+00:00</time>
      </trkpt>
      <trkpt lat="46.10653" lon="4.65554">
        <ele>465</ele>
        <time>2023-10-18T07:19:23.414+00:00</time>
      </trkpt>
      <trkpt lat="46.10656" lon="4.65555">
        <ele>469</ele>
        <time>2023-10-18T07:19:28.014+00:00</time>
      </trkpt>
      <trkpt lat="46.10659" lon="4.65554">
        <ele>469</ele>
        <time>2023-10-18T07:19:32.474+00:00</time>
      </trkpt>
      <trkpt lat="46.1066" lon="4.65552">
        <ele>469</ele>
        <time>2023-10-18T07:19:36.574+00:00</time>
      </trkpt>
      <trkpt lat="46.10662" lon="4.65549">
        <ele>469</ele>
        <time>2023-10-18T07:19:41.174+00:00</time>
      </trkpt>
      <trkpt lat="46.10664" lon="4.65548">
        <ele>469</ele>
        <time>2023-10-18T07:19:45.134+00:00</time>
      </trkpt>
      <trkpt lat="46.10666" lon="4.65545">
        <ele>469</ele>
        <time>2023-10-18T07:19:49.734+00:00</time>
      </trkpt>
      <trkpt lat="46.10668" lon="4.65539">
        <ele>471</ele>
        <time>2023-10-18T07:19:54.234+00:00</time>
      </trkpt>
      <trkpt lat="46.1067" lon="4.65534">
        <ele>471</ele>
        <time>2023-10-18T07:19:58.334+00:00</time>
      </trkpt>
      <trkpt lat="46.10672" lon="4.65529">
        <ele>471</ele>
        <time>2023-10-18T07:20:03.353+00:00</time>
      </trkpt>
      <trkpt lat="46.10672" lon="4.65525">
        <ele>471</ele>
        <time>2023-10-18T07:20:07.434+00:00</time>
      </trkpt>
      <trkpt lat="46.10673" lon="4.65521">
        <ele>471</ele>
        <time>2023-10-18T07:20:11.434+00:00</time>
      </trkpt>
      <trkpt lat="46.10675" lon="4.65517">
        <ele>471</ele>
        <time>2023-10-18T07:20:16.154+00:00</time>
      </trkpt>
      <trkpt lat="46.10677" lon="4.65516">
        <ele>471</ele>
        <time>2023-10-18T07:20:20.754+00:00</time>
      </trkpt>
      <trkpt lat="46.10679" lon="4.65514">
        <ele>471</ele>
        <time>2023-10-18T07:20:24.954+00:00</time>
      </trkpt>
      <trkpt lat="46.10682" lon="4.65511">
        <ele>477</ele>
        <time>2023-10-18T07:20:29.580+00:00</time>
      </trkpt>
      <trkpt lat="46.10683" lon="4.65509">
        <ele>477</ele>
        <time>2023-10-18T07:20:34.054+00:00</time>
      </trkpt>
      <trkpt lat="46.10687" lon="4.65508">
        <ele>477</ele>
        <time>2023-10-18T07:20:38.594+00:00</time>
      </trkpt>
      <trkpt lat="46.10689" lon="4.65509">
        <ele>477</ele>
        <time>2023-10-18T07:20:42.581+00:00</time>
      </trkpt>
      <trkpt lat="46.10691" lon="4.65508">
        <ele>477</ele>
        <time>2023-10-18T07:20:46.774+00:00</time>
      </trkpt>
      <trkpt lat="46.10693" lon="4.65505">
        <ele>477</ele>
        <time>2023-10-18T07:20:50.974+00:00</time>
      </trkpt>
      <trkpt lat="46.10702" lon="4.65502">
        <ele>477</ele>
        <time>2023-10-18T07:21:40.581+00:00</time>
      </trkpt>
      <trkpt lat="46.10702" lon="4.655">
        <ele>477</ele>
        <time>2023-10-18T07:21:45.354+00:00</time>
      </trkpt>
      <trkpt lat="46.10708" lon="4.65498">
        <ele>477</ele>
        <time>2023-10-18T07:21:50.294+00:00</time>
      </trkpt>
      <trkpt lat="46.10714" lon="4.65498">
        <ele>480</ele>
        <time>2023-10-18T07:21:54.494+00:00</time>
      </trkpt>
      <trkpt lat="46.10717" lon="4.655">
        <ele>480</ele>
        <time>2023-10-18T07:21:58.194+00:00</time>
      </trkpt>
      <trkpt lat="46.10714" lon="4.65502">
        <ele>480</ele>
        <time>2023-10-18T07:22:12.554+00:00</time>
      </trkpt>
      <trkpt lat="46.10714" lon="4.65502">
        <ele>480</ele>
        <time>2023-10-18T07:22:16.354+00:00</time>
      </trkpt>
      <trkpt lat="46.10715" lon="4.65501">
        <ele>480</ele>
        <time>2023-10-18T07:22:21.174+00:00</time>
      </trkpt>
      <trkpt lat="46.10721" lon="4.65499">
        <ele>480</ele>
        <time>2023-10-18T07:22:25.494+00:00</time>
      </trkpt>
      <trkpt lat="46.10728" lon="4.655">
        <ele>480</ele>
        <time>2023-10-18T07:22:29.774+00:00</time>
      </trkpt>
      <trkpt lat="46.10738" lon="4.65507">
        <ele>480</ele>
        <time>2023-10-18T07:25:07.134+00:00</time>
      </trkpt>
      <trkpt lat="46.1074" lon="4.65504">
        <ele>480</ele>
        <time>2023-10-18T07:25:11.654+00:00</time>
      </trkpt>
      <trkpt lat="46.10741" lon="4.65498">
        <ele>480</ele>
        <time>2023-10-18T07:25:16.194+00:00</time>
      </trkpt>
      <trkpt lat="46.10742" lon="4.65494">
        <ele>480</ele>
        <time>2023-10-18T07:25:20.294+00:00</time>
      </trkpt>
      <trkpt lat="46.10746" lon="4.65489">
        <ele>480</ele>
        <time>2023-10-18T07:25:24.394+00:00</time>
      </trkpt>
      <trkpt lat="46.10751" lon="4.65485">
        <ele>481</ele>
        <time>2023-10-18T07:25:29.334+00:00</time>
      </trkpt>
      <trkpt lat="46.10754" lon="4.6548">
        <ele>481</ele>
        <time>2023-10-18T07:25:33.554+00:00</time>
      </trkpt>
      <trkpt lat="46.10757" lon="4.65477">
        <ele>481</ele>
        <time>2023-10-18T07:25:37.794+00:00</time>
      </trkpt>
      <trkpt lat="46.1076" lon="4.65476">
        <ele>481</ele>
        <time>2023-10-18T07:25:42.134+00:00</time>
      </trkpt>
      <trkpt lat="46.1076" lon="4.65477">
        <ele>481</ele>
        <time>2023-10-18T07:25:46.584+00:00</time>
      </trkpt>
      <trkpt lat="46.1076" lon="4.65476">
        <ele>481</ele>
        <time>2023-10-18T07:25:51.113+00:00</time>
      </trkpt>
      <trkpt lat="46.10763" lon="4.65472">
        <ele>481</ele>
        <time>2023-10-18T07:25:55.094+00:00</time>
      </trkpt>
      <trkpt lat="46.10766" lon="4.65469">
        <ele>479</ele>
        <time>2023-10-18T07:25:58.994+00:00</time>
      </trkpt>
      <trkpt lat="46.10768" lon="4.65468">
        <ele>479</ele>
        <time>2023-10-18T07:26:03.594+00:00</time>
      </trkpt>
      <trkpt lat="46.10767" lon="4.6547">
        <ele>479</ele>
        <time>2023-10-18T07:26:21.912+00:00</time>
      </trkpt>
      <trkpt lat="46.10768" lon="4.65469">
        <ele>479</ele>
        <time>2023-10-18T07:26:25.834+00:00</time>
      </trkpt>
      <trkpt lat="46.10773" lon="4.65468">
        <ele>479</ele>
        <time>2023-10-18T07:26:30.354+00:00</time>
      </trkpt>
      <trkpt lat="46.10775" lon="4.65463">
        <ele>479</ele>
        <time>2023-10-18T07:26:34.394+00:00</time>
      </trkpt>
      <trkpt lat="46.10776" lon="4.65455">
        <ele>477</ele>
        <time>2023-10-18T07:26:38.932+00:00</time>
      </trkpt>
      <trkpt lat="46.10775" lon="4.65448">
        <ele>477</ele>
        <time>2023-10-18T07:26:42.994+00:00</time>
      </trkpt>
      <trkpt lat="46.10776" lon="4.65442">
        <ele>477</ele>
        <time>2023-10-18T07:26:47.194+00:00</time>
      </trkpt>
      <trkpt lat="46.10778" lon="4.65436">
        <ele>477</ele>
        <time>2023-10-18T07:26:51.394+00:00</time>
      </trkpt>
      <trkpt lat="46.1078" lon="4.65432">
        <ele>477</ele>
        <time>2023-10-18T07:26:55.754+00:00</time>
      </trkpt>
      <trkpt lat="46.10782" lon="4.65427">
        <ele>475</ele>
        <time>2023-10-18T07:27:00.094+00:00</time>
      </trkpt>
      <trkpt lat="46.10785" lon="4.65422">
        <ele>475</ele>
        <time>2023-10-18T07:27:03.954+00:00</time>
      </trkpt>
      <trkpt lat="46.10788" lon="4.65417">
        <ele>475</ele>
        <time>2023-10-18T07:27:08.585+00:00</time>
      </trkpt>
      <trkpt lat="46.10792" lon="4.65412">
        <ele>477</ele>
        <time>2023-10-18T07:27:12.713+00:00</time>
      </trkpt>
      <trkpt lat="46.10797" lon="4.65408">
        <ele>477</ele>
        <time>2023-10-18T07:27:17.194+00:00</time>
      </trkpt>
      <trkpt lat="46.10801" lon="4.65403">
        <ele>477</ele>
        <time>2023-10-18T07:27:22.114+00:00</time>
      </trkpt>
      <trkpt lat="46.10804" lon="4.65398">
        <ele>475</ele>
        <time>2023-10-18T07:27:26.574+00:00</time>
      </trkpt>
      <trkpt lat="46.10806" lon="4.65392">
        <ele>475</ele>
        <time>2023-10-18T07:27:31.214+00:00</time>
      </trkpt>
      <trkpt lat="46.10808" lon="4.65389">
        <ele>475</ele>
        <time>2023-10-18T07:27:35.492+00:00</time>
      </trkpt>
      <trkpt lat="46.10809" lon="4.65386">
        <ele>475</ele>
        <time>2023-10-18T07:27:39.814+00:00</time>
      </trkpt>
      <trkpt lat="46.10813" lon="4.65381">
        <ele>475</ele>
        <time>2023-10-18T07:27:43.834+00:00</time>
      </trkpt>
      <trkpt lat="46.10818" lon="4.65376">
        <ele>475</ele>
        <time>2023-10-18T07:27:48.414+00:00</time>
      </trkpt>
      <trkpt lat="46.10821" lon="4.65373">
        <ele>477</ele>
        <time>2023-10-18T07:27:52.414+00:00</time>
      </trkpt>
      <trkpt lat="46.10823" lon="4.65371">
        <ele>477</ele>
        <time>2023-10-18T07:27:56.914+00:00</time>
      </trkpt>
      <trkpt lat="46.10826" lon="4.65371">
        <ele>477</ele>
        <time>2023-10-18T07:28:01.034+00:00</time>
      </trkpt>
      <trkpt lat="46.1083" lon="4.65368">
        <ele>477</ele>
        <time>2023-10-18T07:28:05.034+00:00</time>
      </trkpt>
      <trkpt lat="46.10834" lon="4.65366">
        <ele>477</ele>
        <time>2023-10-18T07:28:09.534+00:00</time>
      </trkpt>
      <trkpt lat="46.10839" lon="4.65364">
        <ele>477</ele>
        <time>2023-10-18T07:28:13.954+00:00</time>
      </trkpt>
      <trkpt lat="46.10843" lon="4.65363">
        <ele>477</ele>
        <time>2023-10-18T07:28:18.154+00:00</time>
      </trkpt>
      <trkpt lat="46.10846" lon="4.65364">
        <ele>477</ele>
        <time>2023-10-18T07:28:22.174+00:00</time>
      </trkpt>
      <trkpt lat="46.10855" lon="4.65365">
        <ele>482</ele>
        <time>2023-10-18T07:28:41.014+00:00</time>
      </trkpt>
      <trkpt lat="46.10857" lon="4.6536">
        <ele>482</ele>
        <time>2023-10-18T07:28:45.014+00:00</time>
      </trkpt>
      <trkpt lat="46.10859" lon="4.65353">
        <ele>482</ele>
        <time>2023-10-18T07:28:49.014+00:00</time>
      </trkpt>
      <trkpt lat="46.10861" lon="4.65347">
        <ele>482</ele>
        <time>2023-10-18T07:28:53.581+00:00</time>
      </trkpt>
      <trkpt lat="46.10862" lon="4.65342">
        <ele>479</ele>
        <time>2023-10-18T07:28:58.114+00:00</time>
      </trkpt>
      <trkpt lat="46.10864" lon="4.65343">
        <ele>479</ele>
        <time>2023-10-18T07:29:35.579+00:00</time>
      </trkpt>
      <trkpt lat="46.10868" lon="4.65339">
        <ele>479</ele>
        <time>2023-10-18T07:29:40.583+00:00</time>
      </trkpt>
      <trkpt lat="46.10871" lon="4.65338">
        <ele>479</ele>
        <time>2023-10-18T07:29:45.094+00:00</time>
      </trkpt>
      <trkpt lat="46.10875" lon="4.65338">
        <ele>481</ele>
        <time>2023-10-18T07:29:49.694+00:00</time>
      </trkpt>
      <trkpt lat="46.10878" lon="4.65336">
        <ele>481</ele>
        <time>2023-10-18T07:29:54.294+00:00</time>
      </trkpt>
      <trkpt lat="46.10882" lon="4.65323">
        <ele>481</ele>
        <time>2023-10-18T07:31:10.194+00:00</time>
      </trkpt>
      <trkpt lat="46.10882" lon="4.65322">
        <ele>481</ele>
        <time>2023-10-18T07:31:14.834+00:00</time>
      </trkpt>
      <trkpt lat="46.10881" lon="4.65319">
        <ele>475</ele>
        <time>2023-10-18T07:31:18.834+00:00</time>
      </trkpt>
      <trkpt lat="46.10879" lon="4.65315">
        <ele>475</ele>
        <time>2023-10-18T07:31:23.594+00:00</time>
      </trkpt>
      <trkpt lat="46.10875" lon="4.65311">
        <ele>475</ele>
        <time>2023-10-18T07:31:27.994+00:00</time>
      </trkpt>
      <trkpt lat="46.10873" lon="4.65304">
        <ele>475</ele>
        <time>2023-10-18T07:31:31.994+00:00</time>
      </trkpt>
      <trkpt lat="46.10868" lon="4.653">
        <ele>475</ele>
        <time>2023-10-18T07:31:36.574+00:00</time>
      </trkpt>
      <trkpt lat="46.10865" lon="4.65301">
        <ele>475</ele>
        <time>2023-10-18T07:31:40.774+00:00</time>
      </trkpt>
      <trkpt lat="46.10861" lon="4.65302">
        <ele>475</ele>
        <time>2023-10-18T07:31:44.814+00:00</time>
      </trkpt>
      <trkpt lat="46.10857" lon="4.65303">
        <ele>475</ele>
        <time>2023-10-18T07:31:49.374+00:00</time>
      </trkpt>
      <trkpt lat="46.10854" lon="4.65306">
        <ele>475</ele>
        <time>2023-10-18T07:31:53.334+00:00</time>
      </trkpt>
      <trkpt lat="46.10849" lon="4.65307">
        <ele>475</ele>
        <time>2023-10-18T07:31:57.734+00:00</time>
      </trkpt>
      <trkpt lat="46.10845" lon="4.65307">
        <ele>470</ele>
        <time>2023-10-18T07:32:02.134+00:00</time>
      </trkpt>
      <trkpt lat="46.10842" lon="4.65311">
        <ele>470</ele>
        <time>2023-10-18T07:32:06.134+00:00</time>
      </trkpt>
      <trkpt lat="46.10837" lon="4.65313">
        <ele>470</ele>
        <time>2023-10-18T07:32:10.634+00:00</time>
      </trkpt>
      <trkpt lat="46.10831" lon="4.65314">
        <ele>470</ele>
        <time>2023-10-18T07:32:15.074+00:00</time>
      </trkpt>
      <trkpt lat="46.10828" lon="4.65311">
        <ele>470</ele>
        <time>2023-10-18T07:32:19.054+00:00</time>
      </trkpt>
      <trkpt lat="46.10828" lon="4.65304">
        <ele>470</ele>
        <time>2023-10-18T07:32:23.154+00:00</time>
      </trkpt>
      <trkpt lat="46.10831" lon="4.65296">
        <ele>470</ele>
        <time>2023-10-18T07:32:28.294+00:00</time>
      </trkpt>
      <trkpt lat="46.10833" lon="4.65293">
        <ele>470</ele>
        <time>2023-10-18T07:32:32.314+00:00</time>
      </trkpt>
      <trkpt lat="46.10837" lon="4.65289">
        <ele>465</ele>
        <time>2023-10-18T07:32:36.834+00:00</time>
      </trkpt>
      <trkpt lat="46.10843" lon="4.65283">
        <ele>465</ele>
        <time>2023-10-18T07:32:45.314+00:00</time>
      </trkpt>
      <trkpt lat="46.10844" lon="4.65281">
        <ele>465</ele>
        <time>2023-10-18T07:32:49.814+00:00</time>
      </trkpt>
      <trkpt lat="46.10845" lon="4.6528">
        <ele>465</ele>
        <time>2023-10-18T07:32:54.353+00:00</time>
      </trkpt>
      <trkpt lat="46.10848" lon="4.65278">
        <ele>469</ele>
        <time>2023-10-18T07:32:58.154+00:00</time>
      </trkpt>
      <trkpt lat="46.10852" lon="4.65273">
        <ele>469</ele>
        <time>2023-10-18T07:33:02.954+00:00</time>
      </trkpt>
      <trkpt lat="46.10856" lon="4.65271">
        <ele>469</ele>
        <time>2023-10-18T07:33:06.954+00:00</time>
      </trkpt>
      <trkpt lat="46.1086" lon="4.6527">
        <ele>469</ele>
        <time>2023-10-18T07:33:11.354+00:00</time>
      </trkpt>
      <trkpt lat="46.10864" lon="4.65269">
        <ele>469</ele>
        <time>2023-10-18T07:33:15.954+00:00</time>
      </trkpt>
      <trkpt lat="46.10869" lon="4.65267">
        <ele>469</ele>
        <time>2023-10-18T07:33:19.974+00:00</time>
      </trkpt>
      <trkpt lat="46.10871" lon="4.65262">
        <ele>463</ele>
        <time>2023-10-18T07:33:24.582+00:00</time>
      </trkpt>
      <trkpt lat="46.10875" lon="4.65261">
        <ele>463</ele>
        <time>2023-10-18T07:33:28.774+00:00</time>
      </trkpt>
      <trkpt lat="46.10878" lon="4.65259">
        <ele>463</ele>
        <time>2023-10-18T07:33:32.834+00:00</time>
      </trkpt>
      <trkpt lat="46.10883" lon="4.65257">
        <ele>463</ele>
        <time>2023-10-18T07:33:37.374+00:00</time>
      </trkpt>
      <trkpt lat="46.10889" lon="4.65255">
        <ele>463</ele>
        <time>2023-10-18T07:33:42.094+00:00</time>
      </trkpt>
      <trkpt lat="46.10892" lon="4.65252">
        <ele>463</ele>
        <time>2023-10-18T07:33:47.394+00:00</time>
      </trkpt>
      <trkpt lat="46.10894" lon="4.65248">
        <ele>463</ele>
        <time>2023-10-18T07:33:51.794+00:00</time>
      </trkpt>
      <trkpt lat="46.10898" lon="4.65245">
        <ele>463</ele>
        <time>2023-10-18T07:33:56.434+00:00</time>
      </trkpt>
      <trkpt lat="46.10899" lon="4.65241">
        <ele>463</ele>
        <time>2023-10-18T07:34:00.474+00:00</time>
      </trkpt>
      <trkpt lat="46.10898" lon="4.65236">
        <ele>457</ele>
        <time>2023-10-18T07:34:04.874+00:00</time>
      </trkpt>
      <trkpt lat="46.10893" lon="4.65232">
        <ele>457</ele>
        <time>2023-10-18T07:34:09.194+00:00</time>
      </trkpt>
      <trkpt lat="46.10888" lon="4.65227">
        <ele>457</ele>
        <time>2023-10-18T07:34:13.154+00:00</time>
      </trkpt>
      <trkpt lat="46.10885" lon="4.65221">
        <ele>457</ele>
        <time>2023-10-18T07:34:17.574+00:00</time>
      </trkpt>
      <trkpt lat="46.10879" lon="4.65217">
        <ele>457</ele>
        <time>2023-10-18T07:34:22.014+00:00</time>
      </trkpt>
      <trkpt lat="46.10875" lon="4.65215">
        <ele>457</ele>
        <time>2023-10-18T07:34:25.834+00:00</time>
      </trkpt>
      <trkpt lat="46.1087" lon="4.6521">
        <ele>457</ele>
        <time>2023-10-18T07:34:29.954+00:00</time>
      </trkpt>
      <trkpt lat="46.10867" lon="4.65207">
        <ele>451</ele>
        <time>2023-10-18T07:34:34.094+00:00</time>
      </trkpt>
      <trkpt lat="46.10864" lon="4.65204">
        <ele>451</ele>
        <time>2023-10-18T07:34:38.274+00:00</time>
      </trkpt>
      <trkpt lat="46.1086" lon="4.65202">
        <ele>451</ele>
        <time>2023-10-18T07:34:42.474+00:00</time>
      </trkpt>
      <trkpt lat="46.10856" lon="4.65197">
        <ele>451</ele>
        <time>2023-10-18T07:34:46.294+00:00</time>
      </trkpt>
      <trkpt lat="46.1085" lon="4.65194">
        <ele>451</ele>
        <time>2023-10-18T07:34:50.694+00:00</time>
      </trkpt>
      <trkpt lat="46.10845" lon="4.65192">
        <ele>449</ele>
        <time>2023-10-18T07:34:54.794+00:00</time>
      </trkpt>
      <trkpt lat="46.10838" lon="4.65191">
        <ele>449</ele>
        <time>2023-10-18T07:34:58.694+00:00</time>
      </trkpt>
      <trkpt lat="46.10832" lon="4.65188">
        <ele>449</ele>
        <time>2023-10-18T07:35:02.694+00:00</time>
      </trkpt>
      <trkpt lat="46.10827" lon="4.65183">
        <ele>449</ele>
        <time>2023-10-18T07:35:07.294+00:00</time>
      </trkpt>
      <trkpt lat="46.10823" lon="4.65179">
        <ele>443</ele>
        <time>2023-10-18T07:35:11.394+00:00</time>
      </trkpt>
      <trkpt lat="46.10819" lon="4.65177">
        <ele>442</ele>
        <time>2023-10-18T07:35:15.894+00:00</time>
      </trkpt>
      <trkpt lat="46.10815" lon="4.65175">
        <ele>442</ele>
        <time>2023-10-18T07:35:19.994+00:00</time>
      </trkpt>
      <trkpt lat="46.10809" lon="4.6517">
        <ele>442</ele>
        <time>2023-10-18T07:35:24.595+00:00</time>
      </trkpt>
      <trkpt lat="46.10804" lon="4.65167">
        <ele>442</ele>
        <time>2023-10-18T07:35:28.694+00:00</time>
      </trkpt>
      <trkpt lat="46.108" lon="4.65165">
        <ele>442</ele>
        <time>2023-10-18T07:35:33.054+00:00</time>
      </trkpt>
      <trkpt lat="46.10796" lon="4.65164">
        <ele>442</ele>
        <time>2023-10-18T07:35:37.154+00:00</time>
      </trkpt>
      <trkpt lat="46.10793" lon="4.65163">
        <ele>442</ele>
        <time>2023-10-18T07:35:41.354+00:00</time>
      </trkpt>
      <trkpt lat="46.10788" lon="4.65162">
        <ele>440</ele>
        <time>2023-10-18T07:35:46.374+00:00</time>
      </trkpt>
      <trkpt lat="46.10784" lon="4.6516">
        <ele>440</ele>
        <time>2023-10-18T07:35:50.454+00:00</time>
      </trkpt>
      <trkpt lat="46.1078" lon="4.65157">
        <ele>440</ele>
        <time>2023-10-18T07:35:54.554+00:00</time>
      </trkpt>
      <trkpt lat="46.10775" lon="4.65156">
        <ele>440</ele>
        <time>2023-10-18T07:35:58.554+00:00</time>
      </trkpt>
      <trkpt lat="46.1077" lon="4.65153">
        <ele>432</ele>
        <time>2023-10-18T07:36:03.054+00:00</time>
      </trkpt>
      <trkpt lat="46.10767" lon="4.65151">
        <ele>432</ele>
        <time>2023-10-18T07:36:06.954+00:00</time>
      </trkpt>
      <trkpt lat="46.10763" lon="4.65149">
        <ele>430</ele>
        <time>2023-10-18T07:36:10.994+00:00</time>
      </trkpt>
      <trkpt lat="46.10759" lon="4.65148">
        <ele>430</ele>
        <time>2023-10-18T07:36:15.194+00:00</time>
      </trkpt>
      <trkpt lat="46.10755" lon="4.65148">
        <ele>430</ele>
        <time>2023-10-18T07:36:19.694+00:00</time>
      </trkpt>
      <trkpt lat="46.10751" lon="4.65147">
        <ele>430</ele>
        <time>2023-10-18T07:36:24.194+00:00</time>
      </trkpt>
      <trkpt lat="46.10747" lon="4.65147">
        <ele>430</ele>
        <time>2023-10-18T07:36:28.294+00:00</time>
      </trkpt>
      <trkpt lat="46.10741" lon="4.65144">
        <ele>430</ele>
        <time>2023-10-18T07:36:32.834+00:00</time>
      </trkpt>
      <trkpt lat="46.10737" lon="4.65143">
        <ele>430</ele>
        <time>2023-10-18T07:36:37.414+00:00</time>
      </trkpt>
      <trkpt lat="46.10734" lon="4.65144">
        <ele>425</ele>
        <time>2023-10-18T07:36:42.014+00:00</time>
      </trkpt>
      <trkpt lat="46.1073" lon="4.65145">
        <ele>425</ele>
        <time>2023-10-18T07:36:46.582+00:00</time>
      </trkpt>
      <trkpt lat="46.1073" lon="4.65144">
        <ele>425</ele>
        <time>2023-10-18T07:36:51.114+00:00</time>
      </trkpt>
      <trkpt lat="46.10733" lon="4.65138">
        <ele>425</ele>
        <time>2023-10-18T07:36:55.114+00:00</time>
      </trkpt>
      <trkpt lat="46.10738" lon="4.65132">
        <ele>430</ele>
        <time>2023-10-18T07:37:00.114+00:00</time>
      </trkpt>
      <trkpt lat="46.10744" lon="4.65131">
        <ele>430</ele>
        <time>2023-10-18T07:37:04.114+00:00</time>
      </trkpt>
      <trkpt lat="46.10748" lon="4.65129">
        <ele>430</ele>
        <time>2023-10-18T07:37:08.714+00:00</time>
      </trkpt>
      <trkpt lat="46.10752" lon="4.65127">
        <ele>430</ele>
        <time>2023-10-18T07:37:13.214+00:00</time>
      </trkpt>
      <trkpt lat="46.10757" lon="4.65125">
        <ele>430</ele>
        <time>2023-10-18T07:37:17.714+00:00</time>
      </trkpt>
      <trkpt lat="46.10762" lon="4.65125">
        <ele>423</ele>
        <time>2023-10-18T07:37:22.214+00:00</time>
      </trkpt>
      <trkpt lat="46.10767" lon="4.65124">
        <ele>425</ele>
        <time>2023-10-18T07:37:26.653+00:00</time>
      </trkpt>
      <trkpt lat="46.10773" lon="4.65124">
        <ele>425</ele>
        <time>2023-10-18T07:37:31.294+00:00</time>
      </trkpt>
      <trkpt lat="46.10778" lon="4.65124">
        <ele>425</ele>
        <time>2023-10-18T07:37:35.914+00:00</time>
      </trkpt>
      <trkpt lat="46.10783" lon="4.65123">
        <ele>425</ele>
        <time>2023-10-18T07:37:40.454+00:00</time>
      </trkpt>
      <trkpt lat="46.10788" lon="4.65122">
        <ele>425</ele>
        <time>2023-10-18T07:37:44.954+00:00</time>
      </trkpt>
      <trkpt lat="46.10794" lon="4.65121">
        <ele>426</ele>
        <time>2023-10-18T07:37:49.354+00:00</time>
      </trkpt>
      <trkpt lat="46.10798" lon="4.65119">
        <ele>426</ele>
        <time>2023-10-18T07:37:53.354+00:00</time>
      </trkpt>
      <trkpt lat="46.10804" lon="4.65118">
        <ele>426</ele>
        <time>2023-10-18T07:37:58.154+00:00</time>
      </trkpt>
      <trkpt lat="46.1081" lon="4.65117">
        <ele>426</ele>
        <time>2023-10-18T07:38:03.174+00:00</time>
      </trkpt>
      <trkpt lat="46.10815" lon="4.65116">
        <ele>426</ele>
        <time>2023-10-18T07:38:07.354+00:00</time>
      </trkpt>
      <trkpt lat="46.10819" lon="4.65116">
        <ele>426</ele>
        <time>2023-10-18T07:38:11.354+00:00</time>
      </trkpt>
      <trkpt lat="46.10824" lon="4.65114">
        <ele>428</ele>
        <time>2023-10-18T07:38:15.354+00:00</time>
      </trkpt>
      <trkpt lat="46.1083" lon="4.6511">
        <ele>428</ele>
        <time>2023-10-18T07:38:29.174+00:00</time>
      </trkpt>
      <trkpt lat="46.10828" lon="4.65107">
        <ele>428</ele>
        <time>2023-10-18T07:38:33.174+00:00</time>
      </trkpt>
      <trkpt lat="46.10824" lon="4.65106">
        <ele>428</ele>
        <time>2023-10-18T07:38:37.174+00:00</time>
      </trkpt>
      <trkpt lat="46.10823" lon="4.65104">
        <ele>428</ele>
        <time>2023-10-18T07:38:41.314+00:00</time>
      </trkpt>
      <trkpt lat="46.10822" lon="4.65103">
        <ele>428</ele>
        <time>2023-10-18T07:38:45.814+00:00</time>
      </trkpt>
      <trkpt lat="46.10824" lon="4.65098">
        <ele>428</ele>
        <time>2023-10-18T07:40:42.394+00:00</time>
      </trkpt>
      <trkpt lat="46.10822" lon="4.65097">
        <ele>420</ele>
        <time>2023-10-18T07:40:46.834+00:00</time>
      </trkpt>
      <trkpt lat="46.10821" lon="4.65087">
        <ele>420</ele>
        <time>2023-10-18T07:40:51.374+00:00</time>
      </trkpt>
      <trkpt lat="46.10822" lon="4.65081">
        <ele>420</ele>
        <time>2023-10-18T07:40:55.394+00:00</time>
      </trkpt>
      <trkpt lat="46.10824" lon="4.65075">
        <ele>420</ele>
        <time>2023-10-18T07:41:00.354+00:00</time>
      </trkpt>
      <trkpt lat="46.10824" lon="4.65071">
        <ele>420</ele>
        <time>2023-10-18T07:41:04.374+00:00</time>
      </trkpt>
      <trkpt lat="46.10825" lon="4.65066">
        <ele>412</ele>
        <time>2023-10-18T07:41:08.394+00:00</time>
      </trkpt>
      <trkpt lat="46.10826" lon="4.65061">
        <ele>412</ele>
        <time>2023-10-18T07:41:13.514+00:00</time>
      </trkpt>
      <trkpt lat="46.10823" lon="4.65057">
        <ele>412</ele>
        <time>2023-10-18T07:41:17.586+00:00</time>
      </trkpt>
      <trkpt lat="46.10817" lon="4.65056">
        <ele>413</ele>
        <time>2023-10-18T07:41:22.014+00:00</time>
      </trkpt>
      <trkpt lat="46.10812" lon="4.65052">
        <ele>413</ele>
        <time>2023-10-18T07:41:26.574+00:00</time>
      </trkpt>
      <trkpt lat="46.10807" lon="4.65049">
        <ele>413</ele>
        <time>2023-10-18T07:41:30.434+00:00</time>
      </trkpt>
      <trkpt lat="46.10801" lon="4.65045">
        <ele>413</ele>
        <time>2023-10-18T07:41:35.034+00:00</time>
      </trkpt>
      <trkpt lat="46.10797" lon="4.65042">
        <ele>413</ele>
        <time>2023-10-18T07:41:38.834+00:00</time>
      </trkpt>
      <trkpt lat="46.1079" lon="4.65039">
        <ele>401</ele>
        <time>2023-10-18T07:41:43.434+00:00</time>
      </trkpt>
      <trkpt lat="46.10784" lon="4.65035">
        <ele>401</ele>
        <time>2023-10-18T07:41:48.034+00:00</time>
      </trkpt>
      <trkpt lat="46.10778" lon="4.65034">
        <ele>401</ele>
        <time>2023-10-18T07:41:52.454+00:00</time>
      </trkpt>
      <trkpt lat="46.10772" lon="4.65031">
        <ele>401</ele>
        <time>2023-10-18T07:41:57.074+00:00</time>
      </trkpt>
      <trkpt lat="46.10768" lon="4.65029">
        <ele>401</ele>
        <time>2023-10-18T07:42:01.474+00:00</time>
      </trkpt>
      <trkpt lat="46.10763" lon="4.65027">
        <ele>395</ele>
        <time>2023-10-18T07:42:06.174+00:00</time>
      </trkpt>
      <trkpt lat="46.10759" lon="4.65024">
        <ele>395</ele>
        <time>2023-10-18T07:42:10.514+00:00</time>
      </trkpt>
      <trkpt lat="46.10753" lon="4.6502">
        <ele>395</ele>
        <time>2023-10-18T07:42:14.934+00:00</time>
      </trkpt>
      <trkpt lat="46.10749" lon="4.65017">
        <ele>395</ele>
        <time>2023-10-18T07:42:18.654+00:00</time>
      </trkpt>
      <trkpt lat="46.10745" lon="4.65014">
        <ele>388</ele>
        <time>2023-10-18T07:42:23.174+00:00</time>
      </trkpt>
      <trkpt lat="46.1074" lon="4.6501">
        <ele>388</ele>
        <time>2023-10-18T07:42:28.394+00:00</time>
      </trkpt>
      <trkpt lat="46.10736" lon="4.65009">
        <ele>388</ele>
        <time>2023-10-18T07:42:32.954+00:00</time>
      </trkpt>
      <trkpt lat="46.10733" lon="4.65007">
        <ele>388</ele>
        <time>2023-10-18T07:42:37.014+00:00</time>
      </trkpt>
      <trkpt lat="46.10731" lon="4.65">
        <ele>388</ele>
        <time>2023-10-18T07:42:41.714+00:00</time>
      </trkpt>
      <trkpt lat="46.10734" lon="4.64995">
        <ele>388</ele>
        <time>2023-10-18T07:42:45.714+00:00</time>
      </trkpt>
      <trkpt lat="46.10739" lon="4.64993">
        <ele>388</ele>
        <time>2023-10-18T07:42:54.114+00:00</time>
      </trkpt>
      <trkpt lat="46.10739" lon="4.64991">
        <ele>388</ele>
        <time>2023-10-18T07:42:59.314+00:00</time>
      </trkpt>
      <trkpt lat="46.10738" lon="4.64989">
        <ele>388</ele>
        <time>2023-10-18T07:43:03.834+00:00</time>
      </trkpt>
      <trkpt lat="46.10737" lon="4.64984">
        <ele>384</ele>
        <time>2023-10-18T07:43:08.314+00:00</time>
      </trkpt>
      <trkpt lat="46.10737" lon="4.64978">
        <ele>384</ele>
        <time>2023-10-18T07:43:12.834+00:00</time>
      </trkpt>
      <trkpt lat="46.10735" lon="4.64973">
        <ele>383</ele>
        <time>2023-10-18T07:43:17.414+00:00</time>
      </trkpt>
      <trkpt lat="46.10735" lon="4.64967">
        <ele>383</ele>
        <time>2023-10-18T07:43:21.414+00:00</time>
      </trkpt>
      <trkpt lat="46.10733" lon="4.64962">
        <ele>383</ele>
        <time>2023-10-18T07:43:26.014+00:00</time>
      </trkpt>
      <trkpt lat="46.10732" lon="4.64957">
        <ele>379</ele>
        <time>2023-10-18T07:43:30.114+00:00</time>
      </trkpt>
      <trkpt lat="46.10731" lon="4.64951">
        <ele>379</ele>
        <time>2023-10-18T07:43:34.586+00:00</time>
      </trkpt>
      <trkpt lat="46.10729" lon="4.64945">
        <ele>379</ele>
        <time>2023-10-18T07:43:39.034+00:00</time>
      </trkpt>
      <trkpt lat="46.10729" lon="4.64941">
        <ele>379</ele>
        <time>2023-10-18T07:43:43.034+00:00</time>
      </trkpt>
      <trkpt lat="46.10728" lon="4.64936">
        <ele>379</ele>
        <time>2023-10-18T07:43:47.034+00:00</time>
      </trkpt>
      <trkpt lat="46.10728" lon="4.64929">
        <ele>374</ele>
        <time>2023-10-18T07:43:55.734+00:00</time>
      </trkpt>
      <trkpt lat="46.10727" lon="4.64924">
        <ele>374</ele>
        <time>2023-10-18T07:44:00.334+00:00</time>
      </trkpt>
      <trkpt lat="46.10725" lon="4.64921">
        <ele>374</ele>
        <time>2023-10-18T07:44:04.834+00:00</time>
      </trkpt>
      <trkpt lat="46.10722" lon="4.64921">
        <ele>374</ele>
        <time>2023-10-18T07:44:08.834+00:00</time>
      </trkpt>
      <trkpt lat="46.10718" lon="4.64916">
        <ele>374</ele>
        <time>2023-10-18T07:44:13.434+00:00</time>
      </trkpt>
      <trkpt lat="46.10718" lon="4.64906">
        <ele>374</ele>
        <time>2023-10-18T07:44:18.034+00:00</time>
      </trkpt>
      <trkpt lat="46.10719" lon="4.649">
        <ele>368</ele>
        <time>2023-10-18T07:44:21.954+00:00</time>
      </trkpt>
      <trkpt lat="46.10719" lon="4.64895">
        <ele>368</ele>
        <time>2023-10-18T07:44:26.584+00:00</time>
      </trkpt>
      <trkpt lat="46.10717" lon="4.64888">
        <ele>368</ele>
        <time>2023-10-18T07:44:30.754+00:00</time>
      </trkpt>
      <trkpt lat="46.10714" lon="4.64883">
        <ele>368</ele>
        <time>2023-10-18T07:44:35.354+00:00</time>
      </trkpt>
      <trkpt lat="46.10713" lon="4.64878">
        <ele>368</ele>
        <time>2023-10-18T07:44:39.534+00:00</time>
      </trkpt>
      <trkpt lat="46.10711" lon="4.64873">
        <ele>363</ele>
        <time>2023-10-18T07:44:43.554+00:00</time>
      </trkpt>
      <trkpt lat="46.10707" lon="4.64868">
        <ele>361</ele>
        <time>2023-10-18T07:44:47.754+00:00</time>
      </trkpt>
      <trkpt lat="46.10703" lon="4.64865">
        <ele>361</ele>
        <time>2023-10-18T07:44:51.674+00:00</time>
      </trkpt>
      <trkpt lat="46.107" lon="4.64861">
        <ele>361</ele>
        <time>2023-10-18T07:44:56.294+00:00</time>
      </trkpt>
      <trkpt lat="46.10695" lon="4.64856">
        <ele>361</ele>
        <time>2023-10-18T07:45:00.394+00:00</time>
      </trkpt>
      <trkpt lat="46.10692" lon="4.6485">
        <ele>361</ele>
        <time>2023-10-18T07:45:04.994+00:00</time>
      </trkpt>
      <trkpt lat="46.10688" lon="4.64844">
        <ele>357</ele>
        <time>2023-10-18T07:45:09.494+00:00</time>
      </trkpt>
      <trkpt lat="46.10683" lon="4.6484">
        <ele>357</ele>
        <time>2023-10-18T07:45:14.094+00:00</time>
      </trkpt>
      <trkpt lat="46.10679" lon="4.64839">
        <ele>357</ele>
        <time>2023-10-18T07:45:18.094+00:00</time>
      </trkpt>
      <trkpt lat="46.10673" lon="4.64836">
        <ele>357</ele>
        <time>2023-10-18T07:45:22.594+00:00</time>
      </trkpt>
      <trkpt lat="46.1067" lon="4.6483">
        <ele>357</ele>
        <time>2023-10-18T07:45:26.594+00:00</time>
      </trkpt>
      <trkpt lat="46.10667" lon="4.64823">
        <ele>357</ele>
        <time>2023-10-18T07:45:30.774+00:00</time>
      </trkpt>
      <trkpt lat="46.10663" lon="4.64817">
        <ele>355</ele>
        <time>2023-10-18T07:45:35.294+00:00</time>
      </trkpt>
      <trkpt lat="46.10658" lon="4.64815">
        <ele>355</ele>
        <time>2023-10-18T07:45:39.794+00:00</time>
      </trkpt>
      <trkpt lat="46.10653" lon="4.64814">
        <ele>352</ele>
        <time>2023-10-18T07:45:44.394+00:00</time>
      </trkpt>
      <trkpt lat="46.10648" lon="4.64815">
        <ele>352</ele>
        <time>2023-10-18T07:45:48.234+00:00</time>
      </trkpt>
      <trkpt lat="46.10643" lon="4.64814">
        <ele>352</ele>
        <time>2023-10-18T07:45:52.054+00:00</time>
      </trkpt>
      <trkpt lat="46.10639" lon="4.64811">
        <ele>352</ele>
        <time>2023-10-18T07:45:56.074+00:00</time>
      </trkpt>
      <trkpt lat="46.10635" lon="4.64807">
        <ele>352</ele>
        <time>2023-10-18T07:46:00.074+00:00</time>
      </trkpt>
      <trkpt lat="46.10632" lon="4.64802">
        <ele>352</ele>
        <time>2023-10-18T07:46:04.174+00:00</time>
      </trkpt>
      <trkpt lat="46.1063" lon="4.64794">
        <ele>352</ele>
        <time>2023-10-18T07:46:08.794+00:00</time>
      </trkpt>
      <trkpt lat="46.10629" lon="4.64786">
        <ele>350</ele>
        <time>2023-10-18T07:46:13.234+00:00</time>
      </trkpt>
      <trkpt lat="46.10628" lon="4.64779">
        <ele>350</ele>
        <time>2023-10-18T07:46:17.354+00:00</time>
      </trkpt>
      <trkpt lat="46.10627" lon="4.64771">
        <ele>350</ele>
        <time>2023-10-18T07:46:21.910+00:00</time>
      </trkpt>
      <trkpt lat="46.10626" lon="4.64764">
        <ele>347</ele>
        <time>2023-10-18T07:46:25.974+00:00</time>
      </trkpt>
      <trkpt lat="46.10624" lon="4.64757">
        <ele>342</ele>
        <time>2023-10-18T07:46:30.074+00:00</time>
      </trkpt>
      <trkpt lat="46.10623" lon="4.64751">
        <ele>342</ele>
        <time>2023-10-18T07:46:34.174+00:00</time>
      </trkpt>
      <trkpt lat="46.10622" lon="4.64744">
        <ele>342</ele>
        <time>2023-10-18T07:46:38.333+00:00</time>
      </trkpt>
      <trkpt lat="46.10622" lon="4.64736">
        <ele>342</ele>
        <time>2023-10-18T07:46:42.374+00:00</time>
      </trkpt>
      <trkpt lat="46.10622" lon="4.64728">
        <ele>341</ele>
        <time>2023-10-18T07:46:47.294+00:00</time>
      </trkpt>
      <trkpt lat="46.10622" lon="4.6472">
        <ele>341</ele>
        <time>2023-10-18T07:51:12.794+00:00</time>
      </trkpt>
      <trkpt lat="46.1062" lon="4.64726">
        <ele>341</ele>
        <time>2023-10-18T07:51:16.814+00:00</time>
      </trkpt>
      <trkpt lat="46.10618" lon="4.6473">
        <ele>341</ele>
        <time>2023-10-18T07:51:21.014+00:00</time>
      </trkpt>
      <trkpt lat="46.10615" lon="4.64736">
        <ele>342</ele>
        <time>2023-10-18T07:51:25.614+00:00</time>
      </trkpt>
      <trkpt lat="46.10611" lon="4.64743">
        <ele>342</ele>
        <time>2023-10-18T07:51:30.314+00:00</time>
      </trkpt>
      <trkpt lat="46.10608" lon="4.64748">
        <ele>342</ele>
        <time>2023-10-18T07:51:34.314+00:00</time>
      </trkpt>
      <trkpt lat="46.10604" lon="4.64752">
        <ele>342</ele>
        <time>2023-10-18T07:51:38.314+00:00</time>
      </trkpt>
      <trkpt lat="46.10599" lon="4.64757">
        <ele>342</ele>
        <time>2023-10-18T07:51:42.814+00:00</time>
      </trkpt>
      <trkpt lat="46.10594" lon="4.64761">
        <ele>341</ele>
        <time>2023-10-18T07:51:47.314+00:00</time>
      </trkpt>
      <trkpt lat="46.1059" lon="4.64767">
        <ele>342</ele>
        <time>2023-10-18T07:51:51.834+00:00</time>
      </trkpt>
      <trkpt lat="46.10585" lon="4.64772">
        <ele>342</ele>
        <time>2023-10-18T07:51:56.354+00:00</time>
      </trkpt>
      <trkpt lat="46.1058" lon="4.64775">
        <ele>342</ele>
        <time>2023-10-18T07:52:00.454+00:00</time>
      </trkpt>
      <trkpt lat="46.10575" lon="4.64779">
        <ele>342</ele>
        <time>2023-10-18T07:52:04.933+00:00</time>
      </trkpt>
      <trkpt lat="46.10571" lon="4.6478">
        <ele>342</ele>
        <time>2023-10-18T07:52:08.954+00:00</time>
      </trkpt>
      <trkpt lat="46.10568" lon="4.64779">
        <ele>340</ele>
        <time>2023-10-18T07:52:13.434+00:00</time>
      </trkpt>
      <trkpt lat="46.10566" lon="4.64776">
        <ele>340</ele>
        <time>2023-10-18T07:52:17.254+00:00</time>
      </trkpt>
      <trkpt lat="46.10563" lon="4.64771">
        <ele>340</ele>
        <time>2023-10-18T07:52:22.274+00:00</time>
      </trkpt>
      <trkpt lat="46.1056" lon="4.64765">
        <ele>340</ele>
        <time>2023-10-18T07:52:26.374+00:00</time>
      </trkpt>
      <trkpt lat="46.10558" lon="4.64758">
        <ele>339</ele>
        <time>2023-10-18T07:52:30.374+00:00</time>
      </trkpt>
      <trkpt lat="46.10555" lon="4.6475">
        <ele>339</ele>
        <time>2023-10-18T07:52:35.597+00:00</time>
      </trkpt>
      <trkpt lat="46.10553" lon="4.64743">
        <ele>339</ele>
        <time>2023-10-18T07:52:39.774+00:00</time>
      </trkpt>
      <trkpt lat="46.1055" lon="4.64736">
        <ele>337</ele>
        <time>2023-10-18T07:52:44.374+00:00</time>
      </trkpt>
      <trkpt lat="46.10544" lon="4.64734">
        <ele>337</ele>
        <time>2023-10-18T07:52:48.974+00:00</time>
      </trkpt>
      <trkpt lat="46.10538" lon="4.64735">
        <ele>335</ele>
        <time>2023-10-18T07:52:53.334+00:00</time>
      </trkpt>
      <trkpt lat="46.10534" lon="4.64735">
        <ele>335</ele>
        <time>2023-10-18T07:52:57.174+00:00</time>
      </trkpt>
      <trkpt lat="46.1053" lon="4.64732">
        <ele>335</ele>
        <time>2023-10-18T07:53:01.174+00:00</time>
      </trkpt>
      <trkpt lat="46.10526" lon="4.64728">
        <ele>335</ele>
        <time>2023-10-18T07:53:05.774+00:00</time>
      </trkpt>
      <trkpt lat="46.10521" lon="4.64724">
        <ele>335</ele>
        <time>2023-10-18T07:53:10.174+00:00</time>
      </trkpt>
      <trkpt lat="46.10517" lon="4.6472">
        <ele>335</ele>
        <time>2023-10-18T07:53:14.774+00:00</time>
      </trkpt>
      <trkpt lat="46.10513" lon="4.64716">
        <ele>332</ele>
        <time>2023-10-18T07:53:19.194+00:00</time>
      </trkpt>
      <trkpt lat="46.10509" lon="4.64711">
        <ele>332</ele>
        <time>2023-10-18T07:53:23.674+00:00</time>
      </trkpt>
      <trkpt lat="46.10505" lon="4.64705">
        <ele>331</ele>
        <time>2023-10-18T07:53:28.094+00:00</time>
      </trkpt>
      <trkpt lat="46.10501" lon="4.64698">
        <ele>331</ele>
        <time>2023-10-18T07:53:32.594+00:00</time>
      </trkpt>
      <trkpt lat="46.10499" lon="4.64693">
        <ele>331</ele>
        <time>2023-10-18T07:53:37.194+00:00</time>
      </trkpt>
      <trkpt lat="46.10496" lon="4.64689">
        <ele>331</ele>
        <time>2023-10-18T07:53:41.594+00:00</time>
      </trkpt>
      <trkpt lat="46.10494" lon="4.64684">
        <ele>331</ele>
        <time>2023-10-18T07:53:46.094+00:00</time>
      </trkpt>
      <trkpt lat="46.10492" lon="4.64677">
        <ele>328</ele>
        <time>2023-10-18T07:53:50.794+00:00</time>
      </trkpt>
      <trkpt lat="46.10491" lon="4.64671">
        <ele>328</ele>
        <time>2023-10-18T07:53:55.494+00:00</time>
      </trkpt>
      <trkpt lat="46.10489" lon="4.64666">
        <ele>328</ele>
        <time>2023-10-18T07:53:59.494+00:00</time>
      </trkpt>
      <trkpt lat="46.10487" lon="4.64659">
        <ele>328</ele>
        <time>2023-10-18T07:54:04.094+00:00</time>
      </trkpt>
      <trkpt lat="46.10488" lon="4.64652">
        <ele>326</ele>
        <time>2023-10-18T07:54:08.517+00:00</time>
      </trkpt>
      <trkpt lat="46.10493" lon="4.64648">
        <ele>326</ele>
        <time>2023-10-18T07:54:30.174+00:00</time>
      </trkpt>
      <trkpt lat="46.10493" lon="4.64648">
        <ele>326</ele>
        <time>2023-10-18T07:54:34.374+00:00</time>
      </trkpt>
      <trkpt lat="46.10493" lon="4.64648">
        <ele>326</ele>
        <time>2023-10-18T07:54:39.174+00:00</time>
      </trkpt>
      <trkpt lat="46.10496" lon="4.64644">
        <ele>326</ele>
        <time>2023-10-18T07:54:43.834+00:00</time>
      </trkpt>
      <trkpt lat="46.10499" lon="4.64639">
        <ele>326</ele>
        <time>2023-10-18T07:54:48.554+00:00</time>
      </trkpt>
      <trkpt lat="46.10502" lon="4.64636">
        <ele>326</ele>
        <time>2023-10-18T07:54:53.154+00:00</time>
      </trkpt>
      <trkpt lat="46.10502" lon="4.64632">
        <ele>326</ele>
        <time>2023-10-18T07:54:57.834+00:00</time>
      </trkpt>
      <trkpt lat="46.10505" lon="4.64628">
        <ele>326</ele>
        <time>2023-10-18T07:55:02.376+00:00</time>
      </trkpt>
      <trkpt lat="46.10508" lon="4.64622">
        <ele>324</ele>
        <time>2023-10-18T07:55:06.554+00:00</time>
      </trkpt>
      <trkpt lat="46.1051" lon="4.64617">
        <ele>324</ele>
        <time>2023-10-18T07:55:10.754+00:00</time>
      </trkpt>
      <trkpt lat="46.10512" lon="4.64612">
        <ele>324</ele>
        <time>2023-10-18T07:55:14.954+00:00</time>
      </trkpt>
      <trkpt lat="46.10515" lon="4.64609">
        <ele>331</ele>
        <time>2023-10-18T07:55:19.554+00:00</time>
      </trkpt>
      <trkpt lat="46.10518" lon="4.64604">
        <ele>331</ele>
        <time>2023-10-18T07:55:24.154+00:00</time>
      </trkpt>
      <trkpt lat="46.1052" lon="4.646">
        <ele>331</ele>
        <time>2023-10-18T07:55:28.354+00:00</time>
      </trkpt>
      <trkpt lat="46.10523" lon="4.64595">
        <ele>328</ele>
        <time>2023-10-18T07:55:32.554+00:00</time>
      </trkpt>
      <trkpt lat="46.10527" lon="4.64591">
        <ele>328</ele>
        <time>2023-10-18T07:55:37.154+00:00</time>
      </trkpt>
      <trkpt lat="46.10529" lon="4.64586">
        <ele>328</ele>
        <time>2023-10-18T07:55:41.354+00:00</time>
      </trkpt>
      <trkpt lat="46.10531" lon="4.64582">
        <ele>328</ele>
        <time>2023-10-18T07:55:45.974+00:00</time>
      </trkpt>
      <trkpt lat="46.10531" lon="4.64581">
        <ele>328</ele>
        <time>2023-10-18T07:55:51.216+00:00</time>
      </trkpt>
      <trkpt lat="46.10532" lon="4.6458">
        <ele>328</ele>
        <time>2023-10-18T07:55:55.174+00:00</time>
      </trkpt>
      <trkpt lat="46.10535" lon="4.64575">
        <ele>328</ele>
        <time>2023-10-18T07:55:59.974+00:00</time>
      </trkpt>
      <trkpt lat="46.10539" lon="4.6457">
        <ele>328</ele>
        <time>2023-10-18T07:56:04.174+00:00</time>
      </trkpt>
      <trkpt lat="46.10543" lon="4.64567">
        <ele>330</ele>
        <time>2023-10-18T07:56:08.374+00:00</time>
      </trkpt>
      <trkpt lat="46.10546" lon="4.64563">
        <ele>330</ele>
        <time>2023-10-18T07:56:12.594+00:00</time>
      </trkpt>
      <trkpt lat="46.1055" lon="4.64558">
        <ele>330</ele>
        <time>2023-10-18T07:56:17.196+00:00</time>
      </trkpt>
      <trkpt lat="46.10554" lon="4.64554">
        <ele>330</ele>
        <time>2023-10-18T07:56:21.694+00:00</time>
      </trkpt>
      <trkpt lat="46.10557" lon="4.6455">
        <ele>330</ele>
        <time>2023-10-18T07:56:25.714+00:00</time>
      </trkpt>
      <trkpt lat="46.1056" lon="4.64546">
        <ele>330</ele>
        <time>2023-10-18T07:56:29.814+00:00</time>
      </trkpt>
      <trkpt lat="46.10563" lon="4.64542">
        <ele>330</ele>
        <time>2023-10-18T07:56:34.014+00:00</time>
      </trkpt>
      <trkpt lat="46.10565" lon="4.64537">
        <ele>328</ele>
        <time>2023-10-18T07:56:38.614+00:00</time>
      </trkpt>
      <trkpt lat="46.10569" lon="4.64534">
        <ele>328</ele>
        <time>2023-10-18T07:56:42.814+00:00</time>
      </trkpt>
      <trkpt lat="46.10571" lon="4.64529">
        <ele>331</ele>
        <time>2023-10-18T07:56:46.814+00:00</time>
      </trkpt>
      <trkpt lat="46.10573" lon="4.64525">
        <ele>331</ele>
        <time>2023-10-18T07:56:50.834+00:00</time>
      </trkpt>
      <trkpt lat="46.10577" lon="4.64523">
        <ele>331</ele>
        <time>2023-10-18T07:56:55.276+00:00</time>
      </trkpt>
      <trkpt lat="46.10581" lon="4.64518">
        <ele>331</ele>
        <time>2023-10-18T07:56:59.814+00:00</time>
      </trkpt>
      <trkpt lat="46.10584" lon="4.64515">
        <ele>331</ele>
        <time>2023-10-18T07:57:03.834+00:00</time>
      </trkpt>
      <trkpt lat="46.10586" lon="4.64511">
        <ele>331</ele>
        <time>2023-10-18T07:57:07.834+00:00</time>
      </trkpt>
      <trkpt lat="46.10589" lon="4.64506">
        <ele>331</ele>
        <time>2023-10-18T07:57:12.434+00:00</time>
      </trkpt>
      <trkpt lat="46.10593" lon="4.645">
        <ele>331</ele>
        <time>2023-10-18T07:57:17.354+00:00</time>
      </trkpt>
      <trkpt lat="46.10598" lon="4.64496">
        <ele>332</ele>
        <time>2023-10-18T07:57:21.834+00:00</time>
      </trkpt>
      <trkpt lat="46.10601" lon="4.64492">
        <ele>332</ele>
        <time>2023-10-18T07:57:26.414+00:00</time>
      </trkpt>
      <trkpt lat="46.10604" lon="4.64488">
        <ele>332</ele>
        <time>2023-10-18T07:57:30.414+00:00</time>
      </trkpt>
      <trkpt lat="46.10609" lon="4.64483">
        <ele>332</ele>
        <time>2023-10-18T07:57:35.589+00:00</time>
      </trkpt>
      <trkpt lat="46.10612" lon="4.64479">
        <ele>332</ele>
        <time>2023-10-18T07:57:40.334+00:00</time>
      </trkpt>
      <trkpt lat="46.10615" lon="4.64475">
        <ele>332</ele>
        <time>2023-10-18T07:57:44.374+00:00</time>
      </trkpt>
      <trkpt lat="46.10617" lon="4.64469">
        <ele>332</ele>
        <time>2023-10-18T07:57:49.136+00:00</time>
      </trkpt>
      <trkpt lat="46.10622" lon="4.64463">
        <ele>332</ele>
        <time>2023-10-18T07:57:54.215+00:00</time>
      </trkpt>
      <trkpt lat="46.10625" lon="4.64458">
        <ele>332</ele>
        <time>2023-10-18T07:57:58.194+00:00</time>
      </trkpt>
      <trkpt lat="46.10628" lon="4.64454">
        <ele>333</ele>
        <time>2023-10-18T07:58:03.015+00:00</time>
      </trkpt>
      <trkpt lat="46.10633" lon="4.6445">
        <ele>333</ele>
        <time>2023-10-18T07:58:07.416+00:00</time>
      </trkpt>
      <trkpt lat="46.10636" lon="4.64447">
        <ele>333</ele>
        <time>2023-10-18T07:58:11.314+00:00</time>
      </trkpt>
      <trkpt lat="46.10639" lon="4.64441">
        <ele>333</ele>
        <time>2023-10-18T07:58:15.735+00:00</time>
      </trkpt>
      <trkpt lat="46.10642" lon="4.64436">
        <ele>333</ele>
        <time>2023-10-18T07:58:20.314+00:00</time>
      </trkpt>
      <trkpt lat="46.10646" lon="4.64431">
        <ele>333</ele>
        <time>2023-10-18T07:58:24.814+00:00</time>
      </trkpt>
      <trkpt lat="46.10649" lon="4.64426">
        <ele>332</ele>
        <time>2023-10-18T07:58:29.614+00:00</time>
      </trkpt>
      <trkpt lat="46.10651" lon="4.64423">
        <ele>332</ele>
        <time>2023-10-18T07:58:33.995+00:00</time>
      </trkpt>
      <trkpt lat="46.10653" lon="4.64422">
        <ele>332</ele>
        <time>2023-10-18T07:58:37.954+00:00</time>
      </trkpt>
      <trkpt lat="46.10657" lon="4.64428">
        <ele>332</ele>
        <time>2023-10-18T07:58:42.536+00:00</time>
      </trkpt>
      <trkpt lat="46.10659" lon="4.64435">
        <ele>333</ele>
        <time>2023-10-18T07:58:46.834+00:00</time>
      </trkpt>
      <trkpt lat="46.10662" lon="4.64442">
        <ele>333</ele>
        <time>2023-10-18T07:58:51.194+00:00</time>
      </trkpt>
      <trkpt lat="46.10664" lon="4.6445">
        <ele>333</ele>
        <time>2023-10-18T07:58:55.594+00:00</time>
      </trkpt>
      <trkpt lat="46.10666" lon="4.64459">
        <ele>335</ele>
        <time>2023-10-18T07:59:00.214+00:00</time>
      </trkpt>
      <trkpt lat="46.10667" lon="4.64465">
        <ele>335</ele>
        <time>2023-10-18T07:59:04.414+00:00</time>
      </trkpt>
      <trkpt lat="46.10668" lon="4.64472">
        <ele>335</ele>
        <time>2023-10-18T07:59:09.214+00:00</time>
      </trkpt>
      <trkpt lat="46.10669" lon="4.64478">
        <ele>335</ele>
        <time>2023-10-18T07:59:13.014+00:00</time>
      </trkpt>
      <trkpt lat="46.10671" lon="4.64486">
        <ele>335</ele>
        <time>2023-10-18T07:59:17.634+00:00</time>
      </trkpt>
      <trkpt lat="46.10673" lon="4.64494">
        <ele>337</ele>
        <time>2023-10-18T07:59:22.034+00:00</time>
      </trkpt>
      <trkpt lat="46.10675" lon="4.645">
        <ele>337</ele>
        <time>2023-10-18T07:59:26.034+00:00</time>
      </trkpt>
      <trkpt lat="46.10675" lon="4.64508">
        <ele>337</ele>
        <time>2023-10-18T07:59:30.496+00:00</time>
      </trkpt>
      <trkpt lat="46.10676" lon="4.64513">
        <ele>337</ele>
        <time>2023-10-18T07:59:34.434+00:00</time>
      </trkpt>
      <trkpt lat="46.10678" lon="4.64521">
        <ele>338</ele>
        <time>2023-10-18T07:59:39.034+00:00</time>
      </trkpt>
      <trkpt lat="46.10679" lon="4.64527">
        <ele>338</ele>
        <time>2023-10-18T07:59:42.954+00:00</time>
      </trkpt>
      <trkpt lat="46.10681" lon="4.64535">
        <ele>337</ele>
        <time>2023-10-18T07:59:47.587+00:00</time>
      </trkpt>
      <trkpt lat="46.10682" lon="4.64541">
        <ele>337</ele>
        <time>2023-10-18T07:59:52.016+00:00</time>
      </trkpt>
      <trkpt lat="46.10683" lon="4.64548">
        <ele>338</ele>
        <time>2023-10-18T07:59:55.954+00:00</time>
      </trkpt>
      <trkpt lat="46.10685" lon="4.64554">
        <ele>338</ele>
        <time>2023-10-18T08:00:00.154+00:00</time>
      </trkpt>
      <trkpt lat="46.10686" lon="4.64561">
        <ele>338</ele>
        <time>2023-10-18T08:00:04.754+00:00</time>
      </trkpt>
      <trkpt lat="46.10688" lon="4.64568">
        <ele>338</ele>
        <time>2023-10-18T08:00:09.094+00:00</time>
      </trkpt>
      <trkpt lat="46.10689" lon="4.64575">
        <ele>338</ele>
        <time>2023-10-18T08:00:13.574+00:00</time>
      </trkpt>
      <trkpt lat="46.1069" lon="4.64583">
        <ele>338</ele>
        <time>2023-10-18T08:00:18.394+00:00</time>
      </trkpt>
      <trkpt lat="46.10692" lon="4.6459">
        <ele>338</ele>
        <time>2023-10-18T08:00:22.855+00:00</time>
      </trkpt>
      <trkpt lat="46.10694" lon="4.64597">
        <ele>338</ele>
        <time>2023-10-18T08:00:27.094+00:00</time>
      </trkpt>
      <trkpt lat="46.10696" lon="4.64603">
        <ele>339</ele>
        <time>2023-10-18T08:00:31.414+00:00</time>
      </trkpt>
      <trkpt lat="46.10697" lon="4.64609">
        <ele>339</ele>
        <time>2023-10-18T08:00:35.736+00:00</time>
      </trkpt>
      <trkpt lat="46.107" lon="4.64614">
        <ele>339</ele>
        <time>2023-10-18T08:00:40.134+00:00</time>
      </trkpt>
      <trkpt lat="46.10703" lon="4.64616">
        <ele>339</ele>
        <time>2023-10-18T08:00:44.588+00:00</time>
      </trkpt>
      <trkpt lat="46.10708" lon="4.64616">
        <ele>339</ele>
        <time>2023-10-18T08:00:48.514+00:00</time>
      </trkpt>
      <trkpt lat="46.10712" lon="4.64615">
        <ele>338</ele>
        <time>2023-10-18T08:00:53.114+00:00</time>
      </trkpt>
      <trkpt lat="46.10716" lon="4.64616">
        <ele>338</ele>
        <time>2023-10-18T08:00:57.114+00:00</time>
      </trkpt>
      <trkpt lat="46.10721" lon="4.64617">
        <ele>338</ele>
        <time>2023-10-18T08:01:01.814+00:00</time>
      </trkpt>
      <trkpt lat="46.10725" lon="4.64617">
        <ele>338</ele>
        <time>2023-10-18T08:01:06.414+00:00</time>
      </trkpt>
      <trkpt lat="46.1073" lon="4.64617">
        <ele>338</ele>
        <time>2023-10-18T08:01:11.134+00:00</time>
      </trkpt>
      <trkpt lat="46.10735" lon="4.6462">
        <ele>338</ele>
        <time>2023-10-18T08:01:15.694+00:00</time>
      </trkpt>
      <trkpt lat="46.1074" lon="4.64619">
        <ele>334</ele>
        <time>2023-10-18T08:01:20.174+00:00</time>
      </trkpt>
      <trkpt lat="46.10743" lon="4.64618">
        <ele>334</ele>
        <time>2023-10-18T08:01:24.374+00:00</time>
      </trkpt>
      <trkpt lat="46.10747" lon="4.64617">
        <ele>334</ele>
        <time>2023-10-18T08:01:29.096+00:00</time>
      </trkpt>
      <trkpt lat="46.1075" lon="4.64617">
        <ele>334</ele>
        <time>2023-10-18T08:01:32.974+00:00</time>
      </trkpt>
      <trkpt lat="46.10754" lon="4.64616">
        <ele>334</ele>
        <time>2023-10-18T08:01:37.174+00:00</time>
      </trkpt>
      <trkpt lat="46.10758" lon="4.64619">
        <ele>334</ele>
        <time>2023-10-18T08:01:41.674+00:00</time>
      </trkpt>
      <trkpt lat="46.10763" lon="4.64622">
        <ele>334</ele>
        <time>2023-10-18T08:01:46.074+00:00</time>
      </trkpt>
      <trkpt lat="46.10766" lon="4.64623">
        <ele>329</ele>
        <time>2023-10-18T08:01:50.174+00:00</time>
      </trkpt>
      <trkpt lat="46.1077" lon="4.64624">
        <ele>329</ele>
        <time>2023-10-18T08:01:54.194+00:00</time>
      </trkpt>
      <trkpt lat="46.10774" lon="4.64626">
        <ele>332</ele>
        <time>2023-10-18T08:01:59.094+00:00</time>
      </trkpt>
      <trkpt lat="46.10777" lon="4.64628">
        <ele>332</ele>
        <time>2023-10-18T08:02:03.194+00:00</time>
      </trkpt>
      <trkpt lat="46.10782" lon="4.64629">
        <ele>332</ele>
        <time>2023-10-18T08:02:07.514+00:00</time>
      </trkpt>
      <trkpt lat="46.10787" lon="4.64628">
        <ele>332</ele>
        <time>2023-10-18T08:02:11.454+00:00</time>
      </trkpt>
      <trkpt lat="46.1079" lon="4.64628">
        <ele>332</ele>
        <time>2023-10-18T08:02:15.394+00:00</time>
      </trkpt>
      <trkpt lat="46.10796" lon="4.64628">
        <ele>327</ele>
        <time>2023-10-18T08:02:19.994+00:00</time>
      </trkpt>
      <trkpt lat="46.10803" lon="4.64628">
        <ele>327</ele>
        <time>2023-10-18T08:02:25.255+00:00</time>
      </trkpt>
      <trkpt lat="46.10808" lon="4.6463">
        <ele>327</ele>
        <time>2023-10-18T08:02:29.094+00:00</time>
      </trkpt>
      <trkpt lat="46.10814" lon="4.64631">
        <ele>327</ele>
        <time>2023-10-18T08:02:33.574+00:00</time>
      </trkpt>
      <trkpt lat="46.1082" lon="4.64634">
        <ele>327</ele>
        <time>2023-10-18T08:02:37.834+00:00</time>
      </trkpt>
      <trkpt lat="46.10824" lon="4.64635">
        <ele>327</ele>
        <time>2023-10-18T08:02:41.834+00:00</time>
      </trkpt>
      <trkpt lat="46.10829" lon="4.64638">
        <ele>327</ele>
        <time>2023-10-18T08:02:46.434+00:00</time>
      </trkpt>
      <trkpt lat="46.10834" lon="4.64641">
        <ele>327</ele>
        <time>2023-10-18T08:02:50.234+00:00</time>
      </trkpt>
      <trkpt lat="46.10839" lon="4.64644">
        <ele>327</ele>
        <time>2023-10-18T08:02:54.694+00:00</time>
      </trkpt>
      <trkpt lat="46.10844" lon="4.64645">
        <ele>327</ele>
        <time>2023-10-18T08:02:59.194+00:00</time>
      </trkpt>
      <trkpt lat="46.10849" lon="4.64645">
        <ele>324</ele>
        <time>2023-10-18T08:03:03.355+00:00</time>
      </trkpt>
      <trkpt lat="46.10852" lon="4.64644">
        <ele>324</ele>
        <time>2023-10-18T08:03:07.294+00:00</time>
      </trkpt>
      <trkpt lat="46.10856" lon="4.64644">
        <ele>324</ele>
        <time>2023-10-18T08:03:11.394+00:00</time>
      </trkpt>
      <trkpt lat="46.10861" lon="4.64645">
        <ele>324</ele>
        <time>2023-10-18T08:03:15.514+00:00</time>
      </trkpt>
      <trkpt lat="46.10867" lon="4.64644">
        <ele>324</ele>
        <time>2023-10-18T08:03:20.014+00:00</time>
      </trkpt>
      <trkpt lat="46.10872" lon="4.64644">
        <ele>324</ele>
        <time>2023-10-18T08:03:24.014+00:00</time>
      </trkpt>
      <trkpt lat="46.10878" lon="4.64645">
        <ele>318</ele>
        <time>2023-10-18T08:03:28.514+00:00</time>
      </trkpt>
      <trkpt lat="46.10882" lon="4.64647">
        <ele>318</ele>
        <time>2023-10-18T08:03:33.114+00:00</time>
      </trkpt>
      <trkpt lat="46.10887" lon="4.64647">
        <ele>318</ele>
        <time>2023-10-18T08:03:37.536+00:00</time>
      </trkpt>
      <trkpt lat="46.10891" lon="4.64648">
        <ele>318</ele>
        <time>2023-10-18T08:03:41.614+00:00</time>
      </trkpt>
      <trkpt lat="46.10897" lon="4.64649">
        <ele>318</ele>
        <time>2023-10-18T08:03:46.036+00:00</time>
      </trkpt>
      <trkpt lat="46.10902" lon="4.64649">
        <ele>318</ele>
        <time>2023-10-18T08:03:50.316+00:00</time>
      </trkpt>
      <trkpt lat="46.10906" lon="4.6465">
        <ele>317</ele>
        <time>2023-10-18T08:03:54.396+00:00</time>
      </trkpt>
      <trkpt lat="46.1091" lon="4.64652">
        <ele>317</ele>
        <time>2023-10-18T08:03:59.396+00:00</time>
      </trkpt>
      <trkpt lat="46.10914" lon="4.64654">
        <ele>319</ele>
        <time>2023-10-18T08:04:03.494+00:00</time>
      </trkpt>
      <trkpt lat="46.10919" lon="4.64655">
        <ele>319</ele>
        <time>2023-10-18T08:04:07.394+00:00</time>
      </trkpt>
      <trkpt lat="46.10925" lon="4.64655">
        <ele>319</ele>
        <time>2023-10-18T08:04:11.994+00:00</time>
      </trkpt>
      <trkpt lat="46.1093" lon="4.64657">
        <ele>319</ele>
        <time>2023-10-18T08:04:16.516+00:00</time>
      </trkpt>
      <trkpt lat="46.10934" lon="4.64658">
        <ele>319</ele>
        <time>2023-10-18T08:04:20.594+00:00</time>
      </trkpt>
      <trkpt lat="46.1094" lon="4.64659">
        <ele>319</ele>
        <time>2023-10-18T08:04:24.994+00:00</time>
      </trkpt>
      <trkpt lat="46.10945" lon="4.64659">
        <ele>319</ele>
        <time>2023-10-18T08:04:28.994+00:00</time>
      </trkpt>
      <trkpt lat="46.10951" lon="4.64661">
        <ele>319</ele>
        <time>2023-10-18T08:04:33.455+00:00</time>
      </trkpt>
      <trkpt lat="46.10954" lon="4.64661">
        <ele>319</ele>
        <time>2023-10-18T08:04:37.294+00:00</time>
      </trkpt>
      <trkpt lat="46.1096" lon="4.64663">
        <ele>316</ele>
        <time>2023-10-18T08:04:42.194+00:00</time>
      </trkpt>
      <trkpt lat="46.10964" lon="4.64662">
        <ele>316</ele>
        <time>2023-10-18T08:04:46.736+00:00</time>
      </trkpt>
      <trkpt lat="46.10967" lon="4.6466">
        <ele>316</ele>
        <time>2023-10-18T08:04:50.794+00:00</time>
      </trkpt>
      <trkpt lat="46.10969" lon="4.64661">
        <ele>316</ele>
        <time>2023-10-18T08:04:54.996+00:00</time>
      </trkpt>
      <trkpt lat="46.10973" lon="4.64662">
        <ele>316</ele>
        <time>2023-10-18T08:04:59.434+00:00</time>
      </trkpt>
      <trkpt lat="46.10977" lon="4.64661">
        <ele>316</ele>
        <time>2023-10-18T08:05:03.194+00:00</time>
      </trkpt>
      <trkpt lat="46.10984" lon="4.64663">
        <ele>316</ele>
        <time>2023-10-18T08:05:08.534+00:00</time>
      </trkpt>
      <trkpt lat="46.1099" lon="4.64665">
        <ele>314</ele>
        <time>2023-10-18T08:05:12.294+00:00</time>
      </trkpt>
      <trkpt lat="46.10995" lon="4.64664">
        <ele>314</ele>
        <time>2023-10-18T08:05:16.334+00:00</time>
      </trkpt>
      <trkpt lat="46.11001" lon="4.64663">
        <ele>314</ele>
        <time>2023-10-18T08:05:20.834+00:00</time>
      </trkpt>
      <trkpt lat="46.11006" lon="4.6466">
        <ele>314</ele>
        <time>2023-10-18T08:05:24.914+00:00</time>
      </trkpt>
      <trkpt lat="46.1101" lon="4.64662">
        <ele>314</ele>
        <time>2023-10-18T08:05:28.734+00:00</time>
      </trkpt>
      <trkpt lat="46.11014" lon="4.64663">
        <ele>315</ele>
        <time>2023-10-18T08:05:33.154+00:00</time>
      </trkpt>
      <trkpt lat="46.11019" lon="4.64665">
        <ele>315</ele>
        <time>2023-10-18T08:05:37.554+00:00</time>
      </trkpt>
      <trkpt lat="46.11022" lon="4.64666">
        <ele>315</ele>
        <time>2023-10-18T08:05:42.154+00:00</time>
      </trkpt>
      <trkpt lat="46.11027" lon="4.64668">
        <ele>315</ele>
        <time>2023-10-18T08:05:46.354+00:00</time>
      </trkpt>
      <trkpt lat="46.11032" lon="4.64669">
        <ele>315</ele>
        <time>2023-10-18T08:05:50.954+00:00</time>
      </trkpt>
      <trkpt lat="46.11036" lon="4.6467">
        <ele>315</ele>
        <time>2023-10-18T08:05:55.554+00:00</time>
      </trkpt>
      <trkpt lat="46.1104" lon="4.64673">
        <ele>315</ele>
        <time>2023-10-18T08:06:00.176+00:00</time>
      </trkpt>
      <trkpt lat="46.11044" lon="4.64675">
        <ele>316</ele>
        <time>2023-10-18T08:06:04.574+00:00</time>
      </trkpt>
      <trkpt lat="46.11048" lon="4.64677">
        <ele>316</ele>
        <time>2023-10-18T08:06:08.914+00:00</time>
      </trkpt>
      <trkpt lat="46.11053" lon="4.64678">
        <ele>316</ele>
        <time>2023-10-18T08:06:12.854+00:00</time>
      </trkpt>
      <trkpt lat="46.11055" lon="4.64675">
        <ele>316</ele>
        <time>2023-10-18T08:06:17.374+00:00</time>
      </trkpt>
      <trkpt lat="46.11057" lon="4.64675">
        <ele>316</ele>
        <time>2023-10-18T08:06:21.794+00:00</time>
      </trkpt>
      <trkpt lat="46.11062" lon="4.64677">
        <ele>316</ele>
        <time>2023-10-18T08:06:26.414+00:00</time>
      </trkpt>
      <trkpt lat="46.11066" lon="4.64677">
        <ele>316</ele>
        <time>2023-10-18T08:06:30.954+00:00</time>
      </trkpt>
      <trkpt lat="46.11069" lon="4.64676">
        <ele>316</ele>
        <time>2023-10-18T08:06:35.588+00:00</time>
      </trkpt>
      <trkpt lat="46.11068" lon="4.64676">
        <ele>316</ele>
        <time>2023-10-18T08:07:04.590+00:00</time>
      </trkpt>
      <trkpt lat="46.11068" lon="4.64677">
        <ele>316</ele>
        <time>2023-10-18T08:07:09.590+00:00</time>
      </trkpt>
      <trkpt lat="46.1107" lon="4.64676">
        <ele>311</ele>
        <time>2023-10-18T08:07:14.078+00:00</time>
      </trkpt>
      <trkpt lat="46.11075" lon="4.64677">
        <ele>311</ele>
        <time>2023-10-18T08:07:18.174+00:00</time>
      </trkpt>
      <trkpt lat="46.11081" lon="4.64677">
        <ele>311</ele>
        <time>2023-10-18T08:07:22.694+00:00</time>
      </trkpt>
      <trkpt lat="46.11086" lon="4.64677">
        <ele>311</ele>
        <time>2023-10-18T08:07:27.214+00:00</time>
      </trkpt>
      <trkpt lat="46.11089" lon="4.64678">
        <ele>311</ele>
        <time>2023-10-18T08:07:31.154+00:00</time>
      </trkpt>
      <trkpt lat="46.11093" lon="4.6468">
        <ele>311</ele>
        <time>2023-10-18T08:07:35.554+00:00</time>
      </trkpt>
      <trkpt lat="46.11098" lon="4.64682">
        <ele>307</ele>
        <time>2023-10-18T08:07:40.174+00:00</time>
      </trkpt>
      <trkpt lat="46.11103" lon="4.64684">
        <ele>307</ele>
        <time>2023-10-18T08:07:45.298+00:00</time>
      </trkpt>
      <trkpt lat="46.11106" lon="4.64686">
        <ele>307</ele>
        <time>2023-10-18T08:07:49.734+00:00</time>
      </trkpt>
      <trkpt lat="46.1111" lon="4.6469">
        <ele>307</ele>
        <time>2023-10-18T08:07:54.134+00:00</time>
      </trkpt>
      <trkpt lat="46.11114" lon="4.64692">
        <ele>307</ele>
        <time>2023-10-18T08:07:58.134+00:00</time>
      </trkpt>
      <trkpt lat="46.11119" lon="4.64696">
        <ele>307</ele>
        <time>2023-10-18T08:08:03.138+00:00</time>
      </trkpt>
      <trkpt lat="46.11122" lon="4.64699">
        <ele>307</ele>
        <time>2023-10-18T08:08:07.134+00:00</time>
      </trkpt>
      <trkpt lat="46.11126" lon="4.64703">
        <ele>303</ele>
        <time>2023-10-18T08:08:11.734+00:00</time>
      </trkpt>
      <trkpt lat="46.1113" lon="4.64707">
        <ele>303</ele>
        <time>2023-10-18T08:08:16.138+00:00</time>
      </trkpt>
      <trkpt lat="46.11133" lon="4.64711">
        <ele>305</ele>
        <time>2023-10-18T08:08:20.134+00:00</time>
      </trkpt>
      <trkpt lat="46.11136" lon="4.64714">
        <ele>305</ele>
        <time>2023-10-18T08:08:24.654+00:00</time>
      </trkpt>
      <trkpt lat="46.1114" lon="4.64718">
        <ele>305</ele>
        <time>2023-10-18T08:08:29.074+00:00</time>
      </trkpt>
      <trkpt lat="46.11142" lon="4.64723">
        <ele>305</ele>
        <time>2023-10-18T08:08:33.114+00:00</time>
      </trkpt>
      <trkpt lat="46.11145" lon="4.64729">
        <ele>305</ele>
        <time>2023-10-18T08:08:37.114+00:00</time>
      </trkpt>
      <trkpt lat="46.11148" lon="4.64733">
        <ele>305</ele>
        <time>2023-10-18T08:08:41.114+00:00</time>
      </trkpt>
      <trkpt lat="46.11151" lon="4.6474">
        <ele>308</ele>
        <time>2023-10-18T08:08:46.134+00:00</time>
      </trkpt>
      <trkpt lat="46.11154" lon="4.64747">
        <ele>302</ele>
        <time>2023-10-18T08:08:50.654+00:00</time>
      </trkpt>
      <trkpt lat="46.11157" lon="4.64752">
        <ele>302</ele>
        <time>2023-10-18T08:08:54.874+00:00</time>
      </trkpt>
      <trkpt lat="46.11161" lon="4.64758">
        <ele>302</ele>
        <time>2023-10-18T08:08:58.974+00:00</time>
      </trkpt>
      <trkpt lat="46.11164" lon="4.64763">
        <ele>302</ele>
        <time>2023-10-18T08:09:02.974+00:00</time>
      </trkpt>
      <trkpt lat="46.11167" lon="4.64766">
        <ele>306</ele>
        <time>2023-10-18T08:09:06.974+00:00</time>
      </trkpt>
      <trkpt lat="46.11171" lon="4.64771">
        <ele>306</ele>
        <time>2023-10-18T08:09:11.334+00:00</time>
      </trkpt>
      <trkpt lat="46.11174" lon="4.64774">
        <ele>306</ele>
        <time>2023-10-18T08:09:15.588+00:00</time>
      </trkpt>
      <trkpt lat="46.11178" lon="4.64779">
        <ele>306</ele>
        <time>2023-10-18T08:09:19.674+00:00</time>
      </trkpt>
      <trkpt lat="46.11182" lon="4.64784">
        <ele>300</ele>
        <time>2023-10-18T08:09:24.094+00:00</time>
      </trkpt>
      <trkpt lat="46.11185" lon="4.64788">
        <ele>300</ele>
        <time>2023-10-18T08:09:28.359+00:00</time>
      </trkpt>
      <trkpt lat="46.11189" lon="4.64793">
        <ele>304</ele>
        <time>2023-10-18T08:09:32.518+00:00</time>
      </trkpt>
      <trkpt lat="46.11193" lon="4.64796">
        <ele>304</ele>
        <time>2023-10-18T08:09:36.574+00:00</time>
      </trkpt>
      <trkpt lat="46.11196" lon="4.648">
        <ele>304</ele>
        <time>2023-10-18T08:09:40.494+00:00</time>
      </trkpt>
      <trkpt lat="46.112" lon="4.64806">
        <ele>304</ele>
        <time>2023-10-18T08:09:44.434+00:00</time>
      </trkpt>
      <trkpt lat="46.11205" lon="4.6481">
        <ele>304</ele>
        <time>2023-10-18T08:09:49.034+00:00</time>
      </trkpt>
      <trkpt lat="46.1121" lon="4.64815">
        <ele>299</ele>
        <time>2023-10-18T08:09:53.554+00:00</time>
      </trkpt>
      <trkpt lat="46.11214" lon="4.6482">
        <ele>302</ele>
        <time>2023-10-18T08:09:57.946+00:00</time>
      </trkpt>
      <trkpt lat="46.11218" lon="4.64824">
        <ele>302</ele>
        <time>2023-10-18T08:10:01.874+00:00</time>
      </trkpt>
      <trkpt lat="46.11222" lon="4.64827">
        <ele>302</ele>
        <time>2023-10-18T08:10:05.834+00:00</time>
      </trkpt>
      <trkpt lat="46.11225" lon="4.64831">
        <ele>302</ele>
        <time>2023-10-18T08:10:10.338+00:00</time>
      </trkpt>
      <trkpt lat="46.11229" lon="4.64836">
        <ele>302</ele>
        <time>2023-10-18T08:10:14.414+00:00</time>
      </trkpt>
      <trkpt lat="46.11231" lon="4.64841">
        <ele>302</ele>
        <time>2023-10-18T08:10:18.414+00:00</time>
      </trkpt>
      <trkpt lat="46.11233" lon="4.64848">
        <ele>303</ele>
        <time>2023-10-18T08:10:22.589+00:00</time>
      </trkpt>
      <trkpt lat="46.11237" lon="4.64855">
        <ele>301</ele>
        <time>2023-10-18T08:10:27.114+00:00</time>
      </trkpt>
      <trkpt lat="46.1124" lon="4.6486">
        <ele>301</ele>
        <time>2023-10-18T08:10:31.598+00:00</time>
      </trkpt>
      <trkpt lat="46.11249" lon="4.64864">
        <ele>301</ele>
        <time>2023-10-18T08:12:25.154+00:00</time>
      </trkpt>
      <trkpt lat="46.11253" lon="4.64874">
        <ele>301</ele>
        <time>2023-10-18T08:12:29.714+00:00</time>
      </trkpt>
      <trkpt lat="46.11257" lon="4.6488">
        <ele>302</ele>
        <time>2023-10-18T08:12:34.094+00:00</time>
      </trkpt>
      <trkpt lat="46.11261" lon="4.64886">
        <ele>302</ele>
        <time>2023-10-18T08:12:38.034+00:00</time>
      </trkpt>
      <trkpt lat="46.11264" lon="4.64891">
        <ele>300</ele>
        <time>2023-10-18T08:12:42.618+00:00</time>
      </trkpt>
      <trkpt lat="46.11268" lon="4.64896">
        <ele>300</ele>
        <time>2023-10-18T08:12:46.354+00:00</time>
      </trkpt>
      <trkpt lat="46.11271" lon="4.64902">
        <ele>300</ele>
        <time>2023-10-18T08:12:50.954+00:00</time>
      </trkpt>
      <trkpt lat="46.11275" lon="4.64906">
        <ele>301</ele>
        <time>2023-10-18T08:12:54.954+00:00</time>
      </trkpt>
      <trkpt lat="46.11279" lon="4.64911">
        <ele>301</ele>
        <time>2023-10-18T08:12:59.374+00:00</time>
      </trkpt>
      <trkpt lat="46.11282" lon="4.64916">
        <ele>301</ele>
        <time>2023-10-18T08:13:03.094+00:00</time>
      </trkpt>
      <trkpt lat="46.11286" lon="4.64919">
        <ele>301</ele>
        <time>2023-10-18T08:13:07.134+00:00</time>
      </trkpt>
      <trkpt lat="46.11289" lon="4.64924">
        <ele>301</ele>
        <time>2023-10-18T08:13:12.074+00:00</time>
      </trkpt>
      <trkpt lat="46.11292" lon="4.64928">
        <ele>300</ele>
        <time>2023-10-18T08:13:16.434+00:00</time>
      </trkpt>
      <trkpt lat="46.11291" lon="4.64925">
        <ele>301</ele>
        <time>2023-10-18T08:15:05.588+00:00</time>
      </trkpt>
      <trkpt lat="46.11291" lon="4.64925">
        <ele>301</ele>
        <time>2023-10-18T08:15:10.590+00:00</time>
      </trkpt>
      <trkpt lat="46.11292" lon="4.64922">
        <ele>300</ele>
        <time>2023-10-18T08:15:15.591+00:00</time>
      </trkpt>
      <trkpt lat="46.11295" lon="4.6492">
        <ele>300</ele>
        <time>2023-10-18T08:15:20.054+00:00</time>
      </trkpt>
      <trkpt lat="46.113" lon="4.64917">
        <ele>300</ele>
        <time>2023-10-18T08:15:23.834+00:00</time>
      </trkpt>
      <trkpt lat="46.11305" lon="4.64915">
        <ele>300</ele>
        <time>2023-10-18T08:15:28.594+00:00</time>
      </trkpt>
      <trkpt lat="46.1131" lon="4.64915">
        <ele>300</ele>
        <time>2023-10-18T08:15:33.014+00:00</time>
      </trkpt>
      <trkpt lat="46.11315" lon="4.64916">
        <ele>300</ele>
        <time>2023-10-18T08:15:37.437+00:00</time>
      </trkpt>
      <trkpt lat="46.11319" lon="4.64916">
        <ele>300</ele>
        <time>2023-10-18T08:15:41.354+00:00</time>
      </trkpt>
      <trkpt lat="46.11324" lon="4.64916">
        <ele>299</ele>
        <time>2023-10-18T08:15:45.274+00:00</time>
      </trkpt>
      <trkpt lat="46.1133" lon="4.64917">
        <ele>299</ele>
        <time>2023-10-18T08:15:50.054+00:00</time>
      </trkpt>
      <trkpt lat="46.11336" lon="4.64914">
        <ele>299</ele>
        <time>2023-10-18T08:15:54.074+00:00</time>
      </trkpt>
      <trkpt lat="46.11341" lon="4.64913">
        <ele>299</ele>
        <time>2023-10-18T08:15:58.594+00:00</time>
      </trkpt>
      <trkpt lat="46.11346" lon="4.64912">
        <ele>299</ele>
        <time>2023-10-18T08:16:03.014+00:00</time>
      </trkpt>
      <trkpt lat="46.11351" lon="4.64912">
        <ele>297</ele>
        <time>2023-10-18T08:16:07.014+00:00</time>
      </trkpt>
      <trkpt lat="46.11355" lon="4.64913">
        <ele>297</ele>
        <time>2023-10-18T08:16:10.834+00:00</time>
      </trkpt>
      <trkpt lat="46.11361" lon="4.64913">
        <ele>297</ele>
        <time>2023-10-18T08:16:15.318+00:00</time>
      </trkpt>
      <trkpt lat="46.11366" lon="4.64912">
        <ele>297</ele>
        <time>2023-10-18T08:16:19.314+00:00</time>
      </trkpt>
      <trkpt lat="46.11369" lon="4.64911">
        <ele>297</ele>
        <time>2023-10-18T08:16:23.754+00:00</time>
      </trkpt>
      <trkpt lat="46.11372" lon="4.64908">
        <ele>297</ele>
        <time>2023-10-18T08:16:27.954+00:00</time>
      </trkpt>
      <trkpt lat="46.11373" lon="4.64904">
        <ele>297</ele>
        <time>2023-10-18T08:16:31.974+00:00</time>
      </trkpt>
      <trkpt lat="46.11374" lon="4.64899">
        <ele>294</ele>
        <time>2023-10-18T08:16:36.474+00:00</time>
      </trkpt>
      <trkpt lat="46.11377" lon="4.64893">
        <ele>292</ele>
        <time>2023-10-18T08:16:40.594+00:00</time>
      </trkpt>
      <trkpt lat="46.1138" lon="4.64888">
        <ele>292</ele>
        <time>2023-10-18T08:16:44.694+00:00</time>
      </trkpt>
      <trkpt lat="46.11382" lon="4.64883">
        <ele>292</ele>
        <time>2023-10-18T08:16:48.694+00:00</time>
      </trkpt>
      <trkpt lat="46.11386" lon="4.64878">
        <ele>292</ele>
        <time>2023-10-18T08:16:53.314+00:00</time>
      </trkpt>
      <trkpt lat="46.1139" lon="4.64871">
        <ele>287</ele>
        <time>2023-10-18T08:16:57.834+00:00</time>
      </trkpt>
      <trkpt lat="46.11393" lon="4.64866">
        <ele>287</ele>
        <time>2023-10-18T08:17:02.398+00:00</time>
      </trkpt>
      <trkpt lat="46.11395" lon="4.64862">
        <ele>287</ele>
        <time>2023-10-18T08:17:06.354+00:00</time>
      </trkpt>
      <trkpt lat="46.11398" lon="4.64856">
        <ele>287</ele>
        <time>2023-10-18T08:17:10.974+00:00</time>
      </trkpt>
      <trkpt lat="46.114" lon="4.6485">
        <ele>287</ele>
        <time>2023-10-18T08:17:15.497+00:00</time>
      </trkpt>
      <trkpt lat="46.11396" lon="4.64843">
        <ele>283</ele>
        <time>2023-10-18T08:17:19.594+00:00</time>
      </trkpt>
      <trkpt lat="46.11392" lon="4.6484">
        <ele>283</ele>
        <time>2023-10-18T08:17:24.134+00:00</time>
      </trkpt>
      <trkpt lat="46.11387" lon="4.64833">
        <ele>283</ele>
        <time>2023-10-18T08:17:28.590+00:00</time>
      </trkpt>
      <trkpt lat="46.11384" lon="4.64826">
        <ele>283</ele>
        <time>2023-10-18T08:17:33.018+00:00</time>
      </trkpt>
      <trkpt lat="46.1138" lon="4.6482">
        <ele>283</ele>
        <time>2023-10-18T08:17:37.174+00:00</time>
      </trkpt>
      <trkpt lat="46.11378" lon="4.64814">
        <ele>279</ele>
        <time>2023-10-18T08:17:42.274+00:00</time>
      </trkpt>
      <trkpt lat="46.11375" lon="4.64808">
        <ele>280</ele>
        <time>2023-10-18T08:17:46.214+00:00</time>
      </trkpt>
      <trkpt lat="46.11372" lon="4.64801">
        <ele>280</ele>
        <time>2023-10-18T08:17:50.414+00:00</time>
      </trkpt>
      <trkpt lat="46.1137" lon="4.64794">
        <ele>280</ele>
        <time>2023-10-18T08:17:54.434+00:00</time>
      </trkpt>
      <trkpt lat="46.11368" lon="4.64793">
        <ele>280</ele>
        <time>2023-10-18T08:17:58.454+00:00</time>
      </trkpt>
      <trkpt lat="46.11366" lon="4.64789">
        <ele>278</ele>
        <time>2023-10-18T08:18:02.574+00:00</time>
      </trkpt>
      <trkpt lat="46.11363" lon="4.64782">
        <ele>278</ele>
        <time>2023-10-18T08:18:07.194+00:00</time>
      </trkpt>
      <trkpt lat="46.1136" lon="4.64777">
        <ele>278</ele>
        <time>2023-10-18T08:18:11.094+00:00</time>
      </trkpt>
      <trkpt lat="46.11356" lon="4.6477">
        <ele>278</ele>
        <time>2023-10-18T08:18:15.794+00:00</time>
      </trkpt>
      <trkpt lat="46.11352" lon="4.64763">
        <ele>278</ele>
        <time>2023-10-18T08:18:19.994+00:00</time>
      </trkpt>
      <trkpt lat="46.11348" lon="4.64759">
        <ele>278</ele>
        <time>2023-10-18T08:18:24.094+00:00</time>
      </trkpt>
      <trkpt lat="46.11345" lon="4.64753">
        <ele>281</ele>
        <time>2023-10-18T08:18:28.094+00:00</time>
      </trkpt>
      <trkpt lat="46.11346" lon="4.64746">
        <ele>281</ele>
        <time>2023-10-18T08:18:32.592+00:00</time>
      </trkpt>
      <trkpt lat="46.11351" lon="4.64741">
        <ele>278</ele>
        <time>2023-10-18T08:18:37.077+00:00</time>
      </trkpt>
      <trkpt lat="46.11356" lon="4.64736">
        <ele>277</ele>
        <time>2023-10-18T08:18:41.494+00:00</time>
      </trkpt>
      <trkpt lat="46.1136" lon="4.6473">
        <ele>277</ele>
        <time>2023-10-18T08:18:46.094+00:00</time>
      </trkpt>
      <trkpt lat="46.11363" lon="4.64723">
        <ele>277</ele>
        <time>2023-10-18T08:18:50.114+00:00</time>
      </trkpt>
      <trkpt lat="46.11366" lon="4.64718">
        <ele>277</ele>
        <time>2023-10-18T08:18:54.034+00:00</time>
      </trkpt>
      <trkpt lat="46.1137" lon="4.64713">
        <ele>277</ele>
        <time>2023-10-18T08:18:58.600+00:00</time>
      </trkpt>
      <trkpt lat="46.11373" lon="4.64706">
        <ele>275</ele>
        <time>2023-10-18T08:19:02.434+00:00</time>
      </trkpt>
      <trkpt lat="46.11376" lon="4.64699">
        <ele>272</ele>
        <time>2023-10-18T08:19:07.034+00:00</time>
      </trkpt>
      <trkpt lat="46.11378" lon="4.64692">
        <ele>272</ele>
        <time>2023-10-18T08:19:11.518+00:00</time>
      </trkpt>
      <trkpt lat="46.11375" lon="4.64683">
        <ele>275</ele>
        <time>2023-10-18T08:19:15.974+00:00</time>
      </trkpt>
      <trkpt lat="46.11374" lon="4.64675">
        <ele>272</ele>
        <time>2023-10-18T08:19:20.174+00:00</time>
      </trkpt>
      <trkpt lat="46.11372" lon="4.64668">
        <ele>272</ele>
        <time>2023-10-18T08:19:24.834+00:00</time>
      </trkpt>
      <trkpt lat="46.11371" lon="4.64659">
        <ele>272</ele>
        <time>2023-10-18T08:19:29.154+00:00</time>
      </trkpt>
      <trkpt lat="46.11372" lon="4.64651">
        <ele>269</ele>
        <time>2023-10-18T08:19:33.074+00:00</time>
      </trkpt>
      <trkpt lat="46.11372" lon="4.64641">
        <ele>269</ele>
        <time>2023-10-18T08:19:37.591+00:00</time>
      </trkpt>
      <trkpt lat="46.11374" lon="4.64632">
        <ele>269</ele>
        <time>2023-10-18T08:19:42.174+00:00</time>
      </trkpt>
      <trkpt lat="46.11372" lon="4.64624">
        <ele>267</ele>
        <time>2023-10-18T08:19:46.374+00:00</time>
      </trkpt>
      <trkpt lat="46.11372" lon="4.64617">
        <ele>267</ele>
        <time>2023-10-18T08:19:50.994+00:00</time>
      </trkpt>
      <trkpt lat="46.11372" lon="4.64609">
        <ele>267</ele>
        <time>2023-10-18T08:19:55.584+00:00</time>
      </trkpt>
      <trkpt lat="46.11372" lon="4.64601">
        <ele>267</ele>
        <time>2023-10-18T08:19:59.592+00:00</time>
      </trkpt>
      <trkpt lat="46.11372" lon="4.64592">
        <ele>266</ele>
        <time>2023-10-18T08:20:04.134+00:00</time>
      </trkpt>
      <trkpt lat="46.11372" lon="4.64586">
        <ele>266</ele>
        <time>2023-10-18T08:20:08.154+00:00</time>
      </trkpt>
      <trkpt lat="46.11372" lon="4.64578">
        <ele>266</ele>
        <time>2023-10-18T08:20:12.714+00:00</time>
      </trkpt>
      <trkpt lat="46.11371" lon="4.64569">
        <ele>265</ele>
        <time>2023-10-18T08:20:17.094+00:00</time>
      </trkpt>
      <trkpt lat="46.11372" lon="4.64562">
        <ele>265</ele>
        <time>2023-10-18T08:20:21.797+00:00</time>
      </trkpt>
      <trkpt lat="46.11372" lon="4.64553">
        <ele>265</ele>
        <time>2023-10-18T08:20:26.334+00:00</time>
      </trkpt>
      <trkpt lat="46.11373" lon="4.64543">
        <ele>265</ele>
        <time>2023-10-18T08:20:31.354+00:00</time>
      </trkpt>
      <trkpt lat="46.11373" lon="4.64535">
        <ele>264</ele>
        <time>2023-10-18T08:20:35.497+00:00</time>
      </trkpt>
      <trkpt lat="46.11374" lon="4.64527">
        <ele>264</ele>
        <time>2023-10-18T08:20:39.454+00:00</time>
      </trkpt>
      <trkpt lat="46.11371" lon="4.6452">
        <ele>264</ele>
        <time>2023-10-18T08:20:43.914+00:00</time>
      </trkpt>
      <trkpt lat="46.11369" lon="4.64512">
        <ele>264</ele>
        <time>2023-10-18T08:20:47.774+00:00</time>
      </trkpt>
      <trkpt lat="46.11367" lon="4.64502">
        <ele>264</ele>
        <time>2023-10-18T08:20:52.374+00:00</time>
      </trkpt>
      <trkpt lat="46.11366" lon="4.64495">
        <ele>264</ele>
        <time>2023-10-18T08:20:56.934+00:00</time>
      </trkpt>
      <trkpt lat="46.11365" lon="4.64486">
        <ele>264</ele>
        <time>2023-10-18T08:21:01.554+00:00</time>
      </trkpt>
      <trkpt lat="46.11364" lon="4.64479">
        <ele>264</ele>
        <time>2023-10-18T08:21:05.774+00:00</time>
      </trkpt>
      <trkpt lat="46.11363" lon="4.64471">
        <ele>264</ele>
        <time>2023-10-18T08:21:10.214+00:00</time>
      </trkpt>
      <trkpt lat="46.11362" lon="4.64463">
        <ele>264</ele>
        <time>2023-10-18T08:21:14.674+00:00</time>
      </trkpt>
      <trkpt lat="46.11363" lon="4.6446">
        <ele>264</ele>
        <time>2023-10-18T08:21:19.154+00:00</time>
      </trkpt>
      <trkpt lat="46.11366" lon="4.64455">
        <ele>264</ele>
        <time>2023-10-18T08:21:23.154+00:00</time>
      </trkpt>
      <trkpt lat="46.11364" lon="4.64447">
        <ele>264</ele>
        <time>2023-10-18T08:21:27.174+00:00</time>
      </trkpt>
      <trkpt lat="46.11363" lon="4.64438">
        <ele>264</ele>
        <time>2023-10-18T08:21:32.057+00:00</time>
      </trkpt>
      <trkpt lat="46.11363" lon="4.64431">
        <ele>264</ele>
        <time>2023-10-18T08:21:35.994+00:00</time>
      </trkpt>
      <trkpt lat="46.11362" lon="4.64424">
        <ele>265</ele>
        <time>2023-10-18T08:21:40.014+00:00</time>
      </trkpt>
      <trkpt lat="46.11361" lon="4.64417">
        <ele>265</ele>
        <time>2023-10-18T08:21:44.394+00:00</time>
      </trkpt>
      <trkpt lat="46.1136" lon="4.64411">
        <ele>265</ele>
        <time>2023-10-18T08:21:48.594+00:00</time>
      </trkpt>
      <trkpt lat="46.1136" lon="4.64404">
        <ele>265</ele>
        <time>2023-10-18T08:21:53.114+00:00</time>
      </trkpt>
      <trkpt lat="46.11362" lon="4.64398">
        <ele>266</ele>
        <time>2023-10-18T08:21:57.134+00:00</time>
      </trkpt>
      <trkpt lat="46.11364" lon="4.64393">
        <ele>266</ele>
        <time>2023-10-18T08:22:01.497+00:00</time>
      </trkpt>
      <trkpt lat="46.11365" lon="4.64387">
        <ele>266</ele>
        <time>2023-10-18T08:22:05.554+00:00</time>
      </trkpt>
      <trkpt lat="46.11366" lon="4.64379">
        <ele>266</ele>
        <time>2023-10-18T08:22:09.958+00:00</time>
      </trkpt>
      <trkpt lat="46.11368" lon="4.64371">
        <ele>267</ele>
        <time>2023-10-18T08:22:13.834+00:00</time>
      </trkpt>
      <trkpt lat="46.1137" lon="4.64364">
        <ele>267</ele>
        <time>2023-10-18T08:22:18.114+00:00</time>
      </trkpt>
      <trkpt lat="46.11372" lon="4.64358">
        <ele>267</ele>
        <time>2023-10-18T08:22:22.154+00:00</time>
      </trkpt>
      <trkpt lat="46.11374" lon="4.64352">
        <ele>267</ele>
        <time>2023-10-18T08:22:26.174+00:00</time>
      </trkpt>
      <trkpt lat="46.11376" lon="4.64345">
        <ele>264</ele>
        <time>2023-10-18T08:22:30.274+00:00</time>
      </trkpt>
      <trkpt lat="46.11379" lon="4.64339">
        <ele>264</ele>
        <time>2023-10-18T08:22:34.794+00:00</time>
      </trkpt>
      <trkpt lat="46.11381" lon="4.64332">
        <ele>264</ele>
        <time>2023-10-18T08:22:38.834+00:00</time>
      </trkpt>
      <trkpt lat="46.11382" lon="4.64326">
        <ele>264</ele>
        <time>2023-10-18T08:22:43.294+00:00</time>
      </trkpt>
      <trkpt lat="46.11384" lon="4.64321">
        <ele>264</ele>
        <time>2023-10-18T08:22:47.394+00:00</time>
      </trkpt>
      <trkpt lat="46.11385" lon="4.64318">
        <ele>264</ele>
        <time>2023-10-18T08:22:51.834+00:00</time>
      </trkpt>
      <trkpt lat="46.11385" lon="4.64313">
        <ele>264</ele>
        <time>2023-10-18T08:22:55.814+00:00</time>
      </trkpt>
      <trkpt lat="46.11384" lon="4.64306">
        <ele>264</ele>
        <time>2023-10-18T08:23:00.254+00:00</time>
      </trkpt>
      <trkpt lat="46.11383" lon="4.64298">
        <ele>264</ele>
        <time>2023-10-18T08:23:05.198+00:00</time>
      </trkpt>
      <trkpt lat="46.11381" lon="4.64292">
        <ele>265</ele>
        <time>2023-10-18T08:23:09.374+00:00</time>
      </trkpt>
      <trkpt lat="46.11379" lon="4.64285">
        <ele>265</ele>
        <time>2023-10-18T08:23:13.994+00:00</time>
      </trkpt>
      <trkpt lat="46.11378" lon="4.6428">
        <ele>265</ele>
        <time>2023-10-18T08:23:32.194+00:00</time>
      </trkpt>
      <trkpt lat="46.11376" lon="4.64273">
        <ele>265</ele>
        <time>2023-10-18T08:23:36.394+00:00</time>
      </trkpt>
      <trkpt lat="46.11375" lon="4.64265">
        <ele>268</ele>
        <time>2023-10-18T08:23:40.834+00:00</time>
      </trkpt>
      <trkpt lat="46.11374" lon="4.64259">
        <ele>268</ele>
        <time>2023-10-18T08:23:45.354+00:00</time>
      </trkpt>
      <trkpt lat="46.11373" lon="4.64252">
        <ele>268</ele>
        <time>2023-10-18T08:23:49.314+00:00</time>
      </trkpt>
      <trkpt lat="46.11377" lon="4.64231">
        <ele>265</ele>
        <time>2023-10-18T08:25:57.434+00:00</time>
      </trkpt>
      <trkpt lat="46.11378" lon="4.6423">
        <ele>265</ele>
        <time>2023-10-18T08:26:02.274+00:00</time>
      </trkpt>
      <trkpt lat="46.11378" lon="4.64231">
        <ele>265</ele>
        <time>2023-10-18T08:26:06.694+00:00</time>
      </trkpt>
      <trkpt lat="46.11381" lon="4.6423">
        <ele>265</ele>
        <time>2023-10-18T08:26:11.354+00:00</time>
      </trkpt>
      <trkpt lat="46.11388" lon="4.64229">
        <ele>265</ele>
        <time>2023-10-18T08:26:16.094+00:00</time>
      </trkpt>
      <trkpt lat="46.11396" lon="4.64224">
        <ele>265</ele>
        <time>2023-10-18T08:26:20.438+00:00</time>
      </trkpt>
      <trkpt lat="46.11398" lon="4.64217">
        <ele>265</ele>
        <time>2023-10-18T08:26:24.474+00:00</time>
      </trkpt>
      <trkpt lat="46.11394" lon="4.64209">
        <ele>265</ele>
        <time>2023-10-18T08:26:28.374+00:00</time>
      </trkpt>
      <trkpt lat="46.1139" lon="4.64201">
        <ele>262</ele>
        <time>2023-10-18T08:26:32.814+00:00</time>
      </trkpt>
      <trkpt lat="46.11387" lon="4.64194">
        <ele>262</ele>
        <time>2023-10-18T08:26:37.174+00:00</time>
      </trkpt>
      <trkpt lat="46.11384" lon="4.64188">
        <ele>262</ele>
        <time>2023-10-18T08:26:41.598+00:00</time>
      </trkpt>
      <trkpt lat="46.11382" lon="4.64181">
        <ele>262</ele>
        <time>2023-10-18T08:26:45.674+00:00</time>
      </trkpt>
      <trkpt lat="46.11379" lon="4.64174">
        <ele>259</ele>
        <time>2023-10-18T08:26:50.217+00:00</time>
      </trkpt>
      <trkpt lat="46.11376" lon="4.6417">
        <ele>259</ele>
        <time>2023-10-18T08:26:54.234+00:00</time>
      </trkpt>
      <trkpt lat="46.11375" lon="4.64165">
        <ele>264</ele>
        <time>2023-10-18T08:26:58.074+00:00</time>
      </trkpt>
      <trkpt lat="46.11373" lon="4.64163">
        <ele>264</ele>
        <time>2023-10-18T08:27:02.554+00:00</time>
      </trkpt>
      <trkpt lat="46.11372" lon="4.6416">
        <ele>264</ele>
        <time>2023-10-18T08:27:06.414+00:00</time>
      </trkpt>
      <trkpt lat="46.1137" lon="4.64155">
        <ele>264</ele>
        <time>2023-10-18T08:27:11.414+00:00</time>
      </trkpt>
      <trkpt lat="46.11368" lon="4.64151">
        <ele>262</ele>
        <time>2023-10-18T08:27:15.614+00:00</time>
      </trkpt>
      <trkpt lat="46.11367" lon="4.64148">
        <ele>262</ele>
        <time>2023-10-18T08:27:19.714+00:00</time>
      </trkpt>
      <trkpt lat="46.11365" lon="4.64145">
        <ele>262</ele>
        <time>2023-10-18T08:27:23.714+00:00</time>
      </trkpt>
      <trkpt lat="46.11361" lon="4.64146">
        <ele>262</ele>
        <time>2023-10-18T08:27:28.254+00:00</time>
      </trkpt>
      <trkpt lat="46.11358" lon="4.64139">
        <ele>262</ele>
        <time>2023-10-18T08:27:32.778+00:00</time>
      </trkpt>
      <trkpt lat="46.11355" lon="4.64132">
        <ele>262</ele>
        <time>2023-10-18T08:27:36.974+00:00</time>
      </trkpt>
      <trkpt lat="46.11351" lon="4.64126">
        <ele>262</ele>
        <time>2023-10-18T08:27:41.574+00:00</time>
      </trkpt>
      <trkpt lat="46.11348" lon="4.6412">
        <ele>261</ele>
        <time>2023-10-18T08:27:46.074+00:00</time>
      </trkpt>
      <trkpt lat="46.11345" lon="4.64115">
        <ele>266</ele>
        <time>2023-10-18T08:27:50.514+00:00</time>
      </trkpt>
      <trkpt lat="46.1134" lon="4.64111">
        <ele>266</ele>
        <time>2023-10-18T08:27:55.034+00:00</time>
      </trkpt>
      <trkpt lat="46.11336" lon="4.64108">
        <ele>266</ele>
        <time>2023-10-18T08:27:58.954+00:00</time>
      </trkpt>
      <trkpt lat="46.11332" lon="4.64104">
        <ele>266</ele>
        <time>2023-10-18T08:28:03.554+00:00</time>
      </trkpt>
      <trkpt lat="46.11328" lon="4.64101">
        <ele>266</ele>
        <time>2023-10-18T08:28:07.494+00:00</time>
      </trkpt>
      <trkpt lat="46.11324" lon="4.64096">
        <ele>264</ele>
        <time>2023-10-18T08:28:12.014+00:00</time>
      </trkpt>
      <trkpt lat="46.1132" lon="4.64093">
        <ele>264</ele>
        <time>2023-10-18T08:28:16.014+00:00</time>
      </trkpt>
      <trkpt lat="46.11316" lon="4.6409">
        <ele>266</ele>
        <time>2023-10-18T08:28:20.134+00:00</time>
      </trkpt>
      <trkpt lat="46.11312" lon="4.64086">
        <ele>266</ele>
        <time>2023-10-18T08:28:24.754+00:00</time>
      </trkpt>
      <trkpt lat="46.11307" lon="4.64084">
        <ele>266</ele>
        <time>2023-10-18T08:28:28.834+00:00</time>
      </trkpt>
      <trkpt lat="46.11302" lon="4.6408">
        <ele>266</ele>
        <time>2023-10-18T08:28:33.374+00:00</time>
      </trkpt>
      <trkpt lat="46.11299" lon="4.64076">
        <ele>266</ele>
        <time>2023-10-18T08:28:38.074+00:00</time>
      </trkpt>
      <trkpt lat="46.11296" lon="4.6407">
        <ele>266</ele>
        <time>2023-10-18T08:28:42.574+00:00</time>
      </trkpt>
      <trkpt lat="46.11299" lon="4.64064">
        <ele>265</ele>
        <time>2023-10-18T08:28:46.974+00:00</time>
      </trkpt>
      <trkpt lat="46.11303" lon="4.64059">
        <ele>265</ele>
        <time>2023-10-18T08:28:51.394+00:00</time>
      </trkpt>
      <trkpt lat="46.11302" lon="4.64052">
        <ele>265</ele>
        <time>2023-10-18T08:28:55.374+00:00</time>
      </trkpt>
      <trkpt lat="46.11299" lon="4.64047">
        <ele>265</ele>
        <time>2023-10-18T08:28:59.834+00:00</time>
      </trkpt>
      <trkpt lat="46.11294" lon="4.64043">
        <ele>265</ele>
        <time>2023-10-18T08:29:04.014+00:00</time>
      </trkpt>
      <trkpt lat="46.11292" lon="4.64039">
        <ele>264</ele>
        <time>2023-10-18T08:29:08.518+00:00</time>
      </trkpt>
      <trkpt lat="46.11291" lon="4.64034">
        <ele>265</ele>
        <time>2023-10-18T08:29:12.554+00:00</time>
      </trkpt>
      <trkpt lat="46.11289" lon="4.64028">
        <ele>265</ele>
        <time>2023-10-18T08:29:17.174+00:00</time>
      </trkpt>
      <trkpt lat="46.11288" lon="4.64022">
        <ele>265</ele>
        <time>2023-10-18T08:29:21.494+00:00</time>
      </trkpt>
      <trkpt lat="46.11284" lon="4.64016">
        <ele>265</ele>
        <time>2023-10-18T08:29:25.714+00:00</time>
      </trkpt>
      <trkpt lat="46.11283" lon="4.64009">
        <ele>265</ele>
        <time>2023-10-18T08:29:30.314+00:00</time>
      </trkpt>
      <trkpt lat="46.11286" lon="4.64003">
        <ele>265</ele>
        <time>2023-10-18T08:29:34.834+00:00</time>
      </trkpt>
      <trkpt lat="46.11289" lon="4.63997">
        <ele>265</ele>
        <time>2023-10-18T08:29:39.258+00:00</time>
      </trkpt>
      <trkpt lat="46.11293" lon="4.63993">
        <ele>264</ele>
        <time>2023-10-18T08:29:43.014+00:00</time>
      </trkpt>
      <trkpt lat="46.11297" lon="4.63989">
        <ele>264</ele>
        <time>2023-10-18T08:29:47.454+00:00</time>
      </trkpt>
      <trkpt lat="46.113" lon="4.63986">
        <ele>265</ele>
        <time>2023-10-18T08:29:51.294+00:00</time>
      </trkpt>
      <trkpt lat="46.11304" lon="4.63982">
        <ele>265</ele>
        <time>2023-10-18T08:29:55.774+00:00</time>
      </trkpt>
      <trkpt lat="46.11309" lon="4.63979">
        <ele>265</ele>
        <time>2023-10-18T08:30:00.014+00:00</time>
      </trkpt>
      <trkpt lat="46.11312" lon="4.63976">
        <ele>265</ele>
        <time>2023-10-18T08:30:03.994+00:00</time>
      </trkpt>
      <trkpt lat="46.11316" lon="4.63971">
        <ele>265</ele>
        <time>2023-10-18T08:30:08.418+00:00</time>
      </trkpt>
      <trkpt lat="46.1132" lon="4.63968">
        <ele>264</ele>
        <time>2023-10-18T08:30:12.394+00:00</time>
      </trkpt>
      <trkpt lat="46.11326" lon="4.63965">
        <ele>264</ele>
        <time>2023-10-18T08:30:17.558+00:00</time>
      </trkpt>
      <trkpt lat="46.1133" lon="4.63961">
        <ele>264</ele>
        <time>2023-10-18T08:30:21.414+00:00</time>
      </trkpt>
      <trkpt lat="46.11335" lon="4.63959">
        <ele>264</ele>
        <time>2023-10-18T08:30:25.954+00:00</time>
      </trkpt>
      <trkpt lat="46.1134" lon="4.63958">
        <ele>267</ele>
        <time>2023-10-18T08:30:30.094+00:00</time>
      </trkpt>
      <trkpt lat="46.11344" lon="4.63955">
        <ele>267</ele>
        <time>2023-10-18T08:30:33.994+00:00</time>
      </trkpt>
      <trkpt lat="46.11348" lon="4.63952">
        <ele>266</ele>
        <time>2023-10-18T08:30:38.394+00:00</time>
      </trkpt>
      <trkpt lat="46.11353" lon="4.6395">
        <ele>266</ele>
        <time>2023-10-18T08:30:42.314+00:00</time>
      </trkpt>
      <trkpt lat="46.11359" lon="4.63948">
        <ele>266</ele>
        <time>2023-10-18T08:30:47.017+00:00</time>
      </trkpt>
      <trkpt lat="46.11364" lon="4.63946">
        <ele>266</ele>
        <time>2023-10-18T08:30:51.034+00:00</time>
      </trkpt>
      <trkpt lat="46.11369" lon="4.63944">
        <ele>266</ele>
        <time>2023-10-18T08:30:55.374+00:00</time>
      </trkpt>
      <trkpt lat="46.11373" lon="4.63942">
        <ele>266</ele>
        <time>2023-10-18T08:30:59.574+00:00</time>
      </trkpt>
      <trkpt lat="46.1138" lon="4.63942">
        <ele>266</ele>
        <time>2023-10-18T08:31:04.094+00:00</time>
      </trkpt>
      <trkpt lat="46.11386" lon="4.63941">
        <ele>266</ele>
        <time>2023-10-18T08:31:09.394+00:00</time>
      </trkpt>
      <trkpt lat="46.11391" lon="4.63939">
        <ele>266</ele>
        <time>2023-10-18T08:31:14.014+00:00</time>
      </trkpt>
      <trkpt lat="46.11396" lon="4.63937">
        <ele>266</ele>
        <time>2023-10-18T08:31:18.591+00:00</time>
      </trkpt>
      <trkpt lat="46.114" lon="4.63936">
        <ele>266</ele>
        <time>2023-10-18T08:31:22.590+00:00</time>
      </trkpt>
      <trkpt lat="46.11406" lon="4.63933">
        <ele>265</ele>
        <time>2023-10-18T08:31:27.154+00:00</time>
      </trkpt>
      <trkpt lat="46.11411" lon="4.63931">
        <ele>265</ele>
        <time>2023-10-18T08:31:31.774+00:00</time>
      </trkpt>
      <trkpt lat="46.11415" lon="4.63929">
        <ele>267</ele>
        <time>2023-10-18T08:31:35.834+00:00</time>
      </trkpt>
      <trkpt lat="46.1142" lon="4.63927">
        <ele>267</ele>
        <time>2023-10-18T08:31:40.518+00:00</time>
      </trkpt>
      <trkpt lat="46.11424" lon="4.63925">
        <ele>267</ele>
        <time>2023-10-18T08:31:44.394+00:00</time>
      </trkpt>
      <trkpt lat="46.11421" lon="4.6392">
        <ele>267</ele>
        <time>2023-10-18T08:31:48.994+00:00</time>
      </trkpt>
      <trkpt lat="46.11415" lon="4.63918">
        <ele>267</ele>
        <time>2023-10-18T08:31:53.600+00:00</time>
      </trkpt>
      <trkpt lat="46.11409" lon="4.63916">
        <ele>267</ele>
        <time>2023-10-18T08:31:57.894+00:00</time>
      </trkpt>
      <trkpt lat="46.11405" lon="4.63913">
        <ele>267</ele>
        <time>2023-10-18T08:32:01.774+00:00</time>
      </trkpt>
      <trkpt lat="46.11402" lon="4.63909">
        <ele>268</ele>
        <time>2023-10-18T08:32:06.074+00:00</time>
      </trkpt>
      <trkpt lat="46.11397" lon="4.63905">
        <ele>268</ele>
        <time>2023-10-18T08:32:10.374+00:00</time>
      </trkpt>
      <trkpt lat="46.11394" lon="4.63902">
        <ele>270</ele>
        <time>2023-10-18T08:32:14.354+00:00</time>
      </trkpt>
      <trkpt lat="46.11391" lon="4.639">
        <ele>270</ele>
        <time>2023-10-18T08:32:18.834+00:00</time>
      </trkpt>
      <trkpt lat="46.11386" lon="4.63897">
        <ele>270</ele>
        <time>2023-10-18T08:32:23.314+00:00</time>
      </trkpt>
      <trkpt lat="46.11383" lon="4.63893">
        <ele>270</ele>
        <time>2023-10-18T08:32:27.754+00:00</time>
      </trkpt>
      <trkpt lat="46.11379" lon="4.63891">
        <ele>270</ele>
        <time>2023-10-18T08:32:32.214+00:00</time>
      </trkpt>
      <trkpt lat="46.11373" lon="4.63883">
        <ele>272</ele>
        <time>2023-10-18T08:32:45.174+00:00</time>
      </trkpt>
      <trkpt lat="46.11373" lon="4.63883">
        <ele>272</ele>
        <time>2023-10-18T08:32:49.858+00:00</time>
      </trkpt>
      <trkpt lat="46.11369" lon="4.63879">
        <ele>272</ele>
        <time>2023-10-18T08:32:53.834+00:00</time>
      </trkpt>
      <trkpt lat="46.11364" lon="4.63875">
        <ele>272</ele>
        <time>2023-10-18T08:32:58.194+00:00</time>
      </trkpt>
      <trkpt lat="46.11361" lon="4.63871">
        <ele>274</ele>
        <time>2023-10-18T08:33:02.578+00:00</time>
      </trkpt>
      <trkpt lat="46.11356" lon="4.63865">
        <ele>274</ele>
        <time>2023-10-18T08:33:07.134+00:00</time>
      </trkpt>
      <trkpt lat="46.11353" lon="4.63861">
        <ele>274</ele>
        <time>2023-10-18T08:33:11.734+00:00</time>
      </trkpt>
      <trkpt lat="46.1135" lon="4.63857">
        <ele>274</ele>
        <time>2023-10-18T08:33:16.234+00:00</time>
      </trkpt>
      <trkpt lat="46.11346" lon="4.63852">
        <ele>277</ele>
        <time>2023-10-18T08:33:20.834+00:00</time>
      </trkpt>
      <trkpt lat="46.11342" lon="4.63849">
        <ele>277</ele>
        <time>2023-10-18T08:33:25.438+00:00</time>
      </trkpt>
      <trkpt lat="46.11339" lon="4.63844">
        <ele>279</ele>
        <time>2023-10-18T08:33:29.414+00:00</time>
      </trkpt>
      <trkpt lat="46.11336" lon="4.63839">
        <ele>279</ele>
        <time>2023-10-18T08:33:33.554+00:00</time>
      </trkpt>
      <trkpt lat="46.11333" lon="4.63833">
        <ele>279</ele>
        <time>2023-10-18T08:33:37.593+00:00</time>
      </trkpt>
      <trkpt lat="46.11329" lon="4.63827">
        <ele>279</ele>
        <time>2023-10-18T08:33:42.098+00:00</time>
      </trkpt>
      <trkpt lat="46.11326" lon="4.63822">
        <ele>279</ele>
        <time>2023-10-18T08:33:46.437+00:00</time>
      </trkpt>
      <trkpt lat="46.11323" lon="4.63818">
        <ele>281</ele>
        <time>2023-10-18T08:33:50.434+00:00</time>
      </trkpt>
      <trkpt lat="46.1132" lon="4.63811">
        <ele>281</ele>
        <time>2023-10-18T08:33:55.354+00:00</time>
      </trkpt>
      <trkpt lat="46.11317" lon="4.63805">
        <ele>281</ele>
        <time>2023-10-18T08:33:59.254+00:00</time>
      </trkpt>
      <trkpt lat="46.11315" lon="4.638">
        <ele>281</ele>
        <time>2023-10-18T08:34:03.914+00:00</time>
      </trkpt>
      <trkpt lat="46.11312" lon="4.63793">
        <ele>281</ele>
        <time>2023-10-18T08:34:08.754+00:00</time>
      </trkpt>
      <trkpt lat="46.11309" lon="4.63786">
        <ele>284</ele>
        <time>2023-10-18T08:34:12.918+00:00</time>
      </trkpt>
      <trkpt lat="46.11307" lon="4.6378">
        <ele>284</ele>
        <time>2023-10-18T08:34:17.238+00:00</time>
      </trkpt>
      <trkpt lat="46.11304" lon="4.63775">
        <ele>284</ele>
        <time>2023-10-18T08:34:21.114+00:00</time>
      </trkpt>
      <trkpt lat="46.11302" lon="4.63769">
        <ele>284</ele>
        <time>2023-10-18T08:34:25.574+00:00</time>
      </trkpt>
      <trkpt lat="46.113" lon="4.63762">
        <ele>286</ele>
        <time>2023-10-18T08:34:29.934+00:00</time>
      </trkpt>
      <trkpt lat="46.11297" lon="4.63755">
        <ele>286</ele>
        <time>2023-10-18T08:34:34.334+00:00</time>
      </trkpt>
      <trkpt lat="46.11293" lon="4.63749">
        <ele>286</ele>
        <time>2023-10-18T08:34:38.734+00:00</time>
      </trkpt>
      <trkpt lat="46.11291" lon="4.63743">
        <ele>287</ele>
        <time>2023-10-18T08:34:43.234+00:00</time>
      </trkpt>
      <trkpt lat="46.11288" lon="4.63737">
        <ele>287</ele>
        <time>2023-10-18T08:34:47.814+00:00</time>
      </trkpt>
      <trkpt lat="46.11288" lon="4.63734">
        <ele>288</ele>
        <time>2023-10-18T08:34:52.374+00:00</time>
      </trkpt>
      <trkpt lat="46.11285" lon="4.63727">
        <ele>288</ele>
        <time>2023-10-18T08:34:56.874+00:00</time>
      </trkpt>
      <trkpt lat="46.11282" lon="4.63721">
        <ele>288</ele>
        <time>2023-10-18T08:35:01.398+00:00</time>
      </trkpt>
      <trkpt lat="46.11281" lon="4.63715">
        <ele>288</ele>
        <time>2023-10-18T08:35:05.314+00:00</time>
      </trkpt>
      <trkpt lat="46.11279" lon="4.63708">
        <ele>289</ele>
        <time>2023-10-18T08:35:09.314+00:00</time>
      </trkpt>
      <trkpt lat="46.11276" lon="4.63701">
        <ele>289</ele>
        <time>2023-10-18T08:35:13.834+00:00</time>
      </trkpt>
      <trkpt lat="46.11273" lon="4.63695">
        <ele>289</ele>
        <time>2023-10-18T08:35:17.834+00:00</time>
      </trkpt>
      <trkpt lat="46.11272" lon="4.6369">
        <ele>289</ele>
        <time>2023-10-18T08:35:22.014+00:00</time>
      </trkpt>
      <trkpt lat="46.1127" lon="4.63684">
        <ele>289</ele>
        <time>2023-10-18T08:35:26.518+00:00</time>
      </trkpt>
      <trkpt lat="46.11267" lon="4.63678">
        <ele>290</ele>
        <time>2023-10-18T08:35:30.794+00:00</time>
      </trkpt>
      <trkpt lat="46.11265" lon="4.63672">
        <ele>290</ele>
        <time>2023-10-18T08:35:34.794+00:00</time>
      </trkpt>
      <trkpt lat="46.11263" lon="4.63665">
        <ele>290</ele>
        <time>2023-10-18T08:35:39.298+00:00</time>
      </trkpt>
      <trkpt lat="46.11262" lon="4.63654">
        <ele>290</ele>
        <time>2023-10-18T08:39:27.595+00:00</time>
      </trkpt>
      <trkpt lat="46.11263" lon="4.63654">
        <ele>290</ele>
        <time>2023-10-18T08:39:31.592+00:00</time>
      </trkpt>
      <trkpt lat="46.11264" lon="4.63652">
        <ele>291</ele>
        <time>2023-10-18T08:39:35.774+00:00</time>
      </trkpt>
      <trkpt lat="46.11267" lon="4.63646">
        <ele>291</ele>
        <time>2023-10-18T08:39:40.374+00:00</time>
      </trkpt>
      <trkpt lat="46.11271" lon="4.63638">
        <ele>291</ele>
        <time>2023-10-18T08:39:45.174+00:00</time>
      </trkpt>
      <trkpt lat="46.11274" lon="4.63634">
        <ele>291</ele>
        <time>2023-10-18T08:39:49.294+00:00</time>
      </trkpt>
      <trkpt lat="46.11278" lon="4.6363">
        <ele>291</ele>
        <time>2023-10-18T08:39:53.594+00:00</time>
      </trkpt>
      <trkpt lat="46.11282" lon="4.63627">
        <ele>291</ele>
        <time>2023-10-18T08:39:58.134+00:00</time>
      </trkpt>
      <trkpt lat="46.11285" lon="4.6362">
        <ele>292</ele>
        <time>2023-10-18T08:40:02.554+00:00</time>
      </trkpt>
      <trkpt lat="46.11287" lon="4.63613">
        <ele>292</ele>
        <time>2023-10-18T08:40:07.274+00:00</time>
      </trkpt>
      <trkpt lat="46.11288" lon="4.63606">
        <ele>292</ele>
        <time>2023-10-18T08:40:11.374+00:00</time>
      </trkpt>
      <trkpt lat="46.1129" lon="4.63599">
        <ele>292</ele>
        <time>2023-10-18T08:40:16.074+00:00</time>
      </trkpt>
      <trkpt lat="46.11292" lon="4.63593">
        <ele>293</ele>
        <time>2023-10-18T08:40:20.474+00:00</time>
      </trkpt>
      <trkpt lat="46.11293" lon="4.63587">
        <ele>293</ele>
        <time>2023-10-18T08:40:24.774+00:00</time>
      </trkpt>
      <trkpt lat="46.11294" lon="4.63581">
        <ele>293</ele>
        <time>2023-10-18T08:40:29.154+00:00</time>
      </trkpt>
      <trkpt lat="46.11297" lon="4.63573">
        <ele>293</ele>
        <time>2023-10-18T08:40:33.354+00:00</time>
      </trkpt>
      <trkpt lat="46.11299" lon="4.63566">
        <ele>293</ele>
        <time>2023-10-18T08:40:37.894+00:00</time>
      </trkpt>
      <trkpt lat="46.113" lon="4.63559">
        <ele>293</ele>
        <time>2023-10-18T08:40:41.834+00:00</time>
      </trkpt>
      <trkpt lat="46.11301" lon="4.63552">
        <ele>293</ele>
        <time>2023-10-18T08:40:46.354+00:00</time>
      </trkpt>
      <trkpt lat="46.11302" lon="4.63546">
        <ele>293</ele>
        <time>2023-10-18T08:40:50.154+00:00</time>
      </trkpt>
      <trkpt lat="46.11304" lon="4.63536">
        <ele>295</ele>
        <time>2023-10-18T08:40:54.954+00:00</time>
      </trkpt>
      <trkpt lat="46.11305" lon="4.63529">
        <ele>295</ele>
        <time>2023-10-18T08:40:59.414+00:00</time>
      </trkpt>
      <trkpt lat="46.11307" lon="4.63521">
        <ele>295</ele>
        <time>2023-10-18T08:41:03.734+00:00</time>
      </trkpt>
      <trkpt lat="46.11308" lon="4.63515">
        <ele>295</ele>
        <time>2023-10-18T08:41:08.234+00:00</time>
      </trkpt>
      <trkpt lat="46.11309" lon="4.63509">
        <ele>297</ele>
        <time>2023-10-18T08:41:12.094+00:00</time>
      </trkpt>
      <trkpt lat="46.1131" lon="4.63502">
        <ele>297</ele>
        <time>2023-10-18T08:41:16.694+00:00</time>
      </trkpt>
      <trkpt lat="46.11311" lon="4.63494">
        <ele>297</ele>
        <time>2023-10-18T08:41:21.134+00:00</time>
      </trkpt>
      <trkpt lat="46.11312" lon="4.63487">
        <ele>297</ele>
        <time>2023-10-18T08:41:25.594+00:00</time>
      </trkpt>
      <trkpt lat="46.11313" lon="4.63479">
        <ele>299</ele>
        <time>2023-10-18T08:41:30.018+00:00</time>
      </trkpt>
      <trkpt lat="46.11313" lon="4.63473">
        <ele>299</ele>
        <time>2023-10-18T08:41:33.994+00:00</time>
      </trkpt>
      <trkpt lat="46.11315" lon="4.63467">
        <ele>299</ele>
        <time>2023-10-18T08:41:38.234+00:00</time>
      </trkpt>
      <trkpt lat="46.11319" lon="4.63462">
        <ele>299</ele>
        <time>2023-10-18T08:41:42.954+00:00</time>
      </trkpt>
      <trkpt lat="46.11324" lon="4.6346">
        <ele>298</ele>
        <time>2023-10-18T08:41:47.374+00:00</time>
      </trkpt>
      <trkpt lat="46.11328" lon="4.63457">
        <ele>299</ele>
        <time>2023-10-18T08:41:51.234+00:00</time>
      </trkpt>
      <trkpt lat="46.11331" lon="4.63454">
        <ele>299</ele>
        <time>2023-10-18T08:41:55.734+00:00</time>
      </trkpt>
      <trkpt lat="46.11336" lon="4.63448">
        <ele>299</ele>
        <time>2023-10-18T08:42:00.177+00:00</time>
      </trkpt>
      <trkpt lat="46.1134" lon="4.63444">
        <ele>299</ele>
        <time>2023-10-18T08:42:04.498+00:00</time>
      </trkpt>
      <trkpt lat="46.11341" lon="4.63438">
        <ele>299</ele>
        <time>2023-10-18T08:42:08.394+00:00</time>
      </trkpt>
      <trkpt lat="46.11338" lon="4.6343">
        <ele>300</ele>
        <time>2023-10-18T08:42:13.014+00:00</time>
      </trkpt>
      <trkpt lat="46.11336" lon="4.63423">
        <ele>300</ele>
        <time>2023-10-18T08:42:17.394+00:00</time>
      </trkpt>
      <trkpt lat="46.11333" lon="4.63416">
        <ele>300</ele>
        <time>2023-10-18T08:42:21.874+00:00</time>
      </trkpt>
      <trkpt lat="46.11331" lon="4.63411">
        <ele>300</ele>
        <time>2023-10-18T08:42:25.814+00:00</time>
      </trkpt>
      <trkpt lat="46.11329" lon="4.63405">
        <ele>300</ele>
        <time>2023-10-18T08:42:29.834+00:00</time>
      </trkpt>
      <trkpt lat="46.11327" lon="4.63399">
        <ele>301</ele>
        <time>2023-10-18T08:42:34.194+00:00</time>
      </trkpt>
      <trkpt lat="46.11326" lon="4.63394">
        <ele>301</ele>
        <time>2023-10-18T08:42:37.934+00:00</time>
      </trkpt>
      <trkpt lat="46.11325" lon="4.63388">
        <ele>301</ele>
        <time>2023-10-18T08:42:42.194+00:00</time>
      </trkpt>
      <trkpt lat="46.11323" lon="4.63383">
        <ele>301</ele>
        <time>2023-10-18T08:42:46.314+00:00</time>
      </trkpt>
      <trkpt lat="46.11322" lon="4.63375">
        <ele>301</ele>
        <time>2023-10-18T08:42:50.614+00:00</time>
      </trkpt>
      <trkpt lat="46.1132" lon="4.63369">
        <ele>301</ele>
        <time>2023-10-18T08:42:55.014+00:00</time>
      </trkpt>
      <trkpt lat="46.11319" lon="4.63365">
        <ele>304</ele>
        <time>2023-10-18T08:42:59.137+00:00</time>
      </trkpt>
      <trkpt lat="46.1132" lon="4.63361">
        <ele>301</ele>
        <time>2023-10-18T08:43:03.154+00:00</time>
      </trkpt>
      <trkpt lat="46.11326" lon="4.63358">
        <ele>301</ele>
        <time>2023-10-18T08:43:08.374+00:00</time>
      </trkpt>
      <trkpt lat="46.11331" lon="4.63357">
        <ele>301</ele>
        <time>2023-10-18T08:43:12.814+00:00</time>
      </trkpt>
      <trkpt lat="46.11335" lon="4.63355">
        <ele>301</ele>
        <time>2023-10-18T08:43:17.114+00:00</time>
      </trkpt>
      <trkpt lat="46.11339" lon="4.63352">
        <ele>301</ele>
        <time>2023-10-18T08:43:21.595+00:00</time>
      </trkpt>
      <trkpt lat="46.11344" lon="4.63349">
        <ele>301</ele>
        <time>2023-10-18T08:43:26.074+00:00</time>
      </trkpt>
      <trkpt lat="46.11347" lon="4.63347">
        <ele>293</ele>
        <time>2023-10-18T08:43:30.594+00:00</time>
      </trkpt>
      <trkpt lat="46.11354" lon="4.63344">
        <ele>293</ele>
        <time>2023-10-18T08:43:35.394+00:00</time>
      </trkpt>
      <trkpt lat="46.11359" lon="4.63341">
        <ele>293</ele>
        <time>2023-10-18T08:43:40.394+00:00</time>
      </trkpt>
      <trkpt lat="46.11363" lon="4.63338">
        <ele>293</ele>
        <time>2023-10-18T08:43:44.314+00:00</time>
      </trkpt>
      <trkpt lat="46.11367" lon="4.63335">
        <ele>293</ele>
        <time>2023-10-18T08:43:48.834+00:00</time>
      </trkpt>
      <trkpt lat="46.11371" lon="4.63333">
        <ele>293</ele>
        <time>2023-10-18T08:43:53.434+00:00</time>
      </trkpt>
      <trkpt lat="46.11374" lon="4.63332">
        <ele>293</ele>
        <time>2023-10-18T08:43:57.354+00:00</time>
      </trkpt>
      <trkpt lat="46.11378" lon="4.63331">
        <ele>286</ele>
        <time>2023-10-18T08:44:01.974+00:00</time>
      </trkpt>
      <trkpt lat="46.11382" lon="4.63328">
        <ele>286</ele>
        <time>2023-10-18T08:44:06.174+00:00</time>
      </trkpt>
      <trkpt lat="46.11387" lon="4.63325">
        <ele>286</ele>
        <time>2023-10-18T08:44:10.638+00:00</time>
      </trkpt>
      <trkpt lat="46.1139" lon="4.63319">
        <ele>286</ele>
        <time>2023-10-18T08:44:15.118+00:00</time>
      </trkpt>
      <trkpt lat="46.11393" lon="4.63314">
        <ele>286</ele>
        <time>2023-10-18T08:44:18.914+00:00</time>
      </trkpt>
      <trkpt lat="46.11395" lon="4.63305">
        <ele>286</ele>
        <time>2023-10-18T08:44:23.514+00:00</time>
      </trkpt>
      <trkpt lat="46.11394" lon="4.63297">
        <ele>286</ele>
        <time>2023-10-18T08:44:27.354+00:00</time>
      </trkpt>
      <trkpt lat="46.11393" lon="4.6329">
        <ele>284</ele>
        <time>2023-10-18T08:44:31.718+00:00</time>
      </trkpt>
      <trkpt lat="46.11392" lon="4.63284">
        <ele>284</ele>
        <time>2023-10-18T08:44:36.174+00:00</time>
      </trkpt>
      <trkpt lat="46.1139" lon="4.63279">
        <ele>284</ele>
        <time>2023-10-18T08:44:40.374+00:00</time>
      </trkpt>
      <trkpt lat="46.11388" lon="4.63275">
        <ele>284</ele>
        <time>2023-10-18T08:44:44.194+00:00</time>
      </trkpt>
      <trkpt lat="46.11387" lon="4.63272">
        <ele>284</ele>
        <time>2023-10-18T08:44:49.294+00:00</time>
      </trkpt>
      <trkpt lat="46.11385" lon="4.63266">
        <ele>284</ele>
        <time>2023-10-18T08:44:53.334+00:00</time>
      </trkpt>
      <trkpt lat="46.11383" lon="4.63259">
        <ele>282</ele>
        <time>2023-10-18T08:44:57.354+00:00</time>
      </trkpt>
      <trkpt lat="46.11382" lon="4.63251">
        <ele>282</ele>
        <time>2023-10-18T08:45:01.874+00:00</time>
      </trkpt>
      <trkpt lat="46.11381" lon="4.63243">
        <ele>282</ele>
        <time>2023-10-18T08:45:06.474+00:00</time>
      </trkpt>
      <trkpt lat="46.1138" lon="4.63234">
        <ele>281</ele>
        <time>2023-10-18T08:45:11.094+00:00</time>
      </trkpt>
      <trkpt lat="46.11378" lon="4.6323">
        <ele>281</ele>
        <time>2023-10-18T08:45:15.618+00:00</time>
      </trkpt>
      <trkpt lat="46.11378" lon="4.63227">
        <ele>281</ele>
        <time>2023-10-18T08:45:19.474+00:00</time>
      </trkpt>
      <trkpt lat="46.11379" lon="4.63226">
        <ele>281</ele>
        <time>2023-10-18T08:45:23.954+00:00</time>
      </trkpt>
      <trkpt lat="46.11377" lon="4.63219">
        <ele>281</ele>
        <time>2023-10-18T08:45:28.374+00:00</time>
      </trkpt>
      <trkpt lat="46.11376" lon="4.63214">
        <ele>281</ele>
        <time>2023-10-18T08:45:32.574+00:00</time>
      </trkpt>
      <trkpt lat="46.11376" lon="4.63208">
        <ele>280</ele>
        <time>2023-10-18T08:45:37.094+00:00</time>
      </trkpt>
      <trkpt lat="46.11376" lon="4.63203">
        <ele>280</ele>
        <time>2023-10-18T08:45:41.214+00:00</time>
      </trkpt>
      <trkpt lat="46.11378" lon="4.63198">
        <ele>280</ele>
        <time>2023-10-18T08:45:45.593+00:00</time>
      </trkpt>
      <trkpt lat="46.11379" lon="4.63195">
        <ele>280</ele>
        <time>2023-10-18T08:45:49.754+00:00</time>
      </trkpt>
      <trkpt lat="46.11377" lon="4.63193">
        <ele>280</ele>
        <time>2023-10-18T08:50:01.593+00:00</time>
      </trkpt>
      <trkpt lat="46.11376" lon="4.63193">
        <ele>280</ele>
        <time>2023-10-18T08:50:06.589+00:00</time>
      </trkpt>
      <trkpt lat="46.11375" lon="4.63192">
        <ele>287</ele>
        <time>2023-10-18T08:50:11.134+00:00</time>
      </trkpt>
      <trkpt lat="46.11372" lon="4.63187">
        <ele>287</ele>
        <time>2023-10-18T08:50:15.134+00:00</time>
      </trkpt>
      <trkpt lat="46.11371" lon="4.63181">
        <ele>287</ele>
        <time>2023-10-18T08:50:19.594+00:00</time>
      </trkpt>
      <trkpt lat="46.1137" lon="4.63174">
        <ele>286</ele>
        <time>2023-10-18T08:50:24.134+00:00</time>
      </trkpt>
      <trkpt lat="46.11368" lon="4.63167">
        <ele>286</ele>
        <time>2023-10-18T08:50:28.558+00:00</time>
      </trkpt>
      <trkpt lat="46.11367" lon="4.6316">
        <ele>286</ele>
        <time>2023-10-18T08:50:32.554+00:00</time>
      </trkpt>
      <trkpt lat="46.11366" lon="4.63152">
        <ele>284</ele>
        <time>2023-10-18T08:50:37.174+00:00</time>
      </trkpt>
      <trkpt lat="46.11365" lon="4.63145">
        <ele>284</ele>
        <time>2023-10-18T08:50:41.592+00:00</time>
      </trkpt>
      <trkpt lat="46.11364" lon="4.63138">
        <ele>284</ele>
        <time>2023-10-18T08:50:45.834+00:00</time>
      </trkpt>
      <trkpt lat="46.11362" lon="4.63132">
        <ele>284</ele>
        <time>2023-10-18T08:50:50.174+00:00</time>
      </trkpt>
      <trkpt lat="46.11362" lon="4.63125">
        <ele>281</ele>
        <time>2023-10-18T08:50:54.814+00:00</time>
      </trkpt>
      <trkpt lat="46.11361" lon="4.63119">
        <ele>281</ele>
        <time>2023-10-18T08:50:59.314+00:00</time>
      </trkpt>
      <trkpt lat="46.1136" lon="4.63113">
        <ele>281</ele>
        <time>2023-10-18T08:51:03.414+00:00</time>
      </trkpt>
      <trkpt lat="46.11358" lon="4.63106">
        <ele>281</ele>
        <time>2023-10-18T08:51:08.478+00:00</time>
      </trkpt>
      <trkpt lat="46.11357" lon="4.63099">
        <ele>281</ele>
        <time>2023-10-18T08:51:12.414+00:00</time>
      </trkpt>
      <trkpt lat="46.11356" lon="4.63093">
        <ele>277</ele>
        <time>2023-10-18T08:51:16.874+00:00</time>
      </trkpt>
      <trkpt lat="46.11355" lon="4.63086">
        <ele>277</ele>
        <time>2023-10-18T08:51:20.974+00:00</time>
      </trkpt>
      <trkpt lat="46.11354" lon="4.6308">
        <ele>277</ele>
        <time>2023-10-18T08:51:25.374+00:00</time>
      </trkpt>
      <trkpt lat="46.11353" lon="4.63074">
        <ele>277</ele>
        <time>2023-10-18T08:51:29.574+00:00</time>
      </trkpt>
      <trkpt lat="46.11349" lon="4.63066">
        <ele>274</ele>
        <time>2023-10-18T08:51:47.954+00:00</time>
      </trkpt>
      <trkpt lat="46.11348" lon="4.63063">
        <ele>274</ele>
        <time>2023-10-18T08:51:52.318+00:00</time>
      </trkpt>
      <trkpt lat="46.11348" lon="4.63053">
        <ele>274</ele>
        <time>2023-10-18T08:51:56.194+00:00</time>
      </trkpt>
      <trkpt lat="46.11347" lon="4.63045">
        <ele>283</ele>
        <time>2023-10-18T08:52:00.494+00:00</time>
      </trkpt>
      <trkpt lat="46.11346" lon="4.63038">
        <ele>280</ele>
        <time>2023-10-18T08:52:04.634+00:00</time>
      </trkpt>
      <trkpt lat="46.11345" lon="4.63031">
        <ele>280</ele>
        <time>2023-10-18T08:52:08.834+00:00</time>
      </trkpt>
      <trkpt lat="46.11344" lon="4.63025">
        <ele>280</ele>
        <time>2023-10-18T08:52:13.214+00:00</time>
      </trkpt>
      <trkpt lat="46.11343" lon="4.63018">
        <ele>280</ele>
        <time>2023-10-18T08:52:17.234+00:00</time>
      </trkpt>
      <trkpt lat="46.11342" lon="4.6301">
        <ele>279</ele>
        <time>2023-10-18T08:52:21.334+00:00</time>
      </trkpt>
      <trkpt lat="46.1134" lon="4.63002">
        <ele>279</ele>
        <time>2023-10-18T08:52:25.834+00:00</time>
      </trkpt>
      <trkpt lat="46.11339" lon="4.62994">
        <ele>279</ele>
        <time>2023-10-18T08:52:30.158+00:00</time>
      </trkpt>
      <trkpt lat="46.11338" lon="4.62988">
        <ele>279</ele>
        <time>2023-10-18T08:52:33.994+00:00</time>
      </trkpt>
      <trkpt lat="46.11336" lon="4.62981">
        <ele>278</ele>
        <time>2023-10-18T08:52:38.418+00:00</time>
      </trkpt>
      <trkpt lat="46.11335" lon="4.62974">
        <ele>278</ele>
        <time>2023-10-18T08:52:42.414+00:00</time>
      </trkpt>
      <trkpt lat="46.11333" lon="4.62967">
        <ele>278</ele>
        <time>2023-10-18T08:52:46.434+00:00</time>
      </trkpt>
      <trkpt lat="46.11332" lon="4.62959">
        <ele>278</ele>
        <time>2023-10-18T08:52:50.834+00:00</time>
      </trkpt>
      <trkpt lat="46.11331" lon="4.62951">
        <ele>277</ele>
        <time>2023-10-18T08:52:54.674+00:00</time>
      </trkpt>
      <trkpt lat="46.1133" lon="4.62944">
        <ele>277</ele>
        <time>2023-10-18T08:52:59.114+00:00</time>
      </trkpt>
      <trkpt lat="46.11329" lon="4.62937">
        <ele>277</ele>
        <time>2023-10-18T08:53:03.114+00:00</time>
      </trkpt>
      <trkpt lat="46.11327" lon="4.62928">
        <ele>274</ele>
        <time>2023-10-18T08:53:07.758+00:00</time>
      </trkpt>
      <trkpt lat="46.11326" lon="4.62921">
        <ele>274</ele>
        <time>2023-10-18T08:53:12.138+00:00</time>
      </trkpt>
      <trkpt lat="46.11325" lon="4.62914">
        <ele>274</ele>
        <time>2023-10-18T08:53:15.974+00:00</time>
      </trkpt>
      <trkpt lat="46.11324" lon="4.62906">
        <ele>274</ele>
        <time>2023-10-18T08:53:20.438+00:00</time>
      </trkpt>
      <trkpt lat="46.11323" lon="4.629">
        <ele>272</ele>
        <time>2023-10-18T08:53:24.394+00:00</time>
      </trkpt>
      <trkpt lat="46.11321" lon="4.62893">
        <ele>272</ele>
        <time>2023-10-18T08:53:28.994+00:00</time>
      </trkpt>
      <trkpt lat="46.1132" lon="4.62886">
        <ele>272</ele>
        <time>2023-10-18T08:53:33.514+00:00</time>
      </trkpt>
      <trkpt lat="46.11319" lon="4.62881">
        <ele>278</ele>
        <time>2023-10-18T08:53:37.414+00:00</time>
      </trkpt>
      <trkpt lat="46.11317" lon="4.62873">
        <ele>276</ele>
        <time>2023-10-18T08:53:41.914+00:00</time>
      </trkpt>
      <trkpt lat="46.11316" lon="4.62868">
        <ele>276</ele>
        <time>2023-10-18T08:53:45.834+00:00</time>
      </trkpt>
      <trkpt lat="46.11316" lon="4.62865">
        <ele>276</ele>
        <time>2023-10-18T08:54:08.914+00:00</time>
      </trkpt>
      <trkpt lat="46.11314" lon="4.62855">
        <ele>276</ele>
        <time>2023-10-18T08:54:13.274+00:00</time>
      </trkpt>
      <trkpt lat="46.11313" lon="4.62845">
        <ele>276</ele>
        <time>2023-10-18T08:54:17.114+00:00</time>
      </trkpt>
      <trkpt lat="46.11313" lon="4.62837">
        <ele>276</ele>
        <time>2023-10-18T08:54:20.954+00:00</time>
      </trkpt>
      <trkpt lat="46.1131" lon="4.62829">
        <ele>276</ele>
        <time>2023-10-18T08:54:25.518+00:00</time>
      </trkpt>
      <trkpt lat="46.11309" lon="4.62823">
        <ele>276</ele>
        <time>2023-10-18T08:54:29.494+00:00</time>
      </trkpt>
      <trkpt lat="46.11309" lon="4.62818">
        <ele>274</ele>
        <time>2023-10-18T08:54:33.334+00:00</time>
      </trkpt>
      <trkpt lat="46.11307" lon="4.62811">
        <ele>274</ele>
        <time>2023-10-18T08:54:37.534+00:00</time>
      </trkpt>
      <trkpt lat="46.11305" lon="4.62804">
        <ele>274</ele>
        <time>2023-10-18T08:54:41.354+00:00</time>
      </trkpt>
      <trkpt lat="46.11302" lon="4.62795">
        <ele>274</ele>
        <time>2023-10-18T08:54:45.654+00:00</time>
      </trkpt>
      <trkpt lat="46.113" lon="4.62787">
        <ele>272</ele>
        <time>2023-10-18T08:54:50.318+00:00</time>
      </trkpt>
      <trkpt lat="46.11297" lon="4.62778">
        <ele>272</ele>
        <time>2023-10-18T08:54:54.814+00:00</time>
      </trkpt>
      <trkpt lat="46.11295" lon="4.62771">
        <ele>272</ele>
        <time>2023-10-18T08:54:59.174+00:00</time>
      </trkpt>
      <trkpt lat="46.11292" lon="4.62763">
        <ele>270</ele>
        <time>2023-10-18T08:55:03.734+00:00</time>
      </trkpt>
      <trkpt lat="46.11291" lon="4.62756">
        <ele>275</ele>
        <time>2023-10-18T08:55:07.734+00:00</time>
      </trkpt>
      <trkpt lat="46.11289" lon="4.62748">
        <ele>275</ele>
        <time>2023-10-18T08:55:12.134+00:00</time>
      </trkpt>
      <trkpt lat="46.11286" lon="4.6274">
        <ele>275</ele>
        <time>2023-10-18T08:55:16.494+00:00</time>
      </trkpt>
      <trkpt lat="46.11283" lon="4.62734">
        <ele>273</ele>
        <time>2023-10-18T08:55:20.794+00:00</time>
      </trkpt>
      <trkpt lat="46.11281" lon="4.62726">
        <ele>273</ele>
        <time>2023-10-18T08:55:25.258+00:00</time>
      </trkpt>
      <trkpt lat="46.11279" lon="4.62718">
        <ele>273</ele>
        <time>2023-10-18T08:55:29.554+00:00</time>
      </trkpt>
      <trkpt lat="46.11277" lon="4.6271">
        <ele>273</ele>
        <time>2023-10-18T08:55:33.954+00:00</time>
      </trkpt>
      <trkpt lat="46.11274" lon="4.62703">
        <ele>270</ele>
        <time>2023-10-18T08:55:38.214+00:00</time>
      </trkpt>
      <trkpt lat="46.11273" lon="4.62698">
        <ele>270</ele>
        <time>2023-10-18T08:55:42.214+00:00</time>
      </trkpt>
      <trkpt lat="46.11271" lon="4.62692">
        <ele>270</ele>
        <time>2023-10-18T08:55:46.594+00:00</time>
      </trkpt>
      <trkpt lat="46.11269" lon="4.62685">
        <ele>270</ele>
        <time>2023-10-18T08:55:50.974+00:00</time>
      </trkpt>
      <trkpt lat="46.11266" lon="4.62677">
        <ele>267</ele>
        <time>2023-10-18T08:55:55.374+00:00</time>
      </trkpt>
      <trkpt lat="46.11264" lon="4.62669">
        <ele>273</ele>
        <time>2023-10-18T08:55:59.914+00:00</time>
      </trkpt>
      <trkpt lat="46.11262" lon="4.62662">
        <ele>273</ele>
        <time>2023-10-18T08:56:04.454+00:00</time>
      </trkpt>
      <trkpt lat="46.1126" lon="4.62655">
        <ele>273</ele>
        <time>2023-10-18T08:56:08.718+00:00</time>
      </trkpt>
      <trkpt lat="46.11258" lon="4.62646">
        <ele>271</ele>
        <time>2023-10-18T08:56:13.094+00:00</time>
      </trkpt>
      <trkpt lat="46.11258" lon="4.62638">
        <ele>271</ele>
        <time>2023-10-18T08:56:17.514+00:00</time>
      </trkpt>
      <trkpt lat="46.11257" lon="4.62631">
        <ele>271</ele>
        <time>2023-10-18T08:56:21.354+00:00</time>
      </trkpt>
      <trkpt lat="46.11256" lon="4.62625">
        <ele>271</ele>
        <time>2023-10-18T08:56:26.274+00:00</time>
      </trkpt>
      <trkpt lat="46.11255" lon="4.62621">
        <ele>273</ele>
        <time>2023-10-18T08:56:30.214+00:00</time>
      </trkpt>
      <trkpt lat="46.11255" lon="4.62622">
        <ele>273</ele>
        <time>2023-10-18T08:56:34.834+00:00</time>
      </trkpt>
      <trkpt lat="46.11255" lon="4.62617">
        <ele>273</ele>
        <time>2023-10-18T08:56:39.178+00:00</time>
      </trkpt>
      <trkpt lat="46.11257" lon="4.62607">
        <ele>273</ele>
        <time>2023-10-18T08:56:43.074+00:00</time>
      </trkpt>
      <trkpt lat="46.11257" lon="4.62599">
        <ele>273</ele>
        <time>2023-10-18T08:56:47.578+00:00</time>
      </trkpt>
      <trkpt lat="46.11258" lon="4.62591">
        <ele>274</ele>
        <time>2023-10-18T08:56:51.414+00:00</time>
      </trkpt>
      <trkpt lat="46.11258" lon="4.62584">
        <ele>274</ele>
        <time>2023-10-18T08:56:55.834+00:00</time>
      </trkpt>
      <trkpt lat="46.11259" lon="4.62578">
        <ele>274</ele>
        <time>2023-10-18T08:57:00.078+00:00</time>
      </trkpt>
      <trkpt lat="46.11259" lon="4.62573">
        <ele>274</ele>
        <time>2023-10-18T08:57:03.954+00:00</time>
      </trkpt>
      <trkpt lat="46.1126" lon="4.62566">
        <ele>275</ele>
        <time>2023-10-18T08:57:07.834+00:00</time>
      </trkpt>
      <trkpt lat="46.11262" lon="4.6256">
        <ele>275</ele>
        <time>2023-10-18T08:57:12.134+00:00</time>
      </trkpt>
      <trkpt lat="46.11264" lon="4.62554">
        <ele>275</ele>
        <time>2023-10-18T08:57:17.074+00:00</time>
      </trkpt>
      <trkpt lat="46.11265" lon="4.62546">
        <ele>267</ele>
        <time>2023-10-18T08:57:21.394+00:00</time>
      </trkpt>
      <trkpt lat="46.11264" lon="4.62539">
        <ele>275</ele>
        <time>2023-10-18T08:57:25.414+00:00</time>
      </trkpt>
      <trkpt lat="46.11262" lon="4.62531">
        <ele>275</ele>
        <time>2023-10-18T08:57:29.774+00:00</time>
      </trkpt>
      <trkpt lat="46.11262" lon="4.62524">
        <ele>275</ele>
        <time>2023-10-18T08:57:34.040+00:00</time>
      </trkpt>
      <trkpt lat="46.11263" lon="4.62517">
        <ele>275</ele>
        <time>2023-10-18T08:57:37.814+00:00</time>
      </trkpt>
      <trkpt lat="46.11264" lon="4.6251">
        <ele>267</ele>
        <time>2023-10-18T08:57:42.518+00:00</time>
      </trkpt>
      <trkpt lat="46.11264" lon="4.62504">
        <ele>267</ele>
        <time>2023-10-18T08:57:46.374+00:00</time>
      </trkpt>
      <trkpt lat="46.11263" lon="4.62502">
        <ele>276</ele>
        <time>2023-10-18T08:57:50.834+00:00</time>
      </trkpt>
      <trkpt lat="46.11264" lon="4.62495">
        <ele>276</ele>
        <time>2023-10-18T08:57:55.294+00:00</time>
      </trkpt>
      <trkpt lat="46.11265" lon="4.62487">
        <ele>267</ele>
        <time>2023-10-18T08:57:59.654+00:00</time>
      </trkpt>
      <trkpt lat="46.11267" lon="4.6248">
        <ele>267</ele>
        <time>2023-10-18T08:58:04.054+00:00</time>
      </trkpt>
      <trkpt lat="46.11268" lon="4.62474">
        <ele>267</ele>
        <time>2023-10-18T08:58:08.418+00:00</time>
      </trkpt>
      <trkpt lat="46.11269" lon="4.62468">
        <ele>267</ele>
        <time>2023-10-18T08:58:12.314+00:00</time>
      </trkpt>
      <trkpt lat="46.11269" lon="4.62461">
        <ele>267</ele>
        <time>2023-10-18T08:58:16.494+00:00</time>
      </trkpt>
      <trkpt lat="46.1127" lon="4.62455">
        <ele>268</ele>
        <time>2023-10-18T08:58:20.294+00:00</time>
      </trkpt>
      <trkpt lat="46.1127" lon="4.62447">
        <ele>268</ele>
        <time>2023-10-18T08:58:24.694+00:00</time>
      </trkpt>
      <trkpt lat="46.11271" lon="4.6244">
        <ele>268</ele>
        <time>2023-10-18T08:58:29.214+00:00</time>
      </trkpt>
      <trkpt lat="46.11272" lon="4.62433">
        <ele>268</ele>
        <time>2023-10-18T08:58:33.574+00:00</time>
      </trkpt>
      <trkpt lat="46.11272" lon="4.62426">
        <ele>268</ele>
        <time>2023-10-18T08:58:37.314+00:00</time>
      </trkpt>
      <trkpt lat="46.11272" lon="4.62419">
        <ele>268</ele>
        <time>2023-10-18T08:58:41.838+00:00</time>
      </trkpt>
      <trkpt lat="46.11273" lon="4.62412">
        <ele>268</ele>
        <time>2023-10-18T08:58:45.814+00:00</time>
      </trkpt>
      <trkpt lat="46.11274" lon="4.62405">
        <ele>268</ele>
        <time>2023-10-18T08:58:50.314+00:00</time>
      </trkpt>
      <trkpt lat="46.11277" lon="4.62399">
        <ele>267</ele>
        <time>2023-10-18T08:58:54.814+00:00</time>
      </trkpt>
      <trkpt lat="46.11279" lon="4.62392">
        <ele>267</ele>
        <time>2023-10-18T08:58:59.418+00:00</time>
      </trkpt>
      <trkpt lat="46.11281" lon="4.62387">
        <ele>267</ele>
        <time>2023-10-18T08:59:03.514+00:00</time>
      </trkpt>
      <trkpt lat="46.11283" lon="4.62381">
        <ele>267</ele>
        <time>2023-10-18T08:59:07.354+00:00</time>
      </trkpt>
      <trkpt lat="46.11286" lon="4.62373">
        <ele>267</ele>
        <time>2023-10-18T08:59:11.734+00:00</time>
      </trkpt>
      <trkpt lat="46.11291" lon="4.62367">
        <ele>267</ele>
        <time>2023-10-18T08:59:16.174+00:00</time>
      </trkpt>
      <trkpt lat="46.11295" lon="4.62363">
        <ele>264</ele>
        <time>2023-10-18T08:59:20.734+00:00</time>
      </trkpt>
      <trkpt lat="46.113" lon="4.6236">
        <ele>264</ele>
        <time>2023-10-18T08:59:25.594+00:00</time>
      </trkpt>
      <trkpt lat="46.11305" lon="4.62356">
        <ele>264</ele>
        <time>2023-10-18T08:59:29.954+00:00</time>
      </trkpt>
      <trkpt lat="46.11309" lon="4.62352">
        <ele>264</ele>
        <time>2023-10-18T08:59:33.834+00:00</time>
      </trkpt>
      <trkpt lat="46.11313" lon="4.62348">
        <ele>264</ele>
        <time>2023-10-18T08:59:38.338+00:00</time>
      </trkpt>
      <trkpt lat="46.11319" lon="4.62347">
        <ele>263</ele>
        <time>2023-10-18T08:59:42.714+00:00</time>
      </trkpt>
      <trkpt lat="46.11324" lon="4.62344">
        <ele>262</ele>
        <time>2023-10-18T08:59:47.354+00:00</time>
      </trkpt>
      <trkpt lat="46.11329" lon="4.62342">
        <ele>262</ele>
        <time>2023-10-18T08:59:51.434+00:00</time>
      </trkpt>
      <trkpt lat="46.11335" lon="4.6234">
        <ele>262</ele>
        <time>2023-10-18T08:59:55.834+00:00</time>
      </trkpt>
      <trkpt lat="46.11339" lon="4.62338">
        <ele>262</ele>
        <time>2023-10-18T08:59:59.954+00:00</time>
      </trkpt>
      <trkpt lat="46.11344" lon="4.62335">
        <ele>262</ele>
        <time>2023-10-18T09:00:04.294+00:00</time>
      </trkpt>
      <trkpt lat="46.11349" lon="4.62332">
        <ele>261</ele>
        <time>2023-10-18T09:00:08.234+00:00</time>
      </trkpt>
      <trkpt lat="46.11352" lon="4.62328">
        <ele>261</ele>
        <time>2023-10-18T09:00:13.098+00:00</time>
      </trkpt>
      <trkpt lat="46.11355" lon="4.62324">
        <ele>261</ele>
        <time>2023-10-18T09:00:17.194+00:00</time>
      </trkpt>
      <trkpt lat="46.1136" lon="4.62322">
        <ele>261</ele>
        <time>2023-10-18T09:00:20.954+00:00</time>
      </trkpt>
      <trkpt lat="46.11365" lon="4.62321">
        <ele>261</ele>
        <time>2023-10-18T09:00:24.994+00:00</time>
      </trkpt>
      <trkpt lat="46.11371" lon="4.62319">
        <ele>262</ele>
        <time>2023-10-18T09:00:29.514+00:00</time>
      </trkpt>
      <trkpt lat="46.11376" lon="4.62316">
        <ele>261</ele>
        <time>2023-10-18T09:00:34.454+00:00</time>
      </trkpt>
      <trkpt lat="46.11381" lon="4.62312">
        <ele>261</ele>
        <time>2023-10-18T09:00:38.334+00:00</time>
      </trkpt>
      <trkpt lat="46.11387" lon="4.62309">
        <ele>261</ele>
        <time>2023-10-18T09:00:42.694+00:00</time>
      </trkpt>
      <trkpt lat="46.1139" lon="4.62307">
        <ele>261</ele>
        <time>2023-10-18T09:00:47.014+00:00</time>
      </trkpt>
      <trkpt lat="46.11395" lon="4.62305">
        <ele>261</ele>
        <time>2023-10-18T09:00:50.834+00:00</time>
      </trkpt>
      <trkpt lat="46.11399" lon="4.62303">
        <ele>261</ele>
        <time>2023-10-18T09:00:55.354+00:00</time>
      </trkpt>
      <trkpt lat="46.11405" lon="4.623">
        <ele>261</ele>
        <time>2023-10-18T09:01:00.374+00:00</time>
      </trkpt>
      <trkpt lat="46.11408" lon="4.62295">
        <ele>261</ele>
        <time>2023-10-18T09:01:22.534+00:00</time>
      </trkpt>
      <trkpt lat="46.1141" lon="4.62297">
        <ele>261</ele>
        <time>2023-10-18T09:01:26.574+00:00</time>
      </trkpt>
      <trkpt lat="46.11411" lon="4.62296">
        <ele>261</ele>
        <time>2023-10-18T09:01:30.434+00:00</time>
      </trkpt>
      <trkpt lat="46.11414" lon="4.62295">
        <ele>261</ele>
        <time>2023-10-18T09:01:35.294+00:00</time>
      </trkpt>
      <trkpt lat="46.1142" lon="4.62294">
        <ele>261</ele>
        <time>2023-10-18T09:01:39.394+00:00</time>
      </trkpt>
      <trkpt lat="46.11426" lon="4.62294">
        <ele>261</ele>
        <time>2023-10-18T09:01:43.494+00:00</time>
      </trkpt>
      <trkpt lat="46.11431" lon="4.62293">
        <ele>263</ele>
        <time>2023-10-18T09:01:48.194+00:00</time>
      </trkpt>
      <trkpt lat="46.11435" lon="4.62293">
        <ele>263</ele>
        <time>2023-10-18T09:01:52.194+00:00</time>
      </trkpt>
      <trkpt lat="46.11438" lon="4.62288">
        <ele>264</ele>
        <time>2023-10-18T09:01:57.610+00:00</time>
      </trkpt>
      <trkpt lat="46.11437" lon="4.62286">
        <ele>264</ele>
        <time>2023-10-18T09:02:15.334+00:00</time>
      </trkpt>
      <trkpt lat="46.11437" lon="4.62286">
        <ele>264</ele>
        <time>2023-10-18T09:02:20.592+00:00</time>
      </trkpt>
      <trkpt lat="46.11436" lon="4.62285">
        <ele>264</ele>
        <time>2023-10-18T09:02:25.592+00:00</time>
      </trkpt>
      <trkpt lat="46.11435" lon="4.62281">
        <ele>264</ele>
        <time>2023-10-18T09:02:29.754+00:00</time>
      </trkpt>
      <trkpt lat="46.1143" lon="4.62272">
        <ele>263</ele>
        <time>2023-10-18T09:02:33.834+00:00</time>
      </trkpt>
      <trkpt lat="46.11427" lon="4.62265">
        <ele>263</ele>
        <time>2023-10-18T09:02:38.254+00:00</time>
      </trkpt>
      <trkpt lat="46.11424" lon="4.62256">
        <ele>263</ele>
        <time>2023-10-18T09:02:42.954+00:00</time>
      </trkpt>
      <trkpt lat="46.11422" lon="4.6225">
        <ele>263</ele>
        <time>2023-10-18T09:02:46.894+00:00</time>
      </trkpt>
      <trkpt lat="46.11421" lon="4.62243">
        <ele>263</ele>
        <time>2023-10-18T09:02:51.431+00:00</time>
      </trkpt>
      <trkpt lat="46.11419" lon="4.62237">
        <ele>263</ele>
        <time>2023-10-18T09:02:55.274+00:00</time>
      </trkpt>
      <trkpt lat="46.11418" lon="4.6223">
        <ele>264</ele>
        <time>2023-10-18T09:02:59.274+00:00</time>
      </trkpt>
      <trkpt lat="46.11415" lon="4.62224">
        <ele>264</ele>
        <time>2023-10-18T09:03:03.774+00:00</time>
      </trkpt>
      <trkpt lat="46.11412" lon="4.62217">
        <ele>264</ele>
        <time>2023-10-18T09:03:08.194+00:00</time>
      </trkpt>
      <trkpt lat="46.11409" lon="4.6221">
        <ele>264</ele>
        <time>2023-10-18T09:03:12.534+00:00</time>
      </trkpt>
      <trkpt lat="46.11406" lon="4.62203">
        <ele>265</ele>
        <time>2023-10-18T09:03:16.794+00:00</time>
      </trkpt>
      <trkpt lat="46.11404" lon="4.62194">
        <ele>265</ele>
        <time>2023-10-18T09:03:22.140+00:00</time>
      </trkpt>
      <trkpt lat="46.11402" lon="4.62188">
        <ele>262</ele>
        <time>2023-10-18T09:03:25.874+00:00</time>
      </trkpt>
      <trkpt lat="46.114" lon="4.62181">
        <ele>262</ele>
        <time>2023-10-18T09:03:30.394+00:00</time>
      </trkpt>
      <trkpt lat="46.11397" lon="4.62173">
        <ele>263</ele>
        <time>2023-10-18T09:03:35.360+00:00</time>
      </trkpt>
      <trkpt lat="46.11395" lon="4.62168">
        <ele>263</ele>
        <time>2023-10-18T09:03:39.114+00:00</time>
      </trkpt>
      <trkpt lat="46.11393" lon="4.62161">
        <ele>263</ele>
        <time>2023-10-18T09:03:43.620+00:00</time>
      </trkpt>
      <trkpt lat="46.1139" lon="4.62147">
        <ele>264</ele>
        <time>2023-10-18T09:04:05.754+00:00</time>
      </trkpt>
      <trkpt lat="46.11396" lon="4.62147">
        <ele>264</ele>
        <time>2023-10-18T09:04:09.954+00:00</time>
      </trkpt>
      <trkpt lat="46.11401" lon="4.62144">
        <ele>264</ele>
        <time>2023-10-18T09:04:14.373+00:00</time>
      </trkpt>
      <trkpt lat="46.11404" lon="4.62143">
        <ele>267</ele>
        <time>2023-10-18T09:04:18.094+00:00</time>
      </trkpt>
      <trkpt lat="46.11404" lon="4.6214">
        <ele>267</ele>
        <time>2023-10-18T09:04:23.414+00:00</time>
      </trkpt>
      <trkpt lat="46.11404" lon="4.6214">
        <ele>267</ele>
        <time>2023-10-18T09:04:33.154+00:00</time>
      </trkpt>
      <trkpt lat="46.11404" lon="4.62141">
        <ele>267</ele>
        <time>2023-10-18T09:04:37.584+00:00</time>
      </trkpt>
      <trkpt lat="46.11407" lon="4.62139">
        <ele>267</ele>
        <time>2023-10-18T09:04:42.114+00:00</time>
      </trkpt>
      <trkpt lat="46.11413" lon="4.62137">
        <ele>267</ele>
        <time>2023-10-18T09:04:46.593+00:00</time>
      </trkpt>
      <trkpt lat="46.11418" lon="4.62134">
        <ele>267</ele>
        <time>2023-10-18T09:04:51.334+00:00</time>
      </trkpt>
      <trkpt lat="46.11423" lon="4.6213">
        <ele>267</ele>
        <time>2023-10-18T09:04:55.514+00:00</time>
      </trkpt>
      <trkpt lat="46.11427" lon="4.62128">
        <ele>267</ele>
        <time>2023-10-18T09:04:59.514+00:00</time>
      </trkpt>
      <trkpt lat="46.11431" lon="4.62124">
        <ele>270</ele>
        <time>2023-10-18T09:05:04.613+00:00</time>
      </trkpt>
      <trkpt lat="46.11436" lon="4.62123">
        <ele>270</ele>
        <time>2023-10-18T09:05:09.074+00:00</time>
      </trkpt>
      <trkpt lat="46.1144" lon="4.62122">
        <ele>270</ele>
        <time>2023-10-18T09:05:13.614+00:00</time>
      </trkpt>
      <trkpt lat="46.11443" lon="4.62118">
        <ele>270</ele>
        <time>2023-10-18T09:05:18.114+00:00</time>
      </trkpt>
      <trkpt lat="46.11445" lon="4.62115">
        <ele>270</ele>
        <time>2023-10-18T09:05:22.433+00:00</time>
      </trkpt>
      <trkpt lat="46.11448" lon="4.62111">
        <ele>270</ele>
        <time>2023-10-18T09:05:26.814+00:00</time>
      </trkpt>
      <trkpt lat="46.11451" lon="4.62108">
        <ele>270</ele>
        <time>2023-10-18T09:05:31.114+00:00</time>
      </trkpt>
      <trkpt lat="46.11455" lon="4.62106">
        <ele>270</ele>
        <time>2023-10-18T09:05:35.594+00:00</time>
      </trkpt>
      <trkpt lat="46.11458" lon="4.62105">
        <ele>270</ele>
        <time>2023-10-18T09:05:39.814+00:00</time>
      </trkpt>
      <trkpt lat="46.11458" lon="4.621">
        <ele>270</ele>
        <time>2023-10-18T09:05:44.212+00:00</time>
      </trkpt>
      <trkpt lat="46.11453" lon="4.62095">
        <ele>272</ele>
        <time>2023-10-18T09:05:48.194+00:00</time>
      </trkpt>
      <trkpt lat="46.11449" lon="4.62089">
        <ele>272</ele>
        <time>2023-10-18T09:05:52.734+00:00</time>
      </trkpt>
      <trkpt lat="46.1145" lon="4.62082">
        <ele>272</ele>
        <time>2023-10-18T09:05:57.054+00:00</time>
      </trkpt>
      <trkpt lat="46.11449" lon="4.62075">
        <ele>272</ele>
        <time>2023-10-18T09:06:01.434+00:00</time>
      </trkpt>
      <trkpt lat="46.11446" lon="4.6207">
        <ele>272</ele>
        <time>2023-10-18T09:06:05.434+00:00</time>
      </trkpt>
      <trkpt lat="46.11445" lon="4.62064">
        <ele>274</ele>
        <time>2023-10-18T09:06:09.934+00:00</time>
      </trkpt>
      <trkpt lat="46.11443" lon="4.62058">
        <ele>274</ele>
        <time>2023-10-18T09:06:14.034+00:00</time>
      </trkpt>
      <trkpt lat="46.1144" lon="4.62052">
        <ele>274</ele>
        <time>2023-10-18T09:06:17.914+00:00</time>
      </trkpt>
      <trkpt lat="46.11437" lon="4.62045">
        <ele>274</ele>
        <time>2023-10-18T09:06:22.614+00:00</time>
      </trkpt>
      <trkpt lat="46.11435" lon="4.62037">
        <ele>276</ele>
        <time>2023-10-18T09:06:26.714+00:00</time>
      </trkpt>
      <trkpt lat="46.11433" lon="4.62031">
        <ele>276</ele>
        <time>2023-10-18T09:06:30.814+00:00</time>
      </trkpt>
      <trkpt lat="46.11431" lon="4.62024">
        <ele>273</ele>
        <time>2023-10-18T09:06:34.814+00:00</time>
      </trkpt>
      <trkpt lat="46.11429" lon="4.62017">
        <ele>273</ele>
        <time>2023-10-18T09:06:39.335+00:00</time>
      </trkpt>
      <trkpt lat="46.11427" lon="4.62012">
        <ele>274</ele>
        <time>2023-10-18T09:06:43.414+00:00</time>
      </trkpt>
      <trkpt lat="46.11424" lon="4.62008">
        <ele>274</ele>
        <time>2023-10-18T09:06:48.114+00:00</time>
      </trkpt>
      <trkpt lat="46.11423" lon="4.62004">
        <ele>274</ele>
        <time>2023-10-18T09:06:52.214+00:00</time>
      </trkpt>
      <trkpt lat="46.11422" lon="4.61999">
        <ele>274</ele>
        <time>2023-10-18T09:06:56.834+00:00</time>
      </trkpt>
      <trkpt lat="46.11425" lon="4.61995">
        <ele>274</ele>
        <time>2023-10-18T09:07:01.314+00:00</time>
      </trkpt>
      <trkpt lat="46.1143" lon="4.61992">
        <ele>274</ele>
        <time>2023-10-18T09:07:05.594+00:00</time>
      </trkpt>
      <trkpt lat="46.11435" lon="4.61989">
        <ele>277</ele>
        <time>2023-10-18T09:07:10.014+00:00</time>
      </trkpt>
      <trkpt lat="46.11436" lon="4.61985">
        <ele>277</ele>
        <time>2023-10-18T09:07:14.294+00:00</time>
      </trkpt>
      <trkpt lat="46.11439" lon="4.61983">
        <ele>277</ele>
        <time>2023-10-18T09:07:18.834+00:00</time>
      </trkpt>
      <trkpt lat="46.11444" lon="4.61978">
        <ele>277</ele>
        <time>2023-10-18T09:07:23.294+00:00</time>
      </trkpt>
      <trkpt lat="46.11448" lon="4.61974">
        <ele>277</ele>
        <time>2023-10-18T09:07:27.214+00:00</time>
      </trkpt>
      <trkpt lat="46.11452" lon="4.61971">
        <ele>277</ele>
        <time>2023-10-18T09:07:31.974+00:00</time>
      </trkpt>
      <trkpt lat="46.11456" lon="4.61967">
        <ele>277</ele>
        <time>2023-10-18T09:07:36.592+00:00</time>
      </trkpt>
      <trkpt lat="46.11459" lon="4.61962">
        <ele>280</ele>
        <time>2023-10-18T09:07:40.474+00:00</time>
      </trkpt>
      <trkpt lat="46.11463" lon="4.61957">
        <ele>280</ele>
        <time>2023-10-18T09:07:44.994+00:00</time>
      </trkpt>
      <trkpt lat="46.11466" lon="4.61953">
        <ele>280</ele>
        <time>2023-10-18T09:07:48.834+00:00</time>
      </trkpt>
      <trkpt lat="46.1147" lon="4.61949">
        <ele>280</ele>
        <time>2023-10-18T09:07:53.374+00:00</time>
      </trkpt>
      <trkpt lat="46.11475" lon="4.61946">
        <ele>280</ele>
        <time>2023-10-18T09:07:58.414+00:00</time>
      </trkpt>
      <trkpt lat="46.11481" lon="4.61942">
        <ele>280</ele>
        <time>2023-10-18T09:08:02.932+00:00</time>
      </trkpt>
      <trkpt lat="46.11485" lon="4.61939">
        <ele>280</ele>
        <time>2023-10-18T09:08:07.174+00:00</time>
      </trkpt>
      <trkpt lat="46.11488" lon="4.61936">
        <ele>283</ele>
        <time>2023-10-18T09:08:11.134+00:00</time>
      </trkpt>
      <trkpt lat="46.11492" lon="4.61933">
        <ele>283</ele>
        <time>2023-10-18T09:08:15.534+00:00</time>
      </trkpt>
      <trkpt lat="46.11495" lon="4.61929">
        <ele>283</ele>
        <time>2023-10-18T09:08:19.354+00:00</time>
      </trkpt>
      <trkpt lat="46.11499" lon="4.61924">
        <ele>283</ele>
        <time>2023-10-18T09:08:23.973+00:00</time>
      </trkpt>
      <trkpt lat="46.11503" lon="4.61921">
        <ele>283</ele>
        <time>2023-10-18T09:08:27.954+00:00</time>
      </trkpt>
      <trkpt lat="46.11506" lon="4.61916">
        <ele>283</ele>
        <time>2023-10-18T09:08:32.314+00:00</time>
      </trkpt>
      <trkpt lat="46.1151" lon="4.61912">
        <ele>283</ele>
        <time>2023-10-18T09:08:36.774+00:00</time>
      </trkpt>
      <trkpt lat="46.11515" lon="4.61908">
        <ele>284</ele>
        <time>2023-10-18T09:08:41.494+00:00</time>
      </trkpt>
      <trkpt lat="46.11519" lon="4.61905">
        <ele>284</ele>
        <time>2023-10-18T09:08:45.934+00:00</time>
      </trkpt>
      <trkpt lat="46.11523" lon="4.619">
        <ele>285</ele>
        <time>2023-10-18T09:08:50.374+00:00</time>
      </trkpt>
      <trkpt lat="46.11529" lon="4.61897">
        <ele>285</ele>
        <time>2023-10-18T09:08:54.693+00:00</time>
      </trkpt>
      <trkpt lat="46.11533" lon="4.61893">
        <ele>285</ele>
        <time>2023-10-18T09:08:58.634+00:00</time>
      </trkpt>
      <trkpt lat="46.11538" lon="4.61887">
        <ele>285</ele>
        <time>2023-10-18T09:09:02.974+00:00</time>
      </trkpt>
      <trkpt lat="46.11543" lon="4.61882">
        <ele>287</ele>
        <time>2023-10-18T09:09:07.594+00:00</time>
      </trkpt>
      <trkpt lat="46.11547" lon="4.61878">
        <ele>287</ele>
        <time>2023-10-18T09:09:11.794+00:00</time>
      </trkpt>
      <trkpt lat="46.1155" lon="4.61875">
        <ele>287</ele>
        <time>2023-10-18T09:09:16.334+00:00</time>
      </trkpt>
      <trkpt lat="46.11554" lon="4.61872">
        <ele>287</ele>
        <time>2023-10-18T09:09:20.352+00:00</time>
      </trkpt>
      <trkpt lat="46.11558" lon="4.61868">
        <ele>287</ele>
        <time>2023-10-18T09:09:24.354+00:00</time>
      </trkpt>
      <trkpt lat="46.11562" lon="4.61864">
        <ele>287</ele>
        <time>2023-10-18T09:09:28.354+00:00</time>
      </trkpt>
      <trkpt lat="46.11567" lon="4.61858">
        <ele>287</ele>
        <time>2023-10-18T09:09:32.554+00:00</time>
      </trkpt>
      <trkpt lat="46.11571" lon="4.61854">
        <ele>288</ele>
        <time>2023-10-18T09:09:37.194+00:00</time>
      </trkpt>
      <trkpt lat="46.11576" lon="4.6185">
        <ele>288</ele>
        <time>2023-10-18T09:09:42.074+00:00</time>
      </trkpt>
      <trkpt lat="46.1158" lon="4.61845">
        <ele>288</ele>
        <time>2023-10-18T09:09:46.614+00:00</time>
      </trkpt>
      <trkpt lat="46.11584" lon="4.61842">
        <ele>288</ele>
        <time>2023-10-18T09:09:50.354+00:00</time>
      </trkpt>
      <trkpt lat="46.11587" lon="4.61838">
        <ele>288</ele>
        <time>2023-10-18T09:09:54.974+00:00</time>
      </trkpt>
      <trkpt lat="46.11592" lon="4.61835">
        <ele>288</ele>
        <time>2023-10-18T09:09:59.494+00:00</time>
      </trkpt>
      <trkpt lat="46.11596" lon="4.61833">
        <ele>288</ele>
        <time>2023-10-18T09:10:03.573+00:00</time>
      </trkpt>
      <trkpt lat="46.11601" lon="4.61828">
        <ele>289</ele>
        <time>2023-10-18T09:10:07.434+00:00</time>
      </trkpt>
      <trkpt lat="46.11605" lon="4.61824">
        <ele>289</ele>
        <time>2023-10-18T09:10:11.434+00:00</time>
      </trkpt>
      <trkpt lat="46.1161" lon="4.61818">
        <ele>290</ele>
        <time>2023-10-18T09:10:15.434+00:00</time>
      </trkpt>
      <trkpt lat="46.11614" lon="4.61815">
        <ele>290</ele>
        <time>2023-10-18T09:10:19.994+00:00</time>
      </trkpt>
      <trkpt lat="46.11618" lon="4.61812">
        <ele>290</ele>
        <time>2023-10-18T09:10:23.874+00:00</time>
      </trkpt>
      <trkpt lat="46.11622" lon="4.6181">
        <ele>290</ele>
        <time>2023-10-18T09:10:28.234+00:00</time>
      </trkpt>
      <trkpt lat="46.11627" lon="4.61808">
        <ele>292</ele>
        <time>2023-10-18T09:10:32.593+00:00</time>
      </trkpt>
      <trkpt lat="46.11631" lon="4.61804">
        <ele>292</ele>
        <time>2023-10-18T09:10:36.693+00:00</time>
      </trkpt>
      <trkpt lat="46.11636" lon="4.61799">
        <ele>292</ele>
        <time>2023-10-18T09:10:41.054+00:00</time>
      </trkpt>
      <trkpt lat="46.11641" lon="4.61796">
        <ele>292</ele>
        <time>2023-10-18T09:10:45.533+00:00</time>
      </trkpt>
      <trkpt lat="46.11645" lon="4.61792">
        <ele>292</ele>
        <time>2023-10-18T09:10:50.013+00:00</time>
      </trkpt>
      <trkpt lat="46.11649" lon="4.61788">
        <ele>293</ele>
        <time>2023-10-18T09:10:53.954+00:00</time>
      </trkpt>
      <trkpt lat="46.11653" lon="4.61785">
        <ele>293</ele>
        <time>2023-10-18T09:10:58.154+00:00</time>
      </trkpt>
      <trkpt lat="46.11655" lon="4.61782">
        <ele>296</ele>
        <time>2023-10-18T09:11:02.074+00:00</time>
      </trkpt>
      <trkpt lat="46.11658" lon="4.61778">
        <ele>296</ele>
        <time>2023-10-18T09:11:06.674+00:00</time>
      </trkpt>
      <trkpt lat="46.11663" lon="4.61774">
        <ele>296</ele>
        <time>2023-10-18T09:11:11.014+00:00</time>
      </trkpt>
      <trkpt lat="46.11667" lon="4.61771">
        <ele>296</ele>
        <time>2023-10-18T09:11:15.474+00:00</time>
      </trkpt>
      <trkpt lat="46.11671" lon="4.61767">
        <ele>296</ele>
        <time>2023-10-18T09:11:19.994+00:00</time>
      </trkpt>
      <trkpt lat="46.11674" lon="4.61763">
        <ele>298</ele>
        <time>2023-10-18T09:11:23.734+00:00</time>
      </trkpt>
      <trkpt lat="46.11679" lon="4.61759">
        <ele>298</ele>
        <time>2023-10-18T09:11:28.234+00:00</time>
      </trkpt>
      <trkpt lat="46.11684" lon="4.61756">
        <ele>300</ele>
        <time>2023-10-18T09:11:32.834+00:00</time>
      </trkpt>
      <trkpt lat="46.11685" lon="4.61751">
        <ele>300</ele>
        <time>2023-10-18T09:11:37.334+00:00</time>
      </trkpt>
      <trkpt lat="46.11686" lon="4.61749">
        <ele>300</ele>
        <time>2023-10-18T09:11:41.694+00:00</time>
      </trkpt>
      <trkpt lat="46.1169" lon="4.61748">
        <ele>300</ele>
        <time>2023-10-18T09:11:45.654+00:00</time>
      </trkpt>
      <trkpt lat="46.11695" lon="4.61745">
        <ele>300</ele>
        <time>2023-10-18T09:11:50.194+00:00</time>
      </trkpt>
      <trkpt lat="46.11699" lon="4.61741">
        <ele>300</ele>
        <time>2023-10-18T09:11:55.074+00:00</time>
      </trkpt>
      <trkpt lat="46.11703" lon="4.61736">
        <ele>301</ele>
        <time>2023-10-18T09:11:59.734+00:00</time>
      </trkpt>
      <trkpt lat="46.11707" lon="4.61731">
        <ele>301</ele>
        <time>2023-10-18T09:12:03.734+00:00</time>
      </trkpt>
      <trkpt lat="46.1171" lon="4.61727">
        <ele>304</ele>
        <time>2023-10-18T09:12:08.114+00:00</time>
      </trkpt>
      <trkpt lat="46.11713" lon="4.61722">
        <ele>304</ele>
        <time>2023-10-18T09:12:12.576+00:00</time>
      </trkpt>
      <trkpt lat="46.11716" lon="4.61718">
        <ele>304</ele>
        <time>2023-10-18T09:12:16.494+00:00</time>
      </trkpt>
      <trkpt lat="46.1172" lon="4.61713">
        <ele>304</ele>
        <time>2023-10-18T09:12:20.754+00:00</time>
      </trkpt>
      <trkpt lat="46.11725" lon="4.61708">
        <ele>304</ele>
        <time>2023-10-18T09:12:25.154+00:00</time>
      </trkpt>
      <trkpt lat="46.11728" lon="4.61707">
        <ele>304</ele>
        <time>2023-10-18T09:12:29.174+00:00</time>
      </trkpt>
      <trkpt lat="46.11732" lon="4.61703">
        <ele>304</ele>
        <time>2023-10-18T09:12:33.174+00:00</time>
      </trkpt>
      <trkpt lat="46.11735" lon="4.617">
        <ele>304</ele>
        <time>2023-10-18T09:12:37.974+00:00</time>
      </trkpt>
      <trkpt lat="46.1174" lon="4.61699">
        <ele>307</ele>
        <time>2023-10-18T09:12:42.174+00:00</time>
      </trkpt>
      <trkpt lat="46.11744" lon="4.617">
        <ele>307</ele>
        <time>2023-10-18T09:12:46.174+00:00</time>
      </trkpt>
      <trkpt lat="46.1175" lon="4.61704">
        <ele>307</ele>
        <time>2023-10-18T09:12:50.774+00:00</time>
      </trkpt>
      <trkpt lat="46.11755" lon="4.61709">
        <ele>306</ele>
        <time>2023-10-18T09:12:54.774+00:00</time>
      </trkpt>
      <trkpt lat="46.11758" lon="4.61712">
        <ele>306</ele>
        <time>2023-10-18T09:12:58.974+00:00</time>
      </trkpt>
      <trkpt lat="46.11758" lon="4.6171">
        <ele>306</ele>
        <time>2023-10-18T09:13:42.694+00:00</time>
      </trkpt>
      <trkpt lat="46.11762" lon="4.61716">
        <ele>306</ele>
        <time>2023-10-18T09:13:47.414+00:00</time>
      </trkpt>
      <trkpt lat="46.1177" lon="4.61726">
        <ele>308</ele>
        <time>2023-10-18T09:13:51.334+00:00</time>
      </trkpt>
      <trkpt lat="46.11776" lon="4.6173">
        <ele>308</ele>
        <time>2023-10-18T09:13:55.334+00:00</time>
      </trkpt>
      <trkpt lat="46.11782" lon="4.61732">
        <ele>308</ele>
        <time>2023-10-18T09:13:59.834+00:00</time>
      </trkpt>
      <trkpt lat="46.11787" lon="4.61735">
        <ele>308</ele>
        <time>2023-10-18T09:14:04.434+00:00</time>
      </trkpt>
      <trkpt lat="46.11791" lon="4.61738">
        <ele>305</ele>
        <time>2023-10-18T09:14:08.434+00:00</time>
      </trkpt>
      <trkpt lat="46.11795" lon="4.61738">
        <ele>306</ele>
        <time>2023-10-18T09:14:12.954+00:00</time>
      </trkpt>
      <trkpt lat="46.11798" lon="4.61741">
        <ele>306</ele>
        <time>2023-10-18T09:14:17.074+00:00</time>
      </trkpt>
      <trkpt lat="46.11802" lon="4.61746">
        <ele>306</ele>
        <time>2023-10-18T09:14:20.974+00:00</time>
      </trkpt>
      <trkpt lat="46.11807" lon="4.61748">
        <ele>306</ele>
        <time>2023-10-18T09:14:24.974+00:00</time>
      </trkpt>
      <trkpt lat="46.11812" lon="4.61748">
        <ele>306</ele>
        <time>2023-10-18T09:14:29.594+00:00</time>
      </trkpt>
      <trkpt lat="46.11816" lon="4.61751">
        <ele>306</ele>
        <time>2023-10-18T09:14:33.594+00:00</time>
      </trkpt>
      <trkpt lat="46.11822" lon="4.61754">
        <ele>306</ele>
        <time>2023-10-18T09:14:38.034+00:00</time>
      </trkpt>
      <trkpt lat="46.11827" lon="4.61752">
        <ele>306</ele>
        <time>2023-10-18T09:14:42.394+00:00</time>
      </trkpt>
      <trkpt lat="46.11829" lon="4.61744">
        <ele>306</ele>
        <time>2023-10-18T09:14:46.554+00:00</time>
      </trkpt>
      <trkpt lat="46.11829" lon="4.61735">
        <ele>307</ele>
        <time>2023-10-18T09:14:51.054+00:00</time>
      </trkpt>
      <trkpt lat="46.11829" lon="4.61727">
        <ele>307</ele>
        <time>2023-10-18T09:14:55.094+00:00</time>
      </trkpt>
      <trkpt lat="46.1183" lon="4.61721">
        <ele>307</ele>
        <time>2023-10-18T09:14:59.014+00:00</time>
      </trkpt>
      <trkpt lat="46.11831" lon="4.61714">
        <ele>307</ele>
        <time>2023-10-18T09:15:03.454+00:00</time>
      </trkpt>
      <trkpt lat="46.11832" lon="4.61704">
        <ele>309</ele>
        <time>2023-10-18T09:15:08.014+00:00</time>
      </trkpt>
      <trkpt lat="46.11833" lon="4.61696">
        <ele>309</ele>
        <time>2023-10-18T09:15:12.614+00:00</time>
      </trkpt>
      <trkpt lat="46.11834" lon="4.61688">
        <ele>309</ele>
        <time>2023-10-18T09:15:17.114+00:00</time>
      </trkpt>
      <trkpt lat="46.11836" lon="4.6168">
        <ele>311</ele>
        <time>2023-10-18T09:15:20.914+00:00</time>
      </trkpt>
      <trkpt lat="46.11838" lon="4.61671">
        <ele>311</ele>
        <time>2023-10-18T09:15:25.595+00:00</time>
      </trkpt>
      <trkpt lat="46.11839" lon="4.61662">
        <ele>311</ele>
        <time>2023-10-18T09:15:29.997+00:00</time>
      </trkpt>
      <trkpt lat="46.1184" lon="4.61656">
        <ele>311</ele>
        <time>2023-10-18T09:15:34.454+00:00</time>
      </trkpt>
      <trkpt lat="46.11839" lon="4.61653">
        <ele>314</ele>
        <time>2023-10-18T09:15:38.294+00:00</time>
      </trkpt>
      <trkpt lat="46.11839" lon="4.61646">
        <ele>314</ele>
        <time>2023-10-18T09:15:43.134+00:00</time>
      </trkpt>
      <trkpt lat="46.11841" lon="4.61638">
        <ele>314</ele>
        <time>2023-10-18T09:15:47.074+00:00</time>
      </trkpt>
      <trkpt lat="46.11842" lon="4.61632">
        <ele>314</ele>
        <time>2023-10-18T09:15:51.590+00:00</time>
      </trkpt>
      <trkpt lat="46.11844" lon="4.61625">
        <ele>314</ele>
        <time>2023-10-18T09:15:56.014+00:00</time>
      </trkpt>
      <trkpt lat="46.11846" lon="4.61619">
        <ele>317</ele>
        <time>2023-10-18T09:15:59.774+00:00</time>
      </trkpt>
      <trkpt lat="46.11848" lon="4.61613">
        <ele>318</ele>
        <time>2023-10-18T09:16:04.134+00:00</time>
      </trkpt>
      <trkpt lat="46.1185" lon="4.61605">
        <ele>318</ele>
        <time>2023-10-18T09:16:08.474+00:00</time>
      </trkpt>
      <trkpt lat="46.11852" lon="4.61599">
        <ele>318</ele>
        <time>2023-10-18T09:16:12.834+00:00</time>
      </trkpt>
      <trkpt lat="46.11856" lon="4.61594">
        <ele>319</ele>
        <time>2023-10-18T09:16:17.174+00:00</time>
      </trkpt>
      <trkpt lat="46.1186" lon="4.61591">
        <ele>319</ele>
        <time>2023-10-18T09:16:22.474+00:00</time>
      </trkpt>
      <trkpt lat="46.11857" lon="4.6158">
        <ele>319</ele>
        <time>2023-10-18T09:16:26.874+00:00</time>
      </trkpt>
      <trkpt lat="46.11856" lon="4.61574">
        <ele>319</ele>
        <time>2023-10-18T09:16:31.294+00:00</time>
      </trkpt>
      <trkpt lat="46.11856" lon="4.61573">
        <ele>319</ele>
        <time>2023-10-18T09:16:36.585+00:00</time>
      </trkpt>
      <trkpt lat="46.11856" lon="4.61571">
        <ele>319</ele>
        <time>2023-10-18T09:16:40.594+00:00</time>
      </trkpt>
      <trkpt lat="46.11856" lon="4.61563">
        <ele>320</ele>
        <time>2023-10-18T09:16:44.814+00:00</time>
      </trkpt>
      <trkpt lat="46.11858" lon="4.61556">
        <ele>320</ele>
        <time>2023-10-18T09:16:49.414+00:00</time>
      </trkpt>
      <trkpt lat="46.11858" lon="4.61551">
        <ele>320</ele>
        <time>2023-10-18T09:16:53.914+00:00</time>
      </trkpt>
      <trkpt lat="46.11855" lon="4.61542">
        <ele>320</ele>
        <time>2023-10-18T09:18:48.194+00:00</time>
      </trkpt>
      <trkpt lat="46.11862" lon="4.6154">
        <ele>320</ele>
        <time>2023-10-18T09:18:52.134+00:00</time>
      </trkpt>
      <trkpt lat="46.11868" lon="4.61544">
        <ele>320</ele>
        <time>2023-10-18T09:18:56.734+00:00</time>
      </trkpt>
      <trkpt lat="46.11875" lon="4.61544">
        <ele>320</ele>
        <time>2023-10-18T09:19:01.234+00:00</time>
      </trkpt>
      <trkpt lat="46.11881" lon="4.61543">
        <ele>319</ele>
        <time>2023-10-18T09:19:06.394+00:00</time>
      </trkpt>
      <trkpt lat="46.11886" lon="4.61541">
        <ele>320</ele>
        <time>2023-10-18T09:19:10.354+00:00</time>
      </trkpt>
      <trkpt lat="46.11892" lon="4.6154">
        <ele>320</ele>
        <time>2023-10-18T09:19:14.954+00:00</time>
      </trkpt>
      <trkpt lat="46.119" lon="4.61538">
        <ele>320</ele>
        <time>2023-10-18T09:19:19.454+00:00</time>
      </trkpt>
      <trkpt lat="46.11905" lon="4.61538">
        <ele>319</ele>
        <time>2023-10-18T09:19:23.554+00:00</time>
      </trkpt>
      <trkpt lat="46.11907" lon="4.61536">
        <ele>319</ele>
        <time>2023-10-18T09:21:55.014+00:00</time>
      </trkpt>
      <trkpt lat="46.11898" lon="4.61535">
        <ele>320</ele>
        <time>2023-10-18T09:21:59.554+00:00</time>
      </trkpt>
      <trkpt lat="46.11892" lon="4.61536">
        <ele>320</ele>
        <time>2023-10-18T09:22:04.154+00:00</time>
      </trkpt>
      <trkpt lat="46.11888" lon="4.61538">
        <ele>320</ele>
        <time>2023-10-18T09:22:08.174+00:00</time>
      </trkpt>
      <trkpt lat="46.11885" lon="4.6154">
        <ele>320</ele>
        <time>2023-10-18T09:22:12.174+00:00</time>
      </trkpt>
      <trkpt lat="46.11884" lon="4.6154">
        <ele>320</ele>
        <time>2023-10-18T09:22:16.174+00:00</time>
      </trkpt>
      <trkpt lat="46.11884" lon="4.61538">
        <ele>320</ele>
        <time>2023-10-18T09:22:20.774+00:00</time>
      </trkpt>
      <trkpt lat="46.11882" lon="4.61535">
        <ele>320</ele>
        <time>2023-10-18T09:22:25.314+00:00</time>
      </trkpt>
      <trkpt lat="46.11879" lon="4.6153">
        <ele>320</ele>
        <time>2023-10-18T09:22:29.114+00:00</time>
      </trkpt>
      <trkpt lat="46.11876" lon="4.61528">
        <ele>320</ele>
        <time>2023-10-18T09:23:10.236+00:00</time>
      </trkpt>
      <trkpt lat="46.11875" lon="4.61532">
        <ele>320</ele>
        <time>2023-10-18T09:23:14.314+00:00</time>
      </trkpt>
      <trkpt lat="46.11872" lon="4.61538">
        <ele>320</ele>
        <time>2023-10-18T09:23:18.314+00:00</time>
      </trkpt>
      <trkpt lat="46.1187" lon="4.61544">
        <ele>320</ele>
        <time>2023-10-18T09:23:23.434+00:00</time>
      </trkpt>
      <trkpt lat="46.11866" lon="4.61549">
        <ele>320</ele>
        <time>2023-10-18T09:23:28.034+00:00</time>
      </trkpt>
      <trkpt lat="46.11863" lon="4.61554">
        <ele>320</ele>
        <time>2023-10-18T09:23:32.534+00:00</time>
      </trkpt>
      <trkpt lat="46.11858" lon="4.61551">
        <ele>320</ele>
        <time>2023-10-18T09:23:37.057+00:00</time>
      </trkpt>
      <trkpt lat="46.11853" lon="4.61545">
        <ele>320</ele>
        <time>2023-10-18T09:23:41.034+00:00</time>
      </trkpt>
      <trkpt lat="46.11851" lon="4.61542">
        <ele>320</ele>
        <time>2023-10-18T09:23:45.634+00:00</time>
      </trkpt>
      <trkpt lat="46.11853" lon="4.61552">
        <ele>320</ele>
        <time>2023-10-18T09:25:03.594+00:00</time>
      </trkpt>
      <trkpt lat="46.11853" lon="4.61552">
        <ele>320</ele>
        <time>2023-10-18T09:25:08.613+00:00</time>
      </trkpt>
      <trkpt lat="46.11853" lon="4.61553">
        <ele>320</ele>
        <time>2023-10-18T09:25:13.594+00:00</time>
      </trkpt>
      <trkpt lat="46.11853" lon="4.61553">
        <ele>320</ele>
        <time>2023-10-18T09:25:18.593+00:00</time>
      </trkpt>
      <trkpt lat="46.11855" lon="4.61552">
        <ele>320</ele>
        <time>2023-10-18T09:25:23.154+00:00</time>
      </trkpt>
      <trkpt lat="46.11857" lon="4.61548">
        <ele>320</ele>
        <time>2023-10-18T09:25:27.154+00:00</time>
      </trkpt>
      <trkpt lat="46.11862" lon="4.61543">
        <ele>320</ele>
        <time>2023-10-18T09:25:31.434+00:00</time>
      </trkpt>
      <trkpt lat="46.11868" lon="4.61544">
        <ele>320</ele>
        <time>2023-10-18T09:25:35.834+00:00</time>
      </trkpt>
      <trkpt lat="46.11873" lon="4.61541">
        <ele>320</ele>
        <time>2023-10-18T09:25:40.114+00:00</time>
      </trkpt>
      <trkpt lat="46.11877" lon="4.61536">
        <ele>320</ele>
        <time>2023-10-18T09:25:44.074+00:00</time>
      </trkpt>
      <trkpt lat="46.11881" lon="4.61534">
        <ele>320</ele>
        <time>2023-10-18T09:25:48.354+00:00</time>
      </trkpt>
      <trkpt lat="46.11887" lon="4.61534">
        <ele>320</ele>
        <time>2023-10-18T09:25:53.154+00:00</time>
      </trkpt>
      <trkpt lat="46.11892" lon="4.61535">
        <ele>320</ele>
        <time>2023-10-18T09:25:57.534+00:00</time>
      </trkpt>
      <trkpt lat="46.11899" lon="4.61534">
        <ele>320</ele>
        <time>2023-10-18T09:26:02.034+00:00</time>
      </trkpt>
      <trkpt lat="46.11902" lon="4.6153">
        <ele>320</ele>
        <time>2023-10-18T09:26:06.498+00:00</time>
      </trkpt>
      <trkpt lat="46.11901" lon="4.61521">
        <ele>320</ele>
        <time>2023-10-18T09:26:11.458+00:00</time>
      </trkpt>
      <trkpt lat="46.11901" lon="4.61517">
        <ele>320</ele>
        <time>2023-10-18T09:26:15.314+00:00</time>
      </trkpt>
      <trkpt lat="46.11901" lon="4.61516">
        <ele>320</ele>
        <time>2023-10-18T09:28:49.377+00:00</time>
      </trkpt>
      <trkpt lat="46.11902" lon="4.61523">
        <ele>320</ele>
        <time>2023-10-18T09:28:53.314+00:00</time>
      </trkpt>
      <trkpt lat="46.11899" lon="4.61532">
        <ele>320</ele>
        <time>2023-10-18T09:28:57.634+00:00</time>
      </trkpt>
      <trkpt lat="46.11895" lon="4.61538">
        <ele>320</ele>
        <time>2023-10-18T09:29:02.138+00:00</time>
      </trkpt>
      <trkpt lat="46.1189" lon="4.61543">
        <ele>319</ele>
        <time>2023-10-18T09:29:06.154+00:00</time>
      </trkpt>
      <trkpt lat="46.11884" lon="4.61542">
        <ele>319</ele>
        <time>2023-10-18T09:29:10.754+00:00</time>
      </trkpt>
      <trkpt lat="46.11878" lon="4.61541">
        <ele>320</ele>
        <time>2023-10-18T09:29:15.154+00:00</time>
      </trkpt>
      <trkpt lat="46.11874" lon="4.61537">
        <ele>320</ele>
        <time>2023-10-18T09:29:19.094+00:00</time>
      </trkpt>
      <trkpt lat="46.11868" lon="4.61534">
        <ele>320</ele>
        <time>2023-10-18T09:29:22.954+00:00</time>
      </trkpt>
      <trkpt lat="46.11861" lon="4.61534">
        <ele>320</ele>
        <time>2023-10-18T09:29:27.574+00:00</time>
      </trkpt>
      <trkpt lat="46.11852" lon="4.61534">
        <ele>320</ele>
        <time>2023-10-18T09:29:32.194+00:00</time>
      </trkpt>
      <trkpt lat="46.11847" lon="4.6154">
        <ele>320</ele>
        <time>2023-10-18T09:29:36.597+00:00</time>
      </trkpt>
      <trkpt lat="46.11845" lon="4.61548">
        <ele>321</ele>
        <time>2023-10-18T09:29:41.134+00:00</time>
      </trkpt>
      <trkpt lat="46.11853" lon="4.61546">
        <ele>320</ele>
        <time>2023-10-18T09:44:09.601+00:00</time>
      </trkpt>
      <trkpt lat="46.11853" lon="4.61546">
        <ele>320</ele>
        <time>2023-10-18T09:44:14.594+00:00</time>
      </trkpt>
      <trkpt lat="46.11853" lon="4.61546">
        <ele>320</ele>
        <time>2023-10-18T09:44:18.599+00:00</time>
      </trkpt>
      <trkpt lat="46.11855" lon="4.61545">
        <ele>320</ele>
        <time>2023-10-18T09:44:23.599+00:00</time>
      </trkpt>
      <trkpt lat="46.11857" lon="4.61541">
        <ele>320</ele>
        <time>2023-10-18T09:44:28.054+00:00</time>
      </trkpt>
      <trkpt lat="46.1186" lon="4.61535">
        <ele>320</ele>
        <time>2023-10-18T09:44:32.502+00:00</time>
      </trkpt>
      <trkpt lat="46.11862" lon="4.61529">
        <ele>320</ele>
        <time>2023-10-18T09:44:36.454+00:00</time>
      </trkpt>
      <trkpt lat="46.11866" lon="4.61525">
        <ele>320</ele>
        <time>2023-10-18T09:44:41.054+00:00</time>
      </trkpt>
      <trkpt lat="46.11868" lon="4.6152">
        <ele>320</ele>
        <time>2023-10-18T09:44:45.602+00:00</time>
      </trkpt>
      <trkpt lat="46.11869" lon="4.61515">
        <ele>320</ele>
        <time>2023-10-18T09:44:49.680+00:00</time>
      </trkpt>
      <trkpt lat="46.1187" lon="4.61508">
        <ele>321</ele>
        <time>2023-10-18T09:44:54.648+00:00</time>
      </trkpt>
      <trkpt lat="46.1187" lon="4.61501">
        <ele>321</ele>
        <time>2023-10-18T09:44:59.154+00:00</time>
      </trkpt>
      <trkpt lat="46.1187" lon="4.61496">
        <ele>321</ele>
        <time>2023-10-18T09:45:03.580+00:00</time>
      </trkpt>
      <trkpt lat="46.11868" lon="4.61496">
        <ele>321</ele>
        <time>2023-10-18T09:45:07.595+00:00</time>
      </trkpt>
      <trkpt lat="46.11866" lon="4.61495">
        <ele>321</ele>
        <time>2023-10-18T09:45:12.134+00:00</time>
      </trkpt>
      <trkpt lat="46.11861" lon="4.61494">
        <ele>321</ele>
        <time>2023-10-18T09:45:16.734+00:00</time>
      </trkpt>
      <trkpt lat="46.11857" lon="4.61495">
        <ele>321</ele>
        <time>2023-10-18T09:45:21.314+00:00</time>
      </trkpt>
      <trkpt lat="46.11853" lon="4.61494">
        <ele>321</ele>
        <time>2023-10-18T09:45:25.314+00:00</time>
      </trkpt>
      <trkpt lat="46.1185" lon="4.61492">
        <ele>321</ele>
        <time>2023-10-18T09:45:29.834+00:00</time>
      </trkpt>
      <trkpt lat="46.11846" lon="4.61492">
        <ele>324</ele>
        <time>2023-10-18T09:45:33.834+00:00</time>
      </trkpt>
      <trkpt lat="46.11844" lon="4.6149">
        <ele>324</ele>
        <time>2023-10-18T09:45:37.834+00:00</time>
      </trkpt>
      <trkpt lat="46.11839" lon="4.6149">
        <ele>324</ele>
        <time>2023-10-18T09:45:42.434+00:00</time>
      </trkpt>
      <trkpt lat="46.11833" lon="4.6149">
        <ele>324</ele>
        <time>2023-10-18T09:45:47.034+00:00</time>
      </trkpt>
      <trkpt lat="46.11828" lon="4.61488">
        <ele>324</ele>
        <time>2023-10-18T09:45:51.454+00:00</time>
      </trkpt>
      <trkpt lat="46.11823" lon="4.61486">
        <ele>324</ele>
        <time>2023-10-18T09:45:55.454+00:00</time>
      </trkpt>
      <trkpt lat="46.11817" lon="4.61484">
        <ele>326</ele>
        <time>2023-10-18T09:46:00.054+00:00</time>
      </trkpt>
      <trkpt lat="46.11813" lon="4.61483">
        <ele>326</ele>
        <time>2023-10-18T09:46:04.380+00:00</time>
      </trkpt>
      <trkpt lat="46.11807" lon="4.6148">
        <ele>326</ele>
        <time>2023-10-18T09:46:08.454+00:00</time>
      </trkpt>
      <trkpt lat="46.11803" lon="4.61476">
        <ele>326</ele>
        <time>2023-10-18T09:46:12.454+00:00</time>
      </trkpt>
      <trkpt lat="46.11796" lon="4.61474">
        <ele>326</ele>
        <time>2023-10-18T09:46:17.554+00:00</time>
      </trkpt>
      <trkpt lat="46.11794" lon="4.61467">
        <ele>326</ele>
        <time>2023-10-18T09:46:21.594+00:00</time>
      </trkpt>
      <trkpt lat="46.11797" lon="4.61457">
        <ele>328</ele>
        <time>2023-10-18T09:46:26.598+00:00</time>
      </trkpt>
      <trkpt lat="46.118" lon="4.6145">
        <ele>328</ele>
        <time>2023-10-18T09:46:31.054+00:00</time>
      </trkpt>
      <trkpt lat="46.11802" lon="4.61444">
        <ele>328</ele>
        <time>2023-10-18T09:46:35.054+00:00</time>
      </trkpt>
      <trkpt lat="46.11803" lon="4.61437">
        <ele>328</ele>
        <time>2023-10-18T09:46:39.580+00:00</time>
      </trkpt>
      <trkpt lat="46.11804" lon="4.61431">
        <ele>328</ele>
        <time>2023-10-18T09:46:43.597+00:00</time>
      </trkpt>
      <trkpt lat="46.11805" lon="4.61424">
        <ele>330</ele>
        <time>2023-10-18T09:46:48.154+00:00</time>
      </trkpt>
      <trkpt lat="46.11806" lon="4.61418">
        <ele>330</ele>
        <time>2023-10-18T09:46:52.674+00:00</time>
      </trkpt>
      <trkpt lat="46.11807" lon="4.61411">
        <ele>330</ele>
        <time>2023-10-18T09:46:57.314+00:00</time>
      </trkpt>
      <trkpt lat="46.11808" lon="4.61404">
        <ele>330</ele>
        <time>2023-10-18T09:47:01.674+00:00</time>
      </trkpt>
      <trkpt lat="46.11809" lon="4.61398">
        <ele>331</ele>
        <time>2023-10-18T09:47:06.174+00:00</time>
      </trkpt>
      <trkpt lat="46.11811" lon="4.61391">
        <ele>331</ele>
        <time>2023-10-18T09:47:10.674+00:00</time>
      </trkpt>
      <trkpt lat="46.11812" lon="4.61385">
        <ele>331</ele>
        <time>2023-10-18T09:47:15.174+00:00</time>
      </trkpt>
      <trkpt lat="46.11813" lon="4.61379">
        <ele>331</ele>
        <time>2023-10-18T09:47:19.074+00:00</time>
      </trkpt>
      <trkpt lat="46.11816" lon="4.61373">
        <ele>332</ele>
        <time>2023-10-18T09:47:23.601+00:00</time>
      </trkpt>
      <trkpt lat="46.11818" lon="4.61368">
        <ele>332</ele>
        <time>2023-10-18T09:47:27.620+00:00</time>
      </trkpt>
      <trkpt lat="46.11819" lon="4.61362">
        <ele>332</ele>
        <time>2023-10-18T09:47:32.080+00:00</time>
      </trkpt>
      <trkpt lat="46.11821" lon="4.6136">
        <ele>332</ele>
        <time>2023-10-18T09:47:36.074+00:00</time>
      </trkpt>
      <trkpt lat="46.11823" lon="4.61354">
        <ele>332</ele>
        <time>2023-10-18T09:47:40.602+00:00</time>
      </trkpt>
      <trkpt lat="46.11825" lon="4.61347">
        <ele>335</ele>
        <time>2023-10-18T09:47:44.974+00:00</time>
      </trkpt>
      <trkpt lat="46.11828" lon="4.61341">
        <ele>335</ele>
        <time>2023-10-18T09:47:49.314+00:00</time>
      </trkpt>
      <trkpt lat="46.1183" lon="4.61334">
        <ele>335</ele>
        <time>2023-10-18T09:47:54.322+00:00</time>
      </trkpt>
      <trkpt lat="46.11831" lon="4.61328">
        <ele>335</ele>
        <time>2023-10-18T09:47:58.794+00:00</time>
      </trkpt>
      <trkpt lat="46.11833" lon="4.61322">
        <ele>335</ele>
        <time>2023-10-18T09:48:03.320+00:00</time>
      </trkpt>
      <trkpt lat="46.11835" lon="4.61316">
        <ele>337</ele>
        <time>2023-10-18T09:48:07.314+00:00</time>
      </trkpt>
      <trkpt lat="46.11837" lon="4.61311">
        <ele>337</ele>
        <time>2023-10-18T09:48:11.314+00:00</time>
      </trkpt>
      <trkpt lat="46.11838" lon="4.61305">
        <ele>337</ele>
        <time>2023-10-18T09:48:15.914+00:00</time>
      </trkpt>
      <trkpt lat="46.1184" lon="4.61297">
        <ele>337</ele>
        <time>2023-10-18T09:48:20.614+00:00</time>
      </trkpt>
      <trkpt lat="46.11842" lon="4.6129">
        <ele>340</ele>
        <time>2023-10-18T09:48:24.814+00:00</time>
      </trkpt>
      <trkpt lat="46.11844" lon="4.61283">
        <ele>340</ele>
        <time>2023-10-18T09:48:29.460+00:00</time>
      </trkpt>
      <trkpt lat="46.11847" lon="4.61277">
        <ele>340</ele>
        <time>2023-10-18T09:48:33.614+00:00</time>
      </trkpt>
      <trkpt lat="46.11849" lon="4.61269">
        <ele>339</ele>
        <time>2023-10-18T09:48:38.621+00:00</time>
      </trkpt>
      <trkpt lat="46.11851" lon="4.61263">
        <ele>343</ele>
        <time>2023-10-18T09:48:42.714+00:00</time>
      </trkpt>
      <trkpt lat="46.11852" lon="4.61258">
        <ele>343</ele>
        <time>2023-10-18T09:48:47.480+00:00</time>
      </trkpt>
      <trkpt lat="46.11854" lon="4.61252">
        <ele>343</ele>
        <time>2023-10-18T09:48:51.614+00:00</time>
      </trkpt>
      <trkpt lat="46.11855" lon="4.61245">
        <ele>343</ele>
        <time>2023-10-18T09:48:56.114+00:00</time>
      </trkpt>
      <trkpt lat="46.11856" lon="4.61239">
        <ele>343</ele>
        <time>2023-10-18T09:49:00.714+00:00</time>
      </trkpt>
      <trkpt lat="46.11857" lon="4.61233">
        <ele>345</ele>
        <time>2023-10-18T09:49:05.514+00:00</time>
      </trkpt>
      <trkpt lat="46.11858" lon="4.61227">
        <ele>345</ele>
        <time>2023-10-18T09:49:10.054+00:00</time>
      </trkpt>
      <trkpt lat="46.1186" lon="4.61222">
        <ele>345</ele>
        <time>2023-10-18T09:49:13.954+00:00</time>
      </trkpt>
      <trkpt lat="46.11861" lon="4.61216">
        <ele>345</ele>
        <time>2023-10-18T09:49:18.074+00:00</time>
      </trkpt>
      <trkpt lat="46.11865" lon="4.6121">
        <ele>345</ele>
        <time>2023-10-18T09:49:22.494+00:00</time>
      </trkpt>
      <trkpt lat="46.11868" lon="4.61204">
        <ele>346</ele>
        <time>2023-10-18T09:49:26.940+00:00</time>
      </trkpt>
      <trkpt lat="46.11871" lon="4.61199">
        <ele>346</ele>
        <time>2023-10-18T09:49:31.114+00:00</time>
      </trkpt>
      <trkpt lat="46.11876" lon="4.61192">
        <ele>347</ele>
        <time>2023-10-18T09:49:35.620+00:00</time>
      </trkpt>
      <trkpt lat="46.11878" lon="4.61187">
        <ele>347</ele>
        <time>2023-10-18T09:49:39.603+00:00</time>
      </trkpt>
      <trkpt lat="46.11882" lon="4.61181">
        <ele>347</ele>
        <time>2023-10-18T09:49:44.174+00:00</time>
      </trkpt>
      <trkpt lat="46.11894" lon="4.61158">
        <ele>348</ele>
        <time>2023-10-18T09:50:38.114+00:00</time>
      </trkpt>
      <trkpt lat="46.11894" lon="4.61156">
        <ele>348</ele>
        <time>2023-10-18T09:50:43.154+00:00</time>
      </trkpt>
      <trkpt lat="46.11895" lon="4.61149">
        <ele>350</ele>
        <time>2023-10-18T09:50:47.154+00:00</time>
      </trkpt>
      <trkpt lat="46.11895" lon="4.61142">
        <ele>350</ele>
        <time>2023-10-18T09:50:51.602+00:00</time>
      </trkpt>
      <trkpt lat="46.11895" lon="4.61135">
        <ele>350</ele>
        <time>2023-10-18T09:50:55.596+00:00</time>
      </trkpt>
      <trkpt lat="46.11895" lon="4.61128">
        <ele>350</ele>
        <time>2023-10-18T09:51:00.154+00:00</time>
      </trkpt>
      <trkpt lat="46.11895" lon="4.61122">
        <ele>353</ele>
        <time>2023-10-18T09:51:04.605+00:00</time>
      </trkpt>
      <trkpt lat="46.11894" lon="4.61116">
        <ele>353</ele>
        <time>2023-10-18T09:51:09.154+00:00</time>
      </trkpt>
      <trkpt lat="46.11894" lon="4.6111">
        <ele>353</ele>
        <time>2023-10-18T09:51:13.754+00:00</time>
      </trkpt>
      <trkpt lat="46.11894" lon="4.61104">
        <ele>353</ele>
        <time>2023-10-18T09:51:18.314+00:00</time>
      </trkpt>
      <trkpt lat="46.11893" lon="4.611">
        <ele>353</ele>
        <time>2023-10-18T09:51:22.314+00:00</time>
      </trkpt>
      <trkpt lat="46.11893" lon="4.61095">
        <ele>356</ele>
        <time>2023-10-18T09:51:26.741+00:00</time>
      </trkpt>
      <trkpt lat="46.11893" lon="4.6109">
        <ele>356</ele>
        <time>2023-10-18T09:51:30.754+00:00</time>
      </trkpt>
      <trkpt lat="46.11893" lon="4.61085">
        <ele>356</ele>
        <time>2023-10-18T09:51:34.674+00:00</time>
      </trkpt>
      <trkpt lat="46.11893" lon="4.61078">
        <ele>356</ele>
        <time>2023-10-18T09:51:39.314+00:00</time>
      </trkpt>
      <trkpt lat="46.11893" lon="4.61072">
        <ele>356</ele>
        <time>2023-10-18T09:51:43.734+00:00</time>
      </trkpt>
      <trkpt lat="46.11893" lon="4.61064">
        <ele>359</ele>
        <time>2023-10-18T09:51:48.540+00:00</time>
      </trkpt>
      <trkpt lat="46.11893" lon="4.61058">
        <ele>359</ele>
        <time>2023-10-18T09:51:52.754+00:00</time>
      </trkpt>
      <trkpt lat="46.11893" lon="4.61052">
        <ele>359</ele>
        <time>2023-10-18T09:51:57.214+00:00</time>
      </trkpt>
      <trkpt lat="46.11893" lon="4.61046">
        <ele>359</ele>
        <time>2023-10-18T09:52:01.834+00:00</time>
      </trkpt>
      <trkpt lat="46.11894" lon="4.61038">
        <ele>361</ele>
        <time>2023-10-18T09:52:06.434+00:00</time>
      </trkpt>
      <trkpt lat="46.11895" lon="4.61031">
        <ele>361</ele>
        <time>2023-10-18T09:52:11.500+00:00</time>
      </trkpt>
      <trkpt lat="46.11897" lon="4.61027">
        <ele>361</ele>
        <time>2023-10-18T09:52:15.434+00:00</time>
      </trkpt>
      <trkpt lat="46.11898" lon="4.61022">
        <ele>361</ele>
        <time>2023-10-18T09:52:20.034+00:00</time>
      </trkpt>
      <trkpt lat="46.119" lon="4.61016">
        <ele>361</ele>
        <time>2023-10-18T09:52:24.534+00:00</time>
      </trkpt>
      <trkpt lat="46.11901" lon="4.6101">
        <ele>362</ele>
        <time>2023-10-18T09:52:29.154+00:00</time>
      </trkpt>
      <trkpt lat="46.11902" lon="4.61003">
        <ele>362</ele>
        <time>2023-10-18T09:52:33.740+00:00</time>
      </trkpt>
      <trkpt lat="46.11904" lon="4.60998">
        <ele>363</ele>
        <time>2023-10-18T09:52:38.134+00:00</time>
      </trkpt>
      <trkpt lat="46.11906" lon="4.60992">
        <ele>363</ele>
        <time>2023-10-18T09:52:42.582+00:00</time>
      </trkpt>
      <trkpt lat="46.11907" lon="4.60986">
        <ele>365</ele>
        <time>2023-10-18T09:52:46.608+00:00</time>
      </trkpt>
      <trkpt lat="46.11908" lon="4.6098">
        <ele>365</ele>
        <time>2023-10-18T09:52:51.194+00:00</time>
      </trkpt>
      <trkpt lat="46.11908" lon="4.60976">
        <ele>365</ele>
        <time>2023-10-18T09:52:55.194+00:00</time>
      </trkpt>
      <trkpt lat="46.11909" lon="4.60971">
        <ele>365</ele>
        <time>2023-10-18T09:52:59.194+00:00</time>
      </trkpt>
      <trkpt lat="46.11909" lon="4.60965">
        <ele>365</ele>
        <time>2023-10-18T09:53:04.294+00:00</time>
      </trkpt>
      <trkpt lat="46.11909" lon="4.60959">
        <ele>365</ele>
        <time>2023-10-18T09:53:08.314+00:00</time>
      </trkpt>
      <trkpt lat="46.11909" lon="4.60954">
        <ele>369</ele>
        <time>2023-10-18T09:53:12.314+00:00</time>
      </trkpt>
      <trkpt lat="46.11908" lon="4.60949">
        <ele>369</ele>
        <time>2023-10-18T09:53:16.314+00:00</time>
      </trkpt>
      <trkpt lat="46.11908" lon="4.60943">
        <ele>369</ele>
        <time>2023-10-18T09:53:20.514+00:00</time>
      </trkpt>
      <trkpt lat="46.11908" lon="4.60937">
        <ele>369</ele>
        <time>2023-10-18T09:53:25.054+00:00</time>
      </trkpt>
      <trkpt lat="46.11908" lon="4.60931">
        <ele>369</ele>
        <time>2023-10-18T09:53:29.314+00:00</time>
      </trkpt>
      <trkpt lat="46.11909" lon="4.60925">
        <ele>373</ele>
        <time>2023-10-18T09:53:33.314+00:00</time>
      </trkpt>
      <trkpt lat="46.11909" lon="4.60919">
        <ele>373</ele>
        <time>2023-10-18T09:53:38.420+00:00</time>
      </trkpt>
      <trkpt lat="46.1191" lon="4.60912">
        <ele>373</ele>
        <time>2023-10-18T09:53:43.014+00:00</time>
      </trkpt>
      <trkpt lat="46.1191" lon="4.60907">
        <ele>373</ele>
        <time>2023-10-18T09:53:47.114+00:00</time>
      </trkpt>
      <trkpt lat="46.1191" lon="4.60902">
        <ele>377</ele>
        <time>2023-10-18T09:53:51.134+00:00</time>
      </trkpt>
      <trkpt lat="46.1191" lon="4.60896">
        <ele>377</ele>
        <time>2023-10-18T09:53:55.554+00:00</time>
      </trkpt>
      <trkpt lat="46.1191" lon="4.60891">
        <ele>377</ele>
        <time>2023-10-18T09:53:59.594+00:00</time>
      </trkpt>
      <trkpt lat="46.1191" lon="4.60886">
        <ele>377</ele>
        <time>2023-10-18T09:54:03.714+00:00</time>
      </trkpt>
      <trkpt lat="46.1191" lon="4.60881">
        <ele>377</ele>
        <time>2023-10-18T09:54:07.814+00:00</time>
      </trkpt>
      <trkpt lat="46.1191" lon="4.60875">
        <ele>381</ele>
        <time>2023-10-18T09:54:12.620+00:00</time>
      </trkpt>
      <trkpt lat="46.1191" lon="4.60869">
        <ele>381</ele>
        <time>2023-10-18T09:54:17.034+00:00</time>
      </trkpt>
      <trkpt lat="46.1191" lon="4.60863">
        <ele>381</ele>
        <time>2023-10-18T09:54:21.234+00:00</time>
      </trkpt>
      <trkpt lat="46.11911" lon="4.60859">
        <ele>381</ele>
        <time>2023-10-18T09:54:25.841+00:00</time>
      </trkpt>
      <trkpt lat="46.11911" lon="4.60853">
        <ele>381</ele>
        <time>2023-10-18T09:54:30.214+00:00</time>
      </trkpt>
      <trkpt lat="46.11911" lon="4.60847">
        <ele>384</ele>
        <time>2023-10-18T09:54:34.474+00:00</time>
      </trkpt>
      <trkpt lat="46.11909" lon="4.6084">
        <ele>384</ele>
        <time>2023-10-18T09:54:38.894+00:00</time>
      </trkpt>
      <trkpt lat="46.11909" lon="4.60834">
        <ele>384</ele>
        <time>2023-10-18T09:54:43.374+00:00</time>
      </trkpt>
      <trkpt lat="46.11909" lon="4.60828">
        <ele>384</ele>
        <time>2023-10-18T09:54:47.734+00:00</time>
      </trkpt>
      <trkpt lat="46.1191" lon="4.60822">
        <ele>384</ele>
        <time>2023-10-18T09:54:52.314+00:00</time>
      </trkpt>
      <trkpt lat="46.11911" lon="4.60816">
        <ele>387</ele>
        <time>2023-10-18T09:54:56.596+00:00</time>
      </trkpt>
      <trkpt lat="46.11912" lon="4.6081">
        <ele>387</ele>
        <time>2023-10-18T09:55:00.874+00:00</time>
      </trkpt>
      <trkpt lat="46.11913" lon="4.60804">
        <ele>387</ele>
        <time>2023-10-18T09:55:04.774+00:00</time>
      </trkpt>
      <trkpt lat="46.11913" lon="4.60798">
        <ele>387</ele>
        <time>2023-10-18T09:55:09.314+00:00</time>
      </trkpt>
      <trkpt lat="46.11913" lon="4.60792">
        <ele>387</ele>
        <time>2023-10-18T09:55:13.874+00:00</time>
      </trkpt>
      <trkpt lat="46.11914" lon="4.60786">
        <ele>387</ele>
        <time>2023-10-18T09:55:18.474+00:00</time>
      </trkpt>
      <trkpt lat="46.11915" lon="4.6078">
        <ele>387</ele>
        <time>2023-10-18T09:55:22.754+00:00</time>
      </trkpt>
      <trkpt lat="46.11916" lon="4.60774">
        <ele>387</ele>
        <time>2023-10-18T09:55:27.134+00:00</time>
      </trkpt>
      <trkpt lat="46.11918" lon="4.60767">
        <ele>387</ele>
        <time>2023-10-18T09:55:31.701+00:00</time>
      </trkpt>
      <trkpt lat="46.11919" lon="4.60762">
        <ele>389</ele>
        <time>2023-10-18T09:55:35.834+00:00</time>
      </trkpt>
      <trkpt lat="46.11918" lon="4.60758">
        <ele>389</ele>
        <time>2023-10-18T09:55:40.034+00:00</time>
      </trkpt>
      <trkpt lat="46.11918" lon="4.60754">
        <ele>389</ele>
        <time>2023-10-18T09:55:44.234+00:00</time>
      </trkpt>
      <trkpt lat="46.11918" lon="4.60749">
        <ele>389</ele>
        <time>2023-10-18T09:55:48.434+00:00</time>
      </trkpt>
      <trkpt lat="46.11918" lon="4.60743">
        <ele>389</ele>
        <time>2023-10-18T09:55:52.454+00:00</time>
      </trkpt>
      <trkpt lat="46.11918" lon="4.60738">
        <ele>389</ele>
        <time>2023-10-18T09:55:56.974+00:00</time>
      </trkpt>
      <trkpt lat="46.11917" lon="4.60731">
        <ele>391</ele>
        <time>2023-10-18T09:56:01.494+00:00</time>
      </trkpt>
      <trkpt lat="46.11917" lon="4.60724">
        <ele>391</ele>
        <time>2023-10-18T09:56:06.094+00:00</time>
      </trkpt>
      <trkpt lat="46.11916" lon="4.60717">
        <ele>391</ele>
        <time>2023-10-18T09:56:10.640+00:00</time>
      </trkpt>
      <trkpt lat="46.11916" lon="4.60711">
        <ele>391</ele>
        <time>2023-10-18T09:56:15.114+00:00</time>
      </trkpt>
      <trkpt lat="46.11918" lon="4.60703">
        <ele>394</ele>
        <time>2023-10-18T09:56:19.514+00:00</time>
      </trkpt>
      <trkpt lat="46.11919" lon="4.60697">
        <ele>394</ele>
        <time>2023-10-18T09:56:24.140+00:00</time>
      </trkpt>
      <trkpt lat="46.11921" lon="4.60691">
        <ele>394</ele>
        <time>2023-10-18T09:56:28.074+00:00</time>
      </trkpt>
      <trkpt lat="46.11922" lon="4.60685">
        <ele>394</ele>
        <time>2023-10-18T09:56:32.714+00:00</time>
      </trkpt>
      <trkpt lat="46.11924" lon="4.60679">
        <ele>395</ele>
        <time>2023-10-18T09:56:37.314+00:00</time>
      </trkpt>
      <trkpt lat="46.11927" lon="4.60673">
        <ele>395</ele>
        <time>2023-10-18T09:56:41.774+00:00</time>
      </trkpt>
      <trkpt lat="46.11929" lon="4.60669">
        <ele>395</ele>
        <time>2023-10-18T09:56:46.314+00:00</time>
      </trkpt>
      <trkpt lat="46.11932" lon="4.60656">
        <ele>396</ele>
        <time>2023-10-18T09:57:58.603+00:00</time>
      </trkpt>
      <trkpt lat="46.11935" lon="4.60658">
        <ele>396</ele>
        <time>2023-10-18T09:58:03.134+00:00</time>
      </trkpt>
      <trkpt lat="46.11936" lon="4.60657">
        <ele>396</ele>
        <time>2023-10-18T09:58:08.604+00:00</time>
      </trkpt>
      <trkpt lat="46.11937" lon="4.60656">
        <ele>396</ele>
        <time>2023-10-18T09:58:13.134+00:00</time>
      </trkpt>
      <trkpt lat="46.11937" lon="4.60656">
        <ele>396</ele>
        <time>2023-10-18T09:58:18.604+00:00</time>
      </trkpt>
      <trkpt lat="46.11937" lon="4.60656">
        <ele>396</ele>
        <time>2023-10-18T09:58:52.599+00:00</time>
      </trkpt>
      <trkpt lat="46.11937" lon="4.60656">
        <ele>396</ele>
        <time>2023-10-18T09:58:57.597+00:00</time>
      </trkpt>
      <trkpt lat="46.11937" lon="4.60654">
        <ele>396</ele>
        <time>2023-10-18T09:59:11.602+00:00</time>
      </trkpt>
      <trkpt lat="46.1194" lon="4.60652">
        <ele>397</ele>
        <time>2023-10-18T09:59:16.634+00:00</time>
      </trkpt>
      <trkpt lat="46.11946" lon="4.60649">
        <ele>397</ele>
        <time>2023-10-18T09:59:21.134+00:00</time>
      </trkpt>
      <trkpt lat="46.11952" lon="4.60645">
        <ele>397</ele>
        <time>2023-10-18T09:59:26.174+00:00</time>
      </trkpt>
      <trkpt lat="46.11955" lon="4.6064">
        <ele>397</ele>
        <time>2023-10-18T09:59:30.614+00:00</time>
      </trkpt>
      <trkpt lat="46.11958" lon="4.60635">
        <ele>397</ele>
        <time>2023-10-18T09:59:35.174+00:00</time>
      </trkpt>
      <trkpt lat="46.11959" lon="4.6063">
        <ele>397</ele>
        <time>2023-10-18T09:59:40.320+00:00</time>
      </trkpt>
      <trkpt lat="46.11956" lon="4.60622">
        <ele>399</ele>
        <time>2023-10-18T09:59:44.514+00:00</time>
      </trkpt>
      <trkpt lat="46.11954" lon="4.60616">
        <ele>399</ele>
        <time>2023-10-18T09:59:49.034+00:00</time>
      </trkpt>
      <trkpt lat="46.11953" lon="4.6061">
        <ele>399</ele>
        <time>2023-10-18T09:59:53.474+00:00</time>
      </trkpt>
      <trkpt lat="46.11952" lon="4.60604">
        <ele>399</ele>
        <time>2023-10-18T09:59:57.880+00:00</time>
      </trkpt>
      <trkpt lat="46.11951" lon="4.60597">
        <ele>401</ele>
        <time>2023-10-18T10:00:02.234+00:00</time>
      </trkpt>
      <trkpt lat="46.11949" lon="4.6059">
        <ele>401</ele>
        <time>2023-10-18T10:00:06.774+00:00</time>
      </trkpt>
      <trkpt lat="46.11948" lon="4.60582">
        <ele>401</ele>
        <time>2023-10-18T10:00:11.160+00:00</time>
      </trkpt>
      <trkpt lat="46.11946" lon="4.60575">
        <ele>401</ele>
        <time>2023-10-18T10:00:15.474+00:00</time>
      </trkpt>
      <trkpt lat="46.11944" lon="4.60568">
        <ele>402</ele>
        <time>2023-10-18T10:00:19.774+00:00</time>
      </trkpt>
      <trkpt lat="46.11944" lon="4.60561">
        <ele>402</ele>
        <time>2023-10-18T10:00:24.314+00:00</time>
      </trkpt>
      <trkpt lat="46.11944" lon="4.60555">
        <ele>402</ele>
        <time>2023-10-18T10:00:28.294+00:00</time>
      </trkpt>
      <trkpt lat="46.11944" lon="4.60547">
        <ele>402</ele>
        <time>2023-10-18T10:00:32.894+00:00</time>
      </trkpt>
      <trkpt lat="46.11945" lon="4.60539">
        <ele>404</ele>
        <time>2023-10-18T10:00:37.294+00:00</time>
      </trkpt>
      <trkpt lat="46.11946" lon="4.60533">
        <ele>404</ele>
        <time>2023-10-18T10:00:41.314+00:00</time>
      </trkpt>
      <trkpt lat="46.11946" lon="4.60527">
        <ele>404</ele>
        <time>2023-10-18T10:00:45.314+00:00</time>
      </trkpt>
      <trkpt lat="46.11946" lon="4.60521">
        <ele>404</ele>
        <time>2023-10-18T10:00:50.114+00:00</time>
      </trkpt>
      <trkpt lat="46.11948" lon="4.60513">
        <ele>406</ele>
        <time>2023-10-18T10:00:54.800+00:00</time>
      </trkpt>
      <trkpt lat="46.11949" lon="4.60507">
        <ele>406</ele>
        <time>2023-10-18T10:00:59.314+00:00</time>
      </trkpt>
      <trkpt lat="46.11949" lon="4.60499">
        <ele>406</ele>
        <time>2023-10-18T10:01:04.434+00:00</time>
      </trkpt>
      <trkpt lat="46.1195" lon="4.60493">
        <ele>406</ele>
        <time>2023-10-18T10:01:08.954+00:00</time>
      </trkpt>
      <trkpt lat="46.11951" lon="4.60487">
        <ele>406</ele>
        <time>2023-10-18T10:01:13.314+00:00</time>
      </trkpt>
      <trkpt lat="46.11951" lon="4.60479">
        <ele>408</ele>
        <time>2023-10-18T10:01:17.822+00:00</time>
      </trkpt>
      <trkpt lat="46.1195" lon="4.6047">
        <ele>408</ele>
        <time>2023-10-18T10:01:22.294+00:00</time>
      </trkpt>
      <trkpt lat="46.11949" lon="4.60463">
        <ele>408</ele>
        <time>2023-10-18T10:01:26.814+00:00</time>
      </trkpt>
      <trkpt lat="46.11949" lon="4.60455">
        <ele>410</ele>
        <time>2023-10-18T10:01:31.434+00:00</time>
      </trkpt>
      <trkpt lat="46.11949" lon="4.60449">
        <ele>410</ele>
        <time>2023-10-18T10:01:35.454+00:00</time>
      </trkpt>
      <trkpt lat="46.11949" lon="4.60441">
        <ele>410</ele>
        <time>2023-10-18T10:01:39.874+00:00</time>
      </trkpt>
      <trkpt lat="46.11949" lon="4.60433">
        <ele>410</ele>
        <time>2023-10-18T10:01:44.414+00:00</time>
      </trkpt>
      <trkpt lat="46.11949" lon="4.60427">
        <ele>411</ele>
        <time>2023-10-18T10:01:48.934+00:00</time>
      </trkpt>
      <trkpt lat="46.11949" lon="4.6042">
        <ele>411</ele>
        <time>2023-10-18T10:01:53.334+00:00</time>
      </trkpt>
      <trkpt lat="46.11948" lon="4.60414">
        <ele>411</ele>
        <time>2023-10-18T10:01:57.834+00:00</time>
      </trkpt>
      <trkpt lat="46.11946" lon="4.60409">
        <ele>411</ele>
        <time>2023-10-18T10:02:02.234+00:00</time>
      </trkpt>
      <trkpt lat="46.11946" lon="4.60404">
        <ele>411</ele>
        <time>2023-10-18T10:02:06.314+00:00</time>
      </trkpt>
      <trkpt lat="46.11945" lon="4.60398">
        <ele>414</ele>
        <time>2023-10-18T10:02:10.114+00:00</time>
      </trkpt>
      <trkpt lat="46.11943" lon="4.6039">
        <ele>414</ele>
        <time>2023-10-18T10:02:15.614+00:00</time>
      </trkpt>
      <trkpt lat="46.11941" lon="4.60384">
        <ele>414</ele>
        <time>2023-10-18T10:02:19.894+00:00</time>
      </trkpt>
      <trkpt lat="46.11941" lon="4.6038">
        <ele>414</ele>
        <time>2023-10-18T10:02:23.894+00:00</time>
      </trkpt>
      <trkpt lat="46.1194" lon="4.60374">
        <ele>418</ele>
        <time>2023-10-18T10:02:28.494+00:00</time>
      </trkpt>
      <trkpt lat="46.11938" lon="4.6037">
        <ele>418</ele>
        <time>2023-10-18T10:02:32.494+00:00</time>
      </trkpt>
      <trkpt lat="46.11936" lon="4.60363">
        <ele>418</ele>
        <time>2023-10-18T10:02:37.094+00:00</time>
      </trkpt>
      <trkpt lat="46.11935" lon="4.60357">
        <ele>418</ele>
        <time>2023-10-18T10:02:41.606+00:00</time>
      </trkpt>
      <trkpt lat="46.11935" lon="4.6035">
        <ele>418</ele>
        <time>2023-10-18T10:02:46.194+00:00</time>
      </trkpt>
      <trkpt lat="46.11935" lon="4.60344">
        <ele>423</ele>
        <time>2023-10-18T10:02:50.194+00:00</time>
      </trkpt>
      <trkpt lat="46.11934" lon="4.60337">
        <ele>423</ele>
        <time>2023-10-18T10:02:55.140+00:00</time>
      </trkpt>
      <trkpt lat="46.11934" lon="4.60332">
        <ele>423</ele>
        <time>2023-10-18T10:02:59.194+00:00</time>
      </trkpt>
      <trkpt lat="46.11932" lon="4.60327">
        <ele>423</ele>
        <time>2023-10-18T10:03:03.794+00:00</time>
      </trkpt>
      <trkpt lat="46.11931" lon="4.60322">
        <ele>423</ele>
        <time>2023-10-18T10:03:07.794+00:00</time>
      </trkpt>
      <trkpt lat="46.11929" lon="4.60318">
        <ele>426</ele>
        <time>2023-10-18T10:03:11.794+00:00</time>
      </trkpt>
      <trkpt lat="46.11927" lon="4.60314">
        <ele>426</ele>
        <time>2023-10-18T10:03:16.194+00:00</time>
      </trkpt>
      <trkpt lat="46.11925" lon="4.6031">
        <ele>426</ele>
        <time>2023-10-18T10:03:20.194+00:00</time>
      </trkpt>
      <trkpt lat="46.11922" lon="4.60306">
        <ele>426</ele>
        <time>2023-10-18T10:03:24.714+00:00</time>
      </trkpt>
      <trkpt lat="46.1192" lon="4.60302">
        <ele>426</ele>
        <time>2023-10-18T10:03:28.914+00:00</time>
      </trkpt>
      <trkpt lat="46.11917" lon="4.60298">
        <ele>426</ele>
        <time>2023-10-18T10:03:33.114+00:00</time>
      </trkpt>
      <trkpt lat="46.11915" lon="4.60294">
        <ele>426</ele>
        <time>2023-10-18T10:03:37.314+00:00</time>
      </trkpt>
      <trkpt lat="46.11911" lon="4.60291">
        <ele>432</ele>
        <time>2023-10-18T10:03:41.914+00:00</time>
      </trkpt>
      <trkpt lat="46.11906" lon="4.6029">
        <ele>432</ele>
        <time>2023-10-18T10:03:46.114+00:00</time>
      </trkpt>
      <trkpt lat="46.11902" lon="4.60286">
        <ele>430</ele>
        <time>2023-10-18T10:03:50.654+00:00</time>
      </trkpt>
      <trkpt lat="46.11897" lon="4.60282">
        <ele>430</ele>
        <time>2023-10-18T10:03:55.620+00:00</time>
      </trkpt>
      <trkpt lat="46.11894" lon="4.6028">
        <ele>430</ele>
        <time>2023-10-18T10:03:59.594+00:00</time>
      </trkpt>
      <trkpt lat="46.11889" lon="4.60278">
        <ele>430</ele>
        <time>2023-10-18T10:04:04+00:00</time>
      </trkpt>
      <trkpt lat="46.11885" lon="4.60278">
        <ele>430</ele>
        <time>2023-10-18T10:04:07.994+00:00</time>
      </trkpt>
      <trkpt lat="46.1188" lon="4.60275">
        <ele>430</ele>
        <time>2023-10-18T10:04:12.394+00:00</time>
      </trkpt>
      <trkpt lat="46.11875" lon="4.60271">
        <ele>430</ele>
        <time>2023-10-18T10:04:16.880+00:00</time>
      </trkpt>
      <trkpt lat="46.1187" lon="4.60269">
        <ele>430</ele>
        <time>2023-10-18T10:04:21.194+00:00</time>
      </trkpt>
      <trkpt lat="46.11865" lon="4.60268">
        <ele>430</ele>
        <time>2023-10-18T10:04:25.594+00:00</time>
      </trkpt>
      <trkpt lat="46.11861" lon="4.60267">
        <ele>430</ele>
        <time>2023-10-18T10:04:29.474+00:00</time>
      </trkpt>
      <trkpt lat="46.11857" lon="4.60265">
        <ele>430</ele>
        <time>2023-10-18T10:04:34.074+00:00</time>
      </trkpt>
      <trkpt lat="46.11852" lon="4.60263">
        <ele>435</ele>
        <time>2023-10-18T10:04:39.094+00:00</time>
      </trkpt>
      <trkpt lat="46.11849" lon="4.6026">
        <ele>435</ele>
        <time>2023-10-18T10:04:43.094+00:00</time>
      </trkpt>
      <trkpt lat="46.11846" lon="4.60255">
        <ele>431</ele>
        <time>2023-10-18T10:04:47.600+00:00</time>
      </trkpt>
      <trkpt lat="46.11843" lon="4.6025">
        <ele>431</ele>
        <time>2023-10-18T10:04:52.194+00:00</time>
      </trkpt>
      <trkpt lat="46.11841" lon="4.60247">
        <ele>431</ele>
        <time>2023-10-18T10:04:56.194+00:00</time>
      </trkpt>
      <trkpt lat="46.11839" lon="4.60242">
        <ele>431</ele>
        <time>2023-10-18T10:05:00.605+00:00</time>
      </trkpt>
      <trkpt lat="46.11837" lon="4.60236">
        <ele>431</ele>
        <time>2023-10-18T10:05:04.714+00:00</time>
      </trkpt>
      <trkpt lat="46.11835" lon="4.60232">
        <ele>435</ele>
        <time>2023-10-18T10:05:08.914+00:00</time>
      </trkpt>
      <trkpt lat="46.11834" lon="4.60226">
        <ele>435</ele>
        <time>2023-10-18T10:05:13.120+00:00</time>
      </trkpt>
      <trkpt lat="46.11832" lon="4.6022">
        <ele>435</ele>
        <time>2023-10-18T10:05:17.700+00:00</time>
      </trkpt>
      <trkpt lat="46.1183" lon="4.60214">
        <ele>435</ele>
        <time>2023-10-18T10:05:22.074+00:00</time>
      </trkpt>
      <trkpt lat="46.11829" lon="4.6021">
        <ele>435</ele>
        <time>2023-10-18T10:05:26.474+00:00</time>
      </trkpt>
      <trkpt lat="46.11827" lon="4.60205">
        <ele>440</ele>
        <time>2023-10-18T10:05:30.474+00:00</time>
      </trkpt>
      <trkpt lat="46.11827" lon="4.602">
        <ele>440</ele>
        <time>2023-10-18T10:05:34.494+00:00</time>
      </trkpt>
      <trkpt lat="46.11825" lon="4.60194">
        <ele>440</ele>
        <time>2023-10-18T10:05:39.014+00:00</time>
      </trkpt>
      <trkpt lat="46.11824" lon="4.60189">
        <ele>440</ele>
        <time>2023-10-18T10:05:43.134+00:00</time>
      </trkpt>
      <trkpt lat="46.11822" lon="4.60183">
        <ele>440</ele>
        <time>2023-10-18T10:05:47.834+00:00</time>
      </trkpt>
      <trkpt lat="46.11822" lon="4.60178">
        <ele>447</ele>
        <time>2023-10-18T10:05:51.854+00:00</time>
      </trkpt>
      <trkpt lat="46.11821" lon="4.60172">
        <ele>447</ele>
        <time>2023-10-18T10:05:55.874+00:00</time>
      </trkpt>
      <trkpt lat="46.1182" lon="4.60167">
        <ele>447</ele>
        <time>2023-10-18T10:06:00.314+00:00</time>
      </trkpt>
      <trkpt lat="46.11821" lon="4.60163">
        <ele>447</ele>
        <time>2023-10-18T10:06:04.214+00:00</time>
      </trkpt>
      <trkpt lat="46.11826" lon="4.60163">
        <ele>447</ele>
        <time>2023-10-18T10:06:09.134+00:00</time>
      </trkpt>
      <trkpt lat="46.1183" lon="4.60167">
        <ele>447</ele>
        <time>2023-10-18T10:06:13.134+00:00</time>
      </trkpt>
      <trkpt lat="46.11833" lon="4.60171">
        <ele>447</ele>
        <time>2023-10-18T10:06:17.154+00:00</time>
      </trkpt>
      <trkpt lat="46.11838" lon="4.60173">
        <ele>447</ele>
        <time>2023-10-18T10:06:21.754+00:00</time>
      </trkpt>
      <trkpt lat="46.11842" lon="4.60176">
        <ele>447</ele>
        <time>2023-10-18T10:06:26.254+00:00</time>
      </trkpt>
      <trkpt lat="46.11847" lon="4.60178">
        <ele>447</ele>
        <time>2023-10-18T10:06:31.154+00:00</time>
      </trkpt>
      <trkpt lat="46.11851" lon="4.60181">
        <ele>448</ele>
        <time>2023-10-18T10:06:35.154+00:00</time>
      </trkpt>
      <trkpt lat="46.11855" lon="4.60183">
        <ele>448</ele>
        <time>2023-10-18T10:06:39.740+00:00</time>
      </trkpt>
      <trkpt lat="46.1186" lon="4.60184">
        <ele>448</ele>
        <time>2023-10-18T10:06:44.314+00:00</time>
      </trkpt>
      <trkpt lat="46.11864" lon="4.60184">
        <ele>448</ele>
        <time>2023-10-18T10:06:48.860+00:00</time>
      </trkpt>
      <trkpt lat="46.11868" lon="4.60181">
        <ele>448</ele>
        <time>2023-10-18T10:06:52.854+00:00</time>
      </trkpt>
      <trkpt lat="46.1187" lon="4.60176">
        <ele>452</ele>
        <time>2023-10-18T10:06:56.854+00:00</time>
      </trkpt>
      <trkpt lat="46.1187" lon="4.60169">
        <ele>452</ele>
        <time>2023-10-18T10:07:01.454+00:00</time>
      </trkpt>
      <trkpt lat="46.11867" lon="4.60162">
        <ele>452</ele>
        <time>2023-10-18T10:07:06.054+00:00</time>
      </trkpt>
      <trkpt lat="46.11864" lon="4.60158">
        <ele>452</ele>
        <time>2023-10-18T10:07:10.601+00:00</time>
      </trkpt>
      <trkpt lat="46.11862" lon="4.60153">
        <ele>456</ele>
        <time>2023-10-18T10:07:15.154+00:00</time>
      </trkpt>
      <trkpt lat="46.1186" lon="4.60147">
        <ele>456</ele>
        <time>2023-10-18T10:07:19.534+00:00</time>
      </trkpt>
      <trkpt lat="46.11859" lon="4.60143">
        <ele>456</ele>
        <time>2023-10-18T10:07:23.612+00:00</time>
      </trkpt>
      <trkpt lat="46.11858" lon="4.60136">
        <ele>456</ele>
        <time>2023-10-18T10:07:28.134+00:00</time>
      </trkpt>
      <trkpt lat="46.11856" lon="4.6013">
        <ele>456</ele>
        <time>2023-10-18T10:07:32.734+00:00</time>
      </trkpt>
      <trkpt lat="46.11855" lon="4.60126">
        <ele>456</ele>
        <time>2023-10-18T10:07:36.734+00:00</time>
      </trkpt>
      <trkpt lat="46.11854" lon="4.60119">
        <ele>459</ele>
        <time>2023-10-18T10:07:41.314+00:00</time>
      </trkpt>
      <trkpt lat="46.11854" lon="4.60115">
        <ele>459</ele>
        <time>2023-10-18T10:07:45.834+00:00</time>
      </trkpt>
      <trkpt lat="46.11855" lon="4.60109">
        <ele>459</ele>
        <time>2023-10-18T10:07:49.834+00:00</time>
      </trkpt>
      <trkpt lat="46.11856" lon="4.60104">
        <ele>459</ele>
        <time>2023-10-18T10:07:54.454+00:00</time>
      </trkpt>
      <trkpt lat="46.11857" lon="4.60098">
        <ele>459</ele>
        <time>2023-10-18T10:07:58.862+00:00</time>
      </trkpt>
      <trkpt lat="46.11857" lon="4.60092">
        <ele>462</ele>
        <time>2023-10-18T10:08:02.794+00:00</time>
      </trkpt>
      <trkpt lat="46.11857" lon="4.60088">
        <ele>462</ele>
        <time>2023-10-18T10:08:06.794+00:00</time>
      </trkpt>
      <trkpt lat="46.11857" lon="4.60081">
        <ele>462</ele>
        <time>2023-10-18T10:08:11.322+00:00</time>
      </trkpt>
      <trkpt lat="46.11858" lon="4.60078">
        <ele>462</ele>
        <time>2023-10-18T10:08:15.314+00:00</time>
      </trkpt>
      <trkpt lat="46.11858" lon="4.60073">
        <ele>462</ele>
        <time>2023-10-18T10:08:19.894+00:00</time>
      </trkpt>
      <trkpt lat="46.11859" lon="4.60068">
        <ele>465</ele>
        <time>2023-10-18T10:08:23.894+00:00</time>
      </trkpt>
      <trkpt lat="46.1186" lon="4.60063">
        <ele>465</ele>
        <time>2023-10-18T10:08:28.314+00:00</time>
      </trkpt>
      <trkpt lat="46.11861" lon="4.60059">
        <ele>465</ele>
        <time>2023-10-18T10:08:32.314+00:00</time>
      </trkpt>
      <trkpt lat="46.11863" lon="4.60052">
        <ele>465</ele>
        <time>2023-10-18T10:08:36.860+00:00</time>
      </trkpt>
      <trkpt lat="46.11864" lon="4.60047">
        <ele>465</ele>
        <time>2023-10-18T10:08:40.914+00:00</time>
      </trkpt>
      <trkpt lat="46.11864" lon="4.60041">
        <ele>467</ele>
        <time>2023-10-18T10:08:45.454+00:00</time>
      </trkpt>
      <trkpt lat="46.11864" lon="4.60036">
        <ele>467</ele>
        <time>2023-10-18T10:08:49.454+00:00</time>
      </trkpt>
      <trkpt lat="46.11864" lon="4.6003">
        <ele>467</ele>
        <time>2023-10-18T10:08:53.474+00:00</time>
      </trkpt>
      <trkpt lat="46.11864" lon="4.60024">
        <ele>467</ele>
        <time>2023-10-18T10:08:58.074+00:00</time>
      </trkpt>
      <trkpt lat="46.11863" lon="4.60017">
        <ele>467</ele>
        <time>2023-10-18T10:09:02.614+00:00</time>
      </trkpt>
      <trkpt lat="46.11863" lon="4.60011">
        <ele>468</ele>
        <time>2023-10-18T10:09:07.134+00:00</time>
      </trkpt>
      <trkpt lat="46.11863" lon="4.60005">
        <ele>468</ele>
        <time>2023-10-18T10:09:11.134+00:00</time>
      </trkpt>
      <trkpt lat="46.11862" lon="4.59998">
        <ele>468</ele>
        <time>2023-10-18T10:09:15.734+00:00</time>
      </trkpt>
      <trkpt lat="46.11862" lon="4.59991">
        <ele>468</ele>
        <time>2023-10-18T10:09:20.234+00:00</time>
      </trkpt>
      <trkpt lat="46.11861" lon="4.59985">
        <ele>469</ele>
        <time>2023-10-18T10:09:24.734+00:00</time>
      </trkpt>
      <trkpt lat="46.1186" lon="4.59977">
        <ele>469</ele>
        <time>2023-10-18T10:09:29.280+00:00</time>
      </trkpt>
      <trkpt lat="46.1186" lon="4.59971">
        <ele>469</ele>
        <time>2023-10-18T10:09:33.314+00:00</time>
      </trkpt>
      <trkpt lat="46.1186" lon="4.59964">
        <ele>469</ele>
        <time>2023-10-18T10:09:37.834+00:00</time>
      </trkpt>
      <trkpt lat="46.1186" lon="4.59956">
        <ele>471</ele>
        <time>2023-10-18T10:09:42.194+00:00</time>
      </trkpt>
      <trkpt lat="46.1186" lon="4.59948">
        <ele>471</ele>
        <time>2023-10-18T10:09:46.694+00:00</time>
      </trkpt>
      <trkpt lat="46.1186" lon="4.59941">
        <ele>471</ele>
        <time>2023-10-18T10:09:51.120+00:00</time>
      </trkpt>
      <trkpt lat="46.11861" lon="4.59935">
        <ele>471</ele>
        <time>2023-10-18T10:09:55.014+00:00</time>
      </trkpt>
      <trkpt lat="46.1186" lon="4.59928">
        <ele>473</ele>
        <time>2023-10-18T10:09:59.214+00:00</time>
      </trkpt>
      <trkpt lat="46.1186" lon="4.59922">
        <ele>473</ele>
        <time>2023-10-18T10:10:04.220+00:00</time>
      </trkpt>
      <trkpt lat="46.11859" lon="4.59915">
        <ele>473</ele>
        <time>2023-10-18T10:10:08.666+00:00</time>
      </trkpt>
      <trkpt lat="46.11857" lon="4.59909">
        <ele>473</ele>
        <time>2023-10-18T10:10:13.014+00:00</time>
      </trkpt>
      <trkpt lat="46.11856" lon="4.59904">
        <ele>473</ele>
        <time>2023-10-18T10:10:17.214+00:00</time>
      </trkpt>
      <trkpt lat="46.11855" lon="4.59897">
        <ele>476</ele>
        <time>2023-10-18T10:10:21.314+00:00</time>
      </trkpt>
      <trkpt lat="46.11853" lon="4.59891">
        <ele>476</ele>
        <time>2023-10-18T10:10:25.734+00:00</time>
      </trkpt>
      <trkpt lat="46.11853" lon="4.59883">
        <ele>476</ele>
        <time>2023-10-18T10:10:30.596+00:00</time>
      </trkpt>
      <trkpt lat="46.11853" lon="4.59876">
        <ele>476</ele>
        <time>2023-10-18T10:10:35.202+00:00</time>
      </trkpt>
      <trkpt lat="46.11853" lon="4.5987">
        <ele>477</ele>
        <time>2023-10-18T10:10:39.694+00:00</time>
      </trkpt>
      <trkpt lat="46.11853" lon="4.59863">
        <ele>477</ele>
        <time>2023-10-18T10:10:44.194+00:00</time>
      </trkpt>
      <trkpt lat="46.11853" lon="4.59857">
        <ele>477</ele>
        <time>2023-10-18T10:10:48.794+00:00</time>
      </trkpt>
      <trkpt lat="46.11852" lon="4.59851">
        <ele>477</ele>
        <time>2023-10-18T10:10:53.294+00:00</time>
      </trkpt>
      <trkpt lat="46.11851" lon="4.59845">
        <ele>480</ele>
        <time>2023-10-18T10:10:57.794+00:00</time>
      </trkpt>
      <trkpt lat="46.1185" lon="4.5984">
        <ele>480</ele>
        <time>2023-10-18T10:11:02.214+00:00</time>
      </trkpt>
      <trkpt lat="46.1185" lon="4.59836">
        <ele>480</ele>
        <time>2023-10-18T10:11:06.214+00:00</time>
      </trkpt>
      <trkpt lat="46.11849" lon="4.59831">
        <ele>480</ele>
        <time>2023-10-18T10:11:10.414+00:00</time>
      </trkpt>
      <trkpt lat="46.11848" lon="4.59827">
        <ele>480</ele>
        <time>2023-10-18T10:11:14.514+00:00</time>
      </trkpt>
      <trkpt lat="46.11846" lon="4.59821">
        <ele>472</ele>
        <time>2023-10-18T10:11:18.714+00:00</time>
      </trkpt>
      <trkpt lat="46.11845" lon="4.59816">
        <ele>476</ele>
        <time>2023-10-18T10:11:22.814+00:00</time>
      </trkpt>
      <trkpt lat="46.11843" lon="4.59809">
        <ele>476</ele>
        <time>2023-10-18T10:11:27.514+00:00</time>
      </trkpt>
      <trkpt lat="46.11842" lon="4.59802">
        <ele>476</ele>
        <time>2023-10-18T10:11:31.714+00:00</time>
      </trkpt>
      <trkpt lat="46.1184" lon="4.59793">
        <ele>476</ele>
        <time>2023-10-18T10:11:35.914+00:00</time>
      </trkpt>
      <trkpt lat="46.11838" lon="4.59788">
        <ele>477</ele>
        <time>2023-10-18T10:11:40.614+00:00</time>
      </trkpt>
      <trkpt lat="46.11835" lon="4.59783">
        <ele>477</ele>
        <time>2023-10-18T10:11:45.114+00:00</time>
      </trkpt>
      <trkpt lat="46.11833" lon="4.59779">
        <ele>477</ele>
        <time>2023-10-18T10:11:49.214+00:00</time>
      </trkpt>
      <trkpt lat="46.11831" lon="4.59773">
        <ele>477</ele>
        <time>2023-10-18T10:11:53.114+00:00</time>
      </trkpt>
      <trkpt lat="46.11827" lon="4.59767">
        <ele>477</ele>
        <time>2023-10-18T10:11:57.814+00:00</time>
      </trkpt>
      <trkpt lat="46.11825" lon="4.59762">
        <ele>482</ele>
        <time>2023-10-18T10:12:01.754+00:00</time>
      </trkpt>
      <trkpt lat="46.11823" lon="4.59756">
        <ele>482</ele>
        <time>2023-10-18T10:12:06.314+00:00</time>
      </trkpt>
      <trkpt lat="46.11821" lon="4.59751">
        <ele>482</ele>
        <time>2023-10-18T10:12:10.794+00:00</time>
      </trkpt>
      <trkpt lat="46.11818" lon="4.59746">
        <ele>478</ele>
        <time>2023-10-18T10:12:15.514+00:00</time>
      </trkpt>
      <trkpt lat="46.11816" lon="4.5974">
        <ele>478</ele>
        <time>2023-10-18T10:12:20.034+00:00</time>
      </trkpt>
      <trkpt lat="46.11814" lon="4.59734">
        <ele>483</ele>
        <time>2023-10-18T10:12:24.434+00:00</time>
      </trkpt>
      <trkpt lat="46.11814" lon="4.59726">
        <ele>483</ele>
        <time>2023-10-18T10:12:28.834+00:00</time>
      </trkpt>
      <trkpt lat="46.11813" lon="4.59721">
        <ele>483</ele>
        <time>2023-10-18T10:12:33.034+00:00</time>
      </trkpt>
      <trkpt lat="46.11811" lon="4.59715">
        <ele>483</ele>
        <time>2023-10-18T10:12:37.634+00:00</time>
      </trkpt>
      <trkpt lat="46.11809" lon="4.59711">
        <ele>483</ele>
        <time>2023-10-18T10:12:41.734+00:00</time>
      </trkpt>
      <trkpt lat="46.11807" lon="4.59705">
        <ele>487</ele>
        <time>2023-10-18T10:12:46.134+00:00</time>
      </trkpt>
      <trkpt lat="46.11806" lon="4.597">
        <ele>487</ele>
        <time>2023-10-18T10:12:50.134+00:00</time>
      </trkpt>
      <trkpt lat="46.11804" lon="4.59695">
        <ele>487</ele>
        <time>2023-10-18T10:12:54.134+00:00</time>
      </trkpt>
      <trkpt lat="46.11803" lon="4.59689">
        <ele>487</ele>
        <time>2023-10-18T10:12:58.634+00:00</time>
      </trkpt>
      <trkpt lat="46.11802" lon="4.59684">
        <ele>487</ele>
        <time>2023-10-18T10:13:03.054+00:00</time>
      </trkpt>
      <trkpt lat="46.118" lon="4.59676">
        <ele>491</ele>
        <time>2023-10-18T10:13:07.542+00:00</time>
      </trkpt>
      <trkpt lat="46.11799" lon="4.5967">
        <ele>491</ele>
        <time>2023-10-18T10:13:11.942+00:00</time>
      </trkpt>
      <trkpt lat="46.11797" lon="4.59664">
        <ele>491</ele>
        <time>2023-10-18T10:13:16.454+00:00</time>
      </trkpt>
      <trkpt lat="46.11796" lon="4.59658">
        <ele>491</ele>
        <time>2023-10-18T10:13:20.454+00:00</time>
      </trkpt>
      <trkpt lat="46.11793" lon="4.59651">
        <ele>493</ele>
        <time>2023-10-18T10:13:25.603+00:00</time>
      </trkpt>
      <trkpt lat="46.11791" lon="4.59646">
        <ele>489</ele>
        <time>2023-10-18T10:13:30.014+00:00</time>
      </trkpt>
      <trkpt lat="46.11791" lon="4.59641">
        <ele>489</ele>
        <time>2023-10-18T10:13:34.434+00:00</time>
      </trkpt>
      <trkpt lat="46.11791" lon="4.59635">
        <ele>489</ele>
        <time>2023-10-18T10:13:38.434+00:00</time>
      </trkpt>
      <trkpt lat="46.11792" lon="4.5963">
        <ele>493</ele>
        <time>2023-10-18T10:13:43.034+00:00</time>
      </trkpt>
      <trkpt lat="46.11792" lon="4.59624">
        <ele>495</ele>
        <time>2023-10-18T10:13:47.434+00:00</time>
      </trkpt>
      <trkpt lat="46.11793" lon="4.59619">
        <ele>495</ele>
        <time>2023-10-18T10:13:51.434+00:00</time>
      </trkpt>
      <trkpt lat="46.11793" lon="4.59614">
        <ele>495</ele>
        <time>2023-10-18T10:13:55.434+00:00</time>
      </trkpt>
      <trkpt lat="46.11793" lon="4.59608">
        <ele>495</ele>
        <time>2023-10-18T10:14:00.134+00:00</time>
      </trkpt>
      <trkpt lat="46.11793" lon="4.59602">
        <ele>495</ele>
        <time>2023-10-18T10:14:04.634+00:00</time>
      </trkpt>
      <trkpt lat="46.11794" lon="4.59595">
        <ele>495</ele>
        <time>2023-10-18T10:14:09.034+00:00</time>
      </trkpt>
      <trkpt lat="46.11795" lon="4.59589">
        <ele>495</ele>
        <time>2023-10-18T10:14:13.034+00:00</time>
      </trkpt>
      <trkpt lat="46.11795" lon="4.59584">
        <ele>495</ele>
        <time>2023-10-18T10:14:17.601+00:00</time>
      </trkpt>
      <trkpt lat="46.11796" lon="4.59579">
        <ele>495</ele>
        <time>2023-10-18T10:14:22.042+00:00</time>
      </trkpt>
      <trkpt lat="46.11798" lon="4.59573">
        <ele>495</ele>
        <time>2023-10-18T10:14:26.034+00:00</time>
      </trkpt>
      <trkpt lat="46.118" lon="4.59566">
        <ele>495</ele>
        <time>2023-10-18T10:14:30.542+00:00</time>
      </trkpt>
      <trkpt lat="46.11802" lon="4.59559">
        <ele>495</ele>
        <time>2023-10-18T10:14:34.634+00:00</time>
      </trkpt>
      <trkpt lat="46.11804" lon="4.59552">
        <ele>495</ele>
        <time>2023-10-18T10:14:38.702+00:00</time>
      </trkpt>
      <trkpt lat="46.11806" lon="4.59545">
        <ele>495</ele>
        <time>2023-10-18T10:14:43.234+00:00</time>
      </trkpt>
      <trkpt lat="46.11808" lon="4.59538">
        <ele>493</ele>
        <time>2023-10-18T10:14:47.734+00:00</time>
      </trkpt>
      <trkpt lat="46.11811" lon="4.59531">
        <ele>493</ele>
        <time>2023-10-18T10:14:52.314+00:00</time>
      </trkpt>
      <trkpt lat="46.11813" lon="4.59526">
        <ele>493</ele>
        <time>2023-10-18T10:14:56.314+00:00</time>
      </trkpt>
      <trkpt lat="46.11816" lon="4.59521">
        <ele>493</ele>
        <time>2023-10-18T10:15:00.314+00:00</time>
      </trkpt>
      <trkpt lat="46.11819" lon="4.59517">
        <ele>493</ele>
        <time>2023-10-18T10:15:04.762+00:00</time>
      </trkpt>
      <trkpt lat="46.11823" lon="4.59515">
        <ele>498</ele>
        <time>2023-10-18T10:15:08.734+00:00</time>
      </trkpt>
      <trkpt lat="46.11825" lon="4.59512">
        <ele>495</ele>
        <time>2023-10-18T10:15:12.734+00:00</time>
      </trkpt>
      <trkpt lat="46.11828" lon="4.59509">
        <ele>495</ele>
        <time>2023-10-18T10:15:16.734+00:00</time>
      </trkpt>
      <trkpt lat="46.1183" lon="4.59507">
        <ele>495</ele>
        <time>2023-10-18T10:15:20.754+00:00</time>
      </trkpt>
      <trkpt lat="46.11833" lon="4.59511">
        <ele>495</ele>
        <time>2023-10-18T10:22:07.606+00:00</time>
      </trkpt>
      <trkpt lat="46.11834" lon="4.59511">
        <ele>495</ele>
        <time>2023-10-18T10:22:12.602+00:00</time>
      </trkpt>
      <trkpt lat="46.11834" lon="4.59512">
        <ele>495</ele>
        <time>2023-10-18T10:22:17.604+00:00</time>
      </trkpt>
      <trkpt lat="46.11838" lon="4.59515">
        <ele>498</ele>
        <time>2023-10-18T10:22:21.574+00:00</time>
      </trkpt>
      <trkpt lat="46.11842" lon="4.59521">
        <ele>498</ele>
        <time>2023-10-18T10:22:26.114+00:00</time>
      </trkpt>
      <trkpt lat="46.11844" lon="4.59526">
        <ele>498</ele>
        <time>2023-10-18T10:22:31.242+00:00</time>
      </trkpt>
      <trkpt lat="46.11846" lon="4.5953">
        <ele>498</ele>
        <time>2023-10-18T10:22:35.174+00:00</time>
      </trkpt>
      <trkpt lat="46.11847" lon="4.59533">
        <ele>498</ele>
        <time>2023-10-18T10:22:39.194+00:00</time>
      </trkpt>
      <trkpt lat="46.11849" lon="4.59538">
        <ele>505</ele>
        <time>2023-10-18T10:22:43.714+00:00</time>
      </trkpt>
      <trkpt lat="46.11851" lon="4.59542">
        <ele>507</ele>
        <time>2023-10-18T10:22:47.814+00:00</time>
      </trkpt>
      <trkpt lat="46.11853" lon="4.59547">
        <ele>507</ele>
        <time>2023-10-18T10:22:52.314+00:00</time>
      </trkpt>
      <trkpt lat="46.11855" lon="4.59552">
        <ele>507</ele>
        <time>2023-10-18T10:22:56.314+00:00</time>
      </trkpt>
      <trkpt lat="46.11857" lon="4.59557">
        <ele>507</ele>
        <time>2023-10-18T10:23:00.874+00:00</time>
      </trkpt>
      <trkpt lat="46.1186" lon="4.59562">
        <ele>507</ele>
        <time>2023-10-18T10:23:05.474+00:00</time>
      </trkpt>
      <trkpt lat="46.11862" lon="4.59567">
        <ele>507</ele>
        <time>2023-10-18T10:23:10.074+00:00</time>
      </trkpt>
      <trkpt lat="46.11864" lon="4.59572">
        <ele>505</ele>
        <time>2023-10-18T10:23:14.602+00:00</time>
      </trkpt>
      <trkpt lat="46.11867" lon="4.59575">
        <ele>505</ele>
        <time>2023-10-18T10:23:18.604+00:00</time>
      </trkpt>
      <trkpt lat="46.1187" lon="4.59578">
        <ele>505</ele>
        <time>2023-10-18T10:23:23.174+00:00</time>
      </trkpt>
      <trkpt lat="46.11873" lon="4.5958">
        <ele>505</ele>
        <time>2023-10-18T10:23:27.174+00:00</time>
      </trkpt>
      <trkpt lat="46.11877" lon="4.59582">
        <ele>512</ele>
        <time>2023-10-18T10:23:31.774+00:00</time>
      </trkpt>
      <trkpt lat="46.11881" lon="4.59584">
        <ele>512</ele>
        <time>2023-10-18T10:23:36.314+00:00</time>
      </trkpt>
      <trkpt lat="46.11885" lon="4.59586">
        <ele>512</ele>
        <time>2023-10-18T10:23:41.314+00:00</time>
      </trkpt>
      <trkpt lat="46.11889" lon="4.59587">
        <ele>512</ele>
        <time>2023-10-18T10:23:45.314+00:00</time>
      </trkpt>
      <trkpt lat="46.11893" lon="4.59588">
        <ele>512</ele>
        <time>2023-10-18T10:23:49.894+00:00</time>
      </trkpt>
      <trkpt lat="46.11896" lon="4.59591">
        <ele>512</ele>
        <time>2023-10-18T10:23:53.894+00:00</time>
      </trkpt>
      <trkpt lat="46.119" lon="4.59593">
        <ele>512</ele>
        <time>2023-10-18T10:23:58.494+00:00</time>
      </trkpt>
      <trkpt lat="46.11903" lon="4.59598">
        <ele>519</ele>
        <time>2023-10-18T10:24:03.042+00:00</time>
      </trkpt>
      <trkpt lat="46.11906" lon="4.59602">
        <ele>519</ele>
        <time>2023-10-18T10:24:07.594+00:00</time>
      </trkpt>
      <trkpt lat="46.11908" lon="4.59604">
        <ele>519</ele>
        <time>2023-10-18T10:24:11.602+00:00</time>
      </trkpt>
      <trkpt lat="46.11912" lon="4.59607">
        <ele>519</ele>
        <time>2023-10-18T10:24:15.714+00:00</time>
      </trkpt>
      <trkpt lat="46.11915" lon="4.59608">
        <ele>519</ele>
        <time>2023-10-18T10:24:20.314+00:00</time>
      </trkpt>
      <trkpt lat="46.11918" lon="4.59611">
        <ele>519</ele>
        <time>2023-10-18T10:24:24.854+00:00</time>
      </trkpt>
      <trkpt lat="46.11922" lon="4.59613">
        <ele>519</ele>
        <time>2023-10-18T10:24:29.314+00:00</time>
      </trkpt>
      <trkpt lat="46.11926" lon="4.59614">
        <ele>519</ele>
        <time>2023-10-18T10:24:33.314+00:00</time>
      </trkpt>
      <trkpt lat="46.1193" lon="4.59614">
        <ele>519</ele>
        <time>2023-10-18T10:24:37.874+00:00</time>
      </trkpt>
      <trkpt lat="46.11934" lon="4.59615">
        <ele>523</ele>
        <time>2023-10-18T10:24:42.474+00:00</time>
      </trkpt>
      <trkpt lat="46.11937" lon="4.59613">
        <ele>523</ele>
        <time>2023-10-18T10:24:47.642+00:00</time>
      </trkpt>
      <trkpt lat="46.11941" lon="4.59607">
        <ele>523</ele>
        <time>2023-10-18T10:24:52.194+00:00</time>
      </trkpt>
      <trkpt lat="46.11944" lon="4.59601">
        <ele>523</ele>
        <time>2023-10-18T10:24:56.694+00:00</time>
      </trkpt>
      <trkpt lat="46.11946" lon="4.59596">
        <ele>520</ele>
        <time>2023-10-18T10:25:01.322+00:00</time>
      </trkpt>
      <trkpt lat="46.11949" lon="4.59589">
        <ele>520</ele>
        <time>2023-10-18T10:25:05.414+00:00</time>
      </trkpt>
      <trkpt lat="46.11954" lon="4.59583">
        <ele>520</ele>
        <time>2023-10-18T10:25:09.934+00:00</time>
      </trkpt>
      <trkpt lat="46.11959" lon="4.59578">
        <ele>523</ele>
        <time>2023-10-18T10:25:13.834+00:00</time>
      </trkpt>
      <trkpt lat="46.11964" lon="4.59575">
        <ele>523</ele>
        <time>2023-10-18T10:25:18.444+00:00</time>
      </trkpt>
      <trkpt lat="46.11968" lon="4.59573">
        <ele>523</ele>
        <time>2023-10-18T10:25:22.314+00:00</time>
      </trkpt>
      <trkpt lat="46.11972" lon="4.59569">
        <ele>517</ele>
        <time>2023-10-18T10:25:26.854+00:00</time>
      </trkpt>
      <trkpt lat="46.11976" lon="4.59564">
        <ele>517</ele>
        <time>2023-10-18T10:25:30.854+00:00</time>
      </trkpt>
      <trkpt lat="46.11981" lon="4.59562">
        <ele>517</ele>
        <time>2023-10-18T10:25:35.367+00:00</time>
      </trkpt>
      <trkpt lat="46.11987" lon="4.59561">
        <ele>518</ele>
        <time>2023-10-18T10:25:39.454+00:00</time>
      </trkpt>
      <trkpt lat="46.11991" lon="4.5956">
        <ele>518</ele>
        <time>2023-10-18T10:25:43.314+00:00</time>
      </trkpt>
      <trkpt lat="46.11996" lon="4.59557">
        <ele>518</ele>
        <time>2023-10-18T10:25:47.314+00:00</time>
      </trkpt>
      <trkpt lat="46.12001" lon="4.59555">
        <ele>518</ele>
        <time>2023-10-18T10:25:51.174+00:00</time>
      </trkpt>
      <trkpt lat="46.12005" lon="4.59553">
        <ele>518</ele>
        <time>2023-10-18T10:25:55.774+00:00</time>
      </trkpt>
      <trkpt lat="46.12012" lon="4.59551">
        <ele>518</ele>
        <time>2023-10-18T10:25:59.774+00:00</time>
      </trkpt>
      <trkpt lat="46.12018" lon="4.59548">
        <ele>522</ele>
        <time>2023-10-18T10:26:04.314+00:00</time>
      </trkpt>
      <trkpt lat="46.12022" lon="4.59547">
        <ele>522</ele>
        <time>2023-10-18T10:26:08.174+00:00</time>
      </trkpt>
      <trkpt lat="46.12028" lon="4.59544">
        <ele>522</ele>
        <time>2023-10-18T10:26:13.174+00:00</time>
      </trkpt>
      <trkpt lat="46.12033" lon="4.59542">
        <ele>522</ele>
        <time>2023-10-18T10:26:17.174+00:00</time>
      </trkpt>
      <trkpt lat="46.12038" lon="4.59542">
        <ele>515</ele>
        <time>2023-10-18T10:26:21.601+00:00</time>
      </trkpt>
      <trkpt lat="46.12042" lon="4.59543">
        <ele>525</ele>
        <time>2023-10-18T10:26:26.194+00:00</time>
      </trkpt>
      <trkpt lat="46.12047" lon="4.59543">
        <ele>525</ele>
        <time>2023-10-18T10:26:30.214+00:00</time>
      </trkpt>
      <trkpt lat="46.12051" lon="4.59541">
        <ele>517</ele>
        <time>2023-10-18T10:26:34.834+00:00</time>
      </trkpt>
      <trkpt lat="46.12055" lon="4.5954">
        <ele>517</ele>
        <time>2023-10-18T10:26:38.834+00:00</time>
      </trkpt>
      <trkpt lat="46.1206" lon="4.59539">
        <ele>517</ele>
        <time>2023-10-18T10:26:42.874+00:00</time>
      </trkpt>
      <trkpt lat="46.12064" lon="4.59537">
        <ele>517</ele>
        <time>2023-10-18T10:26:47.314+00:00</time>
      </trkpt>
      <trkpt lat="46.12071" lon="4.59534">
        <ele>520</ele>
        <time>2023-10-18T10:27:04.599+00:00</time>
      </trkpt>
      <trkpt lat="46.12071" lon="4.59531">
        <ele>520</ele>
        <time>2023-10-18T10:27:09.174+00:00</time>
      </trkpt>
      <trkpt lat="46.12073" lon="4.5953">
        <ele>520</ele>
        <time>2023-10-18T10:27:14.322+00:00</time>
      </trkpt>
      <trkpt lat="46.12075" lon="4.5953">
        <ele>520</ele>
        <time>2023-10-18T10:27:18.314+00:00</time>
      </trkpt>
      <trkpt lat="46.12075" lon="4.59529">
        <ele>520</ele>
        <time>2023-10-18T10:27:23.494+00:00</time>
      </trkpt>
      <trkpt lat="46.12076" lon="4.59534">
        <ele>520</ele>
        <time>2023-10-18T10:29:09.722+00:00</time>
      </trkpt>
      <trkpt lat="46.12079" lon="4.59527">
        <ele>520</ele>
        <time>2023-10-18T10:29:13.734+00:00</time>
      </trkpt>
      <trkpt lat="46.12087" lon="4.59519">
        <ele>520</ele>
        <time>2023-10-18T10:29:18.262+00:00</time>
      </trkpt>
      <trkpt lat="46.12092" lon="4.59513">
        <ele>514</ele>
        <time>2023-10-18T10:29:22.314+00:00</time>
      </trkpt>
      <trkpt lat="46.12095" lon="4.59509">
        <ele>514</ele>
        <time>2023-10-18T10:29:27.034+00:00</time>
      </trkpt>
      <trkpt lat="46.121" lon="4.59504">
        <ele>521</ele>
        <time>2023-10-18T10:29:31.599+00:00</time>
      </trkpt>
      <trkpt lat="46.12105" lon="4.595">
        <ele>521</ele>
        <time>2023-10-18T10:29:36.134+00:00</time>
      </trkpt>
      <trkpt lat="46.12112" lon="4.59496">
        <ele>521</ele>
        <time>2023-10-18T10:29:40.134+00:00</time>
      </trkpt>
      <trkpt lat="46.12118" lon="4.59493">
        <ele>521</ele>
        <time>2023-10-18T10:29:44.774+00:00</time>
      </trkpt>
      <trkpt lat="46.12123" lon="4.59487">
        <ele>521</ele>
        <time>2023-10-18T10:29:49.294+00:00</time>
      </trkpt>
      <trkpt lat="46.12126" lon="4.59477">
        <ele>521</ele>
        <time>2023-10-18T10:29:53.914+00:00</time>
      </trkpt>
      <trkpt lat="46.12131" lon="4.59469">
        <ele>521</ele>
        <time>2023-10-18T10:29:58.614+00:00</time>
      </trkpt>
      <trkpt lat="46.12136" lon="4.59461">
        <ele>521</ele>
        <time>2023-10-18T10:30:03.154+00:00</time>
      </trkpt>
      <trkpt lat="46.12141" lon="4.59452">
        <ele>517</ele>
        <time>2023-10-18T10:30:07.742+00:00</time>
      </trkpt>
      <trkpt lat="46.12148" lon="4.59445">
        <ele>517</ele>
        <time>2023-10-18T10:30:11.774+00:00</time>
      </trkpt>
      <trkpt lat="46.12157" lon="4.59439">
        <ele>521</ele>
        <time>2023-10-18T10:30:16.174+00:00</time>
      </trkpt>
      <trkpt lat="46.12162" lon="4.59434">
        <ele>521</ele>
        <time>2023-10-18T10:30:20.674+00:00</time>
      </trkpt>
      <trkpt lat="46.12168" lon="4.5943">
        <ele>516</ele>
        <time>2023-10-18T10:30:25.214+00:00</time>
      </trkpt>
      <trkpt lat="46.12173" lon="4.59428">
        <ele>516</ele>
        <time>2023-10-18T10:30:29.314+00:00</time>
      </trkpt>
      <trkpt lat="46.1218" lon="4.59426">
        <ele>516</ele>
        <time>2023-10-18T10:30:33.874+00:00</time>
      </trkpt>
      <trkpt lat="46.12186" lon="4.59424">
        <ele>520</ele>
        <time>2023-10-18T10:30:37.894+00:00</time>
      </trkpt>
      <trkpt lat="46.12192" lon="4.5942">
        <ele>520</ele>
        <time>2023-10-18T10:35:53.594+00:00</time>
      </trkpt>
      <trkpt lat="46.12196" lon="4.59419">
        <ele>520</ele>
        <time>2023-10-18T10:35:58.114+00:00</time>
      </trkpt>
      <trkpt lat="46.12201" lon="4.59416">
        <ele>520</ele>
        <time>2023-10-18T10:36:02.114+00:00</time>
      </trkpt>
      <trkpt lat="46.12205" lon="4.59412">
        <ele>520</ele>
        <time>2023-10-18T10:36:06.614+00:00</time>
      </trkpt>
      <trkpt lat="46.12209" lon="4.59407">
        <ele>521</ele>
        <time>2023-10-18T10:36:11.114+00:00</time>
      </trkpt>
      <trkpt lat="46.12214" lon="4.59404">
        <ele>521</ele>
        <time>2023-10-18T10:36:15.814+00:00</time>
      </trkpt>
      <trkpt lat="46.12218" lon="4.59401">
        <ele>512</ele>
        <time>2023-10-18T10:36:20.414+00:00</time>
      </trkpt>
      <trkpt lat="46.12222" lon="4.59399">
        <ele>512</ele>
        <time>2023-10-18T10:36:24.614+00:00</time>
      </trkpt>
      <trkpt lat="46.12228" lon="4.59397">
        <ele>512</ele>
        <time>2023-10-18T10:36:28.814+00:00</time>
      </trkpt>
      <trkpt lat="46.12233" lon="4.59397">
        <ele>512</ele>
        <time>2023-10-18T10:36:33.174+00:00</time>
      </trkpt>
      <trkpt lat="46.12238" lon="4.59395">
        <ele>519</ele>
        <time>2023-10-18T10:36:37.094+00:00</time>
      </trkpt>
      <trkpt lat="46.12243" lon="4.59393">
        <ele>519</ele>
        <time>2023-10-18T10:36:41.602+00:00</time>
      </trkpt>
      <trkpt lat="46.1225" lon="4.59389">
        <ele>519</ele>
        <time>2023-10-18T10:36:46.014+00:00</time>
      </trkpt>
      <trkpt lat="46.12255" lon="4.59384">
        <ele>519</ele>
        <time>2023-10-18T10:36:50.034+00:00</time>
      </trkpt>
      <trkpt lat="46.1226" lon="4.59378">
        <ele>519</ele>
        <time>2023-10-18T10:36:54.614+00:00</time>
      </trkpt>
      <trkpt lat="46.12264" lon="4.59375">
        <ele>519</ele>
        <time>2023-10-18T10:36:58.914+00:00</time>
      </trkpt>
      <trkpt lat="46.12269" lon="4.59373">
        <ele>519</ele>
        <time>2023-10-18T10:37:03.194+00:00</time>
      </trkpt>
      <trkpt lat="46.12272" lon="4.5937">
        <ele>519</ele>
        <time>2023-10-18T10:37:08.234+00:00</time>
      </trkpt>
      <trkpt lat="46.12276" lon="4.59369">
        <ele>519</ele>
        <time>2023-10-18T10:37:12.574+00:00</time>
      </trkpt>
      <trkpt lat="46.1228" lon="4.59368">
        <ele>519</ele>
        <time>2023-10-18T10:37:17.134+00:00</time>
      </trkpt>
      <trkpt lat="46.12284" lon="4.59367">
        <ele>519</ele>
        <time>2023-10-18T10:37:21.134+00:00</time>
      </trkpt>
      <trkpt lat="46.12289" lon="4.59364">
        <ele>519</ele>
        <time>2023-10-18T10:37:25.734+00:00</time>
      </trkpt>
      <trkpt lat="46.12292" lon="4.59363">
        <ele>525</ele>
        <time>2023-10-18T10:37:29.734+00:00</time>
      </trkpt>
      <trkpt lat="46.12297" lon="4.59361">
        <ele>525</ele>
        <time>2023-10-18T10:37:34.314+00:00</time>
      </trkpt>
      <trkpt lat="46.12301" lon="4.59358">
        <ele>525</ele>
        <time>2023-10-18T10:37:38.854+00:00</time>
      </trkpt>
      <trkpt lat="46.12306" lon="4.59355">
        <ele>525</ele>
        <time>2023-10-18T10:37:43.454+00:00</time>
      </trkpt>
      <trkpt lat="46.12311" lon="4.59352">
        <ele>525</ele>
        <time>2023-10-18T10:37:47.954+00:00</time>
      </trkpt>
      <trkpt lat="46.12316" lon="4.5935">
        <ele>525</ele>
        <time>2023-10-18T10:37:52.454+00:00</time>
      </trkpt>
      <trkpt lat="46.12317" lon="4.59348">
        <ele>525</ele>
        <time>2023-10-18T10:37:57.601+00:00</time>
      </trkpt>
      <trkpt lat="46.12318" lon="4.59348">
        <ele>525</ele>
        <time>2023-10-18T10:38:01.994+00:00</time>
      </trkpt>
      <trkpt lat="46.12324" lon="4.59347">
        <ele>523</ele>
        <time>2023-10-18T10:38:06.034+00:00</time>
      </trkpt>
      <trkpt lat="46.1233" lon="4.59344">
        <ele>523</ele>
        <time>2023-10-18T10:38:10.294+00:00</time>
      </trkpt>
      <trkpt lat="46.12334" lon="4.59343">
        <ele>523</ele>
        <time>2023-10-18T10:38:14.574+00:00</time>
      </trkpt>
      <trkpt lat="46.12339" lon="4.5934">
        <ele>523</ele>
        <time>2023-10-18T10:38:18.601+00:00</time>
      </trkpt>
      <trkpt lat="46.12342" lon="4.59338">
        <ele>523</ele>
        <time>2023-10-18T10:38:23.014+00:00</time>
      </trkpt>
      <trkpt lat="46.12347" lon="4.59335">
        <ele>523</ele>
        <time>2023-10-18T10:38:27.494+00:00</time>
      </trkpt>
      <trkpt lat="46.12352" lon="4.59333">
        <ele>529</ele>
        <time>2023-10-18T10:38:32.014+00:00</time>
      </trkpt>
      <trkpt lat="46.12356" lon="4.59332">
        <ele>529</ele>
        <time>2023-10-18T10:38:36.114+00:00</time>
      </trkpt>
      <trkpt lat="46.12361" lon="4.59333">
        <ele>529</ele>
        <time>2023-10-18T10:38:40.234+00:00</time>
      </trkpt>
      <trkpt lat="46.12365" lon="4.59333">
        <ele>529</ele>
        <time>2023-10-18T10:38:44.616+00:00</time>
      </trkpt>
      <trkpt lat="46.12368" lon="4.59334">
        <ele>529</ele>
        <time>2023-10-18T10:38:48.604+00:00</time>
      </trkpt>
      <trkpt lat="46.12372" lon="4.59334">
        <ele>529</ele>
        <time>2023-10-18T10:38:53.134+00:00</time>
      </trkpt>
      <trkpt lat="46.12377" lon="4.59333">
        <ele>534</ele>
        <time>2023-10-18T10:38:57.134+00:00</time>
      </trkpt>
      <trkpt lat="46.12383" lon="4.59332">
        <ele>534</ele>
        <time>2023-10-18T10:39:01.734+00:00</time>
      </trkpt>
      <trkpt lat="46.12387" lon="4.59332">
        <ele>534</ele>
        <time>2023-10-18T10:39:05.734+00:00</time>
      </trkpt>
      <trkpt lat="46.12391" lon="4.59333">
        <ele>534</ele>
        <time>2023-10-18T10:39:09.834+00:00</time>
      </trkpt>
      <trkpt lat="46.12395" lon="4.59333">
        <ele>534</ele>
        <time>2023-10-18T10:39:14.367+00:00</time>
      </trkpt>
      <trkpt lat="46.12398" lon="4.59332">
        <ele>534</ele>
        <time>2023-10-18T10:39:18.314+00:00</time>
      </trkpt>
      <trkpt lat="46.12403" lon="4.59331">
        <ele>534</ele>
        <time>2023-10-18T10:39:23.434+00:00</time>
      </trkpt>
      <trkpt lat="46.12407" lon="4.5933">
        <ele>539</ele>
        <time>2023-10-18T10:39:28.034+00:00</time>
      </trkpt>
      <trkpt lat="46.12411" lon="4.59329">
        <ele>539</ele>
        <time>2023-10-18T10:39:32.034+00:00</time>
      </trkpt>
      <trkpt lat="46.12415" lon="4.59328">
        <ele>539</ele>
        <time>2023-10-18T10:39:36.354+00:00</time>
      </trkpt>
      <trkpt lat="46.12419" lon="4.59327">
        <ele>539</ele>
        <time>2023-10-18T10:39:41.134+00:00</time>
      </trkpt>
      <trkpt lat="46.12422" lon="4.59326">
        <ele>539</ele>
        <time>2023-10-18T10:39:45.154+00:00</time>
      </trkpt>
      <trkpt lat="46.12426" lon="4.59327">
        <ele>539</ele>
        <time>2023-10-18T10:39:50.314+00:00</time>
      </trkpt>
      <trkpt lat="46.12428" lon="4.59328">
        <ele>539</ele>
        <time>2023-10-18T10:39:54.694+00:00</time>
      </trkpt>
      <trkpt lat="46.1243" lon="4.59328">
        <ele>539</ele>
        <time>2023-10-18T10:39:58.954+00:00</time>
      </trkpt>
      <trkpt lat="46.12434" lon="4.59327">
        <ele>546</ele>
        <time>2023-10-18T10:40:02.874+00:00</time>
      </trkpt>
      <trkpt lat="46.12438" lon="4.59327">
        <ele>546</ele>
        <time>2023-10-18T10:40:07.394+00:00</time>
      </trkpt>
      <trkpt lat="46.12442" lon="4.59326">
        <ele>546</ele>
        <time>2023-10-18T10:40:12.014+00:00</time>
      </trkpt>
      <trkpt lat="46.12446" lon="4.59325">
        <ele>546</ele>
        <time>2023-10-18T10:40:16.314+00:00</time>
      </trkpt>
      <trkpt lat="46.1245" lon="4.59323">
        <ele>546</ele>
        <time>2023-10-18T10:40:20.894+00:00</time>
      </trkpt>
      <trkpt lat="46.12454" lon="4.59322">
        <ele>546</ele>
        <time>2023-10-18T10:40:25.434+00:00</time>
      </trkpt>
      <trkpt lat="46.12459" lon="4.59322">
        <ele>552</ele>
        <time>2023-10-18T10:40:29.734+00:00</time>
      </trkpt>
      <trkpt lat="46.12461" lon="4.5932">
        <ele>552</ele>
        <time>2023-10-18T10:40:33.734+00:00</time>
      </trkpt>
      <trkpt lat="46.12465" lon="4.59318">
        <ele>547</ele>
        <time>2023-10-18T10:40:38.314+00:00</time>
      </trkpt>
      <trkpt lat="46.12469" lon="4.59317">
        <ele>547</ele>
        <time>2023-10-18T10:40:42.314+00:00</time>
      </trkpt>
      <trkpt lat="46.12473" lon="4.59315">
        <ele>547</ele>
        <time>2023-10-18T10:40:47.034+00:00</time>
      </trkpt>
      <trkpt lat="46.12476" lon="4.59314">
        <ele>547</ele>
        <time>2023-10-18T10:40:51.536+00:00</time>
      </trkpt>
      <trkpt lat="46.12479" lon="4.59312">
        <ele>547</ele>
        <time>2023-10-18T10:40:55.602+00:00</time>
      </trkpt>
      <trkpt lat="46.12484" lon="4.5931">
        <ele>547</ele>
        <time>2023-10-18T10:41:00.034+00:00</time>
      </trkpt>
      <trkpt lat="46.12488" lon="4.59307">
        <ele>552</ele>
        <time>2023-10-18T10:41:04.034+00:00</time>
      </trkpt>
      <trkpt lat="46.12491" lon="4.59305">
        <ele>552</ele>
        <time>2023-10-18T10:41:08.601+00:00</time>
      </trkpt>
      <trkpt lat="46.12496" lon="4.59302">
        <ele>552</ele>
        <time>2023-10-18T10:41:13.134+00:00</time>
      </trkpt>
      <trkpt lat="46.125" lon="4.59299">
        <ele>552</ele>
        <time>2023-10-18T10:41:17.556+00:00</time>
      </trkpt>
      <trkpt lat="46.12503" lon="4.59297">
        <ele>552</ele>
        <time>2023-10-18T10:41:21.603+00:00</time>
      </trkpt>
      <trkpt lat="46.12507" lon="4.59296">
        <ele>552</ele>
        <time>2023-10-18T10:41:26.154+00:00</time>
      </trkpt>
      <trkpt lat="46.1251" lon="4.59295">
        <ele>552</ele>
        <time>2023-10-18T10:41:30.154+00:00</time>
      </trkpt>
      <trkpt lat="46.12512" lon="4.59295">
        <ele>552</ele>
        <time>2023-10-18T10:41:34.154+00:00</time>
      </trkpt>
      <trkpt lat="46.12515" lon="4.59294">
        <ele>555</ele>
        <time>2023-10-18T10:41:38.654+00:00</time>
      </trkpt>
      <trkpt lat="46.12518" lon="4.59294">
        <ele>555</ele>
        <time>2023-10-18T10:41:43.254+00:00</time>
      </trkpt>
      <trkpt lat="46.12522" lon="4.59295">
        <ele>555</ele>
        <time>2023-10-18T10:41:47.174+00:00</time>
      </trkpt>
      <trkpt lat="46.12526" lon="4.59295">
        <ele>555</ele>
        <time>2023-10-18T10:41:51.794+00:00</time>
      </trkpt>
      <trkpt lat="46.12529" lon="4.59296">
        <ele>555</ele>
        <time>2023-10-18T10:41:56.314+00:00</time>
      </trkpt>
      <trkpt lat="46.12528" lon="4.59299">
        <ele>555</ele>
        <time>2023-10-18T10:42:01.494+00:00</time>
      </trkpt>
      <trkpt lat="46.12531" lon="4.59299">
        <ele>555</ele>
        <time>2023-10-18T10:42:06.594+00:00</time>
      </trkpt>
      <trkpt lat="46.12535" lon="4.59298">
        <ele>555</ele>
        <time>2023-10-18T10:42:11.094+00:00</time>
      </trkpt>
      <trkpt lat="46.12539" lon="4.593">
        <ele>555</ele>
        <time>2023-10-18T10:42:15.094+00:00</time>
      </trkpt>
      <trkpt lat="46.12542" lon="4.59306">
        <ele>555</ele>
        <time>2023-10-18T10:42:19.607+00:00</time>
      </trkpt>
      <trkpt lat="46.12544" lon="4.59311">
        <ele>555</ele>
        <time>2023-10-18T10:42:24.194+00:00</time>
      </trkpt>
      <trkpt lat="46.12546" lon="4.59313">
        <ele>555</ele>
        <time>2023-10-18T10:42:28.194+00:00</time>
      </trkpt>
      <trkpt lat="46.12548" lon="4.59314">
        <ele>555</ele>
        <time>2023-10-18T10:42:32.814+00:00</time>
      </trkpt>
      <trkpt lat="46.1255" lon="4.59315">
        <ele>555</ele>
        <time>2023-10-18T10:42:37.014+00:00</time>
      </trkpt>
      <trkpt lat="46.12552" lon="4.59318">
        <ele>555</ele>
        <time>2023-10-18T10:42:41.014+00:00</time>
      </trkpt>
      <trkpt lat="46.12553" lon="4.59323">
        <ele>555</ele>
        <time>2023-10-18T10:42:45.576+00:00</time>
      </trkpt>
      <trkpt lat="46.12555" lon="4.59329">
        <ele>555</ele>
        <time>2023-10-18T10:42:49.514+00:00</time>
      </trkpt>
      <trkpt lat="46.12556" lon="4.59335">
        <ele>555</ele>
        <time>2023-10-18T10:42:54.114+00:00</time>
      </trkpt>
      <trkpt lat="46.12559" lon="4.59339">
        <ele>555</ele>
        <time>2023-10-18T10:42:58.316+00:00</time>
      </trkpt>
      <trkpt lat="46.12563" lon="4.59343">
        <ele>555</ele>
        <time>2023-10-18T10:43:02.334+00:00</time>
      </trkpt>
      <trkpt lat="46.12567" lon="4.59346">
        <ele>555</ele>
        <time>2023-10-18T10:43:06.674+00:00</time>
      </trkpt>
      <trkpt lat="46.12571" lon="4.59352">
        <ele>550</ele>
        <time>2023-10-18T10:43:11.314+00:00</time>
      </trkpt>
      <trkpt lat="46.12574" lon="4.59357">
        <ele>550</ele>
        <time>2023-10-18T10:43:15.314+00:00</time>
      </trkpt>
      <trkpt lat="46.12576" lon="4.59363">
        <ele>550</ele>
        <time>2023-10-18T10:43:19.814+00:00</time>
      </trkpt>
      <trkpt lat="46.12578" lon="4.59369">
        <ele>550</ele>
        <time>2023-10-18T10:43:24.514+00:00</time>
      </trkpt>
      <trkpt lat="46.1258" lon="4.59377">
        <ele>549</ele>
        <time>2023-10-18T10:43:29.214+00:00</time>
      </trkpt>
      <trkpt lat="46.12582" lon="4.59383">
        <ele>549</ele>
        <time>2023-10-18T10:43:33.314+00:00</time>
      </trkpt>
      <trkpt lat="46.12584" lon="4.59387">
        <ele>549</ele>
        <time>2023-10-18T10:43:37.254+00:00</time>
      </trkpt>
      <trkpt lat="46.12586" lon="4.59391">
        <ele>549</ele>
        <time>2023-10-18T10:43:41.774+00:00</time>
      </trkpt>
      <trkpt lat="46.12585" lon="4.59403">
        <ele>548</ele>
        <time>2023-10-18T10:44:08.314+00:00</time>
      </trkpt>
      <trkpt lat="46.12589" lon="4.59405">
        <ele>548</ele>
        <time>2023-10-18T10:44:12.234+00:00</time>
      </trkpt>
      <trkpt lat="46.12594" lon="4.59412">
        <ele>548</ele>
        <time>2023-10-18T10:44:16.834+00:00</time>
      </trkpt>
      <trkpt lat="46.12596" lon="4.5942">
        <ele>548</ele>
        <time>2023-10-18T10:44:20.694+00:00</time>
      </trkpt>
      <trkpt lat="46.12598" lon="4.59427">
        <ele>539</ele>
        <time>2023-10-18T10:44:24.918+00:00</time>
      </trkpt>
      <trkpt lat="46.12601" lon="4.59431">
        <ele>538</ele>
        <time>2023-10-18T10:44:29.314+00:00</time>
      </trkpt>
      <trkpt lat="46.12604" lon="4.59438">
        <ele>538</ele>
        <time>2023-10-18T10:44:33.934+00:00</time>
      </trkpt>
      <trkpt lat="46.12606" lon="4.59446">
        <ele>538</ele>
        <time>2023-10-18T10:44:38.034+00:00</time>
      </trkpt>
      <trkpt lat="46.12608" lon="4.59451">
        <ele>538</ele>
        <time>2023-10-18T10:44:42.134+00:00</time>
      </trkpt>
      <trkpt lat="46.1261" lon="4.59454">
        <ele>538</ele>
        <time>2023-10-18T10:44:46.134+00:00</time>
      </trkpt>
      <trkpt lat="46.12612" lon="4.59462">
        <ele>537</ele>
        <time>2023-10-18T10:44:50.734+00:00</time>
      </trkpt>
      <trkpt lat="46.12614" lon="4.59468">
        <ele>537</ele>
        <time>2023-10-18T10:44:55.154+00:00</time>
      </trkpt>
      <trkpt lat="46.12618" lon="4.59473">
        <ele>537</ele>
        <time>2023-10-18T10:44:59.754+00:00</time>
      </trkpt>
      <trkpt lat="46.12621" lon="4.59479">
        <ele>537</ele>
        <time>2023-10-18T10:45:04.074+00:00</time>
      </trkpt>
      <trkpt lat="46.12621" lon="4.59487">
        <ele>538</ele>
        <time>2023-10-18T10:45:07.894+00:00</time>
      </trkpt>
      <trkpt lat="46.12621" lon="4.59497">
        <ele>538</ele>
        <time>2023-10-18T10:45:12.414+00:00</time>
      </trkpt>
      <trkpt lat="46.12622" lon="4.59503">
        <ele>538</ele>
        <time>2023-10-18T10:45:16.514+00:00</time>
      </trkpt>
      <trkpt lat="46.12623" lon="4.59509">
        <ele>538</ele>
        <time>2023-10-18T10:45:20.454+00:00</time>
      </trkpt>
      <trkpt lat="46.12627" lon="4.59516">
        <ele>528</ele>
        <time>2023-10-18T10:45:25.074+00:00</time>
      </trkpt>
      <trkpt lat="46.12629" lon="4.59522">
        <ele>528</ele>
        <time>2023-10-18T10:45:29.074+00:00</time>
      </trkpt>
      <trkpt lat="46.12631" lon="4.59528">
        <ele>528</ele>
        <time>2023-10-18T10:45:33.537+00:00</time>
      </trkpt>
      <trkpt lat="46.12634" lon="4.59535">
        <ele>528</ele>
        <time>2023-10-18T10:45:37.894+00:00</time>
      </trkpt>
      <trkpt lat="46.12637" lon="4.59542">
        <ele>528</ele>
        <time>2023-10-18T10:45:41.914+00:00</time>
      </trkpt>
      <trkpt lat="46.12639" lon="4.59549">
        <ele>529</ele>
        <time>2023-10-18T10:45:46.514+00:00</time>
      </trkpt>
      <trkpt lat="46.1264" lon="4.59554">
        <ele>529</ele>
        <time>2023-10-18T10:45:50.714+00:00</time>
      </trkpt>
      <trkpt lat="46.12645" lon="4.59563">
        <ele>529</ele>
        <time>2023-10-18T10:46:14.374+00:00</time>
      </trkpt>
      <trkpt lat="46.12646" lon="4.59564">
        <ele>529</ele>
        <time>2023-10-18T10:46:18.874+00:00</time>
      </trkpt>
      <trkpt lat="46.12649" lon="4.59564">
        <ele>529</ele>
        <time>2023-10-18T10:46:23.314+00:00</time>
      </trkpt>
      <trkpt lat="46.12651" lon="4.59563">
        <ele>529</ele>
        <time>2023-10-18T10:46:28.494+00:00</time>
      </trkpt>
      <trkpt lat="46.12653" lon="4.5956">
        <ele>529</ele>
        <time>2023-10-18T10:46:33.214+00:00</time>
      </trkpt>
      <trkpt lat="46.12653" lon="4.59556">
        <ele>516</ele>
        <time>2023-10-18T10:46:37.602+00:00</time>
      </trkpt>
      <trkpt lat="46.12653" lon="4.59551">
        <ele>516</ele>
        <time>2023-10-18T10:46:41.602+00:00</time>
      </trkpt>
      <trkpt lat="46.12653" lon="4.59546">
        <ele>529</ele>
        <time>2023-10-18T10:46:46.074+00:00</time>
      </trkpt>
      <trkpt lat="46.12659" lon="4.59539">
        <ele>515</ele>
        <time>2023-10-18T10:46:49.994+00:00</time>
      </trkpt>
      <trkpt lat="46.12663" lon="4.59534">
        <ele>515</ele>
        <time>2023-10-18T10:46:54.094+00:00</time>
      </trkpt>
      <trkpt lat="46.12664" lon="4.5953">
        <ele>515</ele>
        <time>2023-10-18T10:46:58.601+00:00</time>
      </trkpt>
      <trkpt lat="46.12667" lon="4.59527">
        <ele>515</ele>
        <time>2023-10-18T10:47:03.194+00:00</time>
      </trkpt>
      <trkpt lat="46.1267" lon="4.59527">
        <ele>515</ele>
        <time>2023-10-18T10:47:07.654+00:00</time>
      </trkpt>
      <trkpt lat="46.12673" lon="4.59532">
        <ele>515</ele>
        <time>2023-10-18T10:47:11.894+00:00</time>
      </trkpt>
      <trkpt lat="46.12675" lon="4.59538">
        <ele>515</ele>
        <time>2023-10-18T10:47:16.074+00:00</time>
      </trkpt>
      <trkpt lat="46.12677" lon="4.59543">
        <ele>516</ele>
        <time>2023-10-18T10:47:20.254+00:00</time>
      </trkpt>
      <trkpt lat="46.1268" lon="4.59546">
        <ele>516</ele>
        <time>2023-10-18T10:47:24.594+00:00</time>
      </trkpt>
      <trkpt lat="46.12684" lon="4.59549">
        <ele>504</ele>
        <time>2023-10-18T10:47:28.974+00:00</time>
      </trkpt>
      <trkpt lat="46.1269" lon="4.59552">
        <ele>504</ele>
        <time>2023-10-18T10:47:33.154+00:00</time>
      </trkpt>
      <trkpt lat="46.12695" lon="4.59556">
        <ele>504</ele>
        <time>2023-10-18T10:47:37.574+00:00</time>
      </trkpt>
      <trkpt lat="46.127" lon="4.5956">
        <ele>504</ele>
        <time>2023-10-18T10:47:42.194+00:00</time>
      </trkpt>
      <trkpt lat="46.12705" lon="4.59567">
        <ele>504</ele>
        <time>2023-10-18T10:47:46.814+00:00</time>
      </trkpt>
      <trkpt lat="46.12707" lon="4.59575">
        <ele>506</ele>
        <time>2023-10-18T10:47:51.314+00:00</time>
      </trkpt>
      <trkpt lat="46.12708" lon="4.59583">
        <ele>506</ele>
        <time>2023-10-18T10:47:55.601+00:00</time>
      </trkpt>
      <trkpt lat="46.12711" lon="4.59593">
        <ele>497</ele>
        <time>2023-10-18T10:48:00.098+00:00</time>
      </trkpt>
      <trkpt lat="46.12716" lon="4.59601">
        <ele>499</ele>
        <time>2023-10-18T10:48:04.514+00:00</time>
      </trkpt>
      <trkpt lat="46.12721" lon="4.59607">
        <ele>499</ele>
        <time>2023-10-18T10:48:09.214+00:00</time>
      </trkpt>
      <trkpt lat="46.12726" lon="4.59611">
        <ele>499</ele>
        <time>2023-10-18T10:48:13.834+00:00</time>
      </trkpt>
      <trkpt lat="46.12731" lon="4.59616">
        <ele>499</ele>
        <time>2023-10-18T10:48:18.603+00:00</time>
      </trkpt>
      <trkpt lat="46.12734" lon="4.59625">
        <ele>499</ele>
        <time>2023-10-18T10:48:23.094+00:00</time>
      </trkpt>
      <trkpt lat="46.12737" lon="4.5963">
        <ele>492</ele>
        <time>2023-10-18T10:48:27.094+00:00</time>
      </trkpt>
      <trkpt lat="46.12741" lon="4.59635">
        <ele>492</ele>
        <time>2023-10-18T10:48:31.554+00:00</time>
      </trkpt>
      <trkpt lat="46.12744" lon="4.59635">
        <ele>492</ele>
        <time>2023-10-18T10:48:36.354+00:00</time>
      </trkpt>
      <trkpt lat="46.12745" lon="4.59636">
        <ele>492</ele>
        <time>2023-10-18T10:48:40.814+00:00</time>
      </trkpt>
      <trkpt lat="46.12748" lon="4.59641">
        <ele>492</ele>
        <time>2023-10-18T10:48:44.834+00:00</time>
      </trkpt>
      <trkpt lat="46.12751" lon="4.5965">
        <ele>492</ele>
        <time>2023-10-18T10:48:49.317+00:00</time>
      </trkpt>
      <trkpt lat="46.12753" lon="4.59653">
        <ele>494</ele>
        <time>2023-10-18T10:48:53.314+00:00</time>
      </trkpt>
      <trkpt lat="46.12757" lon="4.59653">
        <ele>492</ele>
        <time>2023-10-18T10:48:57.794+00:00</time>
      </trkpt>
      <trkpt lat="46.1276" lon="4.59649">
        <ele>492</ele>
        <time>2023-10-18T10:49:02.214+00:00</time>
      </trkpt>
      <trkpt lat="46.12763" lon="4.59646">
        <ele>492</ele>
        <time>2023-10-18T10:49:06.314+00:00</time>
      </trkpt>
      <trkpt lat="46.12767" lon="4.59638">
        <ele>485</ele>
        <time>2023-10-18T10:49:10.834+00:00</time>
      </trkpt>
      <trkpt lat="46.12773" lon="4.59629">
        <ele>485</ele>
        <time>2023-10-18T10:49:15.354+00:00</time>
      </trkpt>
      <trkpt lat="46.12777" lon="4.59625">
        <ele>483</ele>
        <time>2023-10-18T10:49:19.474+00:00</time>
      </trkpt>
      <trkpt lat="46.12784" lon="4.5962">
        <ele>483</ele>
        <time>2023-10-18T10:49:23.994+00:00</time>
      </trkpt>
      <trkpt lat="46.12788" lon="4.59616">
        <ele>483</ele>
        <time>2023-10-18T10:49:28.603+00:00</time>
      </trkpt>
      <trkpt lat="46.1279" lon="4.59612">
        <ele>483</ele>
        <time>2023-10-18T10:49:33.198+00:00</time>
      </trkpt>
      <trkpt lat="46.12793" lon="4.59607">
        <ele>473</ele>
        <time>2023-10-18T10:49:37.603+00:00</time>
      </trkpt>
      <trkpt lat="46.12794" lon="4.59602">
        <ele>473</ele>
        <time>2023-10-18T10:49:42.194+00:00</time>
      </trkpt>
      <trkpt lat="46.12794" lon="4.59598">
        <ele>473</ele>
        <time>2023-10-18T10:49:46.794+00:00</time>
      </trkpt>
      <trkpt lat="46.12797" lon="4.59591">
        <ele>471</ele>
        <time>2023-10-18T10:49:51.314+00:00</time>
      </trkpt>
      <trkpt lat="46.12801" lon="4.59584">
        <ele>471</ele>
        <time>2023-10-18T10:49:55.914+00:00</time>
      </trkpt>
      <trkpt lat="46.12805" lon="4.5958">
        <ele>471</ele>
        <time>2023-10-18T10:50:00.278+00:00</time>
      </trkpt>
      <trkpt lat="46.1281" lon="4.5957">
        <ele>471</ele>
        <time>2023-10-18T10:52:00.598+00:00</time>
      </trkpt>
      <trkpt lat="46.12811" lon="4.59569">
        <ele>469</ele>
        <time>2023-10-18T10:52:05.418+00:00</time>
      </trkpt>
      <trkpt lat="46.12815" lon="4.59565">
        <ele>469</ele>
        <time>2023-10-18T10:52:09.294+00:00</time>
      </trkpt>
      <trkpt lat="46.12819" lon="4.59563">
        <ele>469</ele>
        <time>2023-10-18T10:52:13.894+00:00</time>
      </trkpt>
      <trkpt lat="46.12825" lon="4.59562">
        <ele>459</ele>
        <time>2023-10-18T10:52:18.394+00:00</time>
      </trkpt>
      <trkpt lat="46.12829" lon="4.59563">
        <ele>459</ele>
        <time>2023-10-18T10:52:22.494+00:00</time>
      </trkpt>
      <trkpt lat="46.1283" lon="4.59564">
        <ele>459</ele>
        <time>2023-10-18T10:52:26.494+00:00</time>
      </trkpt>
      <trkpt lat="46.12833" lon="4.59565">
        <ele>459</ele>
        <time>2023-10-18T10:52:30.834+00:00</time>
      </trkpt>
      <trkpt lat="46.12835" lon="4.59565">
        <ele>459</ele>
        <time>2023-10-18T10:52:35.434+00:00</time>
      </trkpt>
      <trkpt lat="46.12839" lon="4.59566">
        <ele>459</ele>
        <time>2023-10-18T10:52:39.534+00:00</time>
      </trkpt>
      <trkpt lat="46.12843" lon="4.59567">
        <ele>459</ele>
        <time>2023-10-18T10:52:43.974+00:00</time>
      </trkpt>
      <trkpt lat="46.12842" lon="4.59566">
        <ele>459</ele>
        <time>2023-10-18T10:52:47.874+00:00</time>
      </trkpt>
      <trkpt lat="46.12845" lon="4.59566">
        <ele>459</ele>
        <time>2023-10-18T10:52:52.394+00:00</time>
      </trkpt>
      <trkpt lat="46.1285" lon="4.59564">
        <ele>450</ele>
        <time>2023-10-18T10:52:56.514+00:00</time>
      </trkpt>
      <trkpt lat="46.12857" lon="4.59562">
        <ele>450</ele>
        <time>2023-10-18T10:53:01.034+00:00</time>
      </trkpt>
      <trkpt lat="46.12862" lon="4.59561">
        <ele>450</ele>
        <time>2023-10-18T10:53:05.054+00:00</time>
      </trkpt>
      <trkpt lat="46.12868" lon="4.59558">
        <ele>450</ele>
        <time>2023-10-18T10:53:09.974+00:00</time>
      </trkpt>
      <trkpt lat="46.12872" lon="4.59558">
        <ele>450</ele>
        <time>2023-10-18T10:53:14.594+00:00</time>
      </trkpt>
      <trkpt lat="46.12874" lon="4.59556">
        <ele>450</ele>
        <time>2023-10-18T10:53:19.214+00:00</time>
      </trkpt>
      <trkpt lat="46.1288" lon="4.59556">
        <ele>441</ele>
        <time>2023-10-18T10:53:23.914+00:00</time>
      </trkpt>
      <trkpt lat="46.12883" lon="4.59555">
        <ele>441</ele>
        <time>2023-10-18T10:53:27.914+00:00</time>
      </trkpt>
      <trkpt lat="46.12887" lon="4.59555">
        <ele>441</ele>
        <time>2023-10-18T10:53:32.514+00:00</time>
      </trkpt>
      <trkpt lat="46.1289" lon="4.59553">
        <ele>441</ele>
        <time>2023-10-18T10:53:37.214+00:00</time>
      </trkpt>
      <trkpt lat="46.12895" lon="4.59552">
        <ele>441</ele>
        <time>2023-10-18T10:53:42.014+00:00</time>
      </trkpt>
      <trkpt lat="46.12899" lon="4.59551">
        <ele>441</ele>
        <time>2023-10-18T10:53:46.814+00:00</time>
      </trkpt>
      <trkpt lat="46.12903" lon="4.5955">
        <ele>432</ele>
        <time>2023-10-18T10:53:51.314+00:00</time>
      </trkpt>
      <trkpt lat="46.12906" lon="4.59549">
        <ele>432</ele>
        <time>2023-10-18T10:53:55.738+00:00</time>
      </trkpt>
      <trkpt lat="46.12909" lon="4.5955">
        <ele>432</ele>
        <time>2023-10-18T10:53:59.734+00:00</time>
      </trkpt>
      <trkpt lat="46.12913" lon="4.59551">
        <ele>432</ele>
        <time>2023-10-18T10:54:04.314+00:00</time>
      </trkpt>
      <trkpt lat="46.12916" lon="4.59552">
        <ele>432</ele>
        <time>2023-10-18T10:54:08.838+00:00</time>
      </trkpt>
      <trkpt lat="46.12919" lon="4.59549">
        <ele>432</ele>
        <time>2023-10-18T10:54:12.834+00:00</time>
      </trkpt>
      <trkpt lat="46.12919" lon="4.59546">
        <ele>432</ele>
        <time>2023-10-18T10:54:26.074+00:00</time>
      </trkpt>
      <trkpt lat="46.12918" lon="4.59545">
        <ele>432</ele>
        <time>2023-10-18T10:54:30.594+00:00</time>
      </trkpt>
      <trkpt lat="46.12917" lon="4.59543">
        <ele>432</ele>
        <time>2023-10-18T10:54:35.194+00:00</time>
      </trkpt>
      <trkpt lat="46.12916" lon="4.59537">
        <ele>433</ele>
        <time>2023-10-18T10:54:39.194+00:00</time>
      </trkpt>
      <trkpt lat="46.12916" lon="4.59529">
        <ele>433</ele>
        <time>2023-10-18T10:54:44.314+00:00</time>
      </trkpt>
      <trkpt lat="46.12917" lon="4.5952">
        <ele>433</ele>
        <time>2023-10-18T10:54:49.314+00:00</time>
      </trkpt>
      <trkpt lat="46.12917" lon="4.59512">
        <ele>434</ele>
        <time>2023-10-18T10:54:54.474+00:00</time>
      </trkpt>
      <trkpt lat="46.12916" lon="4.59505">
        <ele>434</ele>
        <time>2023-10-18T10:54:58.894+00:00</time>
      </trkpt>
      <trkpt lat="46.12916" lon="4.59498">
        <ele>434</ele>
        <time>2023-10-18T10:55:03.514+00:00</time>
      </trkpt>
      <trkpt lat="46.12916" lon="4.59491">
        <ele>434</ele>
        <time>2023-10-18T10:55:08.494+00:00</time>
      </trkpt>
      <trkpt lat="46.12917" lon="4.59485">
        <ele>435</ele>
        <time>2023-10-18T10:55:12.414+00:00</time>
      </trkpt>
      <trkpt lat="46.12916" lon="4.59479">
        <ele>435</ele>
        <time>2023-10-18T10:55:16.514+00:00</time>
      </trkpt>
      <trkpt lat="46.12915" lon="4.59473">
        <ele>435</ele>
        <time>2023-10-18T10:55:20.878+00:00</time>
      </trkpt>
      <trkpt lat="46.12914" lon="4.59467">
        <ele>435</ele>
        <time>2023-10-18T10:55:24.834+00:00</time>
      </trkpt>
      <trkpt lat="46.12913" lon="4.5946">
        <ele>435</ele>
        <time>2023-10-18T10:55:29.334+00:00</time>
      </trkpt>
      <trkpt lat="46.12913" lon="4.59453">
        <ele>436</ele>
        <time>2023-10-18T10:55:33.854+00:00</time>
      </trkpt>
      <trkpt lat="46.12912" lon="4.59446">
        <ele>436</ele>
        <time>2023-10-18T10:55:37.754+00:00</time>
      </trkpt>
      <trkpt lat="46.12911" lon="4.59439">
        <ele>436</ele>
        <time>2023-10-18T10:55:42.174+00:00</time>
      </trkpt>
      <trkpt lat="46.12912" lon="4.59433">
        <ele>436</ele>
        <time>2023-10-18T10:55:46.774+00:00</time>
      </trkpt>
      <trkpt lat="46.12912" lon="4.59428">
        <ele>439</ele>
        <time>2023-10-18T10:55:51.314+00:00</time>
      </trkpt>
      <trkpt lat="46.12913" lon="4.59427">
        <ele>439</ele>
        <time>2023-10-18T10:55:55.857+00:00</time>
      </trkpt>
      <trkpt lat="46.12913" lon="4.59425">
        <ele>439</ele>
        <time>2023-10-18T10:56:00.458+00:00</time>
      </trkpt>
      <trkpt lat="46.12913" lon="4.59422">
        <ele>439</ele>
        <time>2023-10-18T10:56:04.518+00:00</time>
      </trkpt>
      <trkpt lat="46.12914" lon="4.59417">
        <ele>439</ele>
        <time>2023-10-18T10:56:08.534+00:00</time>
      </trkpt>
      <trkpt lat="46.12917" lon="4.59416">
        <ele>439</ele>
        <time>2023-10-18T10:56:12.974+00:00</time>
      </trkpt>
      <trkpt lat="46.1292" lon="4.59416">
        <ele>439</ele>
        <time>2023-10-18T10:56:17.598+00:00</time>
      </trkpt>
      <trkpt lat="46.12923" lon="4.59417">
        <ele>439</ele>
        <time>2023-10-18T10:56:21.594+00:00</time>
      </trkpt>
      <trkpt lat="46.12928" lon="4.59417">
        <ele>439</ele>
        <time>2023-10-18T10:56:26.018+00:00</time>
      </trkpt>
      <trkpt lat="46.12932" lon="4.59417">
        <ele>432</ele>
        <time>2023-10-18T10:56:30.214+00:00</time>
      </trkpt>
      <trkpt lat="46.12935" lon="4.59414">
        <ele>432</ele>
        <time>2023-10-18T10:56:34.734+00:00</time>
      </trkpt>
      <trkpt lat="46.1294" lon="4.59412">
        <ele>432</ele>
        <time>2023-10-18T10:56:39.314+00:00</time>
      </trkpt>
      <trkpt lat="46.12943" lon="4.5941">
        <ele>432</ele>
        <time>2023-10-18T10:56:43.314+00:00</time>
      </trkpt>
      <trkpt lat="46.12947" lon="4.59407">
        <ele>432</ele>
        <time>2023-10-18T10:56:47.774+00:00</time>
      </trkpt>
      <trkpt lat="46.12951" lon="4.59407">
        <ele>432</ele>
        <time>2023-10-18T10:56:52.314+00:00</time>
      </trkpt>
      <trkpt lat="46.12955" lon="4.59409">
        <ele>432</ele>
        <time>2023-10-18T10:56:56.858+00:00</time>
      </trkpt>
      <trkpt lat="46.12958" lon="4.59411">
        <ele>432</ele>
        <time>2023-10-18T10:57:00.774+00:00</time>
      </trkpt>
      <trkpt lat="46.12961" lon="4.59411">
        <ele>426</ele>
        <time>2023-10-18T10:57:05.314+00:00</time>
      </trkpt>
      <trkpt lat="46.12964" lon="4.5941">
        <ele>426</ele>
        <time>2023-10-18T10:57:09.978+00:00</time>
      </trkpt>
      <trkpt lat="46.12968" lon="4.59411">
        <ele>426</ele>
        <time>2023-10-18T10:57:14.114+00:00</time>
      </trkpt>
      <trkpt lat="46.12971" lon="4.5941">
        <ele>426</ele>
        <time>2023-10-18T10:57:18.814+00:00</time>
      </trkpt>
      <trkpt lat="46.12975" lon="4.59408">
        <ele>426</ele>
        <time>2023-10-18T10:57:23.434+00:00</time>
      </trkpt>
      <trkpt lat="46.12979" lon="4.59405">
        <ele>426</ele>
        <time>2023-10-18T10:57:28.618+00:00</time>
      </trkpt>
      <trkpt lat="46.12982" lon="4.59404">
        <ele>426</ele>
        <time>2023-10-18T10:57:32.554+00:00</time>
      </trkpt>
      <trkpt lat="46.12986" lon="4.59404">
        <ele>419</ele>
        <time>2023-10-18T10:57:37.074+00:00</time>
      </trkpt>
      <trkpt lat="46.12989" lon="4.59404">
        <ele>419</ele>
        <time>2023-10-18T10:57:41.074+00:00</time>
      </trkpt>
      <trkpt lat="46.12993" lon="4.59403">
        <ele>419</ele>
        <time>2023-10-18T10:57:45.414+00:00</time>
      </trkpt>
      <trkpt lat="46.12996" lon="4.59402">
        <ele>424</ele>
        <time>2023-10-18T10:57:49.614+00:00</time>
      </trkpt>
      <trkpt lat="46.13" lon="4.59402">
        <ele>424</ele>
        <time>2023-10-18T10:57:54.234+00:00</time>
      </trkpt>
      <trkpt lat="46.13003" lon="4.59403">
        <ele>424</ele>
        <time>2023-10-18T10:57:58.314+00:00</time>
      </trkpt>
      <trkpt lat="46.13006" lon="4.594">
        <ele>424</ele>
        <time>2023-10-18T10:58:02.274+00:00</time>
      </trkpt>
      <trkpt lat="46.13005" lon="4.59392">
        <ele>424</ele>
        <time>2023-10-18T10:58:06.774+00:00</time>
      </trkpt>
      <trkpt lat="46.13004" lon="4.59387">
        <ele>424</ele>
        <time>2023-10-18T10:58:10.794+00:00</time>
      </trkpt>
      <trkpt lat="46.13003" lon="4.59383">
        <ele>424</ele>
        <time>2023-10-18T10:58:15.298+00:00</time>
      </trkpt>
      <trkpt lat="46.13" lon="4.59383">
        <ele>424</ele>
        <time>2023-10-18T10:58:19.314+00:00</time>
      </trkpt>
      <trkpt lat="46.12997" lon="4.59383">
        <ele>424</ele>
        <time>2023-10-18T10:58:23.894+00:00</time>
      </trkpt>
      <trkpt lat="46.12994" lon="4.59382">
        <ele>424</ele>
        <time>2023-10-18T10:58:28.494+00:00</time>
      </trkpt>
      <trkpt lat="46.12991" lon="4.59382">
        <ele>424</ele>
        <time>2023-10-18T10:58:33.114+00:00</time>
      </trkpt>
      <trkpt lat="46.12988" lon="4.59383">
        <ele>424</ele>
        <time>2023-10-18T10:58:37.914+00:00</time>
      </trkpt>
      <trkpt lat="46.12985" lon="4.59383">
        <ele>431</ele>
        <time>2023-10-18T10:58:42.034+00:00</time>
      </trkpt>
      <trkpt lat="46.12983" lon="4.59386">
        <ele>431</ele>
        <time>2023-10-18T10:58:46.377+00:00</time>
      </trkpt>
      <trkpt lat="46.12979" lon="4.59387">
        <ele>431</ele>
        <time>2023-10-18T10:58:50.314+00:00</time>
      </trkpt>
      <trkpt lat="46.12976" lon="4.59385">
        <ele>431</ele>
        <time>2023-10-18T10:58:55.314+00:00</time>
      </trkpt>
      <trkpt lat="46.12974" lon="4.59381">
        <ele>431</ele>
        <time>2023-10-18T10:58:59.794+00:00</time>
      </trkpt>
      <trkpt lat="46.12975" lon="4.59376">
        <ele>431</ele>
        <time>2023-10-18T10:59:04.154+00:00</time>
      </trkpt>
      <trkpt lat="46.12977" lon="4.59371">
        <ele>433</ele>
        <time>2023-10-18T10:59:09.558+00:00</time>
      </trkpt>
      <trkpt lat="46.12979" lon="4.59367">
        <ele>433</ele>
        <time>2023-10-18T10:59:17.934+00:00</time>
      </trkpt>
      <trkpt lat="46.1298" lon="4.59365">
        <ele>433</ele>
        <time>2023-10-18T10:59:22.274+00:00</time>
      </trkpt>
      <trkpt lat="46.12982" lon="4.59362">
        <ele>433</ele>
        <time>2023-10-18T10:59:26.614+00:00</time>
      </trkpt>
      <trkpt lat="46.12982" lon="4.5936">
        <ele>433</ele>
        <time>2023-10-18T10:59:30.214+00:00</time>
      </trkpt>
      <trkpt lat="46.12984" lon="4.59358">
        <ele>433</ele>
        <time>2023-10-18T10:59:34.634+00:00</time>
      </trkpt>
      <trkpt lat="46.12986" lon="4.59354">
        <ele>433</ele>
        <time>2023-10-18T10:59:39.074+00:00</time>
      </trkpt>
      <trkpt lat="46.12987" lon="4.59352">
        <ele>428</ele>
        <time>2023-10-18T10:59:42.894+00:00</time>
      </trkpt>
      <trkpt lat="46.12988" lon="4.59349">
        <ele>428</ele>
        <time>2023-10-18T10:59:47.367+00:00</time>
      </trkpt>
      <trkpt lat="46.12989" lon="4.59343">
        <ele>430</ele>
        <time>2023-10-18T10:59:51.174+00:00</time>
      </trkpt>
      <trkpt lat="46.1299" lon="4.59338">
        <ele>430</ele>
        <time>2023-10-18T10:59:55.774+00:00</time>
      </trkpt>
      <trkpt lat="46.12992" lon="4.59332">
        <ele>430</ele>
        <time>2023-10-18T11:00:00.274+00:00</time>
      </trkpt>
      <trkpt lat="46.12992" lon="4.59326">
        <ele>430</ele>
        <time>2023-10-18T11:00:04.314+00:00</time>
      </trkpt>
      <trkpt lat="46.12991" lon="4.59319">
        <ele>433</ele>
        <time>2023-10-18T11:00:08.874+00:00</time>
      </trkpt>
      <trkpt lat="46.1299" lon="4.59313">
        <ele>433</ele>
        <time>2023-10-18T11:00:12.894+00:00</time>
      </trkpt>
      <trkpt lat="46.1299" lon="4.59307">
        <ele>433</ele>
        <time>2023-10-18T11:00:16.894+00:00</time>
      </trkpt>
      <trkpt lat="46.12989" lon="4.59299">
        <ele>433</ele>
        <time>2023-10-18T11:00:21.494+00:00</time>
      </trkpt>
      <trkpt lat="46.12988" lon="4.59291">
        <ele>436</ele>
        <time>2023-10-18T11:00:25.994+00:00</time>
      </trkpt>
      <trkpt lat="46.12988" lon="4.59284">
        <ele>436</ele>
        <time>2023-10-18T11:00:30.607+00:00</time>
      </trkpt>
      <trkpt lat="46.12987" lon="4.59275">
        <ele>436</ele>
        <time>2023-10-18T11:00:35.194+00:00</time>
      </trkpt>
      <trkpt lat="46.12986" lon="4.59269">
        <ele>436</ele>
        <time>2023-10-18T11:00:39.214+00:00</time>
      </trkpt>
      <trkpt lat="46.12986" lon="4.59262">
        <ele>439</ele>
        <time>2023-10-18T11:00:43.314+00:00</time>
      </trkpt>
      <trkpt lat="46.12983" lon="4.59254">
        <ele>439</ele>
        <time>2023-10-18T11:00:48.014+00:00</time>
      </trkpt>
      <trkpt lat="46.12981" lon="4.59248">
        <ele>439</ele>
        <time>2023-10-18T11:00:52.014+00:00</time>
      </trkpt>
      <trkpt lat="46.1298" lon="4.5924">
        <ele>439</ele>
        <time>2023-10-18T11:00:56.514+00:00</time>
      </trkpt>
      <trkpt lat="46.12979" lon="4.59233">
        <ele>438</ele>
        <time>2023-10-18T11:01:00.514+00:00</time>
      </trkpt>
      <trkpt lat="46.12976" lon="4.59226">
        <ele>438</ele>
        <time>2023-10-18T11:01:05.158+00:00</time>
      </trkpt>
      <trkpt lat="46.12974" lon="4.5922">
        <ele>438</ele>
        <time>2023-10-18T11:01:09.134+00:00</time>
      </trkpt>
      <trkpt lat="46.1297" lon="4.59214">
        <ele>438</ele>
        <time>2023-10-18T11:01:13.134+00:00</time>
      </trkpt>
      <trkpt lat="46.12966" lon="4.5921">
        <ele>438</ele>
        <time>2023-10-18T11:01:18.074+00:00</time>
      </trkpt>
      <trkpt lat="46.12965" lon="4.59202">
        <ele>438</ele>
        <time>2023-10-18T11:01:22.474+00:00</time>
      </trkpt>
      <trkpt lat="46.12967" lon="4.59194">
        <ele>438</ele>
        <time>2023-10-18T11:01:26.494+00:00</time>
      </trkpt>
      <trkpt lat="46.12967" lon="4.59186">
        <ele>438</ele>
        <time>2023-10-18T11:01:30.994+00:00</time>
      </trkpt>
      <trkpt lat="46.12968" lon="4.59179">
        <ele>439</ele>
        <time>2023-10-18T11:01:34.994+00:00</time>
      </trkpt>
      <trkpt lat="46.12967" lon="4.59174">
        <ele>439</ele>
        <time>2023-10-18T11:01:39.554+00:00</time>
      </trkpt>
      <trkpt lat="46.12966" lon="4.59166">
        <ele>439</ele>
        <time>2023-10-18T11:01:44.074+00:00</time>
      </trkpt>
      <trkpt lat="46.12964" lon="4.59158">
        <ele>439</ele>
        <time>2023-10-18T11:01:47.994+00:00</time>
      </trkpt>
      <trkpt lat="46.12964" lon="4.59151">
        <ele>437</ele>
        <time>2023-10-18T11:01:52.514+00:00</time>
      </trkpt>
      <trkpt lat="46.12964" lon="4.59144">
        <ele>437</ele>
        <time>2023-10-18T11:01:56.714+00:00</time>
      </trkpt>
      <trkpt lat="46.12966" lon="4.59137">
        <ele>437</ele>
        <time>2023-10-18T11:02:01.398+00:00</time>
      </trkpt>
      <trkpt lat="46.12968" lon="4.59134">
        <ele>437</ele>
        <time>2023-10-18T11:02:05.314+00:00</time>
      </trkpt>
      <trkpt lat="46.12969" lon="4.59129">
        <ele>437</ele>
        <time>2023-10-18T11:02:09.314+00:00</time>
      </trkpt>
      <trkpt lat="46.1297" lon="4.59126">
        <ele>437</ele>
        <time>2023-10-18T11:02:13.314+00:00</time>
      </trkpt>
      <trkpt lat="46.12971" lon="4.59121">
        <ele>436</ele>
        <time>2023-10-18T11:02:17.838+00:00</time>
      </trkpt>
      <trkpt lat="46.12972" lon="4.59116">
        <ele>436</ele>
        <time>2023-10-18T11:02:21.714+00:00</time>
      </trkpt>
      <trkpt lat="46.12975" lon="4.59109">
        <ele>436</ele>
        <time>2023-10-18T11:02:26.434+00:00</time>
      </trkpt>
      <trkpt lat="46.12977" lon="4.59104">
        <ele>436</ele>
        <time>2023-10-18T11:02:30.878+00:00</time>
      </trkpt>
      <trkpt lat="46.12979" lon="4.59098">
        <ele>436</ele>
        <time>2023-10-18T11:02:34.854+00:00</time>
      </trkpt>
      <trkpt lat="46.12981" lon="4.59091">
        <ele>435</ele>
        <time>2023-10-18T11:02:38.774+00:00</time>
      </trkpt>
      <trkpt lat="46.12984" lon="4.59087">
        <ele>435</ele>
        <time>2023-10-18T11:02:43.298+00:00</time>
      </trkpt>
      <trkpt lat="46.12985" lon="4.59081">
        <ele>435</ele>
        <time>2023-10-18T11:02:47.294+00:00</time>
      </trkpt>
      <trkpt lat="46.12985" lon="4.59073">
        <ele>435</ele>
        <time>2023-10-18T11:02:51.758+00:00</time>
      </trkpt>
      <trkpt lat="46.12985" lon="4.59067">
        <ele>434</ele>
        <time>2023-10-18T11:02:55.734+00:00</time>
      </trkpt>
      <trkpt lat="46.12986" lon="4.59059">
        <ele>434</ele>
        <time>2023-10-18T11:03:00.434+00:00</time>
      </trkpt>
      <trkpt lat="46.12985" lon="4.59051">
        <ele>434</ele>
        <time>2023-10-18T11:03:04.474+00:00</time>
      </trkpt>
      <trkpt lat="46.12985" lon="4.59042">
        <ele>434</ele>
        <time>2023-10-18T11:03:08.858+00:00</time>
      </trkpt>
      <trkpt lat="46.12983" lon="4.59034">
        <ele>432</ele>
        <time>2023-10-18T11:03:12.894+00:00</time>
      </trkpt>
      <trkpt lat="46.12981" lon="4.59027">
        <ele>432</ele>
        <time>2023-10-18T11:03:16.834+00:00</time>
      </trkpt>
      <trkpt lat="46.12981" lon="4.5902">
        <ele>432</ele>
        <time>2023-10-18T11:03:20.834+00:00</time>
      </trkpt>
      <trkpt lat="46.12981" lon="4.59013">
        <ele>433</ele>
        <time>2023-10-18T11:03:25.454+00:00</time>
      </trkpt>
      <trkpt lat="46.12979" lon="4.59007">
        <ele>433</ele>
        <time>2023-10-18T11:03:30.074+00:00</time>
      </trkpt>
      <trkpt lat="46.12979" lon="4.59001">
        <ele>433</ele>
        <time>2023-10-18T11:03:34.614+00:00</time>
      </trkpt>
      <trkpt lat="46.12979" lon="4.58997">
        <ele>433</ele>
        <time>2023-10-18T11:03:38.214+00:00</time>
      </trkpt>
      <trkpt lat="46.12977" lon="4.58994">
        <ele>433</ele>
        <time>2023-10-18T11:03:42.914+00:00</time>
      </trkpt>
      <trkpt lat="46.12979" lon="4.58995">
        <ele>433</ele>
        <time>2023-10-18T11:07:53.634+00:00</time>
      </trkpt>
      <trkpt lat="46.12983" lon="4.58994">
        <ele>433</ele>
        <time>2023-10-18T11:07:58.134+00:00</time>
      </trkpt>
      <trkpt lat="46.12991" lon="4.58993">
        <ele>425</ele>
        <time>2023-10-18T11:08:01.994+00:00</time>
      </trkpt>
      <trkpt lat="46.12999" lon="4.58996">
        <ele>425</ele>
        <time>2023-10-18T11:08:06.594+00:00</time>
      </trkpt>
      <trkpt lat="46.13006" lon="4.58999">
        <ele>425</ele>
        <time>2023-10-18T11:08:11.114+00:00</time>
      </trkpt>
      <trkpt lat="46.13013" lon="4.59002">
        <ele>425</ele>
        <time>2023-10-18T11:08:16.218+00:00</time>
      </trkpt>
      <trkpt lat="46.13017" lon="4.59004">
        <ele>421</ele>
        <time>2023-10-18T11:08:20.254+00:00</time>
      </trkpt>
      <trkpt lat="46.13021" lon="4.59006">
        <ele>421</ele>
        <time>2023-10-18T11:08:24.174+00:00</time>
      </trkpt>
      <trkpt lat="46.13026" lon="4.59008">
        <ele>421</ele>
        <time>2023-10-18T11:08:28.774+00:00</time>
      </trkpt>
      <trkpt lat="46.13031" lon="4.59009">
        <ele>421</ele>
        <time>2023-10-18T11:08:32.774+00:00</time>
      </trkpt>
      <trkpt lat="46.13036" lon="4.5901">
        <ele>421</ele>
        <time>2023-10-18T11:08:36.974+00:00</time>
      </trkpt>
      <trkpt lat="46.13041" lon="4.59012">
        <ele>421</ele>
        <time>2023-10-18T11:08:41.438+00:00</time>
      </trkpt>
      <trkpt lat="46.13045" lon="4.59014">
        <ele>419</ele>
        <time>2023-10-18T11:08:45.294+00:00</time>
      </trkpt>
      <trkpt lat="46.13051" lon="4.59017">
        <ele>419</ele>
        <time>2023-10-18T11:08:49.954+00:00</time>
      </trkpt>
      <trkpt lat="46.13055" lon="4.59019">
        <ele>419</ele>
        <time>2023-10-18T11:08:54.356+00:00</time>
      </trkpt>
      <trkpt lat="46.13059" lon="4.59021">
        <ele>419</ele>
        <time>2023-10-18T11:08:58.454+00:00</time>
      </trkpt>
      <trkpt lat="46.13063" lon="4.59023">
        <ele>419</ele>
        <time>2023-10-18T11:09:02.454+00:00</time>
      </trkpt>
      <trkpt lat="46.13067" lon="4.59025">
        <ele>419</ele>
        <time>2023-10-18T11:09:06.314+00:00</time>
      </trkpt>
      <trkpt lat="46.13073" lon="4.59026">
        <ele>421</ele>
        <time>2023-10-18T11:09:10.754+00:00</time>
      </trkpt>
      <trkpt lat="46.13078" lon="4.59029">
        <ele>421</ele>
        <time>2023-10-18T11:09:14.674+00:00</time>
      </trkpt>
      <trkpt lat="46.13083" lon="4.59032">
        <ele>421</ele>
        <time>2023-10-18T11:09:19.158+00:00</time>
      </trkpt>
      <trkpt lat="46.13088" lon="4.59035">
        <ele>421</ele>
        <time>2023-10-18T11:09:23.237+00:00</time>
      </trkpt>
      <trkpt lat="46.13093" lon="4.59037">
        <ele>421</ele>
        <time>2023-10-18T11:09:27.154+00:00</time>
      </trkpt>
      <trkpt lat="46.13098" lon="4.59038">
        <ele>422</ele>
        <time>2023-10-18T11:09:31.594+00:00</time>
      </trkpt>
      <trkpt lat="46.13104" lon="4.59039">
        <ele>422</ele>
        <time>2023-10-18T11:09:35.934+00:00</time>
      </trkpt>
      <trkpt lat="46.1311" lon="4.5904">
        <ele>422</ele>
        <time>2023-10-18T11:09:40.554+00:00</time>
      </trkpt>
      <trkpt lat="46.13114" lon="4.59042">
        <ele>415</ele>
        <time>2023-10-18T11:09:45.258+00:00</time>
      </trkpt>
      <trkpt lat="46.13118" lon="4.59043">
        <ele>415</ele>
        <time>2023-10-18T11:09:49.254+00:00</time>
      </trkpt>
      <trkpt lat="46.13123" lon="4.59042">
        <ele>415</ele>
        <time>2023-10-18T11:09:53.154+00:00</time>
      </trkpt>
      <trkpt lat="46.13128" lon="4.59041">
        <ele>423</ele>
        <time>2023-10-18T11:09:56.974+00:00</time>
      </trkpt>
      <trkpt lat="46.13132" lon="4.5904">
        <ele>423</ele>
        <time>2023-10-18T11:10:00.974+00:00</time>
      </trkpt>
      <trkpt lat="46.13137" lon="4.59038">
        <ele>423</ele>
        <time>2023-10-18T11:10:05.498+00:00</time>
      </trkpt>
      <trkpt lat="46.13142" lon="4.59037">
        <ele>423</ele>
        <time>2023-10-18T11:10:09.414+00:00</time>
      </trkpt>
      <trkpt lat="46.13147" lon="4.59035">
        <ele>423</ele>
        <time>2023-10-18T11:10:13.314+00:00</time>
      </trkpt>
      <trkpt lat="46.13153" lon="4.59035">
        <ele>421</ele>
        <time>2023-10-18T11:10:18.034+00:00</time>
      </trkpt>
      <trkpt lat="46.13159" lon="4.59033">
        <ele>421</ele>
        <time>2023-10-18T11:10:22.534+00:00</time>
      </trkpt>
      <trkpt lat="46.13164" lon="4.59032">
        <ele>421</ele>
        <time>2023-10-18T11:10:26.934+00:00</time>
      </trkpt>
      <trkpt lat="46.1317" lon="4.59033">
        <ele>421</ele>
        <time>2023-10-18T11:10:30.934+00:00</time>
      </trkpt>
      <trkpt lat="46.13174" lon="4.59036">
        <ele>421</ele>
        <time>2023-10-18T11:10:35.554+00:00</time>
      </trkpt>
      <trkpt lat="46.13179" lon="4.59037">
        <ele>421</ele>
        <time>2023-10-18T11:10:39.612+00:00</time>
      </trkpt>
      <trkpt lat="46.13184" lon="4.59038">
        <ele>422</ele>
        <time>2023-10-18T11:10:44.154+00:00</time>
      </trkpt>
      <trkpt lat="46.1319" lon="4.59041">
        <ele>422</ele>
        <time>2023-10-18T11:10:49.297+00:00</time>
      </trkpt>
      <trkpt lat="46.13195" lon="4.59043">
        <ele>414</ele>
        <time>2023-10-18T11:10:53.314+00:00</time>
      </trkpt>
      <trkpt lat="46.132" lon="4.59047">
        <ele>414</ele>
        <time>2023-10-18T11:10:57.674+00:00</time>
      </trkpt>
      <trkpt lat="46.13205" lon="4.59051">
        <ele>414</ele>
        <time>2023-10-18T11:11:02.598+00:00</time>
      </trkpt>
      <trkpt lat="46.1321" lon="4.59056">
        <ele>419</ele>
        <time>2023-10-18T11:11:06.874+00:00</time>
      </trkpt>
      <trkpt lat="46.13214" lon="4.5906">
        <ele>419</ele>
        <time>2023-10-18T11:11:11.214+00:00</time>
      </trkpt>
      <trkpt lat="46.13219" lon="4.59064">
        <ele>419</ele>
        <time>2023-10-18T11:11:16.014+00:00</time>
      </trkpt>
      <trkpt lat="46.13222" lon="4.59067">
        <ele>419</ele>
        <time>2023-10-18T11:11:20.434+00:00</time>
      </trkpt>
      <trkpt lat="46.13225" lon="4.5907">
        <ele>409</ele>
        <time>2023-10-18T11:11:24.454+00:00</time>
      </trkpt>
      <trkpt lat="46.13228" lon="4.59074">
        <ele>409</ele>
        <time>2023-10-18T11:11:28.974+00:00</time>
      </trkpt>
      <trkpt lat="46.13232" lon="4.59078">
        <ele>409</ele>
        <time>2023-10-18T11:11:33.314+00:00</time>
      </trkpt>
      <trkpt lat="46.13237" lon="4.5908">
        <ele>418</ele>
        <time>2023-10-18T11:11:37.274+00:00</time>
      </trkpt>
      <trkpt lat="46.13242" lon="4.59083">
        <ele>418</ele>
        <time>2023-10-18T11:11:41.874+00:00</time>
      </trkpt>
      <trkpt lat="46.13246" lon="4.59086">
        <ele>418</ele>
        <time>2023-10-18T11:11:45.874+00:00</time>
      </trkpt>
      <trkpt lat="46.1325" lon="4.5909">
        <ele>418</ele>
        <time>2023-10-18T11:11:50.314+00:00</time>
      </trkpt>
      <trkpt lat="46.13255" lon="4.59093">
        <ele>418</ele>
        <time>2023-10-18T11:11:54.574+00:00</time>
      </trkpt>
      <trkpt lat="46.1326" lon="4.59096">
        <ele>418</ele>
        <time>2023-10-18T11:11:58.494+00:00</time>
      </trkpt>
      <trkpt lat="46.13264" lon="4.59099">
        <ele>419</ele>
        <time>2023-10-18T11:12:02.334+00:00</time>
      </trkpt>
      <trkpt lat="46.13269" lon="4.59102">
        <ele>419</ele>
        <time>2023-10-18T11:12:06.774+00:00</time>
      </trkpt>
      <trkpt lat="46.13274" lon="4.59105">
        <ele>419</ele>
        <time>2023-10-18T11:12:11.177+00:00</time>
      </trkpt>
      <trkpt lat="46.13279" lon="4.59106">
        <ele>419</ele>
        <time>2023-10-18T11:12:16.218+00:00</time>
      </trkpt>
      <trkpt lat="46.13284" lon="4.59106">
        <ele>419</ele>
        <time>2023-10-18T11:12:21.238+00:00</time>
      </trkpt>
      <trkpt lat="46.1329" lon="4.59108">
        <ele>419</ele>
        <time>2023-10-18T11:12:25.734+00:00</time>
      </trkpt>
      <trkpt lat="46.13296" lon="4.59111">
        <ele>425</ele>
        <time>2023-10-18T11:12:30.237+00:00</time>
      </trkpt>
      <trkpt lat="46.133" lon="4.59112">
        <ele>425</ele>
        <time>2023-10-18T11:12:34.174+00:00</time>
      </trkpt>
      <trkpt lat="46.13305" lon="4.59114">
        <ele>425</ele>
        <time>2023-10-18T11:12:38.694+00:00</time>
      </trkpt>
      <trkpt lat="46.1331" lon="4.59115">
        <ele>425</ele>
        <time>2023-10-18T11:12:42.694+00:00</time>
      </trkpt>
      <trkpt lat="46.13316" lon="4.59116">
        <ele>425</ele>
        <time>2023-10-18T11:12:47.274+00:00</time>
      </trkpt>
      <trkpt lat="46.13321" lon="4.59117">
        <ele>429</ele>
        <time>2023-10-18T11:12:51.837+00:00</time>
      </trkpt>
      <trkpt lat="46.13327" lon="4.59116">
        <ele>429</ele>
        <time>2023-10-18T11:12:56.367+00:00</time>
      </trkpt>
      <trkpt lat="46.13331" lon="4.59114">
        <ele>429</ele>
        <time>2023-10-18T11:13:00.374+00:00</time>
      </trkpt>
      <trkpt lat="46.13336" lon="4.59112">
        <ele>429</ele>
        <time>2023-10-18T11:13:04.314+00:00</time>
      </trkpt>
      <trkpt lat="46.13341" lon="4.59096">
        <ele>436</ele>
        <time>2023-10-18T11:13:35.034+00:00</time>
      </trkpt>
      <trkpt lat="46.1334" lon="4.59095">
        <ele>436</ele>
        <time>2023-10-18T11:13:39.314+00:00</time>
      </trkpt>
      <trkpt lat="46.13341" lon="4.59095">
        <ele>436</ele>
        <time>2023-10-18T11:13:44.194+00:00</time>
      </trkpt>
      <trkpt lat="46.13339" lon="4.59095">
        <ele>436</ele>
        <time>2023-10-18T11:13:49.154+00:00</time>
      </trkpt>
      <trkpt lat="46.13337" lon="4.59094">
        <ele>436</ele>
        <time>2023-10-18T11:13:54.454+00:00</time>
      </trkpt>
      <trkpt lat="46.13336" lon="4.59102">
        <ele>429</ele>
        <time>2023-10-18T11:14:56.591+00:00</time>
      </trkpt>
      <trkpt lat="46.13334" lon="4.59106">
        <ele>429</ele>
        <time>2023-10-18T11:15:00.593+00:00</time>
      </trkpt>
      <trkpt lat="46.13335" lon="4.59109">
        <ele>429</ele>
        <time>2023-10-18T11:15:04.794+00:00</time>
      </trkpt>
      <trkpt lat="46.13333" lon="4.59112">
        <ele>429</ele>
        <time>2023-10-18T11:15:08.794+00:00</time>
      </trkpt>
      <trkpt lat="46.13332" lon="4.59113">
        <ele>429</ele>
        <time>2023-10-18T11:15:13.414+00:00</time>
      </trkpt>
      <trkpt lat="46.13332" lon="4.59108">
        <ele>429</ele>
        <time>2023-10-18T11:15:18.134+00:00</time>
      </trkpt>
      <trkpt lat="46.13332" lon="4.59101">
        <ele>429</ele>
        <time>2023-10-18T11:15:22.154+00:00</time>
      </trkpt>
      <trkpt lat="46.13335" lon="4.59095">
        <ele>436</ele>
        <time>2023-10-18T11:15:27.590+00:00</time>
      </trkpt>
      <trkpt lat="46.13335" lon="4.59092">
        <ele>436</ele>
        <time>2023-10-18T11:15:32.593+00:00</time>
      </trkpt>
      <trkpt lat="46.13335" lon="4.59094">
        <ele>436</ele>
        <time>2023-10-18T11:15:47.590+00:00</time>
      </trkpt>
      <trkpt lat="46.13335" lon="4.59099">
        <ele>429</ele>
        <time>2023-10-18T11:15:51.590+00:00</time>
      </trkpt>
      <trkpt lat="46.13334" lon="4.591">
        <ele>429</ele>
        <time>2023-10-18T11:15:56.590+00:00</time>
      </trkpt>
      <trkpt lat="46.13333" lon="4.591">
        <ele>429</ele>
        <time>2023-10-18T11:16:01.592+00:00</time>
      </trkpt>
      <trkpt lat="46.13334" lon="4.59114">
        <ele>429</ele>
        <time>2023-10-18T11:16:06.594+00:00</time>
      </trkpt>
      <trkpt lat="46.13331" lon="4.59116">
        <ele>429</ele>
        <time>2023-10-18T11:23:22.597+00:00</time>
      </trkpt>
      <trkpt lat="46.13334" lon="4.59105">
        <ele>429</ele>
        <time>2023-10-18T11:23:27.598+00:00</time>
      </trkpt>
      <trkpt lat="46.13335" lon="4.59099">
        <ele>429</ele>
        <time>2023-10-18T11:23:32.599+00:00</time>
      </trkpt>
      <trkpt lat="46.13336" lon="4.59098">
        <ele>429</ele>
        <time>2023-10-18T11:23:37.598+00:00</time>
      </trkpt>
      <trkpt lat="46.13335" lon="4.59098">
        <ele>429</ele>
        <time>2023-10-18T11:23:42.596+00:00</time>
      </trkpt>
      <trkpt lat="46.13335" lon="4.591">
        <ele>429</ele>
        <time>2023-10-18T11:28:36.596+00:00</time>
      </trkpt>
      <trkpt lat="46.13334" lon="4.59093">
        <ele>436</ele>
        <time>2023-10-18T11:30:57.596+00:00</time>
      </trkpt>
      <trkpt lat="46.13334" lon="4.59093">
        <ele>436</ele>
        <time>2023-10-18T11:31:02.595+00:00</time>
      </trkpt>
      <trkpt lat="46.13334" lon="4.59093">
        <ele>436</ele>
        <time>2023-10-18T11:31:07.596+00:00</time>
      </trkpt>
      <trkpt lat="46.1334" lon="4.59067">
        <ele>441</ele>
        <time>2023-10-18T11:31:26.594+00:00</time>
      </trkpt>
      <trkpt lat="46.13339" lon="4.59057">
        <ele>441</ele>
        <time>2023-10-18T11:31:36.594+00:00</time>
      </trkpt>
      <trkpt lat="46.13339" lon="4.59057">
        <ele>441</ele>
        <time>2023-10-18T11:31:40.596+00:00</time>
      </trkpt>
      <trkpt lat="46.13339" lon="4.59057">
        <ele>441</ele>
        <time>2023-10-18T11:31:45.597+00:00</time>
      </trkpt>
      <trkpt lat="46.13339" lon="4.59057">
        <ele>441</ele>
        <time>2023-10-18T11:31:50.598+00:00</time>
      </trkpt>
      <trkpt lat="46.13344" lon="4.59079">
        <ele>436</ele>
        <time>2023-10-18T11:32:09.594+00:00</time>
      </trkpt>
      <trkpt lat="46.13341" lon="4.59091">
        <ele>436</ele>
        <time>2023-10-18T11:32:29.596+00:00</time>
      </trkpt>
      <trkpt lat="46.13343" lon="4.59093">
        <ele>436</ele>
        <time>2023-10-18T11:32:57.595+00:00</time>
      </trkpt>
      <trkpt lat="46.13343" lon="4.59099">
        <ele>429</ele>
        <time>2023-10-18T11:33:02.595+00:00</time>
      </trkpt>
      <trkpt lat="46.13343" lon="4.59099">
        <ele>429</ele>
        <time>2023-10-18T11:33:07.596+00:00</time>
      </trkpt>
      <trkpt lat="46.13338" lon="4.59108">
        <ele>429</ele>
        <time>2023-10-18T11:33:15.597+00:00</time>
      </trkpt>
      <trkpt lat="46.13337" lon="4.5911">
        <ele>429</ele>
        <time>2023-10-18T11:33:25.595+00:00</time>
      </trkpt>
      <trkpt lat="46.13339" lon="4.59111">
        <ele>429</ele>
        <time>2023-10-18T11:33:35.594+00:00</time>
      </trkpt>
      <trkpt lat="46.1334" lon="4.59111">
        <ele>429</ele>
        <time>2023-10-18T11:33:39.595+00:00</time>
      </trkpt>
      <trkpt lat="46.13345" lon="4.59109">
        <ele>429</ele>
        <time>2023-10-18T11:33:44.596+00:00</time>
      </trkpt>
      <trkpt lat="46.13346" lon="4.59102">
        <ele>429</ele>
        <time>2023-10-18T11:33:49.598+00:00</time>
      </trkpt>
      <trkpt lat="46.1335" lon="4.591">
        <ele>432</ele>
        <time>2023-10-18T11:34:09.594+00:00</time>
      </trkpt>
      <trkpt lat="46.13352" lon="4.59102">
        <ele>432</ele>
        <time>2023-10-18T11:34:13.596+00:00</time>
      </trkpt>
      <trkpt lat="46.13359" lon="4.59103">
        <ele>432</ele>
        <time>2023-10-18T11:34:18.600+00:00</time>
      </trkpt>
      <trkpt lat="46.13378" lon="4.59103">
        <ele>435</ele>
        <time>2023-10-18T11:34:23.606+00:00</time>
      </trkpt>
      <trkpt lat="46.13389" lon="4.59106">
        <ele>435</ele>
        <time>2023-10-18T11:34:27.611+00:00</time>
      </trkpt>
      <trkpt lat="46.13383" lon="4.59108">
        <ele>435</ele>
        <time>2023-10-18T11:35:06.612+00:00</time>
      </trkpt>
      <trkpt lat="46.13382" lon="4.59108">
        <ele>435</ele>
        <time>2023-10-18T11:35:10.612+00:00</time>
      </trkpt>
      <trkpt lat="46.13381" lon="4.59109">
        <ele>435</ele>
        <time>2023-10-18T11:35:15.614+00:00</time>
      </trkpt>
      <trkpt lat="46.13381" lon="4.59109">
        <ele>435</ele>
        <time>2023-10-18T11:35:19.615+00:00</time>
      </trkpt>
      <trkpt lat="46.13379" lon="4.59116">
        <ele>435</ele>
        <time>2023-10-18T11:35:34.607+00:00</time>
      </trkpt>
      <trkpt lat="46.13378" lon="4.59119">
        <ele>435</ele>
        <time>2023-10-18T11:35:38.613+00:00</time>
      </trkpt>
      <trkpt lat="46.13375" lon="4.5911">
        <ele>432</ele>
        <time>2023-10-18T11:35:42.614+00:00</time>
      </trkpt>
      <trkpt lat="46.13356" lon="4.5912">
        <ele>432</ele>
        <time>2023-10-18T11:35:47.610+00:00</time>
      </trkpt>
      <trkpt lat="46.13354" lon="4.59121">
        <ele>432</ele>
        <time>2023-10-18T11:35:52.613+00:00</time>
      </trkpt>
      <trkpt lat="46.13349" lon="4.59114">
        <ele>432</ele>
        <time>2023-10-18T11:37:14.612+00:00</time>
      </trkpt>
      <trkpt lat="46.13349" lon="4.59114">
        <ele>432</ele>
        <time>2023-10-18T11:37:18.606+00:00</time>
      </trkpt>
      <trkpt lat="46.1335" lon="4.59113">
        <ele>432</ele>
        <time>2023-10-18T11:37:23.596+00:00</time>
      </trkpt>
      <trkpt lat="46.13349" lon="4.59112">
        <ele>432</ele>
        <time>2023-10-18T11:37:27.597+00:00</time>
      </trkpt>
      <trkpt lat="46.13347" lon="4.59108">
        <ele>429</ele>
        <time>2023-10-18T11:37:32.597+00:00</time>
      </trkpt>
      <trkpt lat="46.13347" lon="4.59106">
        <ele>429</ele>
        <time>2023-10-18T11:37:37.596+00:00</time>
      </trkpt>
      <trkpt lat="46.13346" lon="4.59106">
        <ele>429</ele>
        <time>2023-10-18T11:37:42.596+00:00</time>
      </trkpt>
      <trkpt lat="46.13345" lon="4.59107">
        <ele>429</ele>
        <time>2023-10-18T11:37:47.596+00:00</time>
      </trkpt>
      <trkpt lat="46.13343" lon="4.59115">
        <ele>429</ele>
        <time>2023-10-18T11:37:52.596+00:00</time>
      </trkpt>
      <trkpt lat="46.1334" lon="4.59116">
        <ele>429</ele>
        <time>2023-10-18T11:37:57.595+00:00</time>
      </trkpt>
      <trkpt lat="46.13343" lon="4.59109">
        <ele>429</ele>
        <time>2023-10-18T11:39:52.609+00:00</time>
      </trkpt>
      <trkpt lat="46.13341" lon="4.59101">
        <ele>429</ele>
        <time>2023-10-18T11:39:57.607+00:00</time>
      </trkpt>
      <trkpt lat="46.13338" lon="4.59094">
        <ele>436</ele>
        <time>2023-10-18T11:40:02.214+00:00</time>
      </trkpt>
      <trkpt lat="46.13334" lon="4.59091">
        <ele>436</ele>
        <time>2023-10-18T11:40:06.414+00:00</time>
      </trkpt>
      <trkpt lat="46.13333" lon="4.59091">
        <ele>436</ele>
        <time>2023-10-18T11:40:10.614+00:00</time>
      </trkpt>
      <trkpt lat="46.13329" lon="4.59095">
        <ele>436</ele>
        <time>2023-10-18T11:40:28.598+00:00</time>
      </trkpt>
      <trkpt lat="46.13329" lon="4.59096">
        <ele>436</ele>
        <time>2023-10-18T11:40:33.597+00:00</time>
      </trkpt>
      <trkpt lat="46.13329" lon="4.59096">
        <ele>436</ele>
        <time>2023-10-18T11:40:38.599+00:00</time>
      </trkpt>
      <trkpt lat="46.13332" lon="4.59101">
        <ele>429</ele>
        <time>2023-10-18T11:40:43.314+00:00</time>
      </trkpt>
      <trkpt lat="46.13335" lon="4.59114">
        <ele>429</ele>
        <time>2023-10-18T11:40:47.603+00:00</time>
      </trkpt>
      <trkpt lat="46.13337" lon="4.59102">
        <ele>429</ele>
        <time>2023-10-18T11:41:51.599+00:00</time>
      </trkpt>
      <trkpt lat="46.13337" lon="4.59098">
        <ele>429</ele>
        <time>2023-10-18T11:41:56.596+00:00</time>
      </trkpt>
      <trkpt lat="46.13339" lon="4.59095">
        <ele>436</ele>
        <time>2023-10-18T11:42:01.598+00:00</time>
      </trkpt>
      <trkpt lat="46.1334" lon="4.5909">
        <ele>436</ele>
        <time>2023-10-18T11:42:06.599+00:00</time>
      </trkpt>
      <trkpt lat="46.1334" lon="4.5909">
        <ele>436</ele>
        <time>2023-10-18T11:42:11.599+00:00</time>
      </trkpt>
      <trkpt lat="46.13339" lon="4.59095">
        <ele>436</ele>
        <time>2023-10-18T11:43:29.598+00:00</time>
      </trkpt>
      <trkpt lat="46.13336" lon="4.591">
        <ele>429</ele>
        <time>2023-10-18T11:43:34.597+00:00</time>
      </trkpt>
      <trkpt lat="46.13336" lon="4.59107">
        <ele>429</ele>
        <time>2023-10-18T11:43:38.599+00:00</time>
      </trkpt>
      <trkpt lat="46.13336" lon="4.59109">
        <ele>429</ele>
        <time>2023-10-18T11:43:43.594+00:00</time>
      </trkpt>
      <trkpt lat="46.13336" lon="4.59109">
        <ele>429</ele>
        <time>2023-10-18T11:43:48.600+00:00</time>
      </trkpt>
      <trkpt lat="46.13336" lon="4.59117">
        <ele>429</ele>
        <time>2023-10-18T11:45:22.594+00:00</time>
      </trkpt>
      <trkpt lat="46.13338" lon="4.59116">
        <ele>429</ele>
        <time>2023-10-18T11:45:27.592+00:00</time>
      </trkpt>
      <trkpt lat="46.13342" lon="4.59122">
        <ele>429</ele>
        <time>2023-10-18T11:45:32.594+00:00</time>
      </trkpt>
      <trkpt lat="46.13343" lon="4.5913">
        <ele>420</ele>
        <time>2023-10-18T11:45:36.595+00:00</time>
      </trkpt>
      <trkpt lat="46.13342" lon="4.59134">
        <ele>420</ele>
        <time>2023-10-18T11:45:41.597+00:00</time>
      </trkpt>
      <trkpt lat="46.13342" lon="4.59134">
        <ele>420</ele>
        <time>2023-10-18T11:45:45.596+00:00</time>
      </trkpt>
      <trkpt lat="46.13342" lon="4.59134">
        <ele>420</ele>
        <time>2023-10-18T11:45:50.596+00:00</time>
      </trkpt>
      <trkpt lat="46.13346" lon="4.59129">
        <ele>420</ele>
        <time>2023-10-18T11:45:55.595+00:00</time>
      </trkpt>
      <trkpt lat="46.13348" lon="4.59125">
        <ele>423</ele>
        <time>2023-10-18T11:46:00.596+00:00</time>
      </trkpt>
      <trkpt lat="46.13341" lon="4.59112">
        <ele>429</ele>
        <time>2023-10-18T11:46:05.598+00:00</time>
      </trkpt>
      <trkpt lat="46.1334" lon="4.59101">
        <ele>429</ele>
        <time>2023-10-18T11:51:30.604+00:00</time>
      </trkpt>
      <trkpt lat="46.1334" lon="4.591">
        <ele>429</ele>
        <time>2023-10-18T11:51:35.607+00:00</time>
      </trkpt>
      <trkpt lat="46.1334" lon="4.591">
        <ele>429</ele>
        <time>2023-10-18T11:51:39.615+00:00</time>
      </trkpt>
      <trkpt lat="46.13337" lon="4.59098">
        <ele>429</ele>
        <time>2023-10-18T11:51:44.606+00:00</time>
      </trkpt>
      <trkpt lat="46.13337" lon="4.59098">
        <ele>429</ele>
        <time>2023-10-18T11:51:49.611+00:00</time>
      </trkpt>
      <trkpt lat="46.13342" lon="4.59107">
        <ele>429</ele>
        <time>2023-10-18T11:53:05.602+00:00</time>
      </trkpt>
      <trkpt lat="46.13341" lon="4.59109">
        <ele>429</ele>
        <time>2023-10-18T11:53:24.600+00:00</time>
      </trkpt>
      <trkpt lat="46.13341" lon="4.5911">
        <ele>429</ele>
        <time>2023-10-18T11:53:29.602+00:00</time>
      </trkpt>
      <trkpt lat="46.13341" lon="4.5911">
        <ele>429</ele>
        <time>2023-10-18T11:53:33.603+00:00</time>
      </trkpt>
      <trkpt lat="46.13341" lon="4.5911">
        <ele>429</ele>
        <time>2023-10-18T11:53:38.601+00:00</time>
      </trkpt>
      <trkpt lat="46.1334" lon="4.591">
        <ele>429</ele>
        <time>2023-10-18T11:59:02.602+00:00</time>
      </trkpt>
      <trkpt lat="46.1334" lon="4.59099">
        <ele>429</ele>
        <time>2023-10-18T11:59:07.601+00:00</time>
      </trkpt>
      <trkpt lat="46.13339" lon="4.59099">
        <ele>429</ele>
        <time>2023-10-18T11:59:12.602+00:00</time>
      </trkpt>
      <trkpt lat="46.13338" lon="4.59092">
        <ele>436</ele>
        <time>2023-10-18T11:59:16.602+00:00</time>
      </trkpt>
      <trkpt lat="46.13337" lon="4.59092">
        <ele>436</ele>
        <time>2023-10-18T11:59:21.602+00:00</time>
      </trkpt>
      <trkpt lat="46.13338" lon="4.59092">
        <ele>436</ele>
        <time>2023-10-18T11:59:31.604+00:00</time>
      </trkpt>
      <trkpt lat="46.13337" lon="4.59101">
        <ele>429</ele>
        <time>2023-10-18T11:59:36.602+00:00</time>
      </trkpt>
      <trkpt lat="46.13336" lon="4.59101">
        <ele>429</ele>
        <time>2023-10-18T11:59:41.601+00:00</time>
      </trkpt>
      <trkpt lat="46.13337" lon="4.59105">
        <ele>429</ele>
        <time>2023-10-18T11:59:46.600+00:00</time>
      </trkpt>
      <trkpt lat="46.13336" lon="4.59106">
        <ele>429</ele>
        <time>2023-10-18T11:59:50.601+00:00</time>
      </trkpt>
      <trkpt lat="46.13338" lon="4.59103">
        <ele>429</ele>
        <time>2023-10-18T12:00:19.602+00:00</time>
      </trkpt>
      <trkpt lat="46.13339" lon="4.59101">
        <ele>429</ele>
        <time>2023-10-18T12:00:39.602+00:00</time>
      </trkpt>
      <trkpt lat="46.13339" lon="4.59101">
        <ele>429</ele>
        <time>2023-10-18T12:00:44.599+00:00</time>
      </trkpt>
      <trkpt lat="46.13339" lon="4.59101">
        <ele>429</ele>
        <time>2023-10-18T12:00:49.598+00:00</time>
      </trkpt>
      <trkpt lat="46.13338" lon="4.59093">
        <ele>436</ele>
        <time>2023-10-18T12:00:54.598+00:00</time>
      </trkpt>
      <trkpt lat="46.13344" lon="4.59112">
        <ele>429</ele>
        <time>2023-10-18T12:02:09.610+00:00</time>
      </trkpt>
      <trkpt lat="46.13346" lon="4.59111">
        <ele>429</ele>
        <time>2023-10-18T12:02:14.554+00:00</time>
      </trkpt>
      <trkpt lat="46.1335" lon="4.5911">
        <ele>432</ele>
        <time>2023-10-18T12:02:18.514+00:00</time>
      </trkpt>
      <trkpt lat="46.13355" lon="4.5911">
        <ele>432</ele>
        <time>2023-10-18T12:02:22.434+00:00</time>
      </trkpt>
      <trkpt lat="46.13355" lon="4.59112">
        <ele>432</ele>
        <time>2023-10-18T12:02:27.074+00:00</time>
      </trkpt>
      <trkpt lat="46.1336" lon="4.59111">
        <ele>432</ele>
        <time>2023-10-18T12:02:31.613+00:00</time>
      </trkpt>
      <trkpt lat="46.13364" lon="4.5911">
        <ele>432</ele>
        <time>2023-10-18T12:02:36.194+00:00</time>
      </trkpt>
      <trkpt lat="46.13369" lon="4.59113">
        <ele>432</ele>
        <time>2023-10-18T12:02:40.794+00:00</time>
      </trkpt>
      <trkpt lat="46.13373" lon="4.59116">
        <ele>432</ele>
        <time>2023-10-18T12:02:45.194+00:00</time>
      </trkpt>
      <trkpt lat="46.13375" lon="4.5912">
        <ele>435</ele>
        <time>2023-10-18T12:02:49.554+00:00</time>
      </trkpt>
      <trkpt lat="46.13378" lon="4.59125">
        <ele>435</ele>
        <time>2023-10-18T12:02:54.234+00:00</time>
      </trkpt>
      <trkpt lat="46.13382" lon="4.59128">
        <ele>424</ele>
        <time>2023-10-18T12:02:58.494+00:00</time>
      </trkpt>
      <trkpt lat="46.13385" lon="4.59132">
        <ele>424</ele>
        <time>2023-10-18T12:03:02.314+00:00</time>
      </trkpt>
      <trkpt lat="46.13388" lon="4.59137">
        <ele>424</ele>
        <time>2023-10-18T12:03:06.894+00:00</time>
      </trkpt>
      <trkpt lat="46.13391" lon="4.59144">
        <ele>424</ele>
        <time>2023-10-18T12:03:11.294+00:00</time>
      </trkpt>
      <trkpt lat="46.13394" lon="4.59148">
        <ele>424</ele>
        <time>2023-10-18T12:03:15.698+00:00</time>
      </trkpt>
      <trkpt lat="46.13397" lon="4.59152">
        <ele>424</ele>
        <time>2023-10-18T12:03:19.754+00:00</time>
      </trkpt>
      <trkpt lat="46.134" lon="4.59156">
        <ele>417</ele>
        <time>2023-10-18T12:03:24.314+00:00</time>
      </trkpt>
      <trkpt lat="46.13403" lon="4.59159">
        <ele>423</ele>
        <time>2023-10-18T12:03:28.194+00:00</time>
      </trkpt>
      <trkpt lat="46.13407" lon="4.59164">
        <ele>423</ele>
        <time>2023-10-18T12:03:33.258+00:00</time>
      </trkpt>
      <trkpt lat="46.13409" lon="4.59168">
        <ele>423</ele>
        <time>2023-10-18T12:03:37.514+00:00</time>
      </trkpt>
      <trkpt lat="46.13413" lon="4.59174">
        <ele>423</ele>
        <time>2023-10-18T12:03:42.214+00:00</time>
      </trkpt>
      <trkpt lat="46.13417" lon="4.59177">
        <ele>423</ele>
        <time>2023-10-18T12:03:46.498+00:00</time>
      </trkpt>
      <trkpt lat="46.1342" lon="4.5918">
        <ele>423</ele>
        <time>2023-10-18T12:03:50.314+00:00</time>
      </trkpt>
      <trkpt lat="46.13423" lon="4.59184">
        <ele>417</ele>
        <time>2023-10-18T12:03:54.614+00:00</time>
      </trkpt>
      <trkpt lat="46.13428" lon="4.59188">
        <ele>417</ele>
        <time>2023-10-18T12:03:59.615+00:00</time>
      </trkpt>
      <trkpt lat="46.1343" lon="4.5919">
        <ele>417</ele>
        <time>2023-10-18T12:04:03.858+00:00</time>
      </trkpt>
      <trkpt lat="46.13435" lon="4.59194">
        <ele>424</ele>
        <time>2023-10-18T12:04:07.874+00:00</time>
      </trkpt>
      <trkpt lat="46.1344" lon="4.59199">
        <ele>424</ele>
        <time>2023-10-18T12:04:12.274+00:00</time>
      </trkpt>
      <trkpt lat="46.13444" lon="4.59203">
        <ele>424</ele>
        <time>2023-10-18T12:04:16.314+00:00</time>
      </trkpt>
      <trkpt lat="46.13449" lon="4.59207">
        <ele>424</ele>
        <time>2023-10-18T12:04:20.774+00:00</time>
      </trkpt>
      <trkpt lat="46.13453" lon="4.59211">
        <ele>417</ele>
        <time>2023-10-18T12:04:25.294+00:00</time>
      </trkpt>
      <trkpt lat="46.13455" lon="4.59216">
        <ele>417</ele>
        <time>2023-10-18T12:04:29.314+00:00</time>
      </trkpt>
      <trkpt lat="46.13458" lon="4.59223">
        <ele>417</ele>
        <time>2023-10-18T12:04:33.254+00:00</time>
      </trkpt>
      <trkpt lat="46.13459" lon="4.5923">
        <ele>424</ele>
        <time>2023-10-18T12:04:37.314+00:00</time>
      </trkpt>
      <trkpt lat="46.1346" lon="4.59237">
        <ele>419</ele>
        <time>2023-10-18T12:04:41.778+00:00</time>
      </trkpt>
      <trkpt lat="46.13461" lon="4.59245">
        <ele>419</ele>
        <time>2023-10-18T12:04:45.774+00:00</time>
      </trkpt>
      <trkpt lat="46.13464" lon="4.59258">
        <ele>419</ele>
        <time>2023-10-18T12:05:51.314+00:00</time>
      </trkpt>
      <trkpt lat="46.13467" lon="4.59259">
        <ele>419</ele>
        <time>2023-10-18T12:05:55.754+00:00</time>
      </trkpt>
      <trkpt lat="46.13473" lon="4.5926">
        <ele>419</ele>
        <time>2023-10-18T12:06:00.154+00:00</time>
      </trkpt>
      <trkpt lat="46.13477" lon="4.59262">
        <ele>419</ele>
        <time>2023-10-18T12:06:04.754+00:00</time>
      </trkpt>
      <trkpt lat="46.13482" lon="4.59264">
        <ele>419</ele>
        <time>2023-10-18T12:06:09.194+00:00</time>
      </trkpt>
      <trkpt lat="46.13486" lon="4.59266">
        <ele>413</ele>
        <time>2023-10-18T12:06:13.777+00:00</time>
      </trkpt>
      <trkpt lat="46.13489" lon="4.59268">
        <ele>418</ele>
        <time>2023-10-18T12:06:18.314+00:00</time>
      </trkpt>
      <trkpt lat="46.13493" lon="4.59271">
        <ele>418</ele>
        <time>2023-10-18T12:06:22.914+00:00</time>
      </trkpt>
      <trkpt lat="46.13498" lon="4.59275">
        <ele>418</ele>
        <time>2023-10-18T12:06:27.614+00:00</time>
      </trkpt>
      <trkpt lat="46.13502" lon="4.59276">
        <ele>418</ele>
        <time>2023-10-18T12:06:31.734+00:00</time>
      </trkpt>
      <trkpt lat="46.13507" lon="4.59279">
        <ele>418</ele>
        <time>2023-10-18T12:06:36.334+00:00</time>
      </trkpt>
      <trkpt lat="46.1351" lon="4.5928">
        <ele>418</ele>
        <time>2023-10-18T12:06:40.294+00:00</time>
      </trkpt>
      <trkpt lat="46.13515" lon="4.59281">
        <ele>424</ele>
        <time>2023-10-18T12:06:44.616+00:00</time>
      </trkpt>
      <trkpt lat="46.1352" lon="4.59282">
        <ele>424</ele>
        <time>2023-10-18T12:06:49.538+00:00</time>
      </trkpt>
      <trkpt lat="46.13525" lon="4.59285">
        <ele>424</ele>
        <time>2023-10-18T12:06:53.874+00:00</time>
      </trkpt>
      <trkpt lat="46.13528" lon="4.59288">
        <ele>424</ele>
        <time>2023-10-18T12:06:57.874+00:00</time>
      </trkpt>
      <trkpt lat="46.13532" lon="4.5929">
        <ele>424</ele>
        <time>2023-10-18T12:07:01.874+00:00</time>
      </trkpt>
      <trkpt lat="46.13536" lon="4.59293">
        <ele>419</ele>
        <time>2023-10-18T12:07:05.894+00:00</time>
      </trkpt>
      <trkpt lat="46.13539" lon="4.59295">
        <ele>419</ele>
        <time>2023-10-18T12:07:10.434+00:00</time>
      </trkpt>
      <trkpt lat="46.13544" lon="4.59297">
        <ele>426</ele>
        <time>2023-10-18T12:07:14.754+00:00</time>
      </trkpt>
      <trkpt lat="46.13547" lon="4.59299">
        <ele>426</ele>
        <time>2023-10-18T12:07:18.714+00:00</time>
      </trkpt>
      <trkpt lat="46.13552" lon="4.593">
        <ele>426</ele>
        <time>2023-10-18T12:07:23.314+00:00</time>
      </trkpt>
      <trkpt lat="46.13557" lon="4.59302">
        <ele>426</ele>
        <time>2023-10-18T12:07:27.414+00:00</time>
      </trkpt>
      <trkpt lat="46.1356" lon="4.59305">
        <ele>426</ele>
        <time>2023-10-18T12:07:31.614+00:00</time>
      </trkpt>
      <trkpt lat="46.13564" lon="4.59307">
        <ele>426</ele>
        <time>2023-10-18T12:07:35.714+00:00</time>
      </trkpt>
      <trkpt lat="46.13568" lon="4.59309">
        <ele>426</ele>
        <time>2023-10-18T12:07:39.814+00:00</time>
      </trkpt>
      <trkpt lat="46.13572" lon="4.59312">
        <ele>433</ele>
        <time>2023-10-18T12:07:44.014+00:00</time>
      </trkpt>
      <trkpt lat="46.13576" lon="4.59314">
        <ele>433</ele>
        <time>2023-10-18T12:07:48.634+00:00</time>
      </trkpt>
      <trkpt lat="46.13579" lon="4.59315">
        <ele>433</ele>
        <time>2023-10-18T12:07:52.994+00:00</time>
      </trkpt>
      <trkpt lat="46.13582" lon="4.59316">
        <ele>433</ele>
        <time>2023-10-18T12:07:56.894+00:00</time>
      </trkpt>
      <trkpt lat="46.13586" lon="4.59318">
        <ele>433</ele>
        <time>2023-10-18T12:08:01.494+00:00</time>
      </trkpt>
      <trkpt lat="46.1359" lon="4.59321">
        <ele>426</ele>
        <time>2023-10-18T12:08:06.094+00:00</time>
      </trkpt>
      <trkpt lat="46.13594" lon="4.59323">
        <ele>426</ele>
        <time>2023-10-18T12:08:10.014+00:00</time>
      </trkpt>
      <trkpt lat="46.13598" lon="4.59325">
        <ele>432</ele>
        <time>2023-10-18T12:08:15.174+00:00</time>
      </trkpt>
      <trkpt lat="46.136" lon="4.59328">
        <ele>432</ele>
        <time>2023-10-18T12:08:19.534+00:00</time>
      </trkpt>
      <trkpt lat="46.13604" lon="4.5933">
        <ele>432</ele>
        <time>2023-10-18T12:08:23.634+00:00</time>
      </trkpt>
      <trkpt lat="46.13608" lon="4.59333">
        <ele>432</ele>
        <time>2023-10-18T12:08:28.234+00:00</time>
      </trkpt>
      <trkpt lat="46.13612" lon="4.59334">
        <ele>432</ele>
        <time>2023-10-18T12:08:32.434+00:00</time>
      </trkpt>
      <trkpt lat="46.13615" lon="4.59334">
        <ele>432</ele>
        <time>2023-10-18T12:08:36.434+00:00</time>
      </trkpt>
      <trkpt lat="46.13618" lon="4.59335">
        <ele>432</ele>
        <time>2023-10-18T12:08:41.038+00:00</time>
      </trkpt>
      <trkpt lat="46.1362" lon="4.59335">
        <ele>432</ele>
        <time>2023-10-18T12:08:45.134+00:00</time>
      </trkpt>
      <trkpt lat="46.13623" lon="4.59333">
        <ele>432</ele>
        <time>2023-10-18T12:08:49.616+00:00</time>
      </trkpt>
      <trkpt lat="46.13623" lon="4.59327">
        <ele>432</ele>
        <time>2023-10-18T12:08:54.534+00:00</time>
      </trkpt>
      <trkpt lat="46.13623" lon="4.59322">
        <ele>432</ele>
        <time>2023-10-18T12:08:59.234+00:00</time>
      </trkpt>
      <trkpt lat="46.13621" lon="4.59318">
        <ele>441</ele>
        <time>2023-10-18T12:09:03.314+00:00</time>
      </trkpt>
      <trkpt lat="46.13619" lon="4.59316">
        <ele>441</ele>
        <time>2023-10-18T12:09:07.854+00:00</time>
      </trkpt>
      <trkpt lat="46.13617" lon="4.5931">
        <ele>441</ele>
        <time>2023-10-18T12:09:12.258+00:00</time>
      </trkpt>
      <trkpt lat="46.13615" lon="4.59305">
        <ele>441</ele>
        <time>2023-10-18T12:09:16.354+00:00</time>
      </trkpt>
      <trkpt lat="46.13613" lon="4.593">
        <ele>441</ele>
        <time>2023-10-18T12:09:20.874+00:00</time>
      </trkpt>
      <trkpt lat="46.1361" lon="4.59295">
        <ele>441</ele>
        <time>2023-10-18T12:09:24.754+00:00</time>
      </trkpt>
      <trkpt lat="46.13607" lon="4.5929">
        <ele>448</ele>
        <time>2023-10-18T12:09:29.214+00:00</time>
      </trkpt>
      <trkpt lat="46.13605" lon="4.59286">
        <ele>448</ele>
        <time>2023-10-18T12:09:33.514+00:00</time>
      </trkpt>
      <trkpt lat="46.13604" lon="4.59282">
        <ele>448</ele>
        <time>2023-10-18T12:09:37.734+00:00</time>
      </trkpt>
      <trkpt lat="46.13601" lon="4.59276">
        <ele>448</ele>
        <time>2023-10-18T12:09:42.577+00:00</time>
      </trkpt>
      <trkpt lat="46.13599" lon="4.59271">
        <ele>448</ele>
        <time>2023-10-18T12:09:46.534+00:00</time>
      </trkpt>
      <trkpt lat="46.13596" lon="4.59267">
        <ele>441</ele>
        <time>2023-10-18T12:09:50.534+00:00</time>
      </trkpt>
      <trkpt lat="46.13593" lon="4.59263">
        <ele>448</ele>
        <time>2023-10-18T12:09:55.077+00:00</time>
      </trkpt>
      <trkpt lat="46.1359" lon="4.59257">
        <ele>448</ele>
        <time>2023-10-18T12:09:59.174+00:00</time>
      </trkpt>
      <trkpt lat="46.13588" lon="4.59252">
        <ele>448</ele>
        <time>2023-10-18T12:10:02.974+00:00</time>
      </trkpt>
      <trkpt lat="46.13584" lon="4.59247">
        <ele>448</ele>
        <time>2023-10-18T12:10:07.194+00:00</time>
      </trkpt>
      <trkpt lat="46.13581" lon="4.59243">
        <ele>448</ele>
        <time>2023-10-18T12:10:11.614+00:00</time>
      </trkpt>
      <trkpt lat="46.13578" lon="4.5924">
        <ele>448</ele>
        <time>2023-10-18T12:10:15.615+00:00</time>
      </trkpt>
      <trkpt lat="46.13575" lon="4.59234">
        <ele>456</ele>
        <time>2023-10-18T12:10:20.234+00:00</time>
      </trkpt>
      <trkpt lat="46.13574" lon="4.59229">
        <ele>456</ele>
        <time>2023-10-18T12:10:24.834+00:00</time>
      </trkpt>
      <trkpt lat="46.13573" lon="4.59223">
        <ele>456</ele>
        <time>2023-10-18T12:10:28.754+00:00</time>
      </trkpt>
      <trkpt lat="46.13571" lon="4.59218">
        <ele>456</ele>
        <time>2023-10-18T12:10:33.174+00:00</time>
      </trkpt>
      <trkpt lat="46.13568" lon="4.59215">
        <ele>448</ele>
        <time>2023-10-18T12:10:37.794+00:00</time>
      </trkpt>
      <trkpt lat="46.13565" lon="4.59212">
        <ele>448</ele>
        <time>2023-10-18T12:10:41.814+00:00</time>
      </trkpt>
      <trkpt lat="46.13562" lon="4.59208">
        <ele>457</ele>
        <time>2023-10-18T12:10:46.370+00:00</time>
      </trkpt>
      <trkpt lat="46.13559" lon="4.59202">
        <ele>457</ele>
        <time>2023-10-18T12:10:50.314+00:00</time>
      </trkpt>
      <trkpt lat="46.13555" lon="4.59197">
        <ele>457</ele>
        <time>2023-10-18T12:10:54.314+00:00</time>
      </trkpt>
      <trkpt lat="46.13553" lon="4.59193">
        <ele>457</ele>
        <time>2023-10-18T12:10:58.314+00:00</time>
      </trkpt>
      <trkpt lat="46.1355" lon="4.59189">
        <ele>457</ele>
        <time>2023-10-18T12:11:03.054+00:00</time>
      </trkpt>
      <trkpt lat="46.13547" lon="4.59185">
        <ele>457</ele>
        <time>2023-10-18T12:11:07.620+00:00</time>
      </trkpt>
      <trkpt lat="46.13545" lon="4.59181">
        <ele>457</ele>
        <time>2023-10-18T12:11:11.614+00:00</time>
      </trkpt>
      <trkpt lat="46.13542" lon="4.59177">
        <ele>462</ele>
        <time>2023-10-18T12:11:16.138+00:00</time>
      </trkpt>
      <trkpt lat="46.13539" lon="4.59172">
        <ele>455</ele>
        <time>2023-10-18T12:11:20.094+00:00</time>
      </trkpt>
      <trkpt lat="46.13537" lon="4.59167">
        <ele>455</ele>
        <time>2023-10-18T12:11:24.094+00:00</time>
      </trkpt>
      <trkpt lat="46.13535" lon="4.59161">
        <ele>455</ele>
        <time>2023-10-18T12:11:28.494+00:00</time>
      </trkpt>
      <trkpt lat="46.13534" lon="4.59155">
        <ele>455</ele>
        <time>2023-10-18T12:11:33.094+00:00</time>
      </trkpt>
      <trkpt lat="46.13531" lon="4.59151">
        <ele>460</ele>
        <time>2023-10-18T12:11:37.614+00:00</time>
      </trkpt>
      <trkpt lat="46.13527" lon="4.59146">
        <ele>460</ele>
        <time>2023-10-18T12:11:42.134+00:00</time>
      </trkpt>
      <trkpt lat="46.13523" lon="4.59142">
        <ele>460</ele>
        <time>2023-10-18T12:11:46.134+00:00</time>
      </trkpt>
      <trkpt lat="46.13521" lon="4.59137">
        <ele>460</ele>
        <time>2023-10-18T12:11:50.234+00:00</time>
      </trkpt>
      <trkpt lat="46.13519" lon="4.59132">
        <ele>460</ele>
        <time>2023-10-18T12:11:54.734+00:00</time>
      </trkpt>
      <trkpt lat="46.13516" lon="4.59128">
        <ele>460</ele>
        <time>2023-10-18T12:11:58.834+00:00</time>
      </trkpt>
      <trkpt lat="46.13514" lon="4.59124">
        <ele>468</ele>
        <time>2023-10-18T12:12:02.934+00:00</time>
      </trkpt>
      <trkpt lat="46.13511" lon="4.59119">
        <ele>460</ele>
        <time>2023-10-18T12:12:07.634+00:00</time>
      </trkpt>
      <trkpt lat="46.13508" lon="4.59115">
        <ele>460</ele>
        <time>2023-10-18T12:12:11.754+00:00</time>
      </trkpt>
      <trkpt lat="46.13505" lon="4.59111">
        <ele>460</ele>
        <time>2023-10-18T12:12:16.194+00:00</time>
      </trkpt>
      <trkpt lat="46.13502" lon="4.59107">
        <ele>460</ele>
        <time>2023-10-18T12:12:20.214+00:00</time>
      </trkpt>
      <trkpt lat="46.13499" lon="4.59102">
        <ele>460</ele>
        <time>2023-10-18T12:12:24.414+00:00</time>
      </trkpt>
      <trkpt lat="46.13496" lon="4.59097">
        <ele>460</ele>
        <time>2023-10-18T12:12:28.534+00:00</time>
      </trkpt>
      <trkpt lat="46.13493" lon="4.59092">
        <ele>468</ele>
        <time>2023-10-18T12:12:33.134+00:00</time>
      </trkpt>
      <trkpt lat="46.13491" lon="4.59088">
        <ele>468</ele>
        <time>2023-10-18T12:12:37.634+00:00</time>
      </trkpt>
      <trkpt lat="46.13489" lon="4.59083">
        <ele>468</ele>
        <time>2023-10-18T12:12:42.174+00:00</time>
      </trkpt>
      <trkpt lat="46.13486" lon="4.5908">
        <ele>461</ele>
        <time>2023-10-18T12:12:46.194+00:00</time>
      </trkpt>
      <trkpt lat="46.13482" lon="4.59077">
        <ele>461</ele>
        <time>2023-10-18T12:12:50.194+00:00</time>
      </trkpt>
      <trkpt lat="46.13479" lon="4.59073">
        <ele>461</ele>
        <time>2023-10-18T12:12:54.794+00:00</time>
      </trkpt>
      <trkpt lat="46.13477" lon="4.59068">
        <ele>468</ele>
        <time>2023-10-18T12:12:58.794+00:00</time>
      </trkpt>
      <trkpt lat="46.13474" lon="4.59064">
        <ele>468</ele>
        <time>2023-10-18T12:13:03.294+00:00</time>
      </trkpt>
      <trkpt lat="46.13471" lon="4.59061">
        <ele>468</ele>
        <time>2023-10-18T12:13:07.314+00:00</time>
      </trkpt>
      <trkpt lat="46.13467" lon="4.59058">
        <ele>468</ele>
        <time>2023-10-18T12:13:11.894+00:00</time>
      </trkpt>
      <trkpt lat="46.13463" lon="4.59054">
        <ele>468</ele>
        <time>2023-10-18T12:13:16.494+00:00</time>
      </trkpt>
      <trkpt lat="46.1346" lon="4.59051">
        <ele>468</ele>
        <time>2023-10-18T12:13:20.494+00:00</time>
      </trkpt>
      <trkpt lat="46.13457" lon="4.59047">
        <ele>464</ele>
        <time>2023-10-18T12:13:25.498+00:00</time>
      </trkpt>
      <trkpt lat="46.13454" lon="4.59044">
        <ele>464</ele>
        <time>2023-10-18T12:13:30.497+00:00</time>
      </trkpt>
      <trkpt lat="46.13451" lon="4.5904">
        <ele>470</ele>
        <time>2023-10-18T12:13:34.494+00:00</time>
      </trkpt>
      <trkpt lat="46.13448" lon="4.59035">
        <ele>470</ele>
        <time>2023-10-18T12:13:39.619+00:00</time>
      </trkpt>
      <trkpt lat="46.13444" lon="4.5903">
        <ele>470</ele>
        <time>2023-10-18T12:13:44.214+00:00</time>
      </trkpt>
      <trkpt lat="46.13442" lon="4.59024">
        <ele>470</ele>
        <time>2023-10-18T12:13:48.314+00:00</time>
      </trkpt>
      <trkpt lat="46.1344" lon="4.59019">
        <ele>470</ele>
        <time>2023-10-18T12:13:52.834+00:00</time>
      </trkpt>
      <trkpt lat="46.13438" lon="4.59014">
        <ele>470</ele>
        <time>2023-10-18T12:13:57.034+00:00</time>
      </trkpt>
      <trkpt lat="46.13436" lon="4.5901">
        <ele>477</ele>
        <time>2023-10-18T12:14:01.634+00:00</time>
      </trkpt>
      <trkpt lat="46.13434" lon="4.59006">
        <ele>477</ele>
        <time>2023-10-18T12:14:06.134+00:00</time>
      </trkpt>
      <trkpt lat="46.13431" lon="4.59003">
        <ele>477</ele>
        <time>2023-10-18T12:14:10.234+00:00</time>
      </trkpt>
      <trkpt lat="46.13428" lon="4.58999">
        <ele>472</ele>
        <time>2023-10-18T12:14:14.434+00:00</time>
      </trkpt>
      <trkpt lat="46.13425" lon="4.58996">
        <ele>472</ele>
        <time>2023-10-18T12:14:18.634+00:00</time>
      </trkpt>
      <trkpt lat="46.13421" lon="4.58991">
        <ele>472</ele>
        <time>2023-10-18T12:14:22.634+00:00</time>
      </trkpt>
      <trkpt lat="46.13419" lon="4.58987">
        <ele>472</ele>
        <time>2023-10-18T12:14:26.834+00:00</time>
      </trkpt>
      <trkpt lat="46.13416" lon="4.58983">
        <ele>478</ele>
        <time>2023-10-18T12:14:31.034+00:00</time>
      </trkpt>
      <trkpt lat="46.13414" lon="4.58979">
        <ele>478</ele>
        <time>2023-10-18T12:14:35.474+00:00</time>
      </trkpt>
      <trkpt lat="46.13411" lon="4.58976">
        <ele>478</ele>
        <time>2023-10-18T12:14:39.474+00:00</time>
      </trkpt>
      <trkpt lat="46.13408" lon="4.58971">
        <ele>478</ele>
        <time>2023-10-18T12:14:44.094+00:00</time>
      </trkpt>
      <trkpt lat="46.13405" lon="4.58966">
        <ele>478</ele>
        <time>2023-10-18T12:14:48.134+00:00</time>
      </trkpt>
      <trkpt lat="46.13401" lon="4.58961">
        <ele>474</ele>
        <time>2023-10-18T12:14:52.717+00:00</time>
      </trkpt>
      <trkpt lat="46.13398" lon="4.58958">
        <ele>481</ele>
        <time>2023-10-18T12:14:56.834+00:00</time>
      </trkpt>
      <trkpt lat="46.13395" lon="4.58956">
        <ele>481</ele>
        <time>2023-10-18T12:15:00.854+00:00</time>
      </trkpt>
      <trkpt lat="46.13392" lon="4.58952">
        <ele>481</ele>
        <time>2023-10-18T12:15:05.314+00:00</time>
      </trkpt>
      <trkpt lat="46.1339" lon="4.58948">
        <ele>481</ele>
        <time>2023-10-18T12:15:09.797+00:00</time>
      </trkpt>
      <trkpt lat="46.13388" lon="4.58942">
        <ele>481</ele>
        <time>2023-10-18T12:15:14.414+00:00</time>
      </trkpt>
      <trkpt lat="46.13387" lon="4.58939">
        <ele>481</ele>
        <time>2023-10-18T12:15:18.434+00:00</time>
      </trkpt>
      <trkpt lat="46.13385" lon="4.58934">
        <ele>481</ele>
        <time>2023-10-18T12:15:22.354+00:00</time>
      </trkpt>
      <trkpt lat="46.13382" lon="4.58929">
        <ele>487</ele>
        <time>2023-10-18T12:15:26.974+00:00</time>
      </trkpt>
      <trkpt lat="46.1338" lon="4.58924">
        <ele>487</ele>
        <time>2023-10-18T12:15:31.574+00:00</time>
      </trkpt>
      <trkpt lat="46.13377" lon="4.58919">
        <ele>487</ele>
        <time>2023-10-18T12:15:35.914+00:00</time>
      </trkpt>
      <trkpt lat="46.13376" lon="4.58916">
        <ele>487</ele>
        <time>2023-10-18T12:15:40.454+00:00</time>
      </trkpt>
      <trkpt lat="46.13374" lon="4.58912">
        <ele>486</ele>
        <time>2023-10-18T12:15:44.314+00:00</time>
      </trkpt>
      <trkpt lat="46.13372" lon="4.58908">
        <ele>486</ele>
        <time>2023-10-18T12:15:48.214+00:00</time>
      </trkpt>
      <trkpt lat="46.1337" lon="4.58904">
        <ele>486</ele>
        <time>2023-10-18T12:15:52.654+00:00</time>
      </trkpt>
      <trkpt lat="46.13367" lon="4.58901">
        <ele>490</ele>
        <time>2023-10-18T12:15:57.314+00:00</time>
      </trkpt>
      <trkpt lat="46.13365" lon="4.58897">
        <ele>490</ele>
        <time>2023-10-18T12:16:01.314+00:00</time>
      </trkpt>
      <trkpt lat="46.13364" lon="4.58894">
        <ele>490</ele>
        <time>2023-10-18T12:16:05.234+00:00</time>
      </trkpt>
      <trkpt lat="46.13361" lon="4.58884">
        <ele>490</ele>
        <time>2023-10-18T12:16:55.618+00:00</time>
      </trkpt>
      <trkpt lat="46.13361" lon="4.5888">
        <ele>490</ele>
        <time>2023-10-18T12:17:00.034+00:00</time>
      </trkpt>
      <trkpt lat="46.13358" lon="4.58875">
        <ele>496</ele>
        <time>2023-10-18T12:17:04.738+00:00</time>
      </trkpt>
      <trkpt lat="46.13355" lon="4.58868">
        <ele>496</ele>
        <time>2023-10-18T12:17:09.314+00:00</time>
      </trkpt>
      <trkpt lat="46.13353" lon="4.58862">
        <ele>496</ele>
        <time>2023-10-18T12:17:13.314+00:00</time>
      </trkpt>
      <trkpt lat="46.13351" lon="4.58857">
        <ele>496</ele>
        <time>2023-10-18T12:17:17.854+00:00</time>
      </trkpt>
      <trkpt lat="46.13351" lon="4.58851">
        <ele>496</ele>
        <time>2023-10-18T12:17:22.454+00:00</time>
      </trkpt>
      <trkpt lat="46.13352" lon="4.58846">
        <ele>499</ele>
        <time>2023-10-18T12:17:27.574+00:00</time>
      </trkpt>
      <trkpt lat="46.13355" lon="4.58843">
        <ele>499</ele>
        <time>2023-10-18T12:17:32.094+00:00</time>
      </trkpt>
      <trkpt lat="46.13357" lon="4.5884">
        <ele>499</ele>
        <time>2023-10-18T12:17:35.994+00:00</time>
      </trkpt>
      <trkpt lat="46.13359" lon="4.58834">
        <ele>499</ele>
        <time>2023-10-18T12:17:40.634+00:00</time>
      </trkpt>
      <trkpt lat="46.13359" lon="4.58828">
        <ele>499</ele>
        <time>2023-10-18T12:17:44.834+00:00</time>
      </trkpt>
      <trkpt lat="46.13359" lon="4.58823">
        <ele>499</ele>
        <time>2023-10-18T12:17:49.034+00:00</time>
      </trkpt>
      <trkpt lat="46.13359" lon="4.58817">
        <ele>503</ele>
        <time>2023-10-18T12:17:53.134+00:00</time>
      </trkpt>
      <trkpt lat="46.13359" lon="4.58811">
        <ele>503</ele>
        <time>2023-10-18T12:17:57.612+00:00</time>
      </trkpt>
      <trkpt lat="46.13358" lon="4.58805">
        <ele>503</ele>
        <time>2023-10-18T12:18:01.394+00:00</time>
      </trkpt>
      <trkpt lat="46.13358" lon="4.588">
        <ele>503</ele>
        <time>2023-10-18T12:18:05.894+00:00</time>
      </trkpt>
      <trkpt lat="46.13357" lon="4.58795">
        <ele>503</ele>
        <time>2023-10-18T12:18:09.894+00:00</time>
      </trkpt>
      <trkpt lat="46.13356" lon="4.5879">
        <ele>504</ele>
        <time>2023-10-18T12:18:14.414+00:00</time>
      </trkpt>
      <trkpt lat="46.13356" lon="4.58783">
        <ele>504</ele>
        <time>2023-10-18T12:18:18.914+00:00</time>
      </trkpt>
      <trkpt lat="46.13354" lon="4.58778">
        <ele>504</ele>
        <time>2023-10-18T12:18:23.014+00:00</time>
      </trkpt>
      <trkpt lat="46.13351" lon="4.58773">
        <ele>504</ele>
        <time>2023-10-18T12:18:27.214+00:00</time>
      </trkpt>
      <trkpt lat="46.13348" lon="4.58768">
        <ele>504</ele>
        <time>2023-10-18T12:18:31.314+00:00</time>
      </trkpt>
      <trkpt lat="46.13346" lon="4.58765">
        <ele>506</ele>
        <time>2023-10-18T12:18:36.034+00:00</time>
      </trkpt>
      <trkpt lat="46.13343" lon="4.5876">
        <ele>507</ele>
        <time>2023-10-18T12:18:40.734+00:00</time>
      </trkpt>
      <trkpt lat="46.1334" lon="4.58756">
        <ele>507</ele>
        <time>2023-10-18T12:18:44.834+00:00</time>
      </trkpt>
      <trkpt lat="46.13337" lon="4.58752">
        <ele>507</ele>
        <time>2023-10-18T12:18:48.834+00:00</time>
      </trkpt>
      <trkpt lat="46.13334" lon="4.58747">
        <ele>507</ele>
        <time>2023-10-18T12:18:53.434+00:00</time>
      </trkpt>
      <trkpt lat="46.13331" lon="4.58743">
        <ele>507</ele>
        <time>2023-10-18T12:18:57.454+00:00</time>
      </trkpt>
      <trkpt lat="46.13328" lon="4.58737">
        <ele>507</ele>
        <time>2023-10-18T12:19:01.494+00:00</time>
      </trkpt>
      <trkpt lat="46.13325" lon="4.58731">
        <ele>508</ele>
        <time>2023-10-18T12:19:06.214+00:00</time>
      </trkpt>
      <trkpt lat="46.13322" lon="4.58725">
        <ele>508</ele>
        <time>2023-10-18T12:19:11.414+00:00</time>
      </trkpt>
      <trkpt lat="46.13322" lon="4.5872">
        <ele>508</ele>
        <time>2023-10-18T12:19:16.619+00:00</time>
      </trkpt>
      <trkpt lat="46.13324" lon="4.58721">
        <ele>508</ele>
        <time>2023-10-18T12:20:44.616+00:00</time>
      </trkpt>
      <trkpt lat="46.13324" lon="4.58721">
        <ele>508</ele>
        <time>2023-10-18T12:21:36.622+00:00</time>
      </trkpt>
      <trkpt lat="46.13327" lon="4.58724">
        <ele>508</ele>
        <time>2023-10-18T12:21:40.622+00:00</time>
      </trkpt>
      <trkpt lat="46.13331" lon="4.58727">
        <ele>508</ele>
        <time>2023-10-18T12:21:45.054+00:00</time>
      </trkpt>
      <trkpt lat="46.13335" lon="4.58731">
        <ele>508</ele>
        <time>2023-10-18T12:21:49.574+00:00</time>
      </trkpt>
      <trkpt lat="46.1334" lon="4.58735">
        <ele>508</ele>
        <time>2023-10-18T12:21:54.174+00:00</time>
      </trkpt>
      <trkpt lat="46.13342" lon="4.58738">
        <ele>507</ele>
        <time>2023-10-18T12:21:58.774+00:00</time>
      </trkpt>
      <trkpt lat="46.13346" lon="4.58742">
        <ele>507</ele>
        <time>2023-10-18T12:22:03.314+00:00</time>
      </trkpt>
      <trkpt lat="46.13349" lon="4.58745">
        <ele>503</ele>
        <time>2023-10-18T12:22:07.314+00:00</time>
      </trkpt>
      <trkpt lat="46.13353" lon="4.5875">
        <ele>503</ele>
        <time>2023-10-18T12:22:11.874+00:00</time>
      </trkpt>
      <trkpt lat="46.13357" lon="4.58752">
        <ele>503</ele>
        <time>2023-10-18T12:22:16.314+00:00</time>
      </trkpt>
      <trkpt lat="46.13362" lon="4.58756">
        <ele>503</ele>
        <time>2023-10-18T12:22:20.894+00:00</time>
      </trkpt>
      <trkpt lat="46.13366" lon="4.58759">
        <ele>503</ele>
        <time>2023-10-18T12:22:25.494+00:00</time>
      </trkpt>
      <trkpt lat="46.13369" lon="4.58761">
        <ele>503</ele>
        <time>2023-10-18T12:22:29.514+00:00</time>
      </trkpt>
      <trkpt lat="46.13373" lon="4.58765">
        <ele>504</ele>
        <time>2023-10-18T12:22:34.557+00:00</time>
      </trkpt>
      <trkpt lat="46.13376" lon="4.58768">
        <ele>500</ele>
        <time>2023-10-18T12:22:38.554+00:00</time>
      </trkpt>
      <trkpt lat="46.1338" lon="4.58771">
        <ele>500</ele>
        <time>2023-10-18T12:22:43.154+00:00</time>
      </trkpt>
      <trkpt lat="46.13385" lon="4.58775">
        <ele>500</ele>
        <time>2023-10-18T12:22:47.619+00:00</time>
      </trkpt>
      <trkpt lat="46.13391" lon="4.58776">
        <ele>500</ele>
        <time>2023-10-18T12:22:52.194+00:00</time>
      </trkpt>
      <trkpt lat="46.13395" lon="4.58777">
        <ele>500</ele>
        <time>2023-10-18T12:22:56.758+00:00</time>
      </trkpt>
      <trkpt lat="46.13399" lon="4.5878">
        <ele>500</ele>
        <time>2023-10-18T12:23:01.218+00:00</time>
      </trkpt>
      <trkpt lat="46.13402" lon="4.58785">
        <ele>500</ele>
        <time>2023-10-18T12:23:05.680+00:00</time>
      </trkpt>
      <trkpt lat="46.13405" lon="4.58788">
        <ele>497</ele>
        <time>2023-10-18T12:23:09.718+00:00</time>
      </trkpt>
      <trkpt lat="46.13409" lon="4.5879">
        <ele>497</ele>
        <time>2023-10-18T12:23:14.118+00:00</time>
      </trkpt>
      <trkpt lat="46.13413" lon="4.58793">
        <ele>497</ele>
        <time>2023-10-18T12:23:18.634+00:00</time>
      </trkpt>
      <trkpt lat="46.13419" lon="4.58799">
        <ele>497</ele>
        <time>2023-10-18T12:23:35.774+00:00</time>
      </trkpt>
      <trkpt lat="46.13418" lon="4.58792">
        <ele>497</ele>
        <time>2023-10-18T12:23:40.314+00:00</time>
      </trkpt>
      <trkpt lat="46.13417" lon="4.58785">
        <ele>497</ele>
        <time>2023-10-18T12:23:44.194+00:00</time>
      </trkpt>
      <trkpt lat="46.13418" lon="4.58777">
        <ele>497</ele>
        <time>2023-10-18T12:23:49.377+00:00</time>
      </trkpt>
      <trkpt lat="46.13418" lon="4.58769">
        <ele>497</ele>
        <time>2023-10-18T12:23:53.834+00:00</time>
      </trkpt>
      <trkpt lat="46.13418" lon="4.58761">
        <ele>495</ele>
        <time>2023-10-18T12:23:58.254+00:00</time>
      </trkpt>
      <trkpt lat="46.13418" lon="4.58753">
        <ele>495</ele>
        <time>2023-10-18T12:24:02.837+00:00</time>
      </trkpt>
      <trkpt lat="46.13418" lon="4.58746">
        <ele>495</ele>
        <time>2023-10-18T12:24:06.754+00:00</time>
      </trkpt>
      <trkpt lat="46.13417" lon="4.58738">
        <ele>495</ele>
        <time>2023-10-18T12:24:11.314+00:00</time>
      </trkpt>
      <trkpt lat="46.13415" lon="4.58731">
        <ele>492</ele>
        <time>2023-10-18T12:24:16.334+00:00</time>
      </trkpt>
      <trkpt lat="46.13413" lon="4.58725">
        <ele>492</ele>
        <time>2023-10-18T12:24:20.434+00:00</time>
      </trkpt>
      <trkpt lat="46.13416" lon="4.58722">
        <ele>492</ele>
        <time>2023-10-18T12:24:24.794+00:00</time>
      </trkpt>
      <trkpt lat="46.13418" lon="4.58715">
        <ele>492</ele>
        <time>2023-10-18T12:24:29.234+00:00</time>
      </trkpt>
      <trkpt lat="46.1342" lon="4.58707">
        <ele>490</ele>
        <time>2023-10-18T12:24:34.314+00:00</time>
      </trkpt>
      <trkpt lat="46.13423" lon="4.58702">
        <ele>490</ele>
        <time>2023-10-18T12:24:38.626+00:00</time>
      </trkpt>
      <trkpt lat="46.13425" lon="4.58695">
        <ele>490</ele>
        <time>2023-10-18T12:24:43.194+00:00</time>
      </trkpt>
      <trkpt lat="46.13424" lon="4.58688">
        <ele>490</ele>
        <time>2023-10-18T12:24:47.714+00:00</time>
      </trkpt>
      <trkpt lat="46.1342" lon="4.58683">
        <ele>490</ele>
        <time>2023-10-18T12:24:51.814+00:00</time>
      </trkpt>
      <trkpt lat="46.13416" lon="4.58678">
        <ele>487</ele>
        <time>2023-10-18T12:24:56.514+00:00</time>
      </trkpt>
      <trkpt lat="46.13413" lon="4.58671">
        <ele>487</ele>
        <time>2023-10-18T12:25:01.214+00:00</time>
      </trkpt>
      <trkpt lat="46.13412" lon="4.58663">
        <ele>487</ele>
        <time>2023-10-18T12:25:05.934+00:00</time>
      </trkpt>
      <trkpt lat="46.13414" lon="4.58657">
        <ele>487</ele>
        <time>2023-10-18T12:25:10.438+00:00</time>
      </trkpt>
      <trkpt lat="46.13417" lon="4.58653">
        <ele>485</ele>
        <time>2023-10-18T12:25:14.314+00:00</time>
      </trkpt>
      <trkpt lat="46.1342" lon="4.58649">
        <ele>485</ele>
        <time>2023-10-18T12:25:19.018+00:00</time>
      </trkpt>
      <trkpt lat="46.13422" lon="4.58643">
        <ele>485</ele>
        <time>2023-10-18T12:25:23.014+00:00</time>
      </trkpt>
      <trkpt lat="46.13422" lon="4.58639">
        <ele>485</ele>
        <time>2023-10-18T12:25:27.437+00:00</time>
      </trkpt>
      <trkpt lat="46.13423" lon="4.58632">
        <ele>485</ele>
        <time>2023-10-18T12:25:31.618+00:00</time>
      </trkpt>
      <trkpt lat="46.13427" lon="4.58629">
        <ele>485</ele>
        <time>2023-10-18T12:25:35.798+00:00</time>
      </trkpt>
      <trkpt lat="46.13432" lon="4.58622">
        <ele>475</ele>
        <time>2023-10-18T12:25:40.634+00:00</time>
      </trkpt>
      <trkpt lat="46.13432" lon="4.58618">
        <ele>475</ele>
        <time>2023-10-18T12:25:44.974+00:00</time>
      </trkpt>
      <trkpt lat="46.13433" lon="4.58611">
        <ele>475</ele>
        <time>2023-10-18T12:25:48.894+00:00</time>
      </trkpt>
      <trkpt lat="46.13434" lon="4.58607">
        <ele>475</ele>
        <time>2023-10-18T12:25:52.894+00:00</time>
      </trkpt>
      <trkpt lat="46.13436" lon="4.58599">
        <ele>475</ele>
        <time>2023-10-18T12:25:57.494+00:00</time>
      </trkpt>
      <trkpt lat="46.13437" lon="4.58593">
        <ele>469</ele>
        <time>2023-10-18T12:26:01.494+00:00</time>
      </trkpt>
      <trkpt lat="46.1344" lon="4.58586">
        <ele>469</ele>
        <time>2023-10-18T12:26:06.418+00:00</time>
      </trkpt>
      <trkpt lat="46.13443" lon="4.58582">
        <ele>469</ele>
        <time>2023-10-18T12:26:10.618+00:00</time>
      </trkpt>
      <trkpt lat="46.13445" lon="4.58578">
        <ele>469</ele>
        <time>2023-10-18T12:26:14.214+00:00</time>
      </trkpt>
      <trkpt lat="46.13445" lon="4.58572">
        <ele>469</ele>
        <time>2023-10-18T12:26:19.038+00:00</time>
      </trkpt>
      <trkpt lat="46.13446" lon="4.58567">
        <ele>466</ele>
        <time>2023-10-18T12:26:23.178+00:00</time>
      </trkpt>
      <trkpt lat="46.13447" lon="4.58561">
        <ele>466</ele>
        <time>2023-10-18T12:26:27.114+00:00</time>
      </trkpt>
      <trkpt lat="46.13449" lon="4.58556">
        <ele>466</ele>
        <time>2023-10-18T12:26:31.134+00:00</time>
      </trkpt>
      <trkpt lat="46.13452" lon="4.58551">
        <ele>466</ele>
        <time>2023-10-18T12:26:35.734+00:00</time>
      </trkpt>
      <trkpt lat="46.13454" lon="4.58547">
        <ele>466</ele>
        <time>2023-10-18T12:26:40.258+00:00</time>
      </trkpt>
      <trkpt lat="46.13457" lon="4.58544">
        <ele>466</ele>
        <time>2023-10-18T12:26:43.854+00:00</time>
      </trkpt>
      <trkpt lat="46.13456" lon="4.58538">
        <ele>461</ele>
        <time>2023-10-18T12:26:48.454+00:00</time>
      </trkpt>
      <trkpt lat="46.13456" lon="4.5853">
        <ele>461</ele>
        <time>2023-10-18T12:26:53.617+00:00</time>
      </trkpt>
      <trkpt lat="46.13457" lon="4.58522">
        <ele>461</ele>
        <time>2023-10-18T12:26:58.154+00:00</time>
      </trkpt>
      <trkpt lat="46.13462" lon="4.58517">
        <ele>454</ele>
        <time>2023-10-18T12:27:02.774+00:00</time>
      </trkpt>
      <trkpt lat="46.13466" lon="4.58514">
        <ele>450</ele>
        <time>2023-10-18T12:27:07.194+00:00</time>
      </trkpt>
      <trkpt lat="46.13469" lon="4.58509">
        <ele>450</ele>
        <time>2023-10-18T12:27:11.718+00:00</time>
      </trkpt>
      <trkpt lat="46.13472" lon="4.58504">
        <ele>450</ele>
        <time>2023-10-18T12:27:16.234+00:00</time>
      </trkpt>
      <trkpt lat="46.13473" lon="4.58499">
        <ele>450</ele>
        <time>2023-10-18T12:27:20.834+00:00</time>
      </trkpt>
      <trkpt lat="46.13475" lon="4.58495">
        <ele>450</ele>
        <time>2023-10-18T12:27:24.834+00:00</time>
      </trkpt>
      <trkpt lat="46.13479" lon="4.58492">
        <ele>450</ele>
        <time>2023-10-18T12:27:28.754+00:00</time>
      </trkpt>
      <trkpt lat="46.13484" lon="4.58488">
        <ele>450</ele>
        <time>2023-10-18T12:27:33.314+00:00</time>
      </trkpt>
      <trkpt lat="46.13488" lon="4.58486">
        <ele>441</ele>
        <time>2023-10-18T12:27:37.854+00:00</time>
      </trkpt>
      <trkpt lat="46.13491" lon="4.58483">
        <ele>437</ele>
        <time>2023-10-18T12:27:41.854+00:00</time>
      </trkpt>
      <trkpt lat="46.13495" lon="4.58479">
        <ele>437</ele>
        <time>2023-10-18T12:27:46.314+00:00</time>
      </trkpt>
      <trkpt lat="46.13498" lon="4.58476">
        <ele>437</ele>
        <time>2023-10-18T12:27:50.854+00:00</time>
      </trkpt>
      <trkpt lat="46.13502" lon="4.58473">
        <ele>437</ele>
        <time>2023-10-18T12:27:55.374+00:00</time>
      </trkpt>
      <trkpt lat="46.13505" lon="4.58469">
        <ele>437</ele>
        <time>2023-10-18T12:27:59.314+00:00</time>
      </trkpt>
      <trkpt lat="46.13509" lon="4.58465">
        <ele>437</ele>
        <time>2023-10-18T12:28:03.194+00:00</time>
      </trkpt>
      <trkpt lat="46.13513" lon="4.58459">
        <ele>437</ele>
        <time>2023-10-18T12:28:07.814+00:00</time>
      </trkpt>
      <trkpt lat="46.13517" lon="4.58458">
        <ele>426</ele>
        <time>2023-10-18T12:28:11.734+00:00</time>
      </trkpt>
      <trkpt lat="46.1352" lon="4.58456">
        <ele>426</ele>
        <time>2023-10-18T12:28:16.298+00:00</time>
      </trkpt>
      <trkpt lat="46.13521" lon="4.58453">
        <ele>426</ele>
        <time>2023-10-18T12:28:20.094+00:00</time>
      </trkpt>
      <trkpt lat="46.13524" lon="4.5845">
        <ele>426</ele>
        <time>2023-10-18T12:28:24.537+00:00</time>
      </trkpt>
      <trkpt lat="46.13525" lon="4.58448">
        <ele>426</ele>
        <time>2023-10-18T12:28:28.494+00:00</time>
      </trkpt>
      <trkpt lat="46.13529" lon="4.58446">
        <ele>426</ele>
        <time>2023-10-18T12:28:32.494+00:00</time>
      </trkpt>
      <trkpt lat="46.13531" lon="4.58442">
        <ele>426</ele>
        <time>2023-10-18T12:28:36.494+00:00</time>
      </trkpt>
      <trkpt lat="46.13535" lon="4.58439">
        <ele>426</ele>
        <time>2023-10-18T12:28:41.214+00:00</time>
      </trkpt>
      <trkpt lat="46.13538" lon="4.58435">
        <ele>426</ele>
        <time>2023-10-18T12:28:45.214+00:00</time>
      </trkpt>
      <trkpt lat="46.13543" lon="4.58431">
        <ele>423</ele>
        <time>2023-10-18T12:28:49.414+00:00</time>
      </trkpt>
      <trkpt lat="46.13547" lon="4.58428">
        <ele>419</ele>
        <time>2023-10-18T12:28:53.614+00:00</time>
      </trkpt>
      <trkpt lat="46.13551" lon="4.58424">
        <ele>419</ele>
        <time>2023-10-18T12:28:58.214+00:00</time>
      </trkpt>
      <trkpt lat="46.13552" lon="4.58422">
        <ele>419</ele>
        <time>2023-10-18T12:29:02.367+00:00</time>
      </trkpt>
      <trkpt lat="46.13556" lon="4.58417">
        <ele>419</ele>
        <time>2023-10-18T12:29:06.478+00:00</time>
      </trkpt>
      <trkpt lat="46.13559" lon="4.58414">
        <ele>419</ele>
        <time>2023-10-18T12:29:10.434+00:00</time>
      </trkpt>
      <trkpt lat="46.13562" lon="4.58411">
        <ele>419</ele>
        <time>2023-10-18T12:29:14.454+00:00</time>
      </trkpt>
      <trkpt lat="46.13566" lon="4.58408">
        <ele>419</ele>
        <time>2023-10-18T12:29:18.898+00:00</time>
      </trkpt>
      <trkpt lat="46.13569" lon="4.58404">
        <ele>419</ele>
        <time>2023-10-18T12:29:22.894+00:00</time>
      </trkpt>
      <trkpt lat="46.13571" lon="4.584">
        <ele>411</ele>
        <time>2023-10-18T12:29:27.494+00:00</time>
      </trkpt>
      <trkpt lat="46.13573" lon="4.58395">
        <ele>411</ele>
        <time>2023-10-18T12:29:31.494+00:00</time>
      </trkpt>
      <trkpt lat="46.13572" lon="4.58389">
        <ele>411</ele>
        <time>2023-10-18T12:29:36.094+00:00</time>
      </trkpt>
      <trkpt lat="46.13572" lon="4.58386">
        <ele>411</ele>
        <time>2023-10-18T12:29:40.534+00:00</time>
      </trkpt>
      <trkpt lat="46.13572" lon="4.58387">
        <ele>411</ele>
        <time>2023-10-18T12:30:14.618+00:00</time>
      </trkpt>
      <trkpt lat="46.13573" lon="4.58385">
        <ele>411</ele>
        <time>2023-10-18T12:30:18.914+00:00</time>
      </trkpt>
      <trkpt lat="46.13574" lon="4.5838">
        <ele>411</ele>
        <time>2023-10-18T12:30:23.314+00:00</time>
      </trkpt>
      <trkpt lat="46.13575" lon="4.58373">
        <ele>409</ele>
        <time>2023-10-18T12:30:27.174+00:00</time>
      </trkpt>
      <trkpt lat="46.13579" lon="4.58366">
        <ele>409</ele>
        <time>2023-10-18T12:30:32.074+00:00</time>
      </trkpt>
      <trkpt lat="46.13584" lon="4.58362">
        <ele>409</ele>
        <time>2023-10-18T12:30:41.334+00:00</time>
      </trkpt>
      <trkpt lat="46.13584" lon="4.58363">
        <ele>409</ele>
        <time>2023-10-18T12:30:46.194+00:00</time>
      </trkpt>
      <trkpt lat="46.13585" lon="4.58362">
        <ele>409</ele>
        <time>2023-10-18T12:30:50.234+00:00</time>
      </trkpt>
      <trkpt lat="46.13589" lon="4.58357">
        <ele>409</ele>
        <time>2023-10-18T12:30:54.254+00:00</time>
      </trkpt>
      <trkpt lat="46.13592" lon="4.58349">
        <ele>409</ele>
        <time>2023-10-18T12:30:59.274+00:00</time>
      </trkpt>
      <trkpt lat="46.13594" lon="4.58343">
        <ele>413</ele>
        <time>2023-10-18T12:31:04.398+00:00</time>
      </trkpt>
      <trkpt lat="46.13597" lon="4.5834">
        <ele>413</ele>
        <time>2023-10-18T12:31:08.514+00:00</time>
      </trkpt>
      <trkpt lat="46.13602" lon="4.58334">
        <ele>408</ele>
        <time>2023-10-18T12:31:13.514+00:00</time>
      </trkpt>
      <trkpt lat="46.13607" lon="4.58329">
        <ele>408</ele>
        <time>2023-10-18T12:31:17.314+00:00</time>
      </trkpt>
      <trkpt lat="46.13612" lon="4.58324">
        <ele>408</ele>
        <time>2023-10-18T12:31:21.734+00:00</time>
      </trkpt>
      <trkpt lat="46.13617" lon="4.58322">
        <ele>408</ele>
        <time>2023-10-18T12:31:26.117+00:00</time>
      </trkpt>
      <trkpt lat="46.13622" lon="4.58324">
        <ele>408</ele>
        <time>2023-10-18T12:31:29.894+00:00</time>
      </trkpt>
      <trkpt lat="46.13627" lon="4.58324">
        <ele>407</ele>
        <time>2023-10-18T12:31:34.634+00:00</time>
      </trkpt>
      <trkpt lat="46.13632" lon="4.58322">
        <ele>407</ele>
        <time>2023-10-18T12:31:39.014+00:00</time>
      </trkpt>
      <trkpt lat="46.13637" lon="4.58322">
        <ele>407</ele>
        <time>2023-10-18T12:31:43.334+00:00</time>
      </trkpt>
      <trkpt lat="46.13643" lon="4.58323">
        <ele>407</ele>
        <time>2023-10-18T12:31:48.178+00:00</time>
      </trkpt>
      <trkpt lat="46.13648" lon="4.58325">
        <ele>407</ele>
        <time>2023-10-18T12:31:51.894+00:00</time>
      </trkpt>
      <trkpt lat="46.13652" lon="4.58325">
        <ele>407</ele>
        <time>2023-10-18T12:31:56.214+00:00</time>
      </trkpt>
      <trkpt lat="46.13656" lon="4.58323">
        <ele>405</ele>
        <time>2023-10-18T12:32:00.154+00:00</time>
      </trkpt>
      <trkpt lat="46.13661" lon="4.58323">
        <ele>405</ele>
        <time>2023-10-18T12:32:04.754+00:00</time>
      </trkpt>
      <trkpt lat="46.13666" lon="4.58325">
        <ele>405</ele>
        <time>2023-10-18T12:32:09.218+00:00</time>
      </trkpt>
      <trkpt lat="46.13671" lon="4.58325">
        <ele>405</ele>
        <time>2023-10-18T12:32:13.638+00:00</time>
      </trkpt>
      <trkpt lat="46.13675" lon="4.58323">
        <ele>405</ele>
        <time>2023-10-18T12:32:17.574+00:00</time>
      </trkpt>
      <trkpt lat="46.1368" lon="4.58321">
        <ele>405</ele>
        <time>2023-10-18T12:32:22.034+00:00</time>
      </trkpt>
      <trkpt lat="46.13685" lon="4.58318">
        <ele>409</ele>
        <time>2023-10-18T12:32:26.718+00:00</time>
      </trkpt>
      <trkpt lat="46.1369" lon="4.58316">
        <ele>409</ele>
        <time>2023-10-18T12:32:31.234+00:00</time>
      </trkpt>
      <trkpt lat="46.13695" lon="4.58314">
        <ele>409</ele>
        <time>2023-10-18T12:32:35.754+00:00</time>
      </trkpt>
      <trkpt lat="46.13699" lon="4.58312">
        <ele>409</ele>
        <time>2023-10-18T12:32:40.254+00:00</time>
      </trkpt>
      <trkpt lat="46.13702" lon="4.5831">
        <ele>409</ele>
        <time>2023-10-18T12:32:44.874+00:00</time>
      </trkpt>
      <trkpt lat="46.13705" lon="4.58311">
        <ele>409</ele>
        <time>2023-10-18T12:38:33.616+00:00</time>
      </trkpt>
      <trkpt lat="46.13708" lon="4.58309">
        <ele>409</ele>
        <time>2023-10-18T12:38:37.814+00:00</time>
      </trkpt>
      <trkpt lat="46.13715" lon="4.58305">
        <ele>403</ele>
        <time>2023-10-18T12:38:42.314+00:00</time>
      </trkpt>
      <trkpt lat="46.13721" lon="4.58303">
        <ele>403</ele>
        <time>2023-10-18T12:38:46.314+00:00</time>
      </trkpt>
      <trkpt lat="46.13727" lon="4.58299">
        <ele>403</ele>
        <time>2023-10-18T12:38:50.854+00:00</time>
      </trkpt>
      <trkpt lat="46.13732" lon="4.58296">
        <ele>403</ele>
        <time>2023-10-18T12:38:54.854+00:00</time>
      </trkpt>
      <trkpt lat="46.13735" lon="4.58292">
        <ele>403</ele>
        <time>2023-10-18T12:38:59.417+00:00</time>
      </trkpt>
      <trkpt lat="46.13737" lon="4.58287">
        <ele>402</ele>
        <time>2023-10-18T12:39:03.314+00:00</time>
      </trkpt>
      <trkpt lat="46.13741" lon="4.58282">
        <ele>402</ele>
        <time>2023-10-18T12:39:07.774+00:00</time>
      </trkpt>
      <trkpt lat="46.13746" lon="4.58278">
        <ele>402</ele>
        <time>2023-10-18T12:39:12.194+00:00</time>
      </trkpt>
      <trkpt lat="46.1375" lon="4.58273">
        <ele>402</ele>
        <time>2023-10-18T12:39:16.794+00:00</time>
      </trkpt>
      <trkpt lat="46.13753" lon="4.58268">
        <ele>402</ele>
        <time>2023-10-18T12:39:20.754+00:00</time>
      </trkpt>
      <trkpt lat="46.13757" lon="4.58261">
        <ele>405</ele>
        <time>2023-10-18T12:39:24.994+00:00</time>
      </trkpt>
      <trkpt lat="46.13759" lon="4.58254">
        <ele>405</ele>
        <time>2023-10-18T12:39:29.194+00:00</time>
      </trkpt>
      <trkpt lat="46.13762" lon="4.58248">
        <ele>405</ele>
        <time>2023-10-18T12:39:33.574+00:00</time>
      </trkpt>
      <trkpt lat="46.13767" lon="4.58248">
        <ele>400</ele>
        <time>2023-10-18T12:39:37.854+00:00</time>
      </trkpt>
      <trkpt lat="46.13771" lon="4.58247">
        <ele>400</ele>
        <time>2023-10-18T12:39:41.754+00:00</time>
      </trkpt>
      <trkpt lat="46.13775" lon="4.58244">
        <ele>400</ele>
        <time>2023-10-18T12:40:17.894+00:00</time>
      </trkpt>
      <trkpt lat="46.1378" lon="4.58239">
        <ele>400</ele>
        <time>2023-10-18T12:40:21.714+00:00</time>
      </trkpt>
      <trkpt lat="46.13783" lon="4.58235">
        <ele>404</ele>
        <time>2023-10-18T12:40:25.814+00:00</time>
      </trkpt>
      <trkpt lat="46.13788" lon="4.58232">
        <ele>404</ele>
        <time>2023-10-18T12:40:29.834+00:00</time>
      </trkpt>
      <trkpt lat="46.13792" lon="4.58228">
        <ele>400</ele>
        <time>2023-10-18T12:40:34.368+00:00</time>
      </trkpt>
      <trkpt lat="46.13795" lon="4.58224">
        <ele>400</ele>
        <time>2023-10-18T12:40:38.314+00:00</time>
      </trkpt>
      <trkpt lat="46.13798" lon="4.5822">
        <ele>400</ele>
        <time>2023-10-18T12:40:42.314+00:00</time>
      </trkpt>
      <trkpt lat="46.13801" lon="4.58219">
        <ele>400</ele>
        <time>2023-10-18T12:40:46.214+00:00</time>
      </trkpt>
      <trkpt lat="46.13807" lon="4.58215">
        <ele>400</ele>
        <time>2023-10-18T12:40:50.734+00:00</time>
      </trkpt>
      <trkpt lat="46.13812" lon="4.5821">
        <ele>400</ele>
        <time>2023-10-18T12:40:55.314+00:00</time>
      </trkpt>
      <trkpt lat="46.13817" lon="4.58208">
        <ele>406</ele>
        <time>2023-10-18T12:40:59.854+00:00</time>
      </trkpt>
      <trkpt lat="46.13822" lon="4.58207">
        <ele>402</ele>
        <time>2023-10-18T12:41:04.314+00:00</time>
      </trkpt>
      <trkpt lat="46.13827" lon="4.58206">
        <ele>402</ele>
        <time>2023-10-18T12:41:08.818+00:00</time>
      </trkpt>
      <trkpt lat="46.13833" lon="4.58205">
        <ele>402</ele>
        <time>2023-10-18T12:41:13.014+00:00</time>
      </trkpt>
      <trkpt lat="46.13837" lon="4.58204">
        <ele>402</ele>
        <time>2023-10-18T12:41:17.134+00:00</time>
      </trkpt>
      <trkpt lat="46.13843" lon="4.58206">
        <ele>402</ele>
        <time>2023-10-18T12:41:21.838+00:00</time>
      </trkpt>
      <trkpt lat="46.13849" lon="4.58206">
        <ele>398</ele>
        <time>2023-10-18T12:41:26.294+00:00</time>
      </trkpt>
      <trkpt lat="46.13854" lon="4.58208">
        <ele>398</ele>
        <time>2023-10-18T12:41:30.914+00:00</time>
      </trkpt>
      <trkpt lat="46.13859" lon="4.58211">
        <ele>393</ele>
        <time>2023-10-18T12:41:35.474+00:00</time>
      </trkpt>
      <trkpt lat="46.13864" lon="4.58217">
        <ele>393</ele>
        <time>2023-10-18T12:41:40.074+00:00</time>
      </trkpt>
      <trkpt lat="46.13869" lon="4.5822">
        <ele>393</ele>
        <time>2023-10-18T12:41:45.074+00:00</time>
      </trkpt>
      <trkpt lat="46.13873" lon="4.58223">
        <ele>393</ele>
        <time>2023-10-18T12:41:49.618+00:00</time>
      </trkpt>
      <trkpt lat="46.13878" lon="4.58226">
        <ele>387</ele>
        <time>2023-10-18T12:41:53.619+00:00</time>
      </trkpt>
      <trkpt lat="46.13884" lon="4.5823">
        <ele>387</ele>
        <time>2023-10-18T12:41:58.178+00:00</time>
      </trkpt>
      <trkpt lat="46.13888" lon="4.58233">
        <ele>387</ele>
        <time>2023-10-18T12:42:02.694+00:00</time>
      </trkpt>
      <trkpt lat="46.13894" lon="4.58236">
        <ele>387</ele>
        <time>2023-10-18T12:42:06.794+00:00</time>
      </trkpt>
      <trkpt lat="46.13899" lon="4.58237">
        <ele>384</ele>
        <time>2023-10-18T12:42:11.214+00:00</time>
      </trkpt>
      <trkpt lat="46.13905" lon="4.58237">
        <ele>382</ele>
        <time>2023-10-18T12:42:16.138+00:00</time>
      </trkpt>
      <trkpt lat="46.13911" lon="4.58236">
        <ele>382</ele>
        <time>2023-10-18T12:42:20.174+00:00</time>
      </trkpt>
      <trkpt lat="46.13917" lon="4.58233">
        <ele>385</ele>
        <time>2023-10-18T12:42:25.194+00:00</time>
      </trkpt>
      <trkpt lat="46.13922" lon="4.58229">
        <ele>385</ele>
        <time>2023-10-18T12:42:30.098+00:00</time>
      </trkpt>
      <trkpt lat="46.13925" lon="4.58228">
        <ele>385</ele>
        <time>2023-10-18T12:42:33.954+00:00</time>
      </trkpt>
      <trkpt lat="46.13928" lon="4.5823">
        <ele>385</ele>
        <time>2023-10-18T12:42:38.494+00:00</time>
      </trkpt>
      <trkpt lat="46.13931" lon="4.58235">
        <ele>382</ele>
        <time>2023-10-18T12:42:43.134+00:00</time>
      </trkpt>
      <trkpt lat="46.13934" lon="4.58239">
        <ele>380</ele>
        <time>2023-10-18T12:42:47.554+00:00</time>
      </trkpt>
      <trkpt lat="46.13938" lon="4.58242">
        <ele>380</ele>
        <time>2023-10-18T12:42:52.014+00:00</time>
      </trkpt>
      <trkpt lat="46.13941" lon="4.58246">
        <ele>380</ele>
        <time>2023-10-18T12:42:56.621+00:00</time>
      </trkpt>
      <trkpt lat="46.13945" lon="4.58249">
        <ele>380</ele>
        <time>2023-10-18T12:43:01.234+00:00</time>
      </trkpt>
      <trkpt lat="46.13948" lon="4.5825">
        <ele>380</ele>
        <time>2023-10-18T12:43:06.434+00:00</time>
      </trkpt>
      <trkpt lat="46.13952" lon="4.58256">
        <ele>380</ele>
        <time>2023-10-18T12:43:11.374+00:00</time>
      </trkpt>
      <trkpt lat="46.13957" lon="4.58259">
        <ele>380</ele>
        <time>2023-10-18T12:43:16.437+00:00</time>
      </trkpt>
      <trkpt lat="46.13961" lon="4.58257">
        <ele>373</ele>
        <time>2023-10-18T12:43:20.414+00:00</time>
      </trkpt>
      <trkpt lat="46.13964" lon="4.58254">
        <ele>373</ele>
        <time>2023-10-18T12:43:24.934+00:00</time>
      </trkpt>
      <trkpt lat="46.13967" lon="4.58254">
        <ele>373</ele>
        <time>2023-10-18T12:43:29.534+00:00</time>
      </trkpt>
      <trkpt lat="46.1397" lon="4.58256">
        <ele>373</ele>
        <time>2023-10-18T12:43:33.454+00:00</time>
      </trkpt>
      <trkpt lat="46.13969" lon="4.58264">
        <ele>371</ele>
        <time>2023-10-18T12:43:38.054+00:00</time>
      </trkpt>
      <trkpt lat="46.13965" lon="4.58272">
        <ele>371</ele>
        <time>2023-10-18T12:43:41.874+00:00</time>
      </trkpt>
      <trkpt lat="46.13963" lon="4.58279">
        <ele>371</ele>
        <time>2023-10-18T12:43:46.318+00:00</time>
      </trkpt>
      <trkpt lat="46.13961" lon="4.58286">
        <ele>371</ele>
        <time>2023-10-18T12:43:50.418+00:00</time>
      </trkpt>
      <trkpt lat="46.13961" lon="4.58293">
        <ele>367</ele>
        <time>2023-10-18T12:43:54.414+00:00</time>
      </trkpt>
      <trkpt lat="46.13959" lon="4.58299">
        <ele>367</ele>
        <time>2023-10-18T12:43:58.414+00:00</time>
      </trkpt>
      <trkpt lat="46.13957" lon="4.58307">
        <ele>371</ele>
        <time>2023-10-18T12:44:02.914+00:00</time>
      </trkpt>
      <trkpt lat="46.13954" lon="4.58313">
        <ele>371</ele>
        <time>2023-10-18T12:44:07.478+00:00</time>
      </trkpt>
      <trkpt lat="46.13952" lon="4.58318">
        <ele>371</ele>
        <time>2023-10-18T12:44:11.454+00:00</time>
      </trkpt>
      <trkpt lat="46.1395" lon="4.58322">
        <ele>368</ele>
        <time>2023-10-18T12:44:15.354+00:00</time>
      </trkpt>
      <trkpt lat="46.13947" lon="4.58326">
        <ele>368</ele>
        <time>2023-10-18T12:44:19.854+00:00</time>
      </trkpt>
      <trkpt lat="46.13944" lon="4.58332">
        <ele>368</ele>
        <time>2023-10-18T12:44:24.454+00:00</time>
      </trkpt>
      <trkpt lat="46.13944" lon="4.58336">
        <ele>368</ele>
        <time>2023-10-18T12:44:28.414+00:00</time>
      </trkpt>
      <trkpt lat="46.13946" lon="4.58335">
        <ele>368</ele>
        <time>2023-10-18T12:44:33.114+00:00</time>
      </trkpt>
      <trkpt lat="46.13946" lon="4.58335">
        <ele>368</ele>
        <time>2023-10-18T12:44:37.214+00:00</time>
      </trkpt>
      <trkpt lat="46.13946" lon="4.58337">
        <ele>368</ele>
        <time>2023-10-18T12:44:41.814+00:00</time>
      </trkpt>
      <trkpt lat="46.13947" lon="4.58343">
        <ele>368</ele>
        <time>2023-10-18T12:44:46.414+00:00</time>
      </trkpt>
      <trkpt lat="46.13951" lon="4.58349">
        <ele>364</ele>
        <time>2023-10-18T12:44:50.314+00:00</time>
      </trkpt>
      <trkpt lat="46.13952" lon="4.58349">
        <ele>364</ele>
        <time>2023-10-18T12:44:54.854+00:00</time>
      </trkpt>
      <trkpt lat="46.13952" lon="4.5835">
        <ele>364</ele>
        <time>2023-10-18T12:44:58.774+00:00</time>
      </trkpt>
      <trkpt lat="46.13955" lon="4.58352">
        <ele>364</ele>
        <time>2023-10-18T12:45:03.278+00:00</time>
      </trkpt>
      <trkpt lat="46.13958" lon="4.58356">
        <ele>364</ele>
        <time>2023-10-18T12:45:07.194+00:00</time>
      </trkpt>
      <trkpt lat="46.13961" lon="4.58362">
        <ele>362</ele>
        <time>2023-10-18T12:45:11.214+00:00</time>
      </trkpt>
      <trkpt lat="46.13963" lon="4.58364">
        <ele>362</ele>
        <time>2023-10-18T12:45:15.134+00:00</time>
      </trkpt>
      <trkpt lat="46.13967" lon="4.58364">
        <ele>362</ele>
        <time>2023-10-18T12:45:20.154+00:00</time>
      </trkpt>
      <trkpt lat="46.1397" lon="4.58367">
        <ele>362</ele>
        <time>2023-10-18T12:45:24.154+00:00</time>
      </trkpt>
      <trkpt lat="46.13974" lon="4.5837">
        <ele>362</ele>
        <time>2023-10-18T12:45:28.174+00:00</time>
      </trkpt>
      <trkpt lat="46.13981" lon="4.58388">
        <ele>358</ele>
        <time>2023-10-18T12:46:47.314+00:00</time>
      </trkpt>
      <trkpt lat="46.13986" lon="4.5839">
        <ele>358</ele>
        <time>2023-10-18T12:46:51.857+00:00</time>
      </trkpt>
      <trkpt lat="46.13992" lon="4.58393">
        <ele>354</ele>
        <time>2023-10-18T12:46:55.874+00:00</time>
      </trkpt>
      <trkpt lat="46.13996" lon="4.58397">
        <ele>354</ele>
        <time>2023-10-18T12:47:00.374+00:00</time>
      </trkpt>
      <trkpt lat="46.14002" lon="4.58397">
        <ele>354</ele>
        <time>2023-10-18T12:47:04.874+00:00</time>
      </trkpt>
      <trkpt lat="46.14006" lon="4.58398">
        <ele>354</ele>
        <time>2023-10-18T12:47:08.874+00:00</time>
      </trkpt>
      <trkpt lat="46.14011" lon="4.58401">
        <ele>354</ele>
        <time>2023-10-18T12:47:12.874+00:00</time>
      </trkpt>
      <trkpt lat="46.14016" lon="4.58406">
        <ele>343</ele>
        <time>2023-10-18T12:47:17.514+00:00</time>
      </trkpt>
      <trkpt lat="46.14021" lon="4.58408">
        <ele>343</ele>
        <time>2023-10-18T12:47:22.017+00:00</time>
      </trkpt>
      <trkpt lat="46.14025" lon="4.5841">
        <ele>343</ele>
        <time>2023-10-18T12:47:26.214+00:00</time>
      </trkpt>
      <trkpt lat="46.1403" lon="4.58411">
        <ele>343</ele>
        <time>2023-10-18T12:47:30.977+00:00</time>
      </trkpt>
      <trkpt lat="46.14035" lon="4.58413">
        <ele>343</ele>
        <time>2023-10-18T12:47:35.434+00:00</time>
      </trkpt>
      <trkpt lat="46.1404" lon="4.58415">
        <ele>343</ele>
        <time>2023-10-18T12:47:39.934+00:00</time>
      </trkpt>
      <trkpt lat="46.14046" lon="4.58415">
        <ele>339</ele>
        <time>2023-10-18T12:47:44.454+00:00</time>
      </trkpt>
      <trkpt lat="46.1405" lon="4.58416">
        <ele>339</ele>
        <time>2023-10-18T12:47:48.894+00:00</time>
      </trkpt>
      <trkpt lat="46.14055" lon="4.58419">
        <ele>339</ele>
        <time>2023-10-18T12:47:53.494+00:00</time>
      </trkpt>
      <trkpt lat="46.1406" lon="4.5842">
        <ele>339</ele>
        <time>2023-10-18T12:47:57.854+00:00</time>
      </trkpt>
      <trkpt lat="46.14065" lon="4.58423">
        <ele>339</ele>
        <time>2023-10-18T12:48:02.194+00:00</time>
      </trkpt>
      <trkpt lat="46.14068" lon="4.58426">
        <ele>339</ele>
        <time>2023-10-18T12:48:07.454+00:00</time>
      </trkpt>
      <trkpt lat="46.1407" lon="4.58431">
        <ele>337</ele>
        <time>2023-10-18T12:48:11.914+00:00</time>
      </trkpt>
      <trkpt lat="46.14072" lon="4.58437">
        <ele>337</ele>
        <time>2023-10-18T12:48:16.434+00:00</time>
      </trkpt>
      <trkpt lat="46.14072" lon="4.58444">
        <ele>337</ele>
        <time>2023-10-18T12:48:20.434+00:00</time>
      </trkpt>
      <trkpt lat="46.14072" lon="4.58449">
        <ele>337</ele>
        <time>2023-10-18T12:48:24.314+00:00</time>
      </trkpt>
      <trkpt lat="46.1407" lon="4.58455">
        <ele>337</ele>
        <time>2023-10-18T12:48:29.134+00:00</time>
      </trkpt>
      <trkpt lat="46.1407" lon="4.5846">
        <ele>338</ele>
        <time>2023-10-18T12:48:32.934+00:00</time>
      </trkpt>
      <trkpt lat="46.14068" lon="4.58463">
        <ele>341</ele>
        <time>2023-10-18T12:48:37.314+00:00</time>
      </trkpt>
      <trkpt lat="46.1407" lon="4.58467">
        <ele>338</ele>
        <time>2023-10-18T12:48:42.034+00:00</time>
      </trkpt>
      <trkpt lat="46.14073" lon="4.58471">
        <ele>338</ele>
        <time>2023-10-18T12:48:45.794+00:00</time>
      </trkpt>
      <trkpt lat="46.14077" lon="4.58473">
        <ele>338</ele>
        <time>2023-10-18T12:48:50.554+00:00</time>
      </trkpt>
      <trkpt lat="46.14084" lon="4.58471">
        <ele>338</ele>
        <time>2023-10-18T12:48:54.894+00:00</time>
      </trkpt>
      <trkpt lat="46.14092" lon="4.58474">
        <ele>338</ele>
        <time>2023-10-18T12:48:59.414+00:00</time>
      </trkpt>
      <trkpt lat="46.14099" lon="4.58475">
        <ele>337</ele>
        <time>2023-10-18T12:49:03.434+00:00</time>
      </trkpt>
      <trkpt lat="46.14106" lon="4.58476">
        <ele>337</ele>
        <time>2023-10-18T12:49:08.038+00:00</time>
      </trkpt>
      <trkpt lat="46.14109" lon="4.58476">
        <ele>337</ele>
        <time>2023-10-18T12:49:11.954+00:00</time>
      </trkpt>
      <trkpt lat="46.14114" lon="4.58477">
        <ele>337</ele>
        <time>2023-10-18T12:49:15.894+00:00</time>
      </trkpt>
      <trkpt lat="46.14119" lon="4.5848">
        <ele>337</ele>
        <time>2023-10-18T12:49:20.397+00:00</time>
      </trkpt>
      <trkpt lat="46.14122" lon="4.58484">
        <ele>337</ele>
        <time>2023-10-18T12:49:24.154+00:00</time>
      </trkpt>
      <trkpt lat="46.14126" lon="4.58488">
        <ele>338</ele>
        <time>2023-10-18T12:49:28.154+00:00</time>
      </trkpt>
      <trkpt lat="46.1413" lon="4.58492">
        <ele>338</ele>
        <time>2023-10-18T12:49:32.754+00:00</time>
      </trkpt>
      <trkpt lat="46.14134" lon="4.58496">
        <ele>338</ele>
        <time>2023-10-18T12:49:36.754+00:00</time>
      </trkpt>
      <trkpt lat="46.14138" lon="4.58501">
        <ele>338</ele>
        <time>2023-10-18T12:49:40.774+00:00</time>
      </trkpt>
      <trkpt lat="46.14143" lon="4.58505">
        <ele>338</ele>
        <time>2023-10-18T12:49:45.194+00:00</time>
      </trkpt>
      <trkpt lat="46.14147" lon="4.58509">
        <ele>338</ele>
        <time>2023-10-18T12:49:49.194+00:00</time>
      </trkpt>
      <trkpt lat="46.1415" lon="4.58512">
        <ele>338</ele>
        <time>2023-10-18T12:49:53.214+00:00</time>
      </trkpt>
      <trkpt lat="46.14153" lon="4.58516">
        <ele>339</ele>
        <time>2023-10-18T12:49:57.134+00:00</time>
      </trkpt>
      <trkpt lat="46.14156" lon="4.58521">
        <ele>339</ele>
        <time>2023-10-18T12:50:01.634+00:00</time>
      </trkpt>
      <trkpt lat="46.1416" lon="4.58527">
        <ele>339</ele>
        <time>2023-10-18T12:50:06.154+00:00</time>
      </trkpt>
      <trkpt lat="46.14163" lon="4.58535">
        <ele>339</ele>
        <time>2023-10-18T12:50:10.754+00:00</time>
      </trkpt>
      <trkpt lat="46.14167" lon="4.58541">
        <ele>339</ele>
        <time>2023-10-18T12:50:15.368+00:00</time>
      </trkpt>
      <trkpt lat="46.1417" lon="4.58546">
        <ele>335</ele>
        <time>2023-10-18T12:50:19.314+00:00</time>
      </trkpt>
      <trkpt lat="46.14174" lon="4.58548">
        <ele>335</ele>
        <time>2023-10-18T12:50:23.814+00:00</time>
      </trkpt>
      <trkpt lat="46.14178" lon="4.5855">
        <ele>335</ele>
        <time>2023-10-18T12:50:27.814+00:00</time>
      </trkpt>
      <trkpt lat="46.14181" lon="4.58553">
        <ele>338</ele>
        <time>2023-10-18T12:50:32.314+00:00</time>
      </trkpt>
      <trkpt lat="46.14185" lon="4.58553">
        <ele>338</ele>
        <time>2023-10-18T12:50:36.854+00:00</time>
      </trkpt>
      <trkpt lat="46.14188" lon="4.58549">
        <ele>338</ele>
        <time>2023-10-18T12:50:41.314+00:00</time>
      </trkpt>
      <trkpt lat="46.14189" lon="4.58544">
        <ele>338</ele>
        <time>2023-10-18T12:50:45.314+00:00</time>
      </trkpt>
      <trkpt lat="46.14187" lon="4.58539">
        <ele>341</ele>
        <time>2023-10-18T12:50:49.794+00:00</time>
      </trkpt>
      <trkpt lat="46.14185" lon="4.58533">
        <ele>341</ele>
        <time>2023-10-18T12:50:54.314+00:00</time>
      </trkpt>
      <trkpt lat="46.14183" lon="4.58527">
        <ele>341</ele>
        <time>2023-10-18T12:50:59.334+00:00</time>
      </trkpt>
      <trkpt lat="46.14183" lon="4.58522">
        <ele>341</ele>
        <time>2023-10-18T12:51:04.623+00:00</time>
      </trkpt>
      <trkpt lat="46.1418" lon="4.58516">
        <ele>339</ele>
        <time>2023-10-18T12:51:09.094+00:00</time>
      </trkpt>
      <trkpt lat="46.14178" lon="4.58511">
        <ele>342</ele>
        <time>2023-10-18T12:51:13.614+00:00</time>
      </trkpt>
      <trkpt lat="46.14176" lon="4.58506">
        <ele>342</ele>
        <time>2023-10-18T12:51:17.394+00:00</time>
      </trkpt>
      <trkpt lat="46.14174" lon="4.58501">
        <ele>342</ele>
        <time>2023-10-18T12:51:21.654+00:00</time>
      </trkpt>
      <trkpt lat="46.14171" lon="4.58496">
        <ele>342</ele>
        <time>2023-10-18T12:51:26.118+00:00</time>
      </trkpt>
      <trkpt lat="46.14169" lon="4.58491">
        <ele>342</ele>
        <time>2023-10-18T12:51:30.397+00:00</time>
      </trkpt>
      <trkpt lat="46.14168" lon="4.58485">
        <ele>345</ele>
        <time>2023-10-18T12:51:34.474+00:00</time>
      </trkpt>
      <trkpt lat="46.14166" lon="4.58479">
        <ele>345</ele>
        <time>2023-10-18T12:51:38.898+00:00</time>
      </trkpt>
      <trkpt lat="46.14164" lon="4.58473">
        <ele>345</ele>
        <time>2023-10-18T12:51:43.174+00:00</time>
      </trkpt>
      <trkpt lat="46.14162" lon="4.58468">
        <ele>345</ele>
        <time>2023-10-18T12:51:47.774+00:00</time>
      </trkpt>
      <trkpt lat="46.14159" lon="4.5846">
        <ele>345</ele>
        <time>2023-10-18T12:51:52.274+00:00</time>
      </trkpt>
      <trkpt lat="46.14157" lon="4.58453">
        <ele>349</ele>
        <time>2023-10-18T12:51:57.138+00:00</time>
      </trkpt>
      <trkpt lat="46.14156" lon="4.58447">
        <ele>349</ele>
        <time>2023-10-18T12:52:01.374+00:00</time>
      </trkpt>
      <trkpt lat="46.14157" lon="4.58441">
        <ele>349</ele>
        <time>2023-10-18T12:52:06.414+00:00</time>
      </trkpt>
      <trkpt lat="46.14158" lon="4.58436">
        <ele>349</ele>
        <time>2023-10-18T12:52:10.694+00:00</time>
      </trkpt>
      <trkpt lat="46.14157" lon="4.58432">
        <ele>349</ele>
        <time>2023-10-18T12:52:15.214+00:00</time>
      </trkpt>
      <trkpt lat="46.14155" lon="4.58427">
        <ele>354</ele>
        <time>2023-10-18T12:52:19.834+00:00</time>
      </trkpt>
      <trkpt lat="46.14153" lon="4.58423">
        <ele>354</ele>
        <time>2023-10-18T12:52:23.834+00:00</time>
      </trkpt>
      <trkpt lat="46.14151" lon="4.58418">
        <ele>347</ele>
        <time>2023-10-18T12:52:28.334+00:00</time>
      </trkpt>
      <trkpt lat="46.14149" lon="4.58413">
        <ele>347</ele>
        <time>2023-10-18T12:52:32.314+00:00</time>
      </trkpt>
      <trkpt lat="46.1415" lon="4.58408">
        <ele>347</ele>
        <time>2023-10-18T12:52:37.234+00:00</time>
      </trkpt>
      <trkpt lat="46.14148" lon="4.58403">
        <ele>347</ele>
        <time>2023-10-18T12:52:42.214+00:00</time>
      </trkpt>
      <trkpt lat="46.14146" lon="4.58398">
        <ele>351</ele>
        <time>2023-10-18T12:52:46.174+00:00</time>
      </trkpt>
      <trkpt lat="46.14144" lon="4.58398">
        <ele>351</ele>
        <time>2023-10-18T12:52:50.697+00:00</time>
      </trkpt>
      <trkpt lat="46.14143" lon="4.58394">
        <ele>351</ele>
        <time>2023-10-18T12:52:55.134+00:00</time>
      </trkpt>
      <trkpt lat="46.14141" lon="4.58388">
        <ele>351</ele>
        <time>2023-10-18T12:52:59.614+00:00</time>
      </trkpt>
      <trkpt lat="46.14139" lon="4.58383">
        <ele>351</ele>
        <time>2023-10-18T12:53:03.734+00:00</time>
      </trkpt>
      <trkpt lat="46.14137" lon="4.58377">
        <ele>351</ele>
        <time>2023-10-18T12:53:07.674+00:00</time>
      </trkpt>
      <trkpt lat="46.14138" lon="4.5837">
        <ele>355</ele>
        <time>2023-10-18T12:53:12.214+00:00</time>
      </trkpt>
      <trkpt lat="46.14139" lon="4.58363">
        <ele>355</ele>
        <time>2023-10-18T12:53:16.734+00:00</time>
      </trkpt>
      <trkpt lat="46.14139" lon="4.58358">
        <ele>355</ele>
        <time>2023-10-18T12:53:21.194+00:00</time>
      </trkpt>
      <trkpt lat="46.14139" lon="4.58353">
        <ele>355</ele>
        <time>2023-10-18T12:53:25.034+00:00</time>
      </trkpt>
      <trkpt lat="46.14139" lon="4.58347">
        <ele>358</ele>
        <time>2023-10-18T12:53:29.634+00:00</time>
      </trkpt>
      <trkpt lat="46.14139" lon="4.58342">
        <ele>358</ele>
        <time>2023-10-18T12:53:33.574+00:00</time>
      </trkpt>
      <trkpt lat="46.14139" lon="4.58335">
        <ele>358</ele>
        <time>2023-10-18T12:53:38.114+00:00</time>
      </trkpt>
      <trkpt lat="46.1414" lon="4.5833">
        <ele>358</ele>
        <time>2023-10-18T12:53:42.574+00:00</time>
      </trkpt>
      <trkpt lat="46.14139" lon="4.58326">
        <ele>358</ele>
        <time>2023-10-18T12:53:46.854+00:00</time>
      </trkpt>
      <trkpt lat="46.14138" lon="4.5832">
        <ele>358</ele>
        <time>2023-10-18T12:53:51.374+00:00</time>
      </trkpt>
      <trkpt lat="46.1414" lon="4.58313">
        <ele>361</ele>
        <time>2023-10-18T12:54:13.454+00:00</time>
      </trkpt>
      <trkpt lat="46.14141" lon="4.58307">
        <ele>361</ele>
        <time>2023-10-18T12:54:17.914+00:00</time>
      </trkpt>
      <trkpt lat="46.14141" lon="4.58301">
        <ele>361</ele>
        <time>2023-10-18T12:54:22.474+00:00</time>
      </trkpt>
      <trkpt lat="46.1414" lon="4.583">
        <ele>361</ele>
        <time>2023-10-18T12:54:26.614+00:00</time>
      </trkpt>
      <trkpt lat="46.1414" lon="4.58297">
        <ele>361</ele>
        <time>2023-10-18T12:54:31.154+00:00</time>
      </trkpt>
      <trkpt lat="46.1414" lon="4.5829">
        <ele>365</ele>
        <time>2023-10-18T12:54:35.454+00:00</time>
      </trkpt>
      <trkpt lat="46.1414" lon="4.58281">
        <ele>365</ele>
        <time>2023-10-18T12:54:40.154+00:00</time>
      </trkpt>
      <trkpt lat="46.14139" lon="4.58278">
        <ele>365</ele>
        <time>2023-10-18T12:54:44.154+00:00</time>
      </trkpt>
      <trkpt lat="46.14139" lon="4.58277">
        <ele>365</ele>
        <time>2023-10-18T12:54:48.614+00:00</time>
      </trkpt>
      <trkpt lat="46.14141" lon="4.5827">
        <ele>365</ele>
        <time>2023-10-18T12:54:52.621+00:00</time>
      </trkpt>
      <trkpt lat="46.14142" lon="4.58263">
        <ele>367</ele>
        <time>2023-10-18T12:54:56.774+00:00</time>
      </trkpt>
      <trkpt lat="46.14142" lon="4.58257">
        <ele>367</ele>
        <time>2023-10-18T12:55:01.114+00:00</time>
      </trkpt>
      <trkpt lat="46.14142" lon="4.58251">
        <ele>367</ele>
        <time>2023-10-18T12:55:05.214+00:00</time>
      </trkpt>
      <trkpt lat="46.14143" lon="4.58246">
        <ele>367</ele>
        <time>2023-10-18T12:55:09.414+00:00</time>
      </trkpt>
      <trkpt lat="46.14145" lon="4.58241">
        <ele>367</ele>
        <time>2023-10-18T12:55:14.014+00:00</time>
      </trkpt>
      <trkpt lat="46.14144" lon="4.58236">
        <ele>368</ele>
        <time>2023-10-18T12:55:18.614+00:00</time>
      </trkpt>
      <trkpt lat="46.14142" lon="4.58229">
        <ele>368</ele>
        <time>2023-10-18T12:55:23.174+00:00</time>
      </trkpt>
      <trkpt lat="46.14142" lon="4.58224">
        <ele>368</ele>
        <time>2023-10-18T12:55:27.194+00:00</time>
      </trkpt>
      <trkpt lat="46.1414" lon="4.58218">
        <ele>368</ele>
        <time>2023-10-18T12:56:02.494+00:00</time>
      </trkpt>
      <trkpt lat="46.14138" lon="4.58215">
        <ele>368</ele>
        <time>2023-10-18T12:56:06.994+00:00</time>
      </trkpt>
      <trkpt lat="46.14138" lon="4.58207">
        <ele>368</ele>
        <time>2023-10-18T12:56:11.094+00:00</time>
      </trkpt>
      <trkpt lat="46.1414" lon="4.58199">
        <ele>368</ele>
        <time>2023-10-18T12:56:15.619+00:00</time>
      </trkpt>
      <trkpt lat="46.14139" lon="4.58193">
        <ele>368</ele>
        <time>2023-10-18T12:56:19.594+00:00</time>
      </trkpt>
      <trkpt lat="46.14136" lon="4.58187">
        <ele>368</ele>
        <time>2023-10-18T12:56:24.142+00:00</time>
      </trkpt>
      <trkpt lat="46.14135" lon="4.58183">
        <ele>368</ele>
        <time>2023-10-18T12:56:28.194+00:00</time>
      </trkpt>
      <trkpt lat="46.14133" lon="4.58179">
        <ele>367</ele>
        <time>2023-10-18T12:56:33.314+00:00</time>
      </trkpt>
      <trkpt lat="46.14131" lon="4.58176">
        <ele>367</ele>
        <time>2023-10-18T12:56:37.860+00:00</time>
      </trkpt>
      <trkpt lat="46.14129" lon="4.58177">
        <ele>367</ele>
        <time>2023-10-18T12:56:50.894+00:00</time>
      </trkpt>
      <trkpt lat="46.14129" lon="4.58177">
        <ele>367</ele>
        <time>2023-10-18T12:56:55.614+00:00</time>
      </trkpt>
      <trkpt lat="46.1413" lon="4.58177">
        <ele>367</ele>
        <time>2023-10-18T12:56:59.214+00:00</time>
      </trkpt>
      <trkpt lat="46.14128" lon="4.5817">
        <ele>367</ele>
        <time>2023-10-18T12:57:04.614+00:00</time>
      </trkpt>
      <trkpt lat="46.1413" lon="4.58164">
        <ele>367</ele>
        <time>2023-10-18T12:57:09.214+00:00</time>
      </trkpt>
      <trkpt lat="46.14132" lon="4.58158">
        <ele>367</ele>
        <time>2023-10-18T12:57:14.514+00:00</time>
      </trkpt>
      <trkpt lat="46.14131" lon="4.58151">
        <ele>368</ele>
        <time>2023-10-18T12:57:19.014+00:00</time>
      </trkpt>
      <trkpt lat="46.14131" lon="4.58144">
        <ele>368</ele>
        <time>2023-10-18T12:57:23.620+00:00</time>
      </trkpt>
      <trkpt lat="46.14131" lon="4.58135">
        <ele>368</ele>
        <time>2023-10-18T12:57:28.160+00:00</time>
      </trkpt>
      <trkpt lat="46.14131" lon="4.58128">
        <ele>368</ele>
        <time>2023-10-18T12:57:32.600+00:00</time>
      </trkpt>
      <trkpt lat="46.14132" lon="4.58121">
        <ele>371</ele>
        <time>2023-10-18T12:57:36.614+00:00</time>
      </trkpt>
      <trkpt lat="46.14132" lon="4.58113">
        <ele>371</ele>
        <time>2023-10-18T12:57:41.214+00:00</time>
      </trkpt>
      <trkpt lat="46.14133" lon="4.58109">
        <ele>371</ele>
        <time>2023-10-18T12:57:45.414+00:00</time>
      </trkpt>
      <trkpt lat="46.14134" lon="4.58109">
        <ele>371</ele>
        <time>2023-10-18T12:57:50.214+00:00</time>
      </trkpt>
      <trkpt lat="46.14133" lon="4.58099">
        <ele>371</ele>
        <time>2023-10-18T12:57:54.314+00:00</time>
      </trkpt>
      <trkpt lat="46.14132" lon="4.5809">
        <ele>372</ele>
        <time>2023-10-18T12:57:58.434+00:00</time>
      </trkpt>
      <trkpt lat="46.14133" lon="4.58083">
        <ele>372</ele>
        <time>2023-10-18T12:58:03.234+00:00</time>
      </trkpt>
      <trkpt lat="46.14136" lon="4.58078">
        <ele>372</ele>
        <time>2023-10-18T12:58:07.940+00:00</time>
      </trkpt>
      <trkpt lat="46.14142" lon="4.58081">
        <ele>372</ele>
        <time>2023-10-18T12:58:12.434+00:00</time>
      </trkpt>
      <trkpt lat="46.14145" lon="4.58087">
        <ele>372</ele>
        <time>2023-10-18T12:58:16.334+00:00</time>
      </trkpt>
      <trkpt lat="46.14148" lon="4.58091">
        <ele>372</ele>
        <time>2023-10-18T12:58:20.834+00:00</time>
      </trkpt>
      <trkpt lat="46.14151" lon="4.58092">
        <ele>372</ele>
        <time>2023-10-18T12:58:25.034+00:00</time>
      </trkpt>
      <trkpt lat="46.14153" lon="4.58095">
        <ele>372</ele>
        <time>2023-10-18T12:58:29.617+00:00</time>
      </trkpt>
      <trkpt lat="46.14156" lon="4.58098">
        <ele>382</ele>
        <time>2023-10-18T12:58:34.154+00:00</time>
      </trkpt>
      <trkpt lat="46.14159" lon="4.58103">
        <ele>382</ele>
        <time>2023-10-18T12:58:38.754+00:00</time>
      </trkpt>
      <trkpt lat="46.14161" lon="4.58108">
        <ele>382</ele>
        <time>2023-10-18T12:58:43.263+00:00</time>
      </trkpt>
      <trkpt lat="46.14164" lon="4.58112">
        <ele>382</ele>
        <time>2023-10-18T12:58:47.314+00:00</time>
      </trkpt>
      <trkpt lat="46.14165" lon="4.58116">
        <ele>382</ele>
        <time>2023-10-18T12:58:51.314+00:00</time>
      </trkpt>
      <trkpt lat="46.14168" lon="4.58121">
        <ele>382</ele>
        <time>2023-10-18T12:58:55.854+00:00</time>
      </trkpt>
      <trkpt lat="46.1417" lon="4.58125">
        <ele>380</ele>
        <time>2023-10-18T12:59:00.354+00:00</time>
      </trkpt>
      <trkpt lat="46.14172" lon="4.58128">
        <ele>380</ele>
        <time>2023-10-18T12:59:04.274+00:00</time>
      </trkpt>
      <trkpt lat="46.14174" lon="4.58133">
        <ele>380</ele>
        <time>2023-10-18T12:59:09.474+00:00</time>
      </trkpt>
      <trkpt lat="46.14176" lon="4.58138">
        <ele>380</ele>
        <time>2023-10-18T12:59:14.494+00:00</time>
      </trkpt>
      <trkpt lat="46.14177" lon="4.58143">
        <ele>380</ele>
        <time>2023-10-18T12:59:19.094+00:00</time>
      </trkpt>
      <trkpt lat="46.14178" lon="4.58146">
        <ele>380</ele>
        <time>2023-10-18T12:59:23.622+00:00</time>
      </trkpt>
      <trkpt lat="46.14179" lon="4.58151">
        <ele>380</ele>
        <time>2023-10-18T12:59:28.100+00:00</time>
      </trkpt>
      <trkpt lat="46.1418" lon="4.58156">
        <ele>380</ele>
        <time>2023-10-18T12:59:32.094+00:00</time>
      </trkpt>
      <trkpt lat="46.14183" lon="4.58161">
        <ele>389</ele>
        <time>2023-10-18T12:59:36.600+00:00</time>
      </trkpt>
      <trkpt lat="46.14186" lon="4.58165">
        <ele>389</ele>
        <time>2023-10-18T12:59:40.621+00:00</time>
      </trkpt>
      <trkpt lat="46.14188" lon="4.5817">
        <ele>389</ele>
        <time>2023-10-18T12:59:45.194+00:00</time>
      </trkpt>
      <trkpt lat="46.1419" lon="4.58173">
        <ele>389</ele>
        <time>2023-10-18T12:59:49.194+00:00</time>
      </trkpt>
      <trkpt lat="46.14192" lon="4.58179">
        <ele>389</ele>
        <time>2023-10-18T12:59:53.794+00:00</time>
      </trkpt>
      <trkpt lat="46.14195" lon="4.58183">
        <ele>388</ele>
        <time>2023-10-18T12:59:57.794+00:00</time>
      </trkpt>
      <trkpt lat="46.14197" lon="4.58186">
        <ele>388</ele>
        <time>2023-10-18T13:00:02.194+00:00</time>
      </trkpt>
      <trkpt lat="46.142" lon="4.58189">
        <ele>388</ele>
        <time>2023-10-18T13:00:06.214+00:00</time>
      </trkpt>
      <trkpt lat="46.14203" lon="4.58192">
        <ele>388</ele>
        <time>2023-10-18T13:00:10.414+00:00</time>
      </trkpt>
      <trkpt lat="46.14207" lon="4.58193">
        <ele>388</ele>
        <time>2023-10-18T13:00:15.014+00:00</time>
      </trkpt>
      <trkpt lat="46.1421" lon="4.58194">
        <ele>395</ele>
        <time>2023-10-18T13:00:19.214+00:00</time>
      </trkpt>
      <trkpt lat="46.14213" lon="4.58196">
        <ele>395</ele>
        <time>2023-10-18T13:00:23.414+00:00</time>
      </trkpt>
      <trkpt lat="46.14216" lon="4.58199">
        <ele>395</ele>
        <time>2023-10-18T13:00:28.114+00:00</time>
      </trkpt>
      <trkpt lat="46.14219" lon="4.58203">
        <ele>395</ele>
        <time>2023-10-18T13:00:32.214+00:00</time>
      </trkpt>
      <trkpt lat="46.14221" lon="4.58205">
        <ele>395</ele>
        <time>2023-10-18T13:00:36.414+00:00</time>
      </trkpt>
      <trkpt lat="46.14223" lon="4.58208">
        <ele>395</ele>
        <time>2023-10-18T13:00:40.914+00:00</time>
      </trkpt>
      <trkpt lat="46.14225" lon="4.5821">
        <ele>393</ele>
        <time>2023-10-18T13:00:45.414+00:00</time>
      </trkpt>
      <trkpt lat="46.1423" lon="4.58212">
        <ele>393</ele>
        <time>2023-10-18T13:00:50.014+00:00</time>
      </trkpt>
      <trkpt lat="46.14234" lon="4.58213">
        <ele>393</ele>
        <time>2023-10-18T13:00:54.134+00:00</time>
      </trkpt>
      <trkpt lat="46.14238" lon="4.58214">
        <ele>401</ele>
        <time>2023-10-18T13:00:58.634+00:00</time>
      </trkpt>
      <trkpt lat="46.14241" lon="4.58216">
        <ele>401</ele>
        <time>2023-10-18T13:01:02.634+00:00</time>
      </trkpt>
      <trkpt lat="46.14243" lon="4.58219">
        <ele>401</ele>
        <time>2023-10-18T13:01:07.240+00:00</time>
      </trkpt>
      <trkpt lat="46.14246" lon="4.58221">
        <ele>401</ele>
        <time>2023-10-18T13:01:11.234+00:00</time>
      </trkpt>
      <trkpt lat="46.14249" lon="4.58224">
        <ele>401</ele>
        <time>2023-10-18T13:01:15.434+00:00</time>
      </trkpt>
      <trkpt lat="46.14258" lon="4.58217">
        <ele>401</ele>
        <time>2023-10-18T13:05:09.654+00:00</time>
      </trkpt>
      <trkpt lat="46.14259" lon="4.58217">
        <ele>401</ele>
        <time>2023-10-18T13:05:14.314+00:00</time>
      </trkpt>
      <trkpt lat="46.14259" lon="4.58216">
        <ele>401</ele>
        <time>2023-10-18T13:05:19.622+00:00</time>
      </trkpt>
      <trkpt lat="46.14259" lon="4.58214">
        <ele>401</ele>
        <time>2023-10-18T13:05:24.621+00:00</time>
      </trkpt>
      <trkpt lat="46.14259" lon="4.58214">
        <ele>401</ele>
        <time>2023-10-18T13:05:29.154+00:00</time>
      </trkpt>
      <trkpt lat="46.14256" lon="4.5821">
        <ele>401</ele>
        <time>2023-10-18T13:07:28.624+00:00</time>
      </trkpt>
      <trkpt lat="46.14257" lon="4.58206">
        <ele>404</ele>
        <time>2023-10-18T13:07:33.627+00:00</time>
      </trkpt>
      <trkpt lat="46.14258" lon="4.58201">
        <ele>404</ele>
        <time>2023-10-18T13:07:38.074+00:00</time>
      </trkpt>
      <trkpt lat="46.14262" lon="4.58194">
        <ele>404</ele>
        <time>2023-10-18T13:07:42.114+00:00</time>
      </trkpt>
      <trkpt lat="46.14266" lon="4.5819">
        <ele>408</ele>
        <time>2023-10-18T13:07:46.734+00:00</time>
      </trkpt>
      <trkpt lat="46.1427" lon="4.5819">
        <ele>408</ele>
        <time>2023-10-18T13:07:51.314+00:00</time>
      </trkpt>
      <trkpt lat="46.14273" lon="4.58191">
        <ele>408</ele>
        <time>2023-10-18T13:07:55.434+00:00</time>
      </trkpt>
      <trkpt lat="46.14276" lon="4.58191">
        <ele>408</ele>
        <time>2023-10-18T13:08:00.034+00:00</time>
      </trkpt>
      <trkpt lat="46.14278" lon="4.58191">
        <ele>408</ele>
        <time>2023-10-18T13:08:04.034+00:00</time>
      </trkpt>
      <trkpt lat="46.14281" lon="4.58191">
        <ele>408</ele>
        <time>2023-10-18T13:08:08.054+00:00</time>
      </trkpt>
      <trkpt lat="46.14284" lon="4.58186">
        <ele>408</ele>
        <time>2023-10-18T13:08:12.554+00:00</time>
      </trkpt>
      <trkpt lat="46.14287" lon="4.58179">
        <ele>413</ele>
        <time>2023-10-18T13:08:17.154+00:00</time>
      </trkpt>
      <trkpt lat="46.14288" lon="4.58174">
        <ele>413</ele>
        <time>2023-10-18T13:08:21.154+00:00</time>
      </trkpt>
      <trkpt lat="46.1429" lon="4.58168">
        <ele>413</ele>
        <time>2023-10-18T13:08:25.154+00:00</time>
      </trkpt>
      <trkpt lat="46.14293" lon="4.58162">
        <ele>410</ele>
        <time>2023-10-18T13:08:29.754+00:00</time>
      </trkpt>
      <trkpt lat="46.14294" lon="4.58156">
        <ele>410</ele>
        <time>2023-10-18T13:08:34.454+00:00</time>
      </trkpt>
      <trkpt lat="46.14296" lon="4.58151">
        <ele>413</ele>
        <time>2023-10-18T13:08:38.454+00:00</time>
      </trkpt>
      <trkpt lat="46.14296" lon="4.58145">
        <ele>413</ele>
        <time>2023-10-18T13:08:43.074+00:00</time>
      </trkpt>
      <trkpt lat="46.14299" lon="4.58142">
        <ele>413</ele>
        <time>2023-10-18T13:08:47.094+00:00</time>
      </trkpt>
      <trkpt lat="46.14302" lon="4.58139">
        <ele>413</ele>
        <time>2023-10-18T13:08:51.094+00:00</time>
      </trkpt>
      <trkpt lat="46.14306" lon="4.58136">
        <ele>413</ele>
        <time>2023-10-18T13:08:55.622+00:00</time>
      </trkpt>
      <trkpt lat="46.1431" lon="4.58132">
        <ele>413</ele>
        <time>2023-10-18T13:09:00.194+00:00</time>
      </trkpt>
      <trkpt lat="46.14313" lon="4.5813">
        <ele>413</ele>
        <time>2023-10-18T13:09:04.194+00:00</time>
      </trkpt>
      <trkpt lat="46.14316" lon="4.58126">
        <ele>413</ele>
        <time>2023-10-18T13:09:08.814+00:00</time>
      </trkpt>
      <trkpt lat="46.14319" lon="4.58121">
        <ele>417</ele>
        <time>2023-10-18T13:09:12.834+00:00</time>
      </trkpt>
      <trkpt lat="46.14321" lon="4.58119">
        <ele>414</ele>
        <time>2023-10-18T13:09:16.834+00:00</time>
      </trkpt>
      <trkpt lat="46.14324" lon="4.58113">
        <ele>414</ele>
        <time>2023-10-18T13:09:21.194+00:00</time>
      </trkpt>
      <trkpt lat="46.14326" lon="4.58108">
        <ele>414</ele>
        <time>2023-10-18T13:09:25.214+00:00</time>
      </trkpt>
      <trkpt lat="46.14329" lon="4.58102">
        <ele>414</ele>
        <time>2023-10-18T13:09:29.814+00:00</time>
      </trkpt>
      <trkpt lat="46.14332" lon="4.58096">
        <ele>421</ele>
        <time>2023-10-18T13:09:34.322+00:00</time>
      </trkpt>
      <trkpt lat="46.14333" lon="4.58091">
        <ele>421</ele>
        <time>2023-10-18T13:09:38.314+00:00</time>
      </trkpt>
      <trkpt lat="46.14335" lon="4.58086">
        <ele>421</ele>
        <time>2023-10-18T13:09:42.314+00:00</time>
      </trkpt>
      <trkpt lat="46.14338" lon="4.5808">
        <ele>421</ele>
        <time>2023-10-18T13:09:47.014+00:00</time>
      </trkpt>
      <trkpt lat="46.1434" lon="4.58075">
        <ele>421</ele>
        <time>2023-10-18T13:09:51.614+00:00</time>
      </trkpt>
      <trkpt lat="46.14341" lon="4.5807">
        <ele>421</ele>
        <time>2023-10-18T13:09:56.154+00:00</time>
      </trkpt>
      <trkpt lat="46.14342" lon="4.58065">
        <ele>424</ele>
        <time>2023-10-18T13:10:00.154+00:00</time>
      </trkpt>
      <trkpt lat="46.14342" lon="4.5806">
        <ele>424</ele>
        <time>2023-10-18T13:10:04.114+00:00</time>
      </trkpt>
      <trkpt lat="46.14344" lon="4.58055">
        <ele>424</ele>
        <time>2023-10-18T13:10:08.214+00:00</time>
      </trkpt>
      <trkpt lat="46.14346" lon="4.58051">
        <ele>424</ele>
        <time>2023-10-18T13:10:12.314+00:00</time>
      </trkpt>
      <trkpt lat="46.14348" lon="4.58046">
        <ele>420</ele>
        <time>2023-10-18T13:10:17.014+00:00</time>
      </trkpt>
      <trkpt lat="46.14348" lon="4.58041">
        <ele>424</ele>
        <time>2023-10-18T13:10:21.214+00:00</time>
      </trkpt>
      <trkpt lat="46.14348" lon="4.58035">
        <ele>424</ele>
        <time>2023-10-18T13:10:25.314+00:00</time>
      </trkpt>
      <trkpt lat="46.14349" lon="4.5803">
        <ele>424</ele>
        <time>2023-10-18T13:10:29.934+00:00</time>
      </trkpt>
      <trkpt lat="46.14349" lon="4.58024">
        <ele>424</ele>
        <time>2023-10-18T13:10:34.634+00:00</time>
      </trkpt>
      <trkpt lat="46.14349" lon="4.58018">
        <ele>424</ele>
        <time>2023-10-18T13:10:39.234+00:00</time>
      </trkpt>
      <trkpt lat="46.14348" lon="4.58012">
        <ele>430</ele>
        <time>2023-10-18T13:10:43.834+00:00</time>
      </trkpt>
      <trkpt lat="46.14347" lon="4.58006">
        <ele>430</ele>
        <time>2023-10-18T13:10:48.314+00:00</time>
      </trkpt>
      <trkpt lat="46.14349" lon="4.58">
        <ele>430</ele>
        <time>2023-10-18T13:10:52.934+00:00</time>
      </trkpt>
      <trkpt lat="46.14352" lon="4.57995">
        <ele>430</ele>
        <time>2023-10-18T13:10:57.534+00:00</time>
      </trkpt>
      <trkpt lat="46.14355" lon="4.5799">
        <ele>430</ele>
        <time>2023-10-18T13:11:01.534+00:00</time>
      </trkpt>
      <trkpt lat="46.14358" lon="4.57984">
        <ele>434</ele>
        <time>2023-10-18T13:11:06.134+00:00</time>
      </trkpt>
      <trkpt lat="46.14362" lon="4.5798">
        <ele>434</ele>
        <time>2023-10-18T13:11:10.134+00:00</time>
      </trkpt>
      <trkpt lat="46.14365" lon="4.57976">
        <ele>434</ele>
        <time>2023-10-18T13:11:14.234+00:00</time>
      </trkpt>
      <trkpt lat="46.14368" lon="4.5797">
        <ele>434</ele>
        <time>2023-10-18T13:11:18.234+00:00</time>
      </trkpt>
      <trkpt lat="46.14371" lon="4.57965">
        <ele>434</ele>
        <time>2023-10-18T13:11:23.040+00:00</time>
      </trkpt>
      <trkpt lat="46.14374" lon="4.57959">
        <ele>434</ele>
        <time>2023-10-18T13:11:26.854+00:00</time>
      </trkpt>
      <trkpt lat="46.14378" lon="4.57954">
        <ele>426</ele>
        <time>2023-10-18T13:11:31.354+00:00</time>
      </trkpt>
      <trkpt lat="46.14381" lon="4.5795">
        <ele>426</ele>
        <time>2023-10-18T13:11:35.454+00:00</time>
      </trkpt>
      <trkpt lat="46.14383" lon="4.57945">
        <ele>426</ele>
        <time>2023-10-18T13:11:39.314+00:00</time>
      </trkpt>
      <trkpt lat="46.14386" lon="4.57938">
        <ele>426</ele>
        <time>2023-10-18T13:11:43.914+00:00</time>
      </trkpt>
      <trkpt lat="46.14388" lon="4.57932">
        <ele>426</ele>
        <time>2023-10-18T13:11:47.934+00:00</time>
      </trkpt>
      <trkpt lat="46.14391" lon="4.57926">
        <ele>433</ele>
        <time>2023-10-18T13:11:52.454+00:00</time>
      </trkpt>
      <trkpt lat="46.14394" lon="4.5792">
        <ele>433</ele>
        <time>2023-10-18T13:11:56.954+00:00</time>
      </trkpt>
      <trkpt lat="46.14397" lon="4.57916">
        <ele>433</ele>
        <time>2023-10-18T13:12:01.454+00:00</time>
      </trkpt>
      <trkpt lat="46.14399" lon="4.57912">
        <ele>433</ele>
        <time>2023-10-18T13:12:05.954+00:00</time>
      </trkpt>
      <trkpt lat="46.14403" lon="4.57908">
        <ele>433</ele>
        <time>2023-10-18T13:12:10.314+00:00</time>
      </trkpt>
      <trkpt lat="46.14406" lon="4.57904">
        <ele>429</ele>
        <time>2023-10-18T13:12:14.314+00:00</time>
      </trkpt>
      <trkpt lat="46.14409" lon="4.579">
        <ele>434</ele>
        <time>2023-10-18T13:12:18.820+00:00</time>
      </trkpt>
      <trkpt lat="46.14412" lon="4.57895">
        <ele>434</ele>
        <time>2023-10-18T13:12:22.854+00:00</time>
      </trkpt>
      <trkpt lat="46.14414" lon="4.5789">
        <ele>434</ele>
        <time>2023-10-18T13:12:26.874+00:00</time>
      </trkpt>
      <trkpt lat="46.14416" lon="4.57887">
        <ele>434</ele>
        <time>2023-10-18T13:12:30.894+00:00</time>
      </trkpt>
      <trkpt lat="46.1442" lon="4.57882">
        <ele>434</ele>
        <time>2023-10-18T13:12:35.514+00:00</time>
      </trkpt>
      <trkpt lat="46.14423" lon="4.57878">
        <ele>434</ele>
        <time>2023-10-18T13:12:40.020+00:00</time>
      </trkpt>
      <trkpt lat="46.14428" lon="4.57875">
        <ele>438</ele>
        <time>2023-10-18T13:12:44.114+00:00</time>
      </trkpt>
      <trkpt lat="46.14433" lon="4.57873">
        <ele>438</ele>
        <time>2023-10-18T13:12:48.214+00:00</time>
      </trkpt>
      <trkpt lat="46.14437" lon="4.57872">
        <ele>438</ele>
        <time>2023-10-18T13:12:52.314+00:00</time>
      </trkpt>
      <trkpt lat="46.14441" lon="4.57873">
        <ele>438</ele>
        <time>2023-10-18T13:12:57.014+00:00</time>
      </trkpt>
      <trkpt lat="46.14446" lon="4.57875">
        <ele>438</ele>
        <time>2023-10-18T13:13:01.514+00:00</time>
      </trkpt>
      <trkpt lat="46.1445" lon="4.57876">
        <ele>435</ele>
        <time>2023-10-18T13:13:05.514+00:00</time>
      </trkpt>
      <trkpt lat="46.14455" lon="4.57876">
        <ele>435</ele>
        <time>2023-10-18T13:13:10.014+00:00</time>
      </trkpt>
      <trkpt lat="46.1446" lon="4.57878">
        <ele>439</ele>
        <time>2023-10-18T13:13:14.619+00:00</time>
      </trkpt>
      <trkpt lat="46.14465" lon="4.57879">
        <ele>439</ele>
        <time>2023-10-18T13:13:18.614+00:00</time>
      </trkpt>
      <trkpt lat="46.14469" lon="4.57883">
        <ele>439</ele>
        <time>2023-10-18T13:13:22.621+00:00</time>
      </trkpt>
      <trkpt lat="46.14473" lon="4.57887">
        <ele>439</ele>
        <time>2023-10-18T13:13:27.214+00:00</time>
      </trkpt>
      <trkpt lat="46.14477" lon="4.57889">
        <ele>439</ele>
        <time>2023-10-18T13:13:31.834+00:00</time>
      </trkpt>
      <trkpt lat="46.14481" lon="4.57894">
        <ele>439</ele>
        <time>2023-10-18T13:13:36.314+00:00</time>
      </trkpt>
      <trkpt lat="46.14485" lon="4.579">
        <ele>439</ele>
        <time>2023-10-18T13:13:40.434+00:00</time>
      </trkpt>
      <trkpt lat="46.14488" lon="4.57907">
        <ele>442</ele>
        <time>2023-10-18T13:13:45.040+00:00</time>
      </trkpt>
      <trkpt lat="46.14491" lon="4.57912">
        <ele>442</ele>
        <time>2023-10-18T13:13:49.234+00:00</time>
      </trkpt>
      <trkpt lat="46.14493" lon="4.57918">
        <ele>442</ele>
        <time>2023-10-18T13:13:53.314+00:00</time>
      </trkpt>
      <trkpt lat="46.14496" lon="4.57925">
        <ele>442</ele>
        <time>2023-10-18T13:13:57.834+00:00</time>
      </trkpt>
      <trkpt lat="46.14498" lon="4.57927">
        <ele>442</ele>
        <time>2023-10-18T13:14:02.534+00:00</time>
      </trkpt>
      <trkpt lat="46.14498" lon="4.57931">
        <ele>439</ele>
        <time>2023-10-18T13:14:07.234+00:00</time>
      </trkpt>
      <trkpt lat="46.145" lon="4.57938">
        <ele>439</ele>
        <time>2023-10-18T13:14:11.434+00:00</time>
      </trkpt>
      <trkpt lat="46.14503" lon="4.57945">
        <ele>439</ele>
        <time>2023-10-18T13:14:15.934+00:00</time>
      </trkpt>
      <trkpt lat="46.14506" lon="4.57952">
        <ele>439</ele>
        <time>2023-10-18T13:14:20.534+00:00</time>
      </trkpt>
      <trkpt lat="46.1451" lon="4.57958">
        <ele>439</ele>
        <time>2023-10-18T13:14:25.234+00:00</time>
      </trkpt>
      <trkpt lat="46.14513" lon="4.57963">
        <ele>436</ele>
        <time>2023-10-18T13:14:29.434+00:00</time>
      </trkpt>
      <trkpt lat="46.14517" lon="4.57968">
        <ele>444</ele>
        <time>2023-10-18T13:14:33.934+00:00</time>
      </trkpt>
      <trkpt lat="46.1452" lon="4.57973">
        <ele>444</ele>
        <time>2023-10-18T13:14:38.434+00:00</time>
      </trkpt>
      <trkpt lat="46.14522" lon="4.57978">
        <ele>444</ele>
        <time>2023-10-18T13:14:42.334+00:00</time>
      </trkpt>
      <trkpt lat="46.14525" lon="4.57985">
        <ele>444</ele>
        <time>2023-10-18T13:14:47.034+00:00</time>
      </trkpt>
      <trkpt lat="46.14526" lon="4.5799">
        <ele>442</ele>
        <time>2023-10-18T13:14:51.800+00:00</time>
      </trkpt>
      <trkpt lat="46.14528" lon="4.57996">
        <ele>442</ele>
        <time>2023-10-18T13:14:56.234+00:00</time>
      </trkpt>
      <trkpt lat="46.1453" lon="4.58001">
        <ele>442</ele>
        <time>2023-10-18T13:15:00.300+00:00</time>
      </trkpt>
      <trkpt lat="46.14533" lon="4.58006">
        <ele>442</ele>
        <time>2023-10-18T13:15:04.314+00:00</time>
      </trkpt>
      <trkpt lat="46.14537" lon="4.58012">
        <ele>442</ele>
        <time>2023-10-18T13:15:08.834+00:00</time>
      </trkpt>
      <trkpt lat="46.14539" lon="4.58017">
        <ele>439</ele>
        <time>2023-10-18T13:15:13.368+00:00</time>
      </trkpt>
      <trkpt lat="46.14543" lon="4.58021">
        <ele>447</ele>
        <time>2023-10-18T13:15:17.314+00:00</time>
      </trkpt>
      <trkpt lat="46.14547" lon="4.58025">
        <ele>447</ele>
        <time>2023-10-18T13:15:22.434+00:00</time>
      </trkpt>
      <trkpt lat="46.14551" lon="4.58028">
        <ele>447</ele>
        <time>2023-10-18T13:15:26.434+00:00</time>
      </trkpt>
      <trkpt lat="46.14555" lon="4.58031">
        <ele>447</ele>
        <time>2023-10-18T13:15:30.534+00:00</time>
      </trkpt>
      <trkpt lat="46.14559" lon="4.58035">
        <ele>447</ele>
        <time>2023-10-18T13:15:35.134+00:00</time>
      </trkpt>
      <trkpt lat="46.14562" lon="4.58037">
        <ele>447</ele>
        <time>2023-10-18T13:15:39.034+00:00</time>
      </trkpt>
      <trkpt lat="46.14566" lon="4.58041">
        <ele>447</ele>
        <time>2023-10-18T13:15:43.434+00:00</time>
      </trkpt>
      <trkpt lat="46.14569" lon="4.58046">
        <ele>443</ele>
        <time>2023-10-18T13:15:47.960+00:00</time>
      </trkpt>
      <trkpt lat="46.14572" lon="4.58049">
        <ele>451</ele>
        <time>2023-10-18T13:15:51.854+00:00</time>
      </trkpt>
      <trkpt lat="46.14575" lon="4.58055">
        <ele>451</ele>
        <time>2023-10-18T13:15:55.854+00:00</time>
      </trkpt>
      <trkpt lat="46.14577" lon="4.58061">
        <ele>451</ele>
        <time>2023-10-18T13:16:00.454+00:00</time>
      </trkpt>
      <trkpt lat="46.14579" lon="4.58069">
        <ele>451</ele>
        <time>2023-10-18T13:16:05.602+00:00</time>
      </trkpt>
      <trkpt lat="46.14581" lon="4.58073">
        <ele>447</ele>
        <time>2023-10-18T13:16:09.619+00:00</time>
      </trkpt>
      <trkpt lat="46.14583" lon="4.58079">
        <ele>447</ele>
        <time>2023-10-18T13:16:14.154+00:00</time>
      </trkpt>
      <trkpt lat="46.14585" lon="4.58084">
        <ele>447</ele>
        <time>2023-10-18T13:16:18.154+00:00</time>
      </trkpt>
      <trkpt lat="46.14587" lon="4.58088">
        <ele>447</ele>
        <time>2023-10-18T13:16:22.154+00:00</time>
      </trkpt>
      <trkpt lat="46.14589" lon="4.58094">
        <ele>447</ele>
        <time>2023-10-18T13:16:26.754+00:00</time>
      </trkpt>
      <trkpt lat="46.1459" lon="4.58098">
        <ele>444</ele>
        <time>2023-10-18T13:16:31.154+00:00</time>
      </trkpt>
      <trkpt lat="46.14589" lon="4.58096">
        <ele>447</ele>
        <time>2023-10-18T13:16:36.314+00:00</time>
      </trkpt>
      <trkpt lat="46.14588" lon="4.58096">
        <ele>447</ele>
        <time>2023-10-18T13:16:41.454+00:00</time>
      </trkpt>
      <trkpt lat="46.1459" lon="4.58097">
        <ele>447</ele>
        <time>2023-10-18T13:16:46.054+00:00</time>
      </trkpt>
      <trkpt lat="46.14595" lon="4.58099">
        <ele>444</ele>
        <time>2023-10-18T13:16:50.074+00:00</time>
      </trkpt>
      <trkpt lat="46.14598" lon="4.58104">
        <ele>451</ele>
        <time>2023-10-18T13:16:53.974+00:00</time>
      </trkpt>
      <trkpt lat="46.14602" lon="4.58106">
        <ele>451</ele>
        <time>2023-10-18T13:16:58.624+00:00</time>
      </trkpt>
      <trkpt lat="46.14607" lon="4.58108">
        <ele>451</ele>
        <time>2023-10-18T13:17:03.174+00:00</time>
      </trkpt>
      <trkpt lat="46.14612" lon="4.58109">
        <ele>451</ele>
        <time>2023-10-18T13:17:07.774+00:00</time>
      </trkpt>
      <trkpt lat="46.14617" lon="4.58109">
        <ele>451</ele>
        <time>2023-10-18T13:17:12.314+00:00</time>
      </trkpt>
      <trkpt lat="46.14622" lon="4.58107">
        <ele>451</ele>
        <time>2023-10-18T13:17:16.874+00:00</time>
      </trkpt>
      <trkpt lat="46.14626" lon="4.58106">
        <ele>454</ele>
        <time>2023-10-18T13:17:21.474+00:00</time>
      </trkpt>
      <trkpt lat="46.1463" lon="4.58105">
        <ele>454</ele>
        <time>2023-10-18T13:17:25.874+00:00</time>
      </trkpt>
      <trkpt lat="46.14635" lon="4.58102">
        <ele>454</ele>
        <time>2023-10-18T13:17:30.474+00:00</time>
      </trkpt>
      <trkpt lat="46.1464" lon="4.58099">
        <ele>454</ele>
        <time>2023-10-18T13:17:34.980+00:00</time>
      </trkpt>
      <trkpt lat="46.14644" lon="4.58096">
        <ele>456</ele>
        <time>2023-10-18T13:17:39.474+00:00</time>
      </trkpt>
      <trkpt lat="46.14648" lon="4.58095">
        <ele>456</ele>
        <time>2023-10-18T13:17:43.374+00:00</time>
      </trkpt>
      <trkpt lat="46.14654" lon="4.58092">
        <ele>459</ele>
        <time>2023-10-18T13:17:48.394+00:00</time>
      </trkpt>
      <trkpt lat="46.14657" lon="4.58092">
        <ele>459</ele>
        <time>2023-10-18T13:17:52.494+00:00</time>
      </trkpt>
      <trkpt lat="46.14661" lon="4.58092">
        <ele>459</ele>
        <time>2023-10-18T13:17:56.994+00:00</time>
      </trkpt>
      <trkpt lat="46.14666" lon="4.58092">
        <ele>459</ele>
        <time>2023-10-18T13:18:01.622+00:00</time>
      </trkpt>
      <trkpt lat="46.1467" lon="4.58092">
        <ele>459</ele>
        <time>2023-10-18T13:18:05.622+00:00</time>
      </trkpt>
      <trkpt lat="46.14674" lon="4.58093">
        <ele>459</ele>
        <time>2023-10-18T13:18:10.194+00:00</time>
      </trkpt>
      <trkpt lat="46.14679" lon="4.58094">
        <ele>459</ele>
        <time>2023-10-18T13:18:14.794+00:00</time>
      </trkpt>
      <trkpt lat="46.14683" lon="4.58094">
        <ele>460</ele>
        <time>2023-10-18T13:18:19.314+00:00</time>
      </trkpt>
      <trkpt lat="46.14687" lon="4.58094">
        <ele>460</ele>
        <time>2023-10-18T13:18:23.314+00:00</time>
      </trkpt>
      <trkpt lat="46.1469" lon="4.58093">
        <ele>460</ele>
        <time>2023-10-18T13:18:27.894+00:00</time>
      </trkpt>
      <trkpt lat="46.14694" lon="4.58092">
        <ele>460</ele>
        <time>2023-10-18T13:18:31.894+00:00</time>
      </trkpt>
      <trkpt lat="46.14698" lon="4.58092">
        <ele>460</ele>
        <time>2023-10-18T13:18:36.494+00:00</time>
      </trkpt>
      <trkpt lat="46.14703" lon="4.58093">
        <ele>460</ele>
        <time>2023-10-18T13:18:41.094+00:00</time>
      </trkpt>
      <trkpt lat="46.14708" lon="4.58093">
        <ele>460</ele>
        <time>2023-10-18T13:18:45.602+00:00</time>
      </trkpt>
      <trkpt lat="46.14713" lon="4.58093">
        <ele>462</ele>
        <time>2023-10-18T13:18:50.620+00:00</time>
      </trkpt>
      <trkpt lat="46.14719" lon="4.58094">
        <ele>462</ele>
        <time>2023-10-18T13:18:55+00:00</time>
      </trkpt>
      <trkpt lat="46.14723" lon="4.58094">
        <ele>462</ele>
        <time>2023-10-18T13:18:59.460+00:00</time>
      </trkpt>
      <trkpt lat="46.14728" lon="4.58094">
        <ele>462</ele>
        <time>2023-10-18T13:19:03.414+00:00</time>
      </trkpt>
      <trkpt lat="46.14733" lon="4.58095">
        <ele>462</ele>
        <time>2023-10-18T13:19:08.114+00:00</time>
      </trkpt>
      <trkpt lat="46.14738" lon="4.58095">
        <ele>465</ele>
        <time>2023-10-18T13:19:12.628+00:00</time>
      </trkpt>
      <trkpt lat="46.14743" lon="4.58096">
        <ele>465</ele>
        <time>2023-10-18T13:19:17.214+00:00</time>
      </trkpt>
      <trkpt lat="46.14748" lon="4.58096">
        <ele>465</ele>
        <time>2023-10-18T13:19:21.627+00:00</time>
      </trkpt>
      <trkpt lat="46.14753" lon="4.58096">
        <ele>465</ele>
        <time>2023-10-18T13:19:26.301+00:00</time>
      </trkpt>
      <trkpt lat="46.14757" lon="4.58095">
        <ele>465</ele>
        <time>2023-10-18T13:19:30.214+00:00</time>
      </trkpt>
      <trkpt lat="46.14762" lon="4.58095">
        <ele>465</ele>
        <time>2023-10-18T13:19:34.782+00:00</time>
      </trkpt>
      <trkpt lat="46.14766" lon="4.58094">
        <ele>465</ele>
        <time>2023-10-18T13:19:39.322+00:00</time>
      </trkpt>
      <trkpt lat="46.1477" lon="4.58092">
        <ele>465</ele>
        <time>2023-10-18T13:19:43.422+00:00</time>
      </trkpt>
      <trkpt lat="46.14774" lon="4.5809">
        <ele>465</ele>
        <time>2023-10-18T13:19:47.914+00:00</time>
      </trkpt>
      <trkpt lat="46.14778" lon="4.58088">
        <ele>465</ele>
        <time>2023-10-18T13:19:52.434+00:00</time>
      </trkpt>
      <trkpt lat="46.14782" lon="4.58086">
        <ele>465</ele>
        <time>2023-10-18T13:19:56.628+00:00</time>
      </trkpt>
      <trkpt lat="46.14786" lon="4.58083">
        <ele>465</ele>
        <time>2023-10-18T13:20:00.534+00:00</time>
      </trkpt>
      <trkpt lat="46.1479" lon="4.58081">
        <ele>465</ele>
        <time>2023-10-18T13:20:04.434+00:00</time>
      </trkpt>
      <trkpt lat="46.14794" lon="4.58079">
        <ele>465</ele>
        <time>2023-10-18T13:20:09.234+00:00</time>
      </trkpt>
      <trkpt lat="46.14795" lon="4.58079">
        <ele>465</ele>
        <time>2023-10-18T13:20:21.434+00:00</time>
      </trkpt>
      <trkpt lat="46.14797" lon="4.58077">
        <ele>465</ele>
        <time>2023-10-18T13:20:25.942+00:00</time>
      </trkpt>
      <trkpt lat="46.14796" lon="4.5807">
        <ele>465</ele>
        <time>2023-10-18T13:20:30.434+00:00</time>
      </trkpt>
      <trkpt lat="46.14794" lon="4.58068">
        <ele>463</ele>
        <time>2023-10-18T13:20:34.934+00:00</time>
      </trkpt>
      <trkpt lat="46.14796" lon="4.58062">
        <ele>463</ele>
        <time>2023-10-18T13:20:39.542+00:00</time>
      </trkpt>
      <trkpt lat="46.14795" lon="4.58055">
        <ele>463</ele>
        <time>2023-10-18T13:20:43.634+00:00</time>
      </trkpt>
      <trkpt lat="46.14793" lon="4.58048">
        <ele>463</ele>
        <time>2023-10-18T13:20:47.654+00:00</time>
      </trkpt>
      <trkpt lat="46.14789" lon="4.58042">
        <ele>470</ele>
        <time>2023-10-18T13:20:52.322+00:00</time>
      </trkpt>
      <trkpt lat="46.14786" lon="4.58036">
        <ele>470</ele>
        <time>2023-10-18T13:20:56.254+00:00</time>
      </trkpt>
      <trkpt lat="46.14785" lon="4.58032">
        <ele>470</ele>
        <time>2023-10-18T13:21:00.694+00:00</time>
      </trkpt>
      <trkpt lat="46.14783" lon="4.58027">
        <ele>470</ele>
        <time>2023-10-18T13:21:05.134+00:00</time>
      </trkpt>
      <trkpt lat="46.14782" lon="4.58021">
        <ele>470</ele>
        <time>2023-10-18T13:21:09.834+00:00</time>
      </trkpt>
      <trkpt lat="46.14782" lon="4.58016">
        <ele>470</ele>
        <time>2023-10-18T13:21:13.834+00:00</time>
      </trkpt>
      <trkpt lat="46.14782" lon="4.58009">
        <ele>474</ele>
        <time>2023-10-18T13:21:18.474+00:00</time>
      </trkpt>
      <trkpt lat="46.14785" lon="4.58004">
        <ele>474</ele>
        <time>2023-10-18T13:21:23.014+00:00</time>
      </trkpt>
      <trkpt lat="46.14788" lon="4.57998">
        <ele>474</ele>
        <time>2023-10-18T13:21:27.534+00:00</time>
      </trkpt>
      <trkpt lat="46.1479" lon="4.57994">
        <ele>474</ele>
        <time>2023-10-18T13:21:31.642+00:00</time>
      </trkpt>
      <trkpt lat="46.14793" lon="4.5799">
        <ele>468</ele>
        <time>2023-10-18T13:21:35.634+00:00</time>
      </trkpt>
      <trkpt lat="46.14796" lon="4.57986">
        <ele>472</ele>
        <time>2023-10-18T13:21:39.554+00:00</time>
      </trkpt>
      <trkpt lat="46.14798" lon="4.57981">
        <ele>472</ele>
        <time>2023-10-18T13:21:44.194+00:00</time>
      </trkpt>
      <trkpt lat="46.148" lon="4.57975">
        <ele>472</ele>
        <time>2023-10-18T13:21:48.794+00:00</time>
      </trkpt>
      <trkpt lat="46.14803" lon="4.57969">
        <ele>472</ele>
        <time>2023-10-18T13:21:53.314+00:00</time>
      </trkpt>
      <trkpt lat="46.14805" lon="4.57964">
        <ele>472</ele>
        <time>2023-10-18T13:21:57.674+00:00</time>
      </trkpt>
      <trkpt lat="46.14808" lon="4.57958">
        <ele>472</ele>
        <time>2023-10-18T13:22:02.234+00:00</time>
      </trkpt>
      <trkpt lat="46.14811" lon="4.57954">
        <ele>475</ele>
        <time>2023-10-18T13:22:06.154+00:00</time>
      </trkpt>
      <trkpt lat="46.14814" lon="4.57948">
        <ele>475</ele>
        <time>2023-10-18T13:22:10.642+00:00</time>
      </trkpt>
      <trkpt lat="46.14817" lon="4.57942">
        <ele>475</ele>
        <time>2023-10-18T13:22:15.074+00:00</time>
      </trkpt>
      <trkpt lat="46.1482" lon="4.57936">
        <ele>473</ele>
        <time>2023-10-18T13:22:19.494+00:00</time>
      </trkpt>
      <trkpt lat="46.14821" lon="4.5793">
        <ele>476</ele>
        <time>2023-10-18T13:22:23.742+00:00</time>
      </trkpt>
      <trkpt lat="46.14823" lon="4.57922">
        <ele>476</ele>
        <time>2023-10-18T13:22:28.642+00:00</time>
      </trkpt>
      <trkpt lat="46.14825" lon="4.57915">
        <ele>476</ele>
        <time>2023-10-18T13:22:33.194+00:00</time>
      </trkpt>
      <trkpt lat="46.14827" lon="4.57908">
        <ele>476</ele>
        <time>2023-10-18T13:22:37.794+00:00</time>
      </trkpt>
      <trkpt lat="46.14828" lon="4.57902">
        <ele>479</ele>
        <time>2023-10-18T13:22:41.794+00:00</time>
      </trkpt>
      <trkpt lat="46.1483" lon="4.57895">
        <ele>479</ele>
        <time>2023-10-18T13:22:46.314+00:00</time>
      </trkpt>
      <trkpt lat="46.14832" lon="4.57888">
        <ele>479</ele>
        <time>2023-10-18T13:22:50.314+00:00</time>
      </trkpt>
      <trkpt lat="46.14835" lon="4.57881">
        <ele>479</ele>
        <time>2023-10-18T13:22:54.894+00:00</time>
      </trkpt>
      <trkpt lat="46.14837" lon="4.57874">
        <ele>479</ele>
        <time>2023-10-18T13:22:58.894+00:00</time>
      </trkpt>
      <trkpt lat="46.14839" lon="4.57867">
        <ele>479</ele>
        <time>2023-10-18T13:23:02.794+00:00</time>
      </trkpt>
      <trkpt lat="46.1484" lon="4.57861">
        <ele>479</ele>
        <time>2023-10-18T13:23:07.314+00:00</time>
      </trkpt>
      <trkpt lat="46.14842" lon="4.57855">
        <ele>479</ele>
        <time>2023-10-18T13:23:11.694+00:00</time>
      </trkpt>
      <trkpt lat="46.14844" lon="4.57849">
        <ele>479</ele>
        <time>2023-10-18T13:23:16.314+00:00</time>
      </trkpt>
      <trkpt lat="46.14846" lon="4.57842">
        <ele>479</ele>
        <time>2023-10-18T13:23:20.314+00:00</time>
      </trkpt>
      <trkpt lat="46.14848" lon="4.57834">
        <ele>474</ele>
        <time>2023-10-18T13:23:24.894+00:00</time>
      </trkpt>
      <trkpt lat="46.1485" lon="4.57827">
        <ele>474</ele>
        <time>2023-10-18T13:23:28.894+00:00</time>
      </trkpt>
      <trkpt lat="46.14852" lon="4.57819">
        <ele>477</ele>
        <time>2023-10-18T13:23:32.894+00:00</time>
      </trkpt>
      <trkpt lat="46.14854" lon="4.57813">
        <ele>477</ele>
        <time>2023-10-18T13:23:37.394+00:00</time>
      </trkpt>
      <trkpt lat="46.14855" lon="4.57807">
        <ele>477</ele>
        <time>2023-10-18T13:23:41.314+00:00</time>
      </trkpt>
      <trkpt lat="46.14857" lon="4.57801">
        <ele>477</ele>
        <time>2023-10-18T13:23:45.882+00:00</time>
      </trkpt>
      <trkpt lat="46.14859" lon="4.57794">
        <ele>477</ele>
        <time>2023-10-18T13:23:49.814+00:00</time>
      </trkpt>
      <trkpt lat="46.14861" lon="4.57788">
        <ele>478</ele>
        <time>2023-10-18T13:23:53.914+00:00</time>
      </trkpt>
      <trkpt lat="46.14862" lon="4.57781">
        <ele>478</ele>
        <time>2023-10-18T13:23:58.522+00:00</time>
      </trkpt>
      <trkpt lat="46.14863" lon="4.57774">
        <ele>478</ele>
        <time>2023-10-18T13:24:02.614+00:00</time>
      </trkpt>
      <trkpt lat="46.14865" lon="4.57768">
        <ele>478</ele>
        <time>2023-10-18T13:24:07.014+00:00</time>
      </trkpt>
      <trkpt lat="46.14867" lon="4.5776">
        <ele>479</ele>
        <time>2023-10-18T13:24:11.162+00:00</time>
      </trkpt>
      <trkpt lat="46.14868" lon="4.57754">
        <ele>479</ele>
        <time>2023-10-18T13:24:15.134+00:00</time>
      </trkpt>
      <trkpt lat="46.14869" lon="4.57748">
        <ele>479</ele>
        <time>2023-10-18T13:24:19.624+00:00</time>
      </trkpt>
      <trkpt lat="46.1487" lon="4.5774">
        <ele>479</ele>
        <time>2023-10-18T13:24:24.154+00:00</time>
      </trkpt>
      <trkpt lat="46.14873" lon="4.57733">
        <ele>481</ele>
        <time>2023-10-18T13:24:28.774+00:00</time>
      </trkpt>
      <trkpt lat="46.14875" lon="4.57726">
        <ele>481</ele>
        <time>2023-10-18T13:24:33.314+00:00</time>
      </trkpt>
      <trkpt lat="46.14878" lon="4.57719">
        <ele>477</ele>
        <time>2023-10-18T13:24:38.314+00:00</time>
      </trkpt>
      <trkpt lat="46.1488" lon="4.57714">
        <ele>477</ele>
        <time>2023-10-18T13:24:42.314+00:00</time>
      </trkpt>
      <trkpt lat="46.14882" lon="4.57709">
        <ele>477</ele>
        <time>2023-10-18T13:24:46.794+00:00</time>
      </trkpt>
      <trkpt lat="46.14883" lon="4.57703">
        <ele>481</ele>
        <time>2023-10-18T13:24:51.294+00:00</time>
      </trkpt>
      <trkpt lat="46.14885" lon="4.57697">
        <ele>481</ele>
        <time>2023-10-18T13:24:55.314+00:00</time>
      </trkpt>
      <trkpt lat="46.14886" lon="4.5769">
        <ele>481</ele>
        <time>2023-10-18T13:25:00.014+00:00</time>
      </trkpt>
      <trkpt lat="46.14888" lon="4.57683">
        <ele>481</ele>
        <time>2023-10-18T13:25:04.625+00:00</time>
      </trkpt>
      <trkpt lat="46.1489" lon="4.57677">
        <ele>484</ele>
        <time>2023-10-18T13:25:09.134+00:00</time>
      </trkpt>
      <trkpt lat="46.14892" lon="4.57672">
        <ele>484</ele>
        <time>2023-10-18T13:25:13.822+00:00</time>
      </trkpt>
      <trkpt lat="46.14894" lon="4.57667">
        <ele>484</ele>
        <time>2023-10-18T13:25:17.754+00:00</time>
      </trkpt>
      <trkpt lat="46.14896" lon="4.57662">
        <ele>484</ele>
        <time>2023-10-18T13:25:22.314+00:00</time>
      </trkpt>
      <trkpt lat="46.14897" lon="4.57655">
        <ele>484</ele>
        <time>2023-10-18T13:25:27.402+00:00</time>
      </trkpt>
      <trkpt lat="46.14898" lon="4.57649">
        <ele>487</ele>
        <time>2023-10-18T13:25:31.254+00:00</time>
      </trkpt>
      <trkpt lat="46.14899" lon="4.57642">
        <ele>487</ele>
        <time>2023-10-18T13:25:35.742+00:00</time>
      </trkpt>
      <trkpt lat="46.149" lon="4.57635">
        <ele>487</ele>
        <time>2023-10-18T13:25:39.814+00:00</time>
      </trkpt>
      <trkpt lat="46.14901" lon="4.5763">
        <ele>487</ele>
        <time>2023-10-18T13:25:44.754+00:00</time>
      </trkpt>
      <trkpt lat="46.14903" lon="4.57623">
        <ele>482</ele>
        <time>2023-10-18T13:25:49.254+00:00</time>
      </trkpt>
      <trkpt lat="46.14904" lon="4.57618">
        <ele>482</ele>
        <time>2023-10-18T13:25:53.674+00:00</time>
      </trkpt>
      <trkpt lat="46.14905" lon="4.57612">
        <ele>482</ele>
        <time>2023-10-18T13:25:58.214+00:00</time>
      </trkpt>
      <trkpt lat="46.14905" lon="4.57604">
        <ele>482</ele>
        <time>2023-10-18T13:26:03.368+00:00</time>
      </trkpt>
      <trkpt lat="46.14906" lon="4.57598">
        <ele>482</ele>
        <time>2023-10-18T13:26:07.414+00:00</time>
      </trkpt>
      <trkpt lat="46.14907" lon="4.5759">
        <ele>485</ele>
        <time>2023-10-18T13:26:11.814+00:00</time>
      </trkpt>
      <trkpt lat="46.14908" lon="4.57583">
        <ele>485</ele>
        <time>2023-10-18T13:26:15.814+00:00</time>
      </trkpt>
      <trkpt lat="46.14909" lon="4.57577">
        <ele>485</ele>
        <time>2023-10-18T13:26:20.514+00:00</time>
      </trkpt>
      <trkpt lat="46.1491" lon="4.57571">
        <ele>485</ele>
        <time>2023-10-18T13:26:24.414+00:00</time>
      </trkpt>
      <trkpt lat="46.1491" lon="4.57564">
        <ele>484</ele>
        <time>2023-10-18T13:26:28.614+00:00</time>
      </trkpt>
      <trkpt lat="46.1491" lon="4.57556">
        <ele>484</ele>
        <time>2023-10-18T13:26:33.214+00:00</time>
      </trkpt>
      <trkpt lat="46.14909" lon="4.57549">
        <ele>484</ele>
        <time>2023-10-18T13:26:37.214+00:00</time>
      </trkpt>
      <trkpt lat="46.14909" lon="4.57541">
        <ele>483</ele>
        <time>2023-10-18T13:26:41.214+00:00</time>
      </trkpt>
      <trkpt lat="46.1491" lon="4.57534">
        <ele>483</ele>
        <time>2023-10-18T13:26:45.822+00:00</time>
      </trkpt>
      <trkpt lat="46.1491" lon="4.57528">
        <ele>483</ele>
        <time>2023-10-18T13:26:50.014+00:00</time>
      </trkpt>
      <trkpt lat="46.1491" lon="4.57522">
        <ele>483</ele>
        <time>2023-10-18T13:26:54.014+00:00</time>
      </trkpt>
      <trkpt lat="46.1491" lon="4.57514">
        <ele>483</ele>
        <time>2023-10-18T13:26:58.634+00:00</time>
      </trkpt>
      <trkpt lat="46.14912" lon="4.57509">
        <ele>482</ele>
        <time>2023-10-18T13:27:02.754+00:00</time>
      </trkpt>
      <trkpt lat="46.14912" lon="4.57502">
        <ele>482</ele>
        <time>2023-10-18T13:27:07.194+00:00</time>
      </trkpt>
      <trkpt lat="46.1491" lon="4.57496">
        <ele>482</ele>
        <time>2023-10-18T13:27:11.194+00:00</time>
      </trkpt>
      <trkpt lat="46.1491" lon="4.57489">
        <ele>482</ele>
        <time>2023-10-18T13:27:15.822+00:00</time>
      </trkpt>
      <trkpt lat="46.1491" lon="4.57483">
        <ele>480</ele>
        <time>2023-10-18T13:27:19.814+00:00</time>
      </trkpt>
      <trkpt lat="46.14908" lon="4.57478">
        <ele>480</ele>
        <time>2023-10-18T13:27:23.814+00:00</time>
      </trkpt>
      <trkpt lat="46.14908" lon="4.57472">
        <ele>480</ele>
        <time>2023-10-18T13:27:27.914+00:00</time>
      </trkpt>
      <trkpt lat="46.14907" lon="4.57465">
        <ele>480</ele>
        <time>2023-10-18T13:27:32.014+00:00</time>
      </trkpt>
      <trkpt lat="46.14907" lon="4.57457">
        <ele>479</ele>
        <time>2023-10-18T13:27:36.622+00:00</time>
      </trkpt>
      <trkpt lat="46.14907" lon="4.57449">
        <ele>479</ele>
        <time>2023-10-18T13:27:41.134+00:00</time>
      </trkpt>
      <trkpt lat="46.14907" lon="4.57441">
        <ele>479</ele>
        <time>2023-10-18T13:27:45.234+00:00</time>
      </trkpt>
      <trkpt lat="46.14908" lon="4.57434">
        <ele>479</ele>
        <time>2023-10-18T13:27:49.154+00:00</time>
      </trkpt>
      <trkpt lat="46.14908" lon="4.57427">
        <ele>478</ele>
        <time>2023-10-18T13:27:53.602+00:00</time>
      </trkpt>
      <trkpt lat="46.14909" lon="4.57423">
        <ele>478</ele>
        <time>2023-10-18T13:29:06.621+00:00</time>
      </trkpt>
      <trkpt lat="46.14912" lon="4.57428">
        <ele>478</ele>
        <time>2023-10-18T13:29:10.894+00:00</time>
      </trkpt>
      <trkpt lat="46.14915" lon="4.57429">
        <ele>478</ele>
        <time>2023-10-18T13:29:15.394+00:00</time>
      </trkpt>
      <trkpt lat="46.14917" lon="4.57431">
        <ele>478</ele>
        <time>2023-10-18T13:29:19.494+00:00</time>
      </trkpt>
      <trkpt lat="46.1492" lon="4.57436">
        <ele>479</ele>
        <time>2023-10-18T13:29:24.620+00:00</time>
      </trkpt>
      <trkpt lat="46.14923" lon="4.57441">
        <ele>479</ele>
        <time>2023-10-18T13:29:29.194+00:00</time>
      </trkpt>
      <trkpt lat="46.14926" lon="4.57444">
        <ele>479</ele>
        <time>2023-10-18T13:29:33.734+00:00</time>
      </trkpt>
      <trkpt lat="46.14929" lon="4.57448">
        <ele>479</ele>
        <time>2023-10-18T13:29:37.794+00:00</time>
      </trkpt>
      <trkpt lat="46.14932" lon="4.57452">
        <ele>473</ele>
        <time>2023-10-18T13:29:42.314+00:00</time>
      </trkpt>
      <trkpt lat="46.14937" lon="4.57458">
        <ele>473</ele>
        <time>2023-10-18T13:29:50.814+00:00</time>
      </trkpt>
      <trkpt lat="46.14939" lon="4.57459">
        <ele>473</ele>
        <time>2023-10-18T13:29:55.514+00:00</time>
      </trkpt>
      <trkpt lat="46.14941" lon="4.57459">
        <ele>473</ele>
        <time>2023-10-18T13:30:00.114+00:00</time>
      </trkpt>
      <trkpt lat="46.14944" lon="4.57459">
        <ele>473</ele>
        <time>2023-10-18T13:30:04.618+00:00</time>
      </trkpt>
      <trkpt lat="46.14946" lon="4.57461">
        <ele>473</ele>
        <time>2023-10-18T13:30:08.714+00:00</time>
      </trkpt>
      <trkpt lat="46.1495" lon="4.57463">
        <ele>473</ele>
        <time>2023-10-18T13:30:13.214+00:00</time>
      </trkpt>
      <trkpt lat="46.14954" lon="4.57463">
        <ele>473</ele>
        <time>2023-10-18T13:30:18.014+00:00</time>
      </trkpt>
      <trkpt lat="46.14957" lon="4.57464">
        <ele>473</ele>
        <time>2023-10-18T13:30:22.214+00:00</time>
      </trkpt>
      <trkpt lat="46.14959" lon="4.57466">
        <ele>462</ele>
        <time>2023-10-18T13:30:26.814+00:00</time>
      </trkpt>
      <trkpt lat="46.14962" lon="4.57469">
        <ele>462</ele>
        <time>2023-10-18T13:30:31.314+00:00</time>
      </trkpt>
      <trkpt lat="46.14964" lon="4.5747">
        <ele>462</ele>
        <time>2023-10-18T13:30:35.514+00:00</time>
      </trkpt>
      <trkpt lat="46.14968" lon="4.57473">
        <ele>462</ele>
        <time>2023-10-18T13:30:40.014+00:00</time>
      </trkpt>
      <trkpt lat="46.14971" lon="4.57475">
        <ele>462</ele>
        <time>2023-10-18T13:30:44.620+00:00</time>
      </trkpt>
      <trkpt lat="46.14975" lon="4.57476">
        <ele>462</ele>
        <time>2023-10-18T13:30:48.814+00:00</time>
      </trkpt>
      <trkpt lat="46.14979" lon="4.57479">
        <ele>462</ele>
        <time>2023-10-18T13:30:53.314+00:00</time>
      </trkpt>
      <trkpt lat="46.14981" lon="4.57483">
        <ele>462</ele>
        <time>2023-10-18T13:30:57.434+00:00</time>
      </trkpt>
      <trkpt lat="46.14983" lon="4.57489">
        <ele>462</ele>
        <time>2023-10-18T13:31:01.619+00:00</time>
      </trkpt>
      <trkpt lat="46.14985" lon="4.57493">
        <ele>462</ele>
        <time>2023-10-18T13:31:06.234+00:00</time>
      </trkpt>
      <trkpt lat="46.14988" lon="4.57498">
        <ele>453</ele>
        <time>2023-10-18T13:31:10.834+00:00</time>
      </trkpt>
      <trkpt lat="46.14991" lon="4.57503">
        <ele>453</ele>
        <time>2023-10-18T13:31:15.434+00:00</time>
      </trkpt>
      <trkpt lat="46.14994" lon="4.57508">
        <ele>453</ele>
        <time>2023-10-18T13:31:20.034+00:00</time>
      </trkpt>
      <trkpt lat="46.14997" lon="4.57513">
        <ele>453</ele>
        <time>2023-10-18T13:31:24.234+00:00</time>
      </trkpt>
      <trkpt lat="46.15" lon="4.57516">
        <ele>455</ele>
        <time>2023-10-18T13:31:29.394+00:00</time>
      </trkpt>
      <trkpt lat="46.15002" lon="4.57518">
        <ele>455</ele>
        <time>2023-10-18T13:31:33.434+00:00</time>
      </trkpt>
      <trkpt lat="46.15004" lon="4.57521">
        <ele>455</ele>
        <time>2023-10-18T13:31:38.234+00:00</time>
      </trkpt>
      <trkpt lat="46.15006" lon="4.57524">
        <ele>455</ele>
        <time>2023-10-18T13:31:42.134+00:00</time>
      </trkpt>
      <trkpt lat="46.15009" lon="4.57526">
        <ele>455</ele>
        <time>2023-10-18T13:31:46.653+00:00</time>
      </trkpt>
      <trkpt lat="46.15011" lon="4.57529">
        <ele>455</ele>
        <time>2023-10-18T13:31:50.734+00:00</time>
      </trkpt>
      <trkpt lat="46.15013" lon="4.57536">
        <ele>455</ele>
        <time>2023-10-18T13:31:54.754+00:00</time>
      </trkpt>
      <trkpt lat="46.15013" lon="4.57542">
        <ele>454</ele>
        <time>2023-10-18T13:31:58.754+00:00</time>
      </trkpt>
      <trkpt lat="46.15014" lon="4.57548">
        <ele>441</ele>
        <time>2023-10-18T13:32:03.314+00:00</time>
      </trkpt>
      <trkpt lat="46.15016" lon="4.57552">
        <ele>441</ele>
        <time>2023-10-18T13:32:07.254+00:00</time>
      </trkpt>
      <trkpt lat="46.15019" lon="4.57554">
        <ele>441</ele>
        <time>2023-10-18T13:32:11.854+00:00</time>
      </trkpt>
      <trkpt lat="46.1502" lon="4.57556">
        <ele>441</ele>
        <time>2023-10-18T13:32:16.454+00:00</time>
      </trkpt>
      <trkpt lat="46.15023" lon="4.57559">
        <ele>441</ele>
        <time>2023-10-18T13:32:20.454+00:00</time>
      </trkpt>
      <trkpt lat="46.15025" lon="4.57566">
        <ele>441</ele>
        <time>2023-10-18T13:32:24.954+00:00</time>
      </trkpt>
      <trkpt lat="46.15028" lon="4.57572">
        <ele>441</ele>
        <time>2023-10-18T13:32:29.368+00:00</time>
      </trkpt>
      <trkpt lat="46.15031" lon="4.57575">
        <ele>441</ele>
        <time>2023-10-18T13:32:33.454+00:00</time>
      </trkpt>
      <trkpt lat="46.15033" lon="4.57581">
        <ele>441</ele>
        <time>2023-10-18T13:32:37.854+00:00</time>
      </trkpt>
      <trkpt lat="46.15034" lon="4.57584">
        <ele>441</ele>
        <time>2023-10-18T13:32:42.054+00:00</time>
      </trkpt>
      <trkpt lat="46.15036" lon="4.57586">
        <ele>441</ele>
        <time>2023-10-18T13:32:46.554+00:00</time>
      </trkpt>
      <trkpt lat="46.15039" lon="4.57588">
        <ele>441</ele>
        <time>2023-10-18T13:32:50.574+00:00</time>
      </trkpt>
      <trkpt lat="46.15043" lon="4.57593">
        <ele>431</ele>
        <time>2023-10-18T13:32:55.014+00:00</time>
      </trkpt>
      <trkpt lat="46.15046" lon="4.57599">
        <ele>431</ele>
        <time>2023-10-18T13:32:59.014+00:00</time>
      </trkpt>
      <trkpt lat="46.15051" lon="4.57605">
        <ele>431</ele>
        <time>2023-10-18T13:33:04.534+00:00</time>
      </trkpt>
      <trkpt lat="46.15054" lon="4.5761">
        <ele>431</ele>
        <time>2023-10-18T13:33:08.614+00:00</time>
      </trkpt>
      <trkpt lat="46.15054" lon="4.5762">
        <ele>431</ele>
        <time>2023-10-18T13:33:16.914+00:00</time>
      </trkpt>
      <trkpt lat="46.15053" lon="4.57622">
        <ele>431</ele>
        <time>2023-10-18T13:33:21.014+00:00</time>
      </trkpt>
      <trkpt lat="46.15055" lon="4.57622">
        <ele>431</ele>
        <time>2023-10-18T13:33:25.214+00:00</time>
      </trkpt>
      <trkpt lat="46.15058" lon="4.57623">
        <ele>431</ele>
        <time>2023-10-18T13:33:29.414+00:00</time>
      </trkpt>
      <trkpt lat="46.15062" lon="4.57625">
        <ele>430</ele>
        <time>2023-10-18T13:33:34.617+00:00</time>
      </trkpt>
      <trkpt lat="46.15065" lon="4.57629">
        <ele>430</ele>
        <time>2023-10-18T13:33:39.154+00:00</time>
      </trkpt>
      <trkpt lat="46.15068" lon="4.57632">
        <ele>430</ele>
        <time>2023-10-18T13:33:43.214+00:00</time>
      </trkpt>
      <trkpt lat="46.15069" lon="4.57636">
        <ele>430</ele>
        <time>2023-10-18T13:33:47.314+00:00</time>
      </trkpt>
      <trkpt lat="46.15071" lon="4.57638">
        <ele>424</ele>
        <time>2023-10-18T13:33:51.834+00:00</time>
      </trkpt>
      <trkpt lat="46.15074" lon="4.57643">
        <ele>424</ele>
        <time>2023-10-18T13:33:56.414+00:00</time>
      </trkpt>
      <trkpt lat="46.15076" lon="4.57646">
        <ele>424</ele>
        <time>2023-10-18T13:34:00.414+00:00</time>
      </trkpt>
      <trkpt lat="46.15078" lon="4.57651">
        <ele>424</ele>
        <time>2023-10-18T13:34:05.114+00:00</time>
      </trkpt>
      <trkpt lat="46.1508" lon="4.57654">
        <ele>422</ele>
        <time>2023-10-18T13:34:09.114+00:00</time>
      </trkpt>
      <trkpt lat="46.15083" lon="4.57659">
        <ele>422</ele>
        <time>2023-10-18T13:34:13.914+00:00</time>
      </trkpt>
      <trkpt lat="46.15086" lon="4.57662">
        <ele>422</ele>
        <time>2023-10-18T13:34:18.114+00:00</time>
      </trkpt>
      <trkpt lat="46.15089" lon="4.57668">
        <ele>422</ele>
        <time>2023-10-18T13:34:22.634+00:00</time>
      </trkpt>
      <trkpt lat="46.1509" lon="4.57673">
        <ele>422</ele>
        <time>2023-10-18T13:34:26.754+00:00</time>
      </trkpt>
      <trkpt lat="46.1509" lon="4.57678">
        <ele>422</ele>
        <time>2023-10-18T13:34:30.754+00:00</time>
      </trkpt>
      <trkpt lat="46.15092" lon="4.57682">
        <ele>422</ele>
        <time>2023-10-18T13:34:35.194+00:00</time>
      </trkpt>
      <trkpt lat="46.15094" lon="4.57688">
        <ele>422</ele>
        <time>2023-10-18T13:34:39.794+00:00</time>
      </trkpt>
      <trkpt lat="46.15094" lon="4.57694">
        <ele>422</ele>
        <time>2023-10-18T13:34:43.814+00:00</time>
      </trkpt>
      <trkpt lat="46.15095" lon="4.577">
        <ele>422</ele>
        <time>2023-10-18T13:34:48.514+00:00</time>
      </trkpt>
      <trkpt lat="46.15096" lon="4.57704">
        <ele>422</ele>
        <time>2023-10-18T13:34:53.615+00:00</time>
      </trkpt>
      <trkpt lat="46.15098" lon="4.57705">
        <ele>411</ele>
        <time>2023-10-18T13:34:57.814+00:00</time>
      </trkpt>
      <trkpt lat="46.151" lon="4.57709">
        <ele>410</ele>
        <time>2023-10-18T13:35:02.514+00:00</time>
      </trkpt>
      <trkpt lat="46.151" lon="4.57714">
        <ele>410</ele>
        <time>2023-10-18T13:35:06.614+00:00</time>
      </trkpt>
      <trkpt lat="46.15101" lon="4.5772">
        <ele>410</ele>
        <time>2023-10-18T13:35:11.414+00:00</time>
      </trkpt>
      <trkpt lat="46.151" lon="4.57728">
        <ele>410</ele>
        <time>2023-10-18T13:35:15.994+00:00</time>
      </trkpt>
      <trkpt lat="46.15101" lon="4.57734">
        <ele>410</ele>
        <time>2023-10-18T13:35:20.454+00:00</time>
      </trkpt>
      <trkpt lat="46.15103" lon="4.57738">
        <ele>409</ele>
        <time>2023-10-18T13:35:25.494+00:00</time>
      </trkpt>
      <trkpt lat="46.15105" lon="4.5774">
        <ele>409</ele>
        <time>2023-10-18T13:35:30.494+00:00</time>
      </trkpt>
      <trkpt lat="46.15107" lon="4.57743">
        <ele>409</ele>
        <time>2023-10-18T13:35:34.494+00:00</time>
      </trkpt>
      <trkpt lat="46.15109" lon="4.57747">
        <ele>409</ele>
        <time>2023-10-18T13:35:38.494+00:00</time>
      </trkpt>
      <trkpt lat="46.15113" lon="4.57749">
        <ele>409</ele>
        <time>2023-10-18T13:35:43.094+00:00</time>
      </trkpt>
      <trkpt lat="46.15116" lon="4.57753">
        <ele>409</ele>
        <time>2023-10-18T13:35:47.620+00:00</time>
      </trkpt>
      <trkpt lat="46.15123" lon="4.57761">
        <ele>409</ele>
        <time>2023-10-18T13:36:01.114+00:00</time>
      </trkpt>
      <trkpt lat="46.15124" lon="4.57762">
        <ele>409</ele>
        <time>2023-10-18T13:36:05.634+00:00</time>
      </trkpt>
      <trkpt lat="46.15125" lon="4.57762">
        <ele>409</ele>
        <time>2023-10-18T13:36:10.074+00:00</time>
      </trkpt>
      <trkpt lat="46.15126" lon="4.57762">
        <ele>401</ele>
        <time>2023-10-18T13:36:14.618+00:00</time>
      </trkpt>
      <trkpt lat="46.15128" lon="4.57764">
        <ele>401</ele>
        <time>2023-10-18T13:36:18.619+00:00</time>
      </trkpt>
      <trkpt lat="46.15129" lon="4.57771">
        <ele>399</ele>
        <time>2023-10-18T13:36:23.194+00:00</time>
      </trkpt>
      <trkpt lat="46.15131" lon="4.57779">
        <ele>399</ele>
        <time>2023-10-18T13:36:27.814+00:00</time>
      </trkpt>
      <trkpt lat="46.15135" lon="4.57782">
        <ele>399</ele>
        <time>2023-10-18T13:36:31.834+00:00</time>
      </trkpt>
      <trkpt lat="46.1514" lon="4.5778">
        <ele>399</ele>
        <time>2023-10-18T13:36:36.434+00:00</time>
      </trkpt>
      <trkpt lat="46.15143" lon="4.57777">
        <ele>399</ele>
        <time>2023-10-18T13:36:40.534+00:00</time>
      </trkpt>
      <trkpt lat="46.15147" lon="4.57777">
        <ele>399</ele>
        <time>2023-10-18T13:36:44.634+00:00</time>
      </trkpt>
      <trkpt lat="46.1515" lon="4.57782">
        <ele>399</ele>
        <time>2023-10-18T13:36:48.734+00:00</time>
      </trkpt>
      <trkpt lat="46.15151" lon="4.57785">
        <ele>399</ele>
        <time>2023-10-18T13:36:52.754+00:00</time>
      </trkpt>
      <trkpt lat="46.15146" lon="4.57782">
        <ele>399</ele>
        <time>2023-10-18T13:41:08.594+00:00</time>
      </trkpt>
      <trkpt lat="46.15144" lon="4.57783">
        <ele>399</ele>
        <time>2023-10-18T13:41:12.614+00:00</time>
      </trkpt>
      <trkpt lat="46.15144" lon="4.57784">
        <ele>399</ele>
        <time>2023-10-18T13:41:17.414+00:00</time>
      </trkpt>
      <trkpt lat="46.15143" lon="4.57784">
        <ele>399</ele>
        <time>2023-10-18T13:41:22.214+00:00</time>
      </trkpt>
      <trkpt lat="46.15143" lon="4.57785">
        <ele>399</ele>
        <time>2023-10-18T13:41:27.514+00:00</time>
      </trkpt>
      <trkpt lat="46.15144" lon="4.57785">
        <ele>399</ele>
        <time>2023-10-18T13:42:00.622+00:00</time>
      </trkpt>
      <trkpt lat="46.15144" lon="4.57788">
        <ele>399</ele>
        <time>2023-10-18T13:42:05.214+00:00</time>
      </trkpt>
      <trkpt lat="46.15147" lon="4.5779">
        <ele>399</ele>
        <time>2023-10-18T13:42:10.014+00:00</time>
      </trkpt>
      <trkpt lat="46.1515" lon="4.57793">
        <ele>399</ele>
        <time>2023-10-18T13:42:14.114+00:00</time>
      </trkpt>
      <trkpt lat="46.15153" lon="4.57801">
        <ele>399</ele>
        <time>2023-10-18T13:42:18.614+00:00</time>
      </trkpt>
      <trkpt lat="46.15155" lon="4.57808">
        <ele>399</ele>
        <time>2023-10-18T13:42:23.114+00:00</time>
      </trkpt>
      <trkpt lat="46.15157" lon="4.57814">
        <ele>399</ele>
        <time>2023-10-18T13:42:27.214+00:00</time>
      </trkpt>
      <trkpt lat="46.1516" lon="4.57817">
        <ele>399</ele>
        <time>2023-10-18T13:42:31.414+00:00</time>
      </trkpt>
      <trkpt lat="46.15163" lon="4.57821">
        <ele>397</ele>
        <time>2023-10-18T13:42:35.914+00:00</time>
      </trkpt>
      <trkpt lat="46.15166" lon="4.57824">
        <ele>397</ele>
        <time>2023-10-18T13:42:40.014+00:00</time>
      </trkpt>
      <trkpt lat="46.15169" lon="4.5783">
        <ele>397</ele>
        <time>2023-10-18T13:42:44.214+00:00</time>
      </trkpt>
      <trkpt lat="46.15172" lon="4.57837">
        <ele>397</ele>
        <time>2023-10-18T13:42:48.734+00:00</time>
      </trkpt>
      <trkpt lat="46.15174" lon="4.57843">
        <ele>397</ele>
        <time>2023-10-18T13:42:53.234+00:00</time>
      </trkpt>
      <trkpt lat="46.15176" lon="4.57848">
        <ele>392</ele>
        <time>2023-10-18T13:42:57.834+00:00</time>
      </trkpt>
      <trkpt lat="46.15178" lon="4.57852">
        <ele>392</ele>
        <time>2023-10-18T13:43:01.834+00:00</time>
      </trkpt>
      <trkpt lat="46.15181" lon="4.57855">
        <ele>395</ele>
        <time>2023-10-18T13:43:06.034+00:00</time>
      </trkpt>
      <trkpt lat="46.15184" lon="4.57859">
        <ele>395</ele>
        <time>2023-10-18T13:43:10.034+00:00</time>
      </trkpt>
      <trkpt lat="46.15187" lon="4.57862">
        <ele>395</ele>
        <time>2023-10-18T13:43:14.614+00:00</time>
      </trkpt>
      <trkpt lat="46.15189" lon="4.57867">
        <ele>395</ele>
        <time>2023-10-18T13:43:18.634+00:00</time>
      </trkpt>
      <trkpt lat="46.15191" lon="4.57874">
        <ele>395</ele>
        <time>2023-10-18T13:43:23.234+00:00</time>
      </trkpt>
      <trkpt lat="46.15192" lon="4.57876">
        <ele>387</ele>
        <time>2023-10-18T13:43:27.314+00:00</time>
      </trkpt>
      <trkpt lat="46.15191" lon="4.57876">
        <ele>387</ele>
        <time>2023-10-18T13:44:28.620+00:00</time>
      </trkpt>
      <trkpt lat="46.15196" lon="4.57879">
        <ele>387</ele>
        <time>2023-10-18T13:44:33.214+00:00</time>
      </trkpt>
      <trkpt lat="46.15201" lon="4.57882">
        <ele>387</ele>
        <time>2023-10-18T13:44:38.034+00:00</time>
      </trkpt>
      <trkpt lat="46.15203" lon="4.57885">
        <ele>387</ele>
        <time>2023-10-18T13:44:42.554+00:00</time>
      </trkpt>
      <trkpt lat="46.15206" lon="4.57887">
        <ele>387</ele>
        <time>2023-10-18T13:44:46.620+00:00</time>
      </trkpt>
      <trkpt lat="46.15209" lon="4.57889">
        <ele>393</ele>
        <time>2023-10-18T13:44:51.154+00:00</time>
      </trkpt>
      <trkpt lat="46.15213" lon="4.57891">
        <ele>393</ele>
        <time>2023-10-18T13:44:55.694+00:00</time>
      </trkpt>
      <trkpt lat="46.15218" lon="4.57894">
        <ele>393</ele>
        <time>2023-10-18T13:45:00.314+00:00</time>
      </trkpt>
      <trkpt lat="46.15223" lon="4.57896">
        <ele>393</ele>
        <time>2023-10-18T13:45:05.474+00:00</time>
      </trkpt>
      <trkpt lat="46.15227" lon="4.579">
        <ele>393</ele>
        <time>2023-10-18T13:45:10.094+00:00</time>
      </trkpt>
      <trkpt lat="46.15231" lon="4.57903">
        <ele>393</ele>
        <time>2023-10-18T13:45:14.494+00:00</time>
      </trkpt>
      <trkpt lat="46.15233" lon="4.57914">
        <ele>387</ele>
        <time>2023-10-18T13:45:18.994+00:00</time>
      </trkpt>
      <trkpt lat="46.15233" lon="4.57922">
        <ele>387</ele>
        <time>2023-10-18T13:45:23.094+00:00</time>
      </trkpt>
      <trkpt lat="46.15231" lon="4.57929">
        <ele>387</ele>
        <time>2023-10-18T13:45:27.623+00:00</time>
      </trkpt>
      <trkpt lat="46.1523" lon="4.57937">
        <ele>380</ele>
        <time>2023-10-18T13:45:31.622+00:00</time>
      </trkpt>
      <trkpt lat="46.1523" lon="4.57945">
        <ele>380</ele>
        <time>2023-10-18T13:45:36.194+00:00</time>
      </trkpt>
      <trkpt lat="46.15232" lon="4.57952">
        <ele>380</ele>
        <time>2023-10-18T13:45:40.794+00:00</time>
      </trkpt>
      <trkpt lat="46.15233" lon="4.57959">
        <ele>376</ele>
        <time>2023-10-18T13:45:45.294+00:00</time>
      </trkpt>
      <trkpt lat="46.15235" lon="4.57965">
        <ele>376</ele>
        <time>2023-10-18T13:45:49.314+00:00</time>
      </trkpt>
      <trkpt lat="46.15238" lon="4.57971">
        <ele>381</ele>
        <time>2023-10-18T13:45:53.894+00:00</time>
      </trkpt>
      <trkpt lat="46.15242" lon="4.57977">
        <ele>381</ele>
        <time>2023-10-18T13:45:58.434+00:00</time>
      </trkpt>
      <trkpt lat="46.15245" lon="4.57982">
        <ele>381</ele>
        <time>2023-10-18T13:46:02.954+00:00</time>
      </trkpt>
      <trkpt lat="46.15248" lon="4.57989">
        <ele>375</ele>
        <time>2023-10-18T13:46:06.874+00:00</time>
      </trkpt>
      <trkpt lat="46.15247" lon="4.57999">
        <ele>375</ele>
        <time>2023-10-18T13:46:11.393+00:00</time>
      </trkpt>
      <trkpt lat="46.1525" lon="4.58007">
        <ele>375</ele>
        <time>2023-10-18T13:46:15.894+00:00</time>
      </trkpt>
      <trkpt lat="46.15253" lon="4.58011">
        <ele>375</ele>
        <time>2023-10-18T13:46:19.894+00:00</time>
      </trkpt>
      <trkpt lat="46.15256" lon="4.58016">
        <ele>370</ele>
        <time>2023-10-18T13:46:23.894+00:00</time>
      </trkpt>
      <trkpt lat="46.15257" lon="4.58022">
        <ele>370</ele>
        <time>2023-10-18T13:46:28.494+00:00</time>
      </trkpt>
      <trkpt lat="46.15256" lon="4.58024">
        <ele>370</ele>
        <time>2023-10-18T13:46:32.494+00:00</time>
      </trkpt>
      <trkpt lat="46.15264" lon="4.5803">
        <ele>370</ele>
        <time>2023-10-18T13:47:53.622+00:00</time>
      </trkpt>
      <trkpt lat="46.15264" lon="4.5803">
        <ele>371</ele>
        <time>2023-10-18T13:47:58.194+00:00</time>
      </trkpt>
      <trkpt lat="46.15266" lon="4.58034">
        <ele>371</ele>
        <time>2023-10-18T13:48:02.794+00:00</time>
      </trkpt>
      <trkpt lat="46.15269" lon="4.58043">
        <ele>365</ele>
        <time>2023-10-18T13:48:07.314+00:00</time>
      </trkpt>
      <trkpt lat="46.15272" lon="4.58046">
        <ele>365</ele>
        <time>2023-10-18T13:48:11.294+00:00</time>
      </trkpt>
      <trkpt lat="46.15275" lon="4.58049">
        <ele>365</ele>
        <time>2023-10-18T13:48:15.314+00:00</time>
      </trkpt>
      <trkpt lat="46.1528" lon="4.58052">
        <ele>365</ele>
        <time>2023-10-18T13:48:19.414+00:00</time>
      </trkpt>
      <trkpt lat="46.15284" lon="4.58055">
        <ele>365</ele>
        <time>2023-10-18T13:48:23.514+00:00</time>
      </trkpt>
      <trkpt lat="46.15288" lon="4.58059">
        <ele>365</ele>
        <time>2023-10-18T13:48:27.614+00:00</time>
      </trkpt>
      <trkpt lat="46.15292" lon="4.58062">
        <ele>367</ele>
        <time>2023-10-18T13:48:31.714+00:00</time>
      </trkpt>
      <trkpt lat="46.15296" lon="4.58065">
        <ele>367</ele>
        <time>2023-10-18T13:48:35.714+00:00</time>
      </trkpt>
      <trkpt lat="46.15299" lon="4.5807">
        <ele>360</ele>
        <time>2023-10-18T13:48:40.214+00:00</time>
      </trkpt>
      <trkpt lat="46.15303" lon="4.58075">
        <ele>360</ele>
        <time>2023-10-18T13:48:44.414+00:00</time>
      </trkpt>
      <trkpt lat="46.15305" lon="4.58082">
        <ele>360</ele>
        <time>2023-10-18T13:48:48.914+00:00</time>
      </trkpt>
      <trkpt lat="46.15308" lon="4.58088">
        <ele>360</ele>
        <time>2023-10-18T13:48:53.014+00:00</time>
      </trkpt>
      <trkpt lat="46.15312" lon="4.58093">
        <ele>360</ele>
        <time>2023-10-18T13:48:57.623+00:00</time>
      </trkpt>
      <trkpt lat="46.15314" lon="4.58098">
        <ele>358</ele>
        <time>2023-10-18T13:49:01.814+00:00</time>
      </trkpt>
      <trkpt lat="46.15316" lon="4.58103">
        <ele>358</ele>
        <time>2023-10-18T13:49:05.814+00:00</time>
      </trkpt>
      <trkpt lat="46.15319" lon="4.58107">
        <ele>358</ele>
        <time>2023-10-18T13:49:10.414+00:00</time>
      </trkpt>
      <trkpt lat="46.15322" lon="4.58111">
        <ele>357</ele>
        <time>2023-10-18T13:49:15.134+00:00</time>
      </trkpt>
      <trkpt lat="46.15326" lon="4.58114">
        <ele>357</ele>
        <time>2023-10-18T13:49:19.534+00:00</time>
      </trkpt>
      <trkpt lat="46.15328" lon="4.58117">
        <ele>357</ele>
        <time>2023-10-18T13:49:23.654+00:00</time>
      </trkpt>
      <trkpt lat="46.15332" lon="4.58122">
        <ele>357</ele>
        <time>2023-10-18T13:49:28.074+00:00</time>
      </trkpt>
      <trkpt lat="46.15335" lon="4.58128">
        <ele>353</ele>
        <time>2023-10-18T13:49:32.619+00:00</time>
      </trkpt>
      <trkpt lat="46.15338" lon="4.58134">
        <ele>353</ele>
        <time>2023-10-18T13:49:37.494+00:00</time>
      </trkpt>
      <trkpt lat="46.15341" lon="4.58137">
        <ele>353</ele>
        <time>2023-10-18T13:49:41.494+00:00</time>
      </trkpt>
      <trkpt lat="46.15344" lon="4.58142">
        <ele>353</ele>
        <time>2023-10-18T13:49:45.494+00:00</time>
      </trkpt>
      <trkpt lat="46.15348" lon="4.58148">
        <ele>357</ele>
        <time>2023-10-18T13:49:50.094+00:00</time>
      </trkpt>
      <trkpt lat="46.15351" lon="4.58153">
        <ele>357</ele>
        <time>2023-10-18T13:49:54.094+00:00</time>
      </trkpt>
      <trkpt lat="46.15353" lon="4.58158">
        <ele>350</ele>
        <time>2023-10-18T13:49:58.514+00:00</time>
      </trkpt>
      <trkpt lat="46.15356" lon="4.58163">
        <ele>350</ele>
        <time>2023-10-18T13:50:02.514+00:00</time>
      </trkpt>
      <trkpt lat="46.15359" lon="4.58168">
        <ele>350</ele>
        <time>2023-10-18T13:50:06.414+00:00</time>
      </trkpt>
      <trkpt lat="46.15361" lon="4.58174">
        <ele>350</ele>
        <time>2023-10-18T13:50:10.434+00:00</time>
      </trkpt>
      <trkpt lat="46.15365" lon="4.5818">
        <ele>350</ele>
        <time>2023-10-18T13:50:14.974+00:00</time>
      </trkpt>
      <trkpt lat="46.15368" lon="4.58186">
        <ele>348</ele>
        <time>2023-10-18T13:50:18.954+00:00</time>
      </trkpt>
      <trkpt lat="46.15371" lon="4.58192">
        <ele>348</ele>
        <time>2023-10-18T13:50:22.854+00:00</time>
      </trkpt>
      <trkpt lat="46.15374" lon="4.58197">
        <ele>348</ele>
        <time>2023-10-18T13:50:27.454+00:00</time>
      </trkpt>
      <trkpt lat="46.15377" lon="4.58201">
        <ele>349</ele>
        <time>2023-10-18T13:50:31.454+00:00</time>
      </trkpt>
      <trkpt lat="46.15381" lon="4.58205">
        <ele>349</ele>
        <time>2023-10-18T13:50:36.054+00:00</time>
      </trkpt>
      <trkpt lat="46.15387" lon="4.5821">
        <ele>347</ele>
        <time>2023-10-18T13:50:40.554+00:00</time>
      </trkpt>
      <trkpt lat="46.15387" lon="4.58216">
        <ele>347</ele>
        <time>2023-10-18T13:50:45.054+00:00</time>
      </trkpt>
      <trkpt lat="46.15391" lon="4.58221">
        <ele>347</ele>
        <time>2023-10-18T13:50:49.594+00:00</time>
      </trkpt>
      <trkpt lat="46.15393" lon="4.58225">
        <ele>347</ele>
        <time>2023-10-18T13:50:53.554+00:00</time>
      </trkpt>
      <trkpt lat="46.15398" lon="4.58228">
        <ele>347</ele>
        <time>2023-10-18T13:50:58.054+00:00</time>
      </trkpt>
      <trkpt lat="46.15402" lon="4.58231">
        <ele>347</ele>
        <time>2023-10-18T13:51:02.621+00:00</time>
      </trkpt>
      <trkpt lat="46.15405" lon="4.58236">
        <ele>347</ele>
        <time>2023-10-18T13:51:07.154+00:00</time>
      </trkpt>
      <trkpt lat="46.15407" lon="4.58241">
        <ele>347</ele>
        <time>2023-10-18T13:51:11.154+00:00</time>
      </trkpt>
      <trkpt lat="46.15409" lon="4.58246">
        <ele>347</ele>
        <time>2023-10-18T13:51:15.774+00:00</time>
      </trkpt>
      <trkpt lat="46.15412" lon="4.58251">
        <ele>347</ele>
        <time>2023-10-18T13:51:20.274+00:00</time>
      </trkpt>
      <trkpt lat="46.15414" lon="4.58254">
        <ele>347</ele>
        <time>2023-10-18T13:51:23.974+00:00</time>
      </trkpt>
      <trkpt lat="46.15416" lon="4.58258">
        <ele>347</ele>
        <time>2023-10-18T13:51:28.074+00:00</time>
      </trkpt>
      <trkpt lat="46.15417" lon="4.58264">
        <ele>341</ele>
        <time>2023-10-18T13:51:32.619+00:00</time>
      </trkpt>
      <trkpt lat="46.15419" lon="4.58272">
        <ele>341</ele>
        <time>2023-10-18T13:51:37.174+00:00</time>
      </trkpt>
      <trkpt lat="46.15422" lon="4.58277">
        <ele>341</ele>
        <time>2023-10-18T13:51:41.774+00:00</time>
      </trkpt>
      <trkpt lat="46.15424" lon="4.5828">
        <ele>341</ele>
        <time>2023-10-18T13:51:45.674+00:00</time>
      </trkpt>
      <trkpt lat="46.15426" lon="4.58285">
        <ele>341</ele>
        <time>2023-10-18T13:51:50.194+00:00</time>
      </trkpt>
      <trkpt lat="46.15428" lon="4.5829">
        <ele>341</ele>
        <time>2023-10-18T13:51:54.214+00:00</time>
      </trkpt>
      <trkpt lat="46.1543" lon="4.58295">
        <ele>338</ele>
        <time>2023-10-18T13:51:58.154+00:00</time>
      </trkpt>
      <trkpt lat="46.15432" lon="4.58302">
        <ele>338</ele>
        <time>2023-10-18T13:52:02.554+00:00</time>
      </trkpt>
      <trkpt lat="46.15434" lon="4.58309">
        <ele>338</ele>
        <time>2023-10-18T13:52:06.854+00:00</time>
      </trkpt>
      <trkpt lat="46.15437" lon="4.58315">
        <ele>338</ele>
        <time>2023-10-18T13:52:11.368+00:00</time>
      </trkpt>
      <trkpt lat="46.15439" lon="4.5832">
        <ele>333</ele>
        <time>2023-10-18T13:52:15.354+00:00</time>
      </trkpt>
      <trkpt lat="46.15442" lon="4.58326">
        <ele>333</ele>
        <time>2023-10-18T13:52:19.854+00:00</time>
      </trkpt>
      <trkpt lat="46.15445" lon="4.58334">
        <ele>333</ele>
        <time>2023-10-18T13:52:23.854+00:00</time>
      </trkpt>
      <trkpt lat="46.15447" lon="4.58342">
        <ele>333</ele>
        <time>2023-10-18T13:52:27.854+00:00</time>
      </trkpt>
      <trkpt lat="46.1545" lon="4.58352">
        <ele>330</ele>
        <time>2023-10-18T13:52:32.454+00:00</time>
      </trkpt>
      <trkpt lat="46.15452" lon="4.58356">
        <ele>330</ele>
        <time>2023-10-18T13:52:36.874+00:00</time>
      </trkpt>
      <trkpt lat="46.15454" lon="4.58358">
        <ele>330</ele>
        <time>2023-10-18T13:52:40.854+00:00</time>
      </trkpt>
      <trkpt lat="46.15457" lon="4.58363">
        <ele>330</ele>
        <time>2023-10-18T13:52:44.854+00:00</time>
      </trkpt>
      <trkpt lat="46.15459" lon="4.5837">
        <ele>335</ele>
        <time>2023-10-18T13:52:48.854+00:00</time>
      </trkpt>
      <trkpt lat="46.15461" lon="4.58376">
        <ele>329</ele>
        <time>2023-10-18T13:52:52.854+00:00</time>
      </trkpt>
      <trkpt lat="46.15463" lon="4.58381">
        <ele>329</ele>
        <time>2023-10-18T13:52:56.874+00:00</time>
      </trkpt>
      <trkpt lat="46.15466" lon="4.58387">
        <ele>329</ele>
        <time>2023-10-18T13:53:01.374+00:00</time>
      </trkpt>
      <trkpt lat="46.15467" lon="4.58394">
        <ele>329</ele>
        <time>2023-10-18T13:53:05.454+00:00</time>
      </trkpt>
      <trkpt lat="46.15469" lon="4.58399">
        <ele>329</ele>
        <time>2023-10-18T13:53:09.314+00:00</time>
      </trkpt>
      <trkpt lat="46.15471" lon="4.58404">
        <ele>323</ele>
        <time>2023-10-18T13:53:13.314+00:00</time>
      </trkpt>
      <trkpt lat="46.15471" lon="4.58408">
        <ele>323</ele>
        <time>2023-10-18T13:53:17.274+00:00</time>
      </trkpt>
      <trkpt lat="46.15469" lon="4.58412">
        <ele>323</ele>
        <time>2023-10-18T13:53:21.774+00:00</time>
      </trkpt>
      <trkpt lat="46.1547" lon="4.58411">
        <ele>323</ele>
        <time>2023-10-18T13:53:25.774+00:00</time>
      </trkpt>
      <trkpt lat="46.15472" lon="4.58418">
        <ele>323</ele>
        <time>2023-10-18T13:53:30.313+00:00</time>
      </trkpt>
      <trkpt lat="46.15473" lon="4.58427">
        <ele>323</ele>
        <time>2023-10-18T13:53:34.314+00:00</time>
      </trkpt>
      <trkpt lat="46.15473" lon="4.58434">
        <ele>320</ele>
        <time>2023-10-18T13:53:38.314+00:00</time>
      </trkpt>
      <trkpt lat="46.15473" lon="4.58439">
        <ele>320</ele>
        <time>2023-10-18T13:53:42.314+00:00</time>
      </trkpt>
      <trkpt lat="46.15474" lon="4.58445">
        <ele>320</ele>
        <time>2023-10-18T13:53:46.874+00:00</time>
      </trkpt>
      <trkpt lat="46.15476" lon="4.58452">
        <ele>320</ele>
        <time>2023-10-18T13:53:50.874+00:00</time>
      </trkpt>
      <trkpt lat="46.1548" lon="4.5846">
        <ele>314</ele>
        <time>2023-10-18T13:53:55.394+00:00</time>
      </trkpt>
      <trkpt lat="46.15483" lon="4.58464">
        <ele>314</ele>
        <time>2023-10-18T13:53:59.894+00:00</time>
      </trkpt>
      <trkpt lat="46.15484" lon="4.58469">
        <ele>314</ele>
        <time>2023-10-18T13:54:04.314+00:00</time>
      </trkpt>
      <trkpt lat="46.15485" lon="4.58477">
        <ele>314</ele>
        <time>2023-10-18T13:54:08.314+00:00</time>
      </trkpt>
      <trkpt lat="46.15488" lon="4.58485">
        <ele>313</ele>
        <time>2023-10-18T13:54:12.174+00:00</time>
      </trkpt>
      <trkpt lat="46.1549" lon="4.58493">
        <ele>309</ele>
        <time>2023-10-18T13:54:16.214+00:00</time>
      </trkpt>
      <trkpt lat="46.15494" lon="4.58501">
        <ele>309</ele>
        <time>2023-10-18T13:54:20.814+00:00</time>
      </trkpt>
      <trkpt lat="46.15497" lon="4.58506">
        <ele>309</ele>
        <time>2023-10-18T13:54:25.234+00:00</time>
      </trkpt>
      <trkpt lat="46.155" lon="4.58513">
        <ele>309</ele>
        <time>2023-10-18T13:54:38.014+00:00</time>
      </trkpt>
      <trkpt lat="46.15504" lon="4.58517">
        <ele>308</ele>
        <time>2023-10-18T13:54:42.214+00:00</time>
      </trkpt>
      <trkpt lat="46.15509" lon="4.5852">
        <ele>308</ele>
        <time>2023-10-18T13:54:46.914+00:00</time>
      </trkpt>
      <trkpt lat="46.15513" lon="4.58524">
        <ele>308</ele>
        <time>2023-10-18T13:54:51.367+00:00</time>
      </trkpt>
      <trkpt lat="46.15517" lon="4.58529">
        <ele>308</ele>
        <time>2023-10-18T13:54:55.814+00:00</time>
      </trkpt>
      <trkpt lat="46.15518" lon="4.58536">
        <ele>308</ele>
        <time>2023-10-18T13:55:00.014+00:00</time>
      </trkpt>
      <trkpt lat="46.15519" lon="4.58537">
        <ele>308</ele>
        <time>2023-10-18T13:55:04.214+00:00</time>
      </trkpt>
      <trkpt lat="46.15518" lon="4.58539">
        <ele>308</ele>
        <time>2023-10-18T13:55:08.214+00:00</time>
      </trkpt>
      <trkpt lat="46.15517" lon="4.58545">
        <ele>309</ele>
        <time>2023-10-18T13:55:13.014+00:00</time>
      </trkpt>
      <trkpt lat="46.15517" lon="4.58552">
        <ele>309</ele>
        <time>2023-10-18T13:55:17.814+00:00</time>
      </trkpt>
      <trkpt lat="46.15516" lon="4.58559">
        <ele>309</ele>
        <time>2023-10-18T13:55:21.814+00:00</time>
      </trkpt>
      <trkpt lat="46.15516" lon="4.58567">
        <ele>309</ele>
        <time>2023-10-18T13:55:26.314+00:00</time>
      </trkpt>
      <trkpt lat="46.15517" lon="4.58573">
        <ele>310</ele>
        <time>2023-10-18T13:55:30.614+00:00</time>
      </trkpt>
      <trkpt lat="46.15519" lon="4.5858">
        <ele>310</ele>
        <time>2023-10-18T13:55:35.414+00:00</time>
      </trkpt>
      <trkpt lat="46.15516" lon="4.58587">
        <ele>310</ele>
        <time>2023-10-18T13:56:39.620+00:00</time>
      </trkpt>
      <trkpt lat="46.15516" lon="4.58587">
        <ele>310</ele>
        <time>2023-10-18T13:56:44.254+00:00</time>
      </trkpt>
      <trkpt lat="46.15516" lon="4.58587">
        <ele>310</ele>
        <time>2023-10-18T13:56:48.154+00:00</time>
      </trkpt>
      <trkpt lat="46.15512" lon="4.58585">
        <ele>308</ele>
        <time>2023-10-18T13:56:52.612+00:00</time>
      </trkpt>
      <trkpt lat="46.15507" lon="4.5858">
        <ele>308</ele>
        <time>2023-10-18T13:56:56.834+00:00</time>
      </trkpt>
      <trkpt lat="46.15501" lon="4.58578">
        <ele>308</ele>
        <time>2023-10-18T13:57:00.794+00:00</time>
      </trkpt>
      <trkpt lat="46.15492" lon="4.58578">
        <ele>308</ele>
        <time>2023-10-18T13:57:05.214+00:00</time>
      </trkpt>
      <trkpt lat="46.15483" lon="4.58587">
        <ele>307</ele>
        <time>2023-10-18T13:57:09.714+00:00</time>
      </trkpt>
      <trkpt lat="46.15475" lon="4.58595">
        <ele>307</ele>
        <time>2023-10-18T13:57:14.134+00:00</time>
      </trkpt>
      <trkpt lat="46.15464" lon="4.58592">
        <ele>307</ele>
        <time>2023-10-18T13:57:22.622+00:00</time>
      </trkpt>
      <trkpt lat="46.15462" lon="4.58594">
        <ele>307</ele>
        <time>2023-10-18T13:57:27.174+00:00</time>
      </trkpt>
      <trkpt lat="46.15462" lon="4.58599">
        <ele>307</ele>
        <time>2023-10-18T13:57:31.753+00:00</time>
      </trkpt>
      <trkpt lat="46.15463" lon="4.58604">
        <ele>307</ele>
        <time>2023-10-18T13:57:35.754+00:00</time>
      </trkpt>
      <trkpt lat="46.15463" lon="4.58613">
        <ele>307</ele>
        <time>2023-10-18T13:57:40.174+00:00</time>
      </trkpt>
      <trkpt lat="46.15462" lon="4.5862">
        <ele>307</ele>
        <time>2023-10-18T13:57:44.174+00:00</time>
      </trkpt>
      <trkpt lat="46.1546" lon="4.58628">
        <ele>307</ele>
        <time>2023-10-18T13:57:48.623+00:00</time>
      </trkpt>
      <trkpt lat="46.15457" lon="4.58635">
        <ele>307</ele>
        <time>2023-10-18T13:57:53.094+00:00</time>
      </trkpt>
      <trkpt lat="46.15454" lon="4.58639">
        <ele>307</ele>
        <time>2023-10-18T13:57:56.994+00:00</time>
      </trkpt>
      <trkpt lat="46.15451" lon="4.58644">
        <ele>307</ele>
        <time>2023-10-18T13:58:01.094+00:00</time>
      </trkpt>
      <trkpt lat="46.15448" lon="4.58648">
        <ele>307</ele>
        <time>2023-10-18T13:58:05.623+00:00</time>
      </trkpt>
      <trkpt lat="46.15443" lon="4.58652">
        <ele>307</ele>
        <time>2023-10-18T13:58:10.194+00:00</time>
      </trkpt>
      <trkpt lat="46.15442" lon="4.58657">
        <ele>307</ele>
        <time>2023-10-18T13:58:14.794+00:00</time>
      </trkpt>
      <trkpt lat="46.15444" lon="4.58663">
        <ele>307</ele>
        <time>2023-10-18T13:58:18.814+00:00</time>
      </trkpt>
      <trkpt lat="46.15446" lon="4.58669">
        <ele>307</ele>
        <time>2023-10-18T13:58:23.134+00:00</time>
      </trkpt>
      <trkpt lat="46.15448" lon="4.58673">
        <ele>307</ele>
        <time>2023-10-18T13:58:28.094+00:00</time>
      </trkpt>
      <trkpt lat="46.15451" lon="4.58677">
        <ele>307</ele>
        <time>2023-10-18T13:58:32.474+00:00</time>
      </trkpt>
      <trkpt lat="46.15454" lon="4.58685">
        <ele>306</ele>
        <time>2023-10-18T13:58:41.574+00:00</time>
      </trkpt>
      <trkpt lat="46.15452" lon="4.58686">
        <ele>306</ele>
        <time>2023-10-18T13:58:46.314+00:00</time>
      </trkpt>
      <trkpt lat="46.1545" lon="4.58686">
        <ele>306</ele>
        <time>2023-10-18T13:58:51.154+00:00</time>
      </trkpt>
      <trkpt lat="46.15446" lon="4.58687">
        <ele>306</ele>
        <time>2023-10-18T13:58:56.619+00:00</time>
      </trkpt>
      <trkpt lat="46.15445" lon="4.58689">
        <ele>306</ele>
        <time>2023-10-18T13:59:01.617+00:00</time>
      </trkpt>
      <trkpt lat="46.15445" lon="4.58688">
        <ele>306</ele>
        <time>2023-10-18T13:59:16.620+00:00</time>
      </trkpt>
      <trkpt lat="46.15449" lon="4.58684">
        <ele>306</ele>
        <time>2023-10-18T13:59:21.621+00:00</time>
      </trkpt>
      <trkpt lat="46.15451" lon="4.58686">
        <ele>306</ele>
        <time>2023-10-18T13:59:26.616+00:00</time>
      </trkpt>
      <trkpt lat="46.15453" lon="4.58692">
        <ele>306</ele>
        <time>2023-10-18T13:59:31.154+00:00</time>
      </trkpt>
      <trkpt lat="46.15457" lon="4.58696">
        <ele>306</ele>
        <time>2023-10-18T13:59:35.604+00:00</time>
      </trkpt>
      <trkpt lat="46.15459" lon="4.58703">
        <ele>307</ele>
        <time>2023-10-18T13:59:39.374+00:00</time>
      </trkpt>
      <trkpt lat="46.15456" lon="4.58712">
        <ele>307</ele>
        <time>2023-10-18T13:59:44.234+00:00</time>
      </trkpt>
      <trkpt lat="46.15451" lon="4.58718">
        <ele>307</ele>
        <time>2023-10-18T13:59:48.154+00:00</time>
      </trkpt>
      <trkpt lat="46.15448" lon="4.58719">
        <ele>307</ele>
        <time>2023-10-18T13:59:52.454+00:00</time>
      </trkpt>
      <trkpt lat="46.15448" lon="4.58721">
        <ele>307</ele>
        <time>2023-10-18T14:00:05.334+00:00</time>
      </trkpt>
      <trkpt lat="46.15447" lon="4.58718">
        <ele>307</ele>
        <time>2023-10-18T14:00:09.794+00:00</time>
      </trkpt>
      <trkpt lat="46.15444" lon="4.5872">
        <ele>307</ele>
        <time>2023-10-18T14:00:14.254+00:00</time>
      </trkpt>
      <trkpt lat="46.15441" lon="4.58724">
        <ele>307</ele>
        <time>2023-10-18T14:00:18.194+00:00</time>
      </trkpt>
      <trkpt lat="46.15439" lon="4.58721">
        <ele>307</ele>
        <time>2023-10-18T14:00:22.681+00:00</time>
      </trkpt>
      <trkpt lat="46.15439" lon="4.58727">
        <ele>307</ele>
        <time>2023-10-18T14:01:54.234+00:00</time>
      </trkpt>
      <trkpt lat="46.15441" lon="4.58724">
        <ele>307</ele>
        <time>2023-10-18T14:01:58.234+00:00</time>
      </trkpt>
      <trkpt lat="46.15444" lon="4.5872">
        <ele>307</ele>
        <time>2023-10-18T14:02:02.674+00:00</time>
      </trkpt>
      <trkpt lat="46.15447" lon="4.58716">
        <ele>307</ele>
        <time>2023-10-18T14:02:06.234+00:00</time>
      </trkpt>
      <trkpt lat="46.15449" lon="4.58717">
        <ele>307</ele>
        <time>2023-10-18T14:02:10.834+00:00</time>
      </trkpt>
      <trkpt lat="46.15446" lon="4.58712">
        <ele>307</ele>
        <time>2023-10-18T14:05:59.834+00:00</time>
      </trkpt>
      <trkpt lat="46.15452" lon="4.58709">
        <ele>307</ele>
        <time>2023-10-18T14:06:04.174+00:00</time>
      </trkpt>
      <trkpt lat="46.15455" lon="4.58706">
        <ele>306</ele>
        <time>2023-10-18T14:06:08.174+00:00</time>
      </trkpt>
      <trkpt lat="46.15461" lon="4.58701">
        <ele>307</ele>
        <time>2023-10-18T14:06:12.794+00:00</time>
      </trkpt>
      <trkpt lat="46.15466" lon="4.58699">
        <ele>307</ele>
        <time>2023-10-18T14:06:16.794+00:00</time>
      </trkpt>
      <trkpt lat="46.15471" lon="4.58698">
        <ele>307</ele>
        <time>2023-10-18T14:06:21.414+00:00</time>
      </trkpt>
      <trkpt lat="46.15476" lon="4.58698">
        <ele>307</ele>
        <time>2023-10-18T14:06:25.434+00:00</time>
      </trkpt>
      <trkpt lat="46.15481" lon="4.58699">
        <ele>307</ele>
        <time>2023-10-18T14:06:29.754+00:00</time>
      </trkpt>
      <trkpt lat="46.15487" lon="4.58702">
        <ele>308</ele>
        <time>2023-10-18T14:06:34.174+00:00</time>
      </trkpt>
      <trkpt lat="46.15502" lon="4.58713">
        <ele>308</ele>
        <time>2023-10-18T14:13:38.621+00:00</time>
      </trkpt>
      <trkpt lat="46.15502" lon="4.58716">
        <ele>308</ele>
        <time>2023-10-18T14:13:43.618+00:00</time>
      </trkpt>
      <trkpt lat="46.15502" lon="4.58716">
        <ele>308</ele>
        <time>2023-10-18T14:13:48.618+00:00</time>
      </trkpt>
      <trkpt lat="46.15504" lon="4.58717">
        <ele>308</ele>
        <time>2023-10-18T14:13:53.616+00:00</time>
      </trkpt>
      <trkpt lat="46.15506" lon="4.58713">
        <ele>308</ele>
        <time>2023-10-18T14:13:58.617+00:00</time>
      </trkpt>
      <trkpt lat="46.15509" lon="4.58709">
        <ele>308</ele>
        <time>2023-10-18T14:14:03.618+00:00</time>
      </trkpt>
      <trkpt lat="46.1551" lon="4.58706">
        <ele>308</ele>
        <time>2023-10-18T14:14:08.624+00:00</time>
      </trkpt>
      <trkpt lat="46.15511" lon="4.58706">
        <ele>308</ele>
        <time>2023-10-18T14:14:12.620+00:00</time>
      </trkpt>
      <trkpt lat="46.15509" lon="4.58694">
        <ele>308</ele>
        <time>2023-10-18T14:14:17.619+00:00</time>
      </trkpt>
      <trkpt lat="46.15508" lon="4.58693">
        <ele>308</ele>
        <time>2023-10-18T14:14:22.617+00:00</time>
      </trkpt>
      <trkpt lat="46.15505" lon="4.58695">
        <ele>308</ele>
        <time>2023-10-18T14:14:26.621+00:00</time>
      </trkpt>
      <trkpt lat="46.15502" lon="4.58699">
        <ele>308</ele>
        <time>2023-10-18T14:14:30.626+00:00</time>
      </trkpt>
      <trkpt lat="46.15504" lon="4.58712">
        <ele>308</ele>
        <time>2023-10-18T14:14:35.621+00:00</time>
      </trkpt>
      <trkpt lat="46.15499" lon="4.58718">
        <ele>308</ele>
        <time>2023-10-18T14:15:27.618+00:00</time>
      </trkpt>
      <trkpt lat="46.15498" lon="4.58712">
        <ele>308</ele>
        <time>2023-10-18T14:15:32.634+00:00</time>
      </trkpt>
      <trkpt lat="46.15497" lon="4.58712">
        <ele>308</ele>
        <time>2023-10-18T14:15:36.234+00:00</time>
      </trkpt>
      <trkpt lat="46.15496" lon="4.5871">
        <ele>308</ele>
        <time>2023-10-18T14:15:41.434+00:00</time>
      </trkpt>
      <trkpt lat="46.15495" lon="4.58708">
        <ele>308</ele>
        <time>2023-10-18T14:15:45.314+00:00</time>
      </trkpt>
      <trkpt lat="46.1549" lon="4.58703">
        <ele>308</ele>
        <time>2023-10-18T14:15:54.618+00:00</time>
      </trkpt>
      <trkpt lat="46.15488" lon="4.58703">
        <ele>308</ele>
        <time>2023-10-18T14:15:59.619+00:00</time>
      </trkpt>
      <trkpt lat="46.15488" lon="4.58703">
        <ele>308</ele>
        <time>2023-10-18T14:16:03.619+00:00</time>
      </trkpt>
      <trkpt lat="46.15489" lon="4.587">
        <ele>308</ele>
        <time>2023-10-18T14:16:07.619+00:00</time>
      </trkpt>
      <trkpt lat="46.15488" lon="4.58697">
        <ele>308</ele>
        <time>2023-10-18T14:16:12.615+00:00</time>
      </trkpt>
      <trkpt lat="46.15487" lon="4.58695">
        <ele>308</ele>
        <time>2023-10-18T14:16:41.274+00:00</time>
      </trkpt>
      <trkpt lat="46.15489" lon="4.58698">
        <ele>308</ele>
        <time>2023-10-18T14:16:55.536+00:00</time>
      </trkpt>
      <trkpt lat="46.15491" lon="4.5869">
        <ele>308</ele>
        <time>2023-10-18T14:17:02.194+00:00</time>
      </trkpt>
      <trkpt lat="46.15492" lon="4.58683">
        <ele>308</ele>
        <time>2023-10-18T14:17:07.174+00:00</time>
      </trkpt>
      <trkpt lat="46.15493" lon="4.58678">
        <ele>308</ele>
        <time>2023-10-18T14:17:12.254+00:00</time>
      </trkpt>
      <trkpt lat="46.15492" lon="4.58677">
        <ele>308</ele>
        <time>2023-10-18T14:18:16.033+00:00</time>
      </trkpt>
      <trkpt lat="46.15491" lon="4.58678">
        <ele>308</ele>
        <time>2023-10-18T14:18:21.854+00:00</time>
      </trkpt>
      <trkpt lat="46.15488" lon="4.58677">
        <ele>308</ele>
        <time>2023-10-18T14:18:26.654+00:00</time>
      </trkpt>
      <trkpt lat="46.15486" lon="4.58671">
        <ele>307</ele>
        <time>2023-10-18T14:18:36.834+00:00</time>
      </trkpt>
      <trkpt lat="46.15497" lon="4.58639">
        <ele>308</ele>
        <time>2023-10-18T14:18:54.613+00:00</time>
      </trkpt>
      <trkpt lat="46.15484" lon="4.58647">
        <ele>307</ele>
        <time>2023-10-18T14:19:13.074+00:00</time>
      </trkpt>
      <trkpt lat="46.15483" lon="4.58649">
        <ele>307</ele>
        <time>2023-10-18T14:19:17.554+00:00</time>
      </trkpt>
      <trkpt lat="46.15482" lon="4.58649">
        <ele>307</ele>
        <time>2023-10-18T14:19:21.414+00:00</time>
      </trkpt>
      <trkpt lat="46.15482" lon="4.58652">
        <ele>307</ele>
        <time>2023-10-18T14:19:26.594+00:00</time>
      </trkpt>
      <trkpt lat="46.15482" lon="4.58654">
        <ele>307</ele>
        <time>2023-10-18T14:19:30.334+00:00</time>
      </trkpt>
      <trkpt lat="46.15483" lon="4.58656">
        <ele>307</ele>
        <time>2023-10-18T14:19:35.134+00:00</time>
      </trkpt>
      <trkpt lat="46.15487" lon="4.58658">
        <ele>308</ele>
        <time>2023-10-18T14:19:39.594+00:00</time>
      </trkpt>
      <trkpt lat="46.15492" lon="4.58659">
        <ele>308</ele>
        <time>2023-10-18T14:19:44.474+00:00</time>
      </trkpt>
      <trkpt lat="46.15492" lon="4.58659">
        <ele>308</ele>
        <time>2023-10-18T14:19:49.615+00:00</time>
      </trkpt>
      <trkpt lat="46.15495" lon="4.5866">
        <ele>308</ele>
        <time>2023-10-18T14:20:03.094+00:00</time>
      </trkpt>
      <trkpt lat="46.15494" lon="4.58664">
        <ele>308</ele>
        <time>2023-10-18T14:20:08.494+00:00</time>
      </trkpt>
      <trkpt lat="46.15493" lon="4.58667">
        <ele>308</ele>
        <time>2023-10-18T14:20:17.914+00:00</time>
      </trkpt>
      <trkpt lat="46.15493" lon="4.58668">
        <ele>308</ele>
        <time>2023-10-18T14:20:23.354+00:00</time>
      </trkpt>
      <trkpt lat="46.15493" lon="4.58677">
        <ele>308</ele>
        <time>2023-10-18T14:20:26.699+00:00</time>
      </trkpt>
      <trkpt lat="46.15491" lon="4.58678">
        <ele>308</ele>
        <time>2023-10-18T14:27:20.754+00:00</time>
      </trkpt>
      <trkpt lat="46.15491" lon="4.58682">
        <ele>308</ele>
        <time>2023-10-18T14:27:25.314+00:00</time>
      </trkpt>
      <trkpt lat="46.15487" lon="4.58692">
        <ele>308</ele>
        <time>2023-10-18T14:27:29.314+00:00</time>
      </trkpt>
      <trkpt lat="46.15486" lon="4.58695">
        <ele>307</ele>
        <time>2023-10-18T14:27:33.874+00:00</time>
      </trkpt>
      <trkpt lat="46.15483" lon="4.58696">
        <ele>307</ele>
        <time>2023-10-18T14:27:38.314+00:00</time>
      </trkpt>
      <trkpt lat="46.1548" lon="4.5869">
        <ele>307</ele>
        <time>2023-10-18T14:28:23.354+00:00</time>
      </trkpt>
      <trkpt lat="46.1548" lon="4.58689">
        <ele>307</ele>
        <time>2023-10-18T14:28:28.574+00:00</time>
      </trkpt>
      <trkpt lat="46.1548" lon="4.58674">
        <ele>307</ele>
        <time>2023-10-18T14:28:33.613+00:00</time>
      </trkpt>
      <trkpt lat="46.15479" lon="4.58668">
        <ele>307</ele>
        <time>2023-10-18T14:28:38.612+00:00</time>
      </trkpt>
      <trkpt lat="46.15481" lon="4.58659">
        <ele>307</ele>
        <time>2023-10-18T14:28:43.611+00:00</time>
      </trkpt>
      <trkpt lat="46.15493" lon="4.58649">
        <ele>308</ele>
        <time>2023-10-18T14:28:48.612+00:00</time>
      </trkpt>
      <trkpt lat="46.1549" lon="4.58655">
        <ele>308</ele>
        <time>2023-10-18T14:28:52.616+00:00</time>
      </trkpt>
      <trkpt lat="46.15492" lon="4.58657">
        <ele>308</ele>
        <time>2023-10-18T14:28:57.194+00:00</time>
      </trkpt>
      <trkpt lat="46.15501" lon="4.58657">
        <ele>308</ele>
        <time>2023-10-18T14:29:01.194+00:00</time>
      </trkpt>
      <trkpt lat="46.15508" lon="4.5866">
        <ele>308</ele>
        <time>2023-10-18T14:29:05.794+00:00</time>
      </trkpt>
      <trkpt lat="46.15512" lon="4.58665">
        <ele>308</ele>
        <time>2023-10-18T14:29:10.314+00:00</time>
      </trkpt>
      <trkpt lat="46.15509" lon="4.58676">
        <ele>308</ele>
        <time>2023-10-18T14:29:14.314+00:00</time>
      </trkpt>
      <trkpt lat="46.15507" lon="4.58679">
        <ele>308</ele>
        <time>2023-10-18T14:29:18.314+00:00</time>
      </trkpt>
      <trkpt lat="46.15482" lon="4.58709">
        <ele>308</ele>
        <time>2023-10-18T14:34:00.134+00:00</time>
      </trkpt>
      <trkpt lat="46.15479" lon="4.58712">
        <ele>308</ele>
        <time>2023-10-18T14:34:05.434+00:00</time>
      </trkpt>
      <trkpt lat="46.15478" lon="4.58713">
        <ele>308</ele>
        <time>2023-10-18T14:34:09.294+00:00</time>
      </trkpt>
      <trkpt lat="46.15477" lon="4.58716">
        <ele>308</ele>
        <time>2023-10-18T14:34:13.314+00:00</time>
      </trkpt>
      <trkpt lat="46.15476" lon="4.58722">
        <ele>308</ele>
        <time>2023-10-18T14:34:18.314+00:00</time>
      </trkpt>
      <trkpt lat="46.1548" lon="4.58737">
        <ele>309</ele>
        <time>2023-10-18T14:35:20.616+00:00</time>
      </trkpt>
      <trkpt lat="46.15481" lon="4.58738">
        <ele>309</ele>
        <time>2023-10-18T14:35:24.617+00:00</time>
      </trkpt>
      <trkpt lat="46.15484" lon="4.58736">
        <ele>308</ele>
        <time>2023-10-18T14:35:28.878+00:00</time>
      </trkpt>
      <trkpt lat="46.15485" lon="4.58736">
        <ele>309</ele>
        <time>2023-10-18T14:35:32.794+00:00</time>
      </trkpt>
      <trkpt lat="46.15486" lon="4.58737">
        <ele>309</ele>
        <time>2023-10-18T14:35:37.277+00:00</time>
      </trkpt>
      <trkpt lat="46.15486" lon="4.58734">
        <ele>308</ele>
        <time>2023-10-18T14:35:41.194+00:00</time>
      </trkpt>
      <trkpt lat="46.15488" lon="4.58721">
        <ele>308</ele>
        <time>2023-10-18T14:35:45.624+00:00</time>
      </trkpt>
      <trkpt lat="46.15488" lon="4.58713">
        <ele>308</ele>
        <time>2023-10-18T14:35:50.624+00:00</time>
      </trkpt>
      <trkpt lat="46.15488" lon="4.58707">
        <ele>308</ele>
        <time>2023-10-18T14:35:55.514+00:00</time>
      </trkpt>
      <trkpt lat="46.1549" lon="4.58714">
        <ele>308</ele>
        <time>2023-10-18T14:38:17.608+00:00</time>
      </trkpt>
      <trkpt lat="46.15492" lon="4.58713">
        <ele>308</ele>
        <time>2023-10-18T14:38:21.612+00:00</time>
      </trkpt>
      <trkpt lat="46.15493" lon="4.58713">
        <ele>308</ele>
        <time>2023-10-18T14:38:28.609+00:00</time>
      </trkpt>
      <trkpt lat="46.15493" lon="4.58713">
        <ele>308</ele>
        <time>2023-10-18T14:38:32.607+00:00</time>
      </trkpt>
      <trkpt lat="46.15495" lon="4.58714">
        <ele>308</ele>
        <time>2023-10-18T14:38:41.738+00:00</time>
      </trkpt>
      <trkpt lat="46.15482" lon="4.58714">
        <ele>308</ele>
        <time>2023-10-18T14:42:22.620+00:00</time>
      </trkpt>
      <trkpt lat="46.1549" lon="4.5871">
        <ele>308</ele>
        <time>2023-10-18T14:42:26.434+00:00</time>
      </trkpt>
      <trkpt lat="46.15493" lon="4.5871">
        <ele>308</ele>
        <time>2023-10-18T14:42:31.622+00:00</time>
      </trkpt>
      <trkpt lat="46.15495" lon="4.58708">
        <ele>308</ele>
        <time>2023-10-18T14:42:36.623+00:00</time>
      </trkpt>
      <trkpt lat="46.15501" lon="4.58708">
        <ele>308</ele>
        <time>2023-10-18T14:44:52.438+00:00</time>
      </trkpt>
      <trkpt lat="46.15502" lon="4.587">
        <ele>308</ele>
        <time>2023-10-18T14:44:56.334+00:00</time>
      </trkpt>
      <trkpt lat="46.15503" lon="4.5869">
        <ele>308</ele>
        <time>2023-10-18T14:45:00.794+00:00</time>
      </trkpt>
      <trkpt lat="46.15502" lon="4.58681">
        <ele>308</ele>
        <time>2023-10-18T14:45:04.814+00:00</time>
      </trkpt>
      <trkpt lat="46.155" lon="4.58673">
        <ele>308</ele>
        <time>2023-10-18T14:45:08.794+00:00</time>
      </trkpt>
      <trkpt lat="46.15501" lon="4.58668">
        <ele>308</ele>
        <time>2023-10-18T14:45:13.174+00:00</time>
      </trkpt>
      <trkpt lat="46.15505" lon="4.58662">
        <ele>308</ele>
        <time>2023-10-18T14:45:18.194+00:00</time>
      </trkpt>
      <trkpt lat="46.1551" lon="4.5866">
        <ele>308</ele>
        <time>2023-10-18T14:45:22.754+00:00</time>
      </trkpt>
      <trkpt lat="46.15514" lon="4.58657">
        <ele>310</ele>
        <time>2023-10-18T14:45:27.214+00:00</time>
      </trkpt>
      <trkpt lat="46.15515" lon="4.58649">
        <ele>310</ele>
        <time>2023-10-18T14:45:31.914+00:00</time>
      </trkpt>
      <trkpt lat="46.15518" lon="4.58642">
        <ele>310</ele>
        <time>2023-10-18T14:45:36.554+00:00</time>
      </trkpt>
      <trkpt lat="46.1552" lon="4.58635">
        <ele>310</ele>
        <time>2023-10-18T14:45:41.174+00:00</time>
      </trkpt>
      <trkpt lat="46.15521" lon="4.58629">
        <ele>310</ele>
        <time>2023-10-18T14:45:45.614+00:00</time>
      </trkpt>
      <trkpt lat="46.15522" lon="4.58622">
        <ele>309</ele>
        <time>2023-10-18T14:45:50.054+00:00</time>
      </trkpt>
      <trkpt lat="46.15522" lon="4.58616">
        <ele>309</ele>
        <time>2023-10-18T14:45:54.578+00:00</time>
      </trkpt>
      <trkpt lat="46.15522" lon="4.58611">
        <ele>309</ele>
        <time>2023-10-18T14:45:58.614+00:00</time>
      </trkpt>
      <trkpt lat="46.15521" lon="4.58606">
        <ele>309</ele>
        <time>2023-10-18T14:46:03.198+00:00</time>
      </trkpt>
      <trkpt lat="46.15521" lon="4.58604">
        <ele>309</ele>
        <time>2023-10-18T14:46:07.154+00:00</time>
      </trkpt>
      <trkpt lat="46.1552" lon="4.586">
        <ele>309</ele>
        <time>2023-10-18T14:46:11.638+00:00</time>
      </trkpt>
      <trkpt lat="46.1552" lon="4.58594">
        <ele>310</ele>
        <time>2023-10-18T14:46:15.434+00:00</time>
      </trkpt>
      <trkpt lat="46.15521" lon="4.58587">
        <ele>310</ele>
        <time>2023-10-18T14:46:20.234+00:00</time>
      </trkpt>
      <trkpt lat="46.15524" lon="4.58582">
        <ele>310</ele>
        <time>2023-10-18T14:46:24.234+00:00</time>
      </trkpt>
      <trkpt lat="46.15524" lon="4.58578">
        <ele>310</ele>
        <time>2023-10-18T14:46:29.434+00:00</time>
      </trkpt>
      <trkpt lat="46.15524" lon="4.58571">
        <ele>310</ele>
        <time>2023-10-18T14:46:33.834+00:00</time>
      </trkpt>
      <trkpt lat="46.15522" lon="4.58564">
        <ele>309</ele>
        <time>2023-10-18T14:46:38.214+00:00</time>
      </trkpt>
      <trkpt lat="46.15521" lon="4.58557">
        <ele>309</ele>
        <time>2023-10-18T14:46:42.654+00:00</time>
      </trkpt>
      <trkpt lat="46.15518" lon="4.58551">
        <ele>309</ele>
        <time>2023-10-18T14:46:47.174+00:00</time>
      </trkpt>
      <trkpt lat="46.15517" lon="4.58545">
        <ele>309</ele>
        <time>2023-10-18T14:46:51.674+00:00</time>
      </trkpt>
      <trkpt lat="46.15519" lon="4.58538">
        <ele>308</ele>
        <time>2023-10-18T14:46:56.134+00:00</time>
      </trkpt>
      <trkpt lat="46.15522" lon="4.58532">
        <ele>308</ele>
        <time>2023-10-18T14:47:00.474+00:00</time>
      </trkpt>
      <trkpt lat="46.15523" lon="4.5853">
        <ele>308</ele>
        <time>2023-10-18T14:47:04.794+00:00</time>
      </trkpt>
      <trkpt lat="46.15525" lon="4.58528">
        <ele>308</ele>
        <time>2023-10-18T14:47:09.254+00:00</time>
      </trkpt>
      <trkpt lat="46.15528" lon="4.58523">
        <ele>308</ele>
        <time>2023-10-18T14:47:14.194+00:00</time>
      </trkpt>
      <trkpt lat="46.15531" lon="4.58522">
        <ele>308</ele>
        <time>2023-10-18T14:47:18.174+00:00</time>
      </trkpt>
      <trkpt lat="46.15534" lon="4.58522">
        <ele>308</ele>
        <time>2023-10-18T14:47:23.114+00:00</time>
      </trkpt>
      <trkpt lat="46.15537" lon="4.58519">
        <ele>308</ele>
        <time>2023-10-18T14:47:27.474+00:00</time>
      </trkpt>
      <trkpt lat="46.15539" lon="4.58513">
        <ele>308</ele>
        <time>2023-10-18T14:47:31.914+00:00</time>
      </trkpt>
      <trkpt lat="46.15542" lon="4.58512">
        <ele>308</ele>
        <time>2023-10-18T14:47:36.034+00:00</time>
      </trkpt>
      <trkpt lat="46.15544" lon="4.58505">
        <ele>307</ele>
        <time>2023-10-18T14:47:49.554+00:00</time>
      </trkpt>
      <trkpt lat="46.15546" lon="4.58503">
        <ele>307</ele>
        <time>2023-10-18T14:47:53.514+00:00</time>
      </trkpt>
      <trkpt lat="46.15547" lon="4.58501">
        <ele>307</ele>
        <time>2023-10-18T14:47:58.630+00:00</time>
      </trkpt>
      <trkpt lat="46.15548" lon="4.58501">
        <ele>307</ele>
        <time>2023-10-18T14:48:03.214+00:00</time>
      </trkpt>
      <trkpt lat="46.15549" lon="4.585">
        <ele>307</ele>
        <time>2023-10-18T14:48:08.314+00:00</time>
      </trkpt>
      <trkpt lat="46.15556" lon="4.58493">
        <ele>307</ele>
        <time>2023-10-18T14:50:18.628+00:00</time>
      </trkpt>
      <trkpt lat="46.15558" lon="4.58492">
        <ele>307</ele>
        <time>2023-10-18T14:50:22.628+00:00</time>
      </trkpt>
      <trkpt lat="46.15558" lon="4.58491">
        <ele>307</ele>
        <time>2023-10-18T14:50:26.858+00:00</time>
      </trkpt>
      <trkpt lat="46.15562" lon="4.58487">
        <ele>307</ele>
        <time>2023-10-18T14:50:31.194+00:00</time>
      </trkpt>
      <trkpt lat="46.15565" lon="4.58488">
        <ele>307</ele>
        <time>2023-10-18T14:50:35.518+00:00</time>
      </trkpt>
      <trkpt lat="46.15565" lon="4.58479">
        <ele>308</ele>
        <time>2023-10-18T14:51:23.634+00:00</time>
      </trkpt>
      <trkpt lat="46.15563" lon="4.5848">
        <ele>308</ele>
        <time>2023-10-18T14:51:28.174+00:00</time>
      </trkpt>
      <trkpt lat="46.15563" lon="4.58478">
        <ele>308</ele>
        <time>2023-10-18T14:51:32.774+00:00</time>
      </trkpt>
      <trkpt lat="46.15563" lon="4.58478">
        <ele>308</ele>
        <time>2023-10-18T14:51:37.274+00:00</time>
      </trkpt>
      <trkpt lat="46.15563" lon="4.58478">
        <ele>308</ele>
        <time>2023-10-18T14:51:42.314+00:00</time>
      </trkpt>
      <trkpt lat="46.15561" lon="4.58478">
        <ele>308</ele>
        <time>2023-10-18T14:56:39.874+00:00</time>
      </trkpt>
      <trkpt lat="46.15568" lon="4.58473">
        <ele>308</ele>
        <time>2023-10-18T14:56:44.314+00:00</time>
      </trkpt>
      <trkpt lat="46.15571" lon="4.5847">
        <ele>307</ele>
        <time>2023-10-18T14:56:48.694+00:00</time>
      </trkpt>
      <trkpt lat="46.15572" lon="4.58471">
        <ele>307</ele>
        <time>2023-10-18T14:56:52.734+00:00</time>
      </trkpt>
      <trkpt lat="46.15574" lon="4.58469">
        <ele>307</ele>
        <time>2023-10-18T14:56:57.214+00:00</time>
      </trkpt>
      <trkpt lat="46.15578" lon="4.58468">
        <ele>307</ele>
        <time>2023-10-18T14:57:01.684+00:00</time>
      </trkpt>
      <trkpt lat="46.15584" lon="4.58467">
        <ele>307</ele>
        <time>2023-10-18T14:57:05.694+00:00</time>
      </trkpt>
      <trkpt lat="46.1559" lon="4.58466">
        <ele>307</ele>
        <time>2023-10-18T14:57:10.138+00:00</time>
      </trkpt>
      <trkpt lat="46.15595" lon="4.58464">
        <ele>307</ele>
        <time>2023-10-18T14:57:14.538+00:00</time>
      </trkpt>
      <trkpt lat="46.15599" lon="4.58464">
        <ele>310</ele>
        <time>2023-10-18T14:57:19.018+00:00</time>
      </trkpt>
      <trkpt lat="46.15601" lon="4.58471">
        <ele>310</ele>
        <time>2023-10-18T14:57:23.454+00:00</time>
      </trkpt>
      <trkpt lat="46.15602" lon="4.58479">
        <ele>310</ele>
        <time>2023-10-18T14:57:28.014+00:00</time>
      </trkpt>
      <trkpt lat="46.15604" lon="4.5849">
        <ele>310</ele>
        <time>2023-10-18T14:57:32.474+00:00</time>
      </trkpt>
      <trkpt lat="46.15607" lon="4.58505">
        <ele>310</ele>
        <time>2023-10-18T14:57:37.454+00:00</time>
      </trkpt>
      <trkpt lat="46.15609" lon="4.58514">
        <ele>311</ele>
        <time>2023-10-18T14:57:41.874+00:00</time>
      </trkpt>
      <trkpt lat="46.15609" lon="4.58522">
        <ele>311</ele>
        <time>2023-10-18T14:57:45.894+00:00</time>
      </trkpt>
      <trkpt lat="46.15608" lon="4.58528">
        <ele>311</ele>
        <time>2023-10-18T14:57:49.814+00:00</time>
      </trkpt>
      <trkpt lat="46.15606" lon="4.5853">
        <ele>311</ele>
        <time>2023-10-18T14:58:03.034+00:00</time>
      </trkpt>
      <trkpt lat="46.15607" lon="4.58536">
        <ele>311</ele>
        <time>2023-10-18T14:58:07.314+00:00</time>
      </trkpt>
      <trkpt lat="46.15609" lon="4.58542">
        <ele>313</ele>
        <time>2023-10-18T14:58:11.598+00:00</time>
      </trkpt>
      <trkpt lat="46.15612" lon="4.58547">
        <ele>313</ele>
        <time>2023-10-18T14:58:15.514+00:00</time>
      </trkpt>
      <trkpt lat="46.15614" lon="4.58549">
        <ele>313</ele>
        <time>2023-10-18T14:58:19.754+00:00</time>
      </trkpt>
      <trkpt lat="46.15617" lon="4.58553">
        <ele>313</ele>
        <time>2023-10-18T14:58:24.685+00:00</time>
      </trkpt>
      <trkpt lat="46.15621" lon="4.58559">
        <ele>313</ele>
        <time>2023-10-18T14:58:29.631+00:00</time>
      </trkpt>
      <trkpt lat="46.15626" lon="4.58563">
        <ele>315</ele>
        <time>2023-10-18T14:58:34.214+00:00</time>
      </trkpt>
      <trkpt lat="46.1563" lon="4.58565">
        <ele>315</ele>
        <time>2023-10-18T14:58:38.574+00:00</time>
      </trkpt>
      <trkpt lat="46.15634" lon="4.58561">
        <ele>315</ele>
        <time>2023-10-18T14:58:43.094+00:00</time>
      </trkpt>
      <trkpt lat="46.15637" lon="4.58559">
        <ele>315</ele>
        <time>2023-10-18T14:58:47.014+00:00</time>
      </trkpt>
      <trkpt lat="46.15643" lon="4.58558">
        <ele>315</ele>
        <time>2023-10-18T14:58:51.434+00:00</time>
      </trkpt>
      <trkpt lat="46.15649" lon="4.58559">
        <ele>315</ele>
        <time>2023-10-18T14:58:55.814+00:00</time>
      </trkpt>
      <trkpt lat="46.15652" lon="4.58563">
        <ele>315</ele>
        <time>2023-10-18T14:59:00.314+00:00</time>
      </trkpt>
      <trkpt lat="46.15654" lon="4.58568">
        <ele>317</ele>
        <time>2023-10-18T14:59:04.774+00:00</time>
      </trkpt>
      <trkpt lat="46.15657" lon="4.58572">
        <ele>317</ele>
        <time>2023-10-18T14:59:09.214+00:00</time>
      </trkpt>
      <trkpt lat="46.15661" lon="4.58579">
        <ele>317</ele>
        <time>2023-10-18T14:59:13.636+00:00</time>
      </trkpt>
      <trkpt lat="46.1566" lon="4.58583">
        <ele>317</ele>
        <time>2023-10-18T14:59:18.054+00:00</time>
      </trkpt>
      <trkpt lat="46.15665" lon="4.58587">
        <ele>317</ele>
        <time>2023-10-18T14:59:22.454+00:00</time>
      </trkpt>
      <trkpt lat="46.15669" lon="4.5859">
        <ele>317</ele>
        <time>2023-10-18T14:59:26.894+00:00</time>
      </trkpt>
      <trkpt lat="46.15674" lon="4.58594">
        <ele>317</ele>
        <time>2023-10-18T14:59:31.194+00:00</time>
      </trkpt>
      <trkpt lat="46.15677" lon="4.58596">
        <ele>317</ele>
        <time>2023-10-18T14:59:35.734+00:00</time>
      </trkpt>
      <trkpt lat="46.1568" lon="4.58599">
        <ele>318</ele>
        <time>2023-10-18T14:59:39.754+00:00</time>
      </trkpt>
      <trkpt lat="46.15682" lon="4.58602">
        <ele>318</ele>
        <time>2023-10-18T14:59:44.294+00:00</time>
      </trkpt>
      <trkpt lat="46.15685" lon="4.58606">
        <ele>318</ele>
        <time>2023-10-18T14:59:48.694+00:00</time>
      </trkpt>
      <trkpt lat="46.15688" lon="4.58607">
        <ele>318</ele>
        <time>2023-10-18T14:59:53.094+00:00</time>
      </trkpt>
      <trkpt lat="46.15691" lon="4.58609">
        <ele>318</ele>
        <time>2023-10-18T14:59:57.314+00:00</time>
      </trkpt>
      <trkpt lat="46.15694" lon="4.58611">
        <ele>318</ele>
        <time>2023-10-18T15:00:01.574+00:00</time>
      </trkpt>
      <trkpt lat="46.15697" lon="4.58615">
        <ele>318</ele>
        <time>2023-10-18T15:00:05.414+00:00</time>
      </trkpt>
      <trkpt lat="46.15699" lon="4.5862">
        <ele>318</ele>
        <time>2023-10-18T15:00:09.834+00:00</time>
      </trkpt>
      <trkpt lat="46.15703" lon="4.58623">
        <ele>318</ele>
        <time>2023-10-18T15:00:14.458+00:00</time>
      </trkpt>
      <trkpt lat="46.15706" lon="4.58626">
        <ele>321</ele>
        <time>2023-10-18T15:00:18.394+00:00</time>
      </trkpt>
      <trkpt lat="46.15709" lon="4.5863">
        <ele>324</ele>
        <time>2023-10-18T15:00:22.674+00:00</time>
      </trkpt>
      <trkpt lat="46.15713" lon="4.58633">
        <ele>324</ele>
        <time>2023-10-18T15:00:27.594+00:00</time>
      </trkpt>
      <trkpt lat="46.15718" lon="4.58635">
        <ele>324</ele>
        <time>2023-10-18T15:00:31.974+00:00</time>
      </trkpt>
      <trkpt lat="46.15722" lon="4.58638">
        <ele>324</ele>
        <time>2023-10-18T15:00:36.794+00:00</time>
      </trkpt>
      <trkpt lat="46.15726" lon="4.5864">
        <ele>324</ele>
        <time>2023-10-18T15:00:41.234+00:00</time>
      </trkpt>
      <trkpt lat="46.15731" lon="4.5864">
        <ele>324</ele>
        <time>2023-10-18T15:00:45.454+00:00</time>
      </trkpt>
      <trkpt lat="46.15736" lon="4.58637">
        <ele>324</ele>
        <time>2023-10-18T15:00:49.814+00:00</time>
      </trkpt>
      <trkpt lat="46.15739" lon="4.5863">
        <ele>328</ele>
        <time>2023-10-18T15:00:54.314+00:00</time>
      </trkpt>
      <trkpt lat="46.1574" lon="4.58622">
        <ele>329</ele>
        <time>2023-10-18T15:00:58.894+00:00</time>
      </trkpt>
      <trkpt lat="46.1574" lon="4.58615">
        <ele>329</ele>
        <time>2023-10-18T15:01:03.514+00:00</time>
      </trkpt>
      <trkpt lat="46.15741" lon="4.58607">
        <ele>329</ele>
        <time>2023-10-18T15:01:08.014+00:00</time>
      </trkpt>
      <trkpt lat="46.15742" lon="4.586">
        <ele>329</ele>
        <time>2023-10-18T15:01:12.554+00:00</time>
      </trkpt>
      <trkpt lat="46.15742" lon="4.58594">
        <ele>330</ele>
        <time>2023-10-18T15:01:16.974+00:00</time>
      </trkpt>
      <trkpt lat="46.15743" lon="4.58587">
        <ele>330</ele>
        <time>2023-10-18T15:01:21.514+00:00</time>
      </trkpt>
      <trkpt lat="46.15744" lon="4.58581">
        <ele>330</ele>
        <time>2023-10-18T15:01:26.054+00:00</time>
      </trkpt>
      <trkpt lat="46.15744" lon="4.58578">
        <ele>330</ele>
        <time>2023-10-18T15:01:30.514+00:00</time>
      </trkpt>
      <trkpt lat="46.15745" lon="4.58572">
        <ele>330</ele>
        <time>2023-10-18T15:01:34.834+00:00</time>
      </trkpt>
      <trkpt lat="46.15749" lon="4.58568">
        <ele>329</ele>
        <time>2023-10-18T15:01:39.454+00:00</time>
      </trkpt>
      <trkpt lat="46.15753" lon="4.58569">
        <ele>329</ele>
        <time>2023-10-18T15:01:43.294+00:00</time>
      </trkpt>
      <trkpt lat="46.15757" lon="4.58573">
        <ele>330</ele>
        <time>2023-10-18T15:01:47.854+00:00</time>
      </trkpt>
      <trkpt lat="46.1576" lon="4.58578">
        <ele>330</ele>
        <time>2023-10-18T15:01:52.414+00:00</time>
      </trkpt>
      <trkpt lat="46.15764" lon="4.58582">
        <ele>335</ele>
        <time>2023-10-18T15:01:56.314+00:00</time>
      </trkpt>
      <trkpt lat="46.15768" lon="4.58584">
        <ele>335</ele>
        <time>2023-10-18T15:02:00.774+00:00</time>
      </trkpt>
      <trkpt lat="46.15772" lon="4.58587">
        <ele>335</ele>
        <time>2023-10-18T15:02:04.694+00:00</time>
      </trkpt>
      <trkpt lat="46.15775" lon="4.58592">
        <ele>335</ele>
        <time>2023-10-18T15:02:08.874+00:00</time>
      </trkpt>
      <trkpt lat="46.15779" lon="4.58596">
        <ele>335</ele>
        <time>2023-10-18T15:02:13.494+00:00</time>
      </trkpt>
      <trkpt lat="46.15783" lon="4.58598">
        <ele>335</ele>
        <time>2023-10-18T15:02:18.214+00:00</time>
      </trkpt>
      <trkpt lat="46.15787" lon="4.58601">
        <ele>335</ele>
        <time>2023-10-18T15:02:22.658+00:00</time>
      </trkpt>
      <trkpt lat="46.15791" lon="4.58604">
        <ele>335</ele>
        <time>2023-10-18T15:02:27.174+00:00</time>
      </trkpt>
      <trkpt lat="46.15796" lon="4.58607">
        <ele>340</ele>
        <time>2023-10-18T15:02:31.734+00:00</time>
      </trkpt>
      <trkpt lat="46.15799" lon="4.58608">
        <ele>340</ele>
        <time>2023-10-18T15:02:36.174+00:00</time>
      </trkpt>
      <trkpt lat="46.15803" lon="4.5861">
        <ele>340</ele>
        <time>2023-10-18T15:02:40.194+00:00</time>
      </trkpt>
      <trkpt lat="46.15807" lon="4.58613">
        <ele>340</ele>
        <time>2023-10-18T15:02:44.634+00:00</time>
      </trkpt>
      <trkpt lat="46.15809" lon="4.58618">
        <ele>340</ele>
        <time>2023-10-18T15:02:48.514+00:00</time>
      </trkpt>
      <trkpt lat="46.15812" lon="4.58622">
        <ele>340</ele>
        <time>2023-10-18T15:02:52.754+00:00</time>
      </trkpt>
      <trkpt lat="46.15816" lon="4.58625">
        <ele>340</ele>
        <time>2023-10-18T15:02:56.994+00:00</time>
      </trkpt>
      <trkpt lat="46.1582" lon="4.58627">
        <ele>342</ele>
        <time>2023-10-18T15:03:01.594+00:00</time>
      </trkpt>
      <trkpt lat="46.15823" lon="4.58632">
        <ele>342</ele>
        <time>2023-10-18T15:03:05.838+00:00</time>
      </trkpt>
      <trkpt lat="46.15827" lon="4.58637">
        <ele>342</ele>
        <time>2023-10-18T15:03:10.014+00:00</time>
      </trkpt>
      <trkpt lat="46.1583" lon="4.5864">
        <ele>342</ele>
        <time>2023-10-18T15:03:14.174+00:00</time>
      </trkpt>
      <trkpt lat="46.15833" lon="4.58644">
        <ele>342</ele>
        <time>2023-10-18T15:03:19.034+00:00</time>
      </trkpt>
      <trkpt lat="46.15837" lon="4.58648">
        <ele>342</ele>
        <time>2023-10-18T15:03:23.514+00:00</time>
      </trkpt>
      <trkpt lat="46.1584" lon="4.58652">
        <ele>342</ele>
        <time>2023-10-18T15:03:27.974+00:00</time>
      </trkpt>
      <trkpt lat="46.15843" lon="4.58656">
        <ele>341</ele>
        <time>2023-10-18T15:03:31.854+00:00</time>
      </trkpt>
      <trkpt lat="46.15846" lon="4.58659">
        <ele>341</ele>
        <time>2023-10-18T15:03:35.894+00:00</time>
      </trkpt>
      <trkpt lat="46.15849" lon="4.58663">
        <ele>345</ele>
        <time>2023-10-18T15:03:40.754+00:00</time>
      </trkpt>
      <trkpt lat="46.15853" lon="4.58666">
        <ele>345</ele>
        <time>2023-10-18T15:03:45.538+00:00</time>
      </trkpt>
      <trkpt lat="46.15856" lon="4.58668">
        <ele>345</ele>
        <time>2023-10-18T15:03:49.314+00:00</time>
      </trkpt>
      <trkpt lat="46.15859" lon="4.58671">
        <ele>345</ele>
        <time>2023-10-18T15:03:53.594+00:00</time>
      </trkpt>
      <trkpt lat="46.15862" lon="4.58674">
        <ele>345</ele>
        <time>2023-10-18T15:03:57.834+00:00</time>
      </trkpt>
      <trkpt lat="46.15865" lon="4.58677">
        <ele>345</ele>
        <time>2023-10-18T15:04:01.834+00:00</time>
      </trkpt>
      <trkpt lat="46.15868" lon="4.58681">
        <ele>345</ele>
        <time>2023-10-18T15:04:06.294+00:00</time>
      </trkpt>
      <trkpt lat="46.15871" lon="4.58683">
        <ele>345</ele>
        <time>2023-10-18T15:04:10.858+00:00</time>
      </trkpt>
      <trkpt lat="46.15875" lon="4.58686">
        <ele>345</ele>
        <time>2023-10-18T15:04:15.054+00:00</time>
      </trkpt>
      <trkpt lat="46.15879" lon="4.5869">
        <ele>348</ele>
        <time>2023-10-18T15:04:19.614+00:00</time>
      </trkpt>
      <trkpt lat="46.15883" lon="4.58693">
        <ele>348</ele>
        <time>2023-10-18T15:04:24.174+00:00</time>
      </trkpt>
      <trkpt lat="46.15888" lon="4.58694">
        <ele>348</ele>
        <time>2023-10-18T15:04:28.554+00:00</time>
      </trkpt>
      <trkpt lat="46.15892" lon="4.58694">
        <ele>348</ele>
        <time>2023-10-18T15:04:33.094+00:00</time>
      </trkpt>
      <trkpt lat="46.15898" lon="4.58697">
        <ele>348</ele>
        <time>2023-10-18T15:04:37.554+00:00</time>
      </trkpt>
      <trkpt lat="46.15902" lon="4.587">
        <ele>348</ele>
        <time>2023-10-18T15:04:41.994+00:00</time>
      </trkpt>
      <trkpt lat="46.15906" lon="4.58704">
        <ele>351</ele>
        <time>2023-10-18T15:04:46.514+00:00</time>
      </trkpt>
      <trkpt lat="46.15911" lon="4.58707">
        <ele>351</ele>
        <time>2023-10-18T15:04:51.014+00:00</time>
      </trkpt>
      <trkpt lat="46.15915" lon="4.5871">
        <ele>351</ele>
        <time>2023-10-18T15:04:55.574+00:00</time>
      </trkpt>
      <trkpt lat="46.15918" lon="4.58713">
        <ele>351</ele>
        <time>2023-10-18T15:04:59.514+00:00</time>
      </trkpt>
      <trkpt lat="46.15922" lon="4.58716">
        <ele>351</ele>
        <time>2023-10-18T15:05:03.858+00:00</time>
      </trkpt>
      <trkpt lat="46.15927" lon="4.58719">
        <ele>351</ele>
        <time>2023-10-18T15:05:08.194+00:00</time>
      </trkpt>
      <trkpt lat="46.15931" lon="4.58722">
        <ele>356</ele>
        <time>2023-10-18T15:05:12.634+00:00</time>
      </trkpt>
      <trkpt lat="46.15934" lon="4.58725">
        <ele>356</ele>
        <time>2023-10-18T15:05:16.934+00:00</time>
      </trkpt>
      <trkpt lat="46.15938" lon="4.58727">
        <ele>356</ele>
        <time>2023-10-18T15:05:20.774+00:00</time>
      </trkpt>
      <trkpt lat="46.15943" lon="4.5873">
        <ele>356</ele>
        <time>2023-10-18T15:05:25.314+00:00</time>
      </trkpt>
      <trkpt lat="46.15948" lon="4.58732">
        <ele>356</ele>
        <time>2023-10-18T15:05:30.134+00:00</time>
      </trkpt>
      <trkpt lat="46.15952" lon="4.58732">
        <ele>356</ele>
        <time>2023-10-18T15:05:33.954+00:00</time>
      </trkpt>
      <trkpt lat="46.15957" lon="4.58733">
        <ele>356</ele>
        <time>2023-10-18T15:05:38.778+00:00</time>
      </trkpt>
      <trkpt lat="46.15962" lon="4.58734">
        <ele>361</ele>
        <time>2023-10-18T15:05:43.314+00:00</time>
      </trkpt>
      <trkpt lat="46.15968" lon="4.58737">
        <ele>360</ele>
        <time>2023-10-18T15:05:47.694+00:00</time>
      </trkpt>
      <trkpt lat="46.15973" lon="4.58739">
        <ele>360</ele>
        <time>2023-10-18T15:05:52.114+00:00</time>
      </trkpt>
      <trkpt lat="46.15977" lon="4.58741">
        <ele>360</ele>
        <time>2023-10-18T15:05:56.134+00:00</time>
      </trkpt>
      <trkpt lat="46.15982" lon="4.58744">
        <ele>360</ele>
        <time>2023-10-18T15:06:01.554+00:00</time>
      </trkpt>
      <trkpt lat="46.15987" lon="4.58746">
        <ele>364</ele>
        <time>2023-10-18T15:06:05.794+00:00</time>
      </trkpt>
      <trkpt lat="46.15992" lon="4.58749">
        <ele>364</ele>
        <time>2023-10-18T15:06:10.174+00:00</time>
      </trkpt>
      <trkpt lat="46.15996" lon="4.58751">
        <ele>364</ele>
        <time>2023-10-18T15:06:14.214+00:00</time>
      </trkpt>
      <trkpt lat="46.16002" lon="4.58755">
        <ele>364</ele>
        <time>2023-10-18T15:06:51.234+00:00</time>
      </trkpt>
      <trkpt lat="46.16004" lon="4.58753">
        <ele>364</ele>
        <time>2023-10-18T15:06:56.638+00:00</time>
      </trkpt>
      <trkpt lat="46.16006" lon="4.58753">
        <ele>364</ele>
        <time>2023-10-18T15:07:00.454+00:00</time>
      </trkpt>
      <trkpt lat="46.16007" lon="4.58754">
        <ele>364</ele>
        <time>2023-10-18T15:07:04.914+00:00</time>
      </trkpt>
      <trkpt lat="46.16009" lon="4.58755">
        <ele>364</ele>
        <time>2023-10-18T15:07:09.434+00:00</time>
      </trkpt>
      <trkpt lat="46.1601" lon="4.58752">
        <ele>364</ele>
        <time>2023-10-18T15:07:17.627+00:00</time>
      </trkpt>
      <trkpt lat="46.16011" lon="4.58751">
        <ele>364</ele>
        <time>2023-10-18T15:07:22.074+00:00</time>
      </trkpt>
      <trkpt lat="46.16013" lon="4.58751">
        <ele>364</ele>
        <time>2023-10-18T15:07:26.437+00:00</time>
      </trkpt>
      <trkpt lat="46.16016" lon="4.5875">
        <ele>370</ele>
        <time>2023-10-18T15:07:30.314+00:00</time>
      </trkpt>
      <trkpt lat="46.1602" lon="4.58748">
        <ele>370</ele>
        <time>2023-10-18T15:07:34.814+00:00</time>
      </trkpt>
      <trkpt lat="46.16024" lon="4.58746">
        <ele>370</ele>
        <time>2023-10-18T15:07:43.647+00:00</time>
      </trkpt>
      <trkpt lat="46.16026" lon="4.58747">
        <ele>370</ele>
        <time>2023-10-18T15:07:47.954+00:00</time>
      </trkpt>
      <trkpt lat="46.16028" lon="4.58747">
        <ele>370</ele>
        <time>2023-10-18T15:07:52.334+00:00</time>
      </trkpt>
      <trkpt lat="46.16031" lon="4.58747">
        <ele>370</ele>
        <time>2023-10-18T15:07:56.958+00:00</time>
      </trkpt>
      <trkpt lat="46.16032" lon="4.58745">
        <ele>370</ele>
        <time>2023-10-18T15:08:00.814+00:00</time>
      </trkpt>
      <trkpt lat="46.16034" lon="4.58743">
        <ele>370</ele>
        <time>2023-10-18T15:08:05.314+00:00</time>
      </trkpt>
      <trkpt lat="46.16037" lon="4.58742">
        <ele>370</ele>
        <time>2023-10-18T15:08:10.238+00:00</time>
      </trkpt>
      <trkpt lat="46.1604" lon="4.58742">
        <ele>370</ele>
        <time>2023-10-18T15:08:14.034+00:00</time>
      </trkpt>
      <trkpt lat="46.16042" lon="4.58744">
        <ele>375</ele>
        <time>2023-10-18T15:08:18.454+00:00</time>
      </trkpt>
      <trkpt lat="46.16044" lon="4.58745">
        <ele>375</ele>
        <time>2023-10-18T15:08:22.914+00:00</time>
      </trkpt>
      <trkpt lat="46.16046" lon="4.5875">
        <ele>375</ele>
        <time>2023-10-18T15:08:31.494+00:00</time>
      </trkpt>
      <trkpt lat="46.16046" lon="4.58752">
        <ele>375</ele>
        <time>2023-10-18T15:08:36.034+00:00</time>
      </trkpt>
      <trkpt lat="46.16047" lon="4.58752">
        <ele>375</ele>
        <time>2023-10-18T15:08:40.314+00:00</time>
      </trkpt>
      <trkpt lat="46.1605" lon="4.58752">
        <ele>375</ele>
        <time>2023-10-18T15:08:45.474+00:00</time>
      </trkpt>
      <trkpt lat="46.16054" lon="4.58754">
        <ele>375</ele>
        <time>2023-10-18T15:08:50.554+00:00</time>
      </trkpt>
      <trkpt lat="46.16057" lon="4.58755">
        <ele>375</ele>
        <time>2023-10-18T15:08:55.554+00:00</time>
      </trkpt>
      <trkpt lat="46.1606" lon="4.58756">
        <ele>375</ele>
        <time>2023-10-18T15:08:59.314+00:00</time>
      </trkpt>
      <trkpt lat="46.16063" lon="4.58758">
        <ele>375</ele>
        <time>2023-10-18T15:09:03.674+00:00</time>
      </trkpt>
      <trkpt lat="46.16067" lon="4.58759">
        <ele>375</ele>
        <time>2023-10-18T15:09:08.034+00:00</time>
      </trkpt>
      <trkpt lat="46.16071" lon="4.58762">
        <ele>378</ele>
        <time>2023-10-18T15:09:12.274+00:00</time>
      </trkpt>
      <trkpt lat="46.16074" lon="4.58766">
        <ele>380</ele>
        <time>2023-10-18T15:09:16.694+00:00</time>
      </trkpt>
      <trkpt lat="46.16078" lon="4.5877">
        <ele>380</ele>
        <time>2023-10-18T15:09:21.614+00:00</time>
      </trkpt>
      <trkpt lat="46.16081" lon="4.58772">
        <ele>380</ele>
        <time>2023-10-18T15:09:26.614+00:00</time>
      </trkpt>
      <trkpt lat="46.16083" lon="4.58774">
        <ele>380</ele>
        <time>2023-10-18T15:09:31.474+00:00</time>
      </trkpt>
      <trkpt lat="46.16086" lon="4.58776">
        <ele>380</ele>
        <time>2023-10-18T15:09:35.254+00:00</time>
      </trkpt>
      <trkpt lat="46.1609" lon="4.58778">
        <ele>380</ele>
        <time>2023-10-18T15:09:40.214+00:00</time>
      </trkpt>
      <trkpt lat="46.16094" lon="4.58778">
        <ele>380</ele>
        <time>2023-10-18T15:09:45.474+00:00</time>
      </trkpt>
      <trkpt lat="46.16097" lon="4.58778">
        <ele>380</ele>
        <time>2023-10-18T15:09:50.478+00:00</time>
      </trkpt>
      <trkpt lat="46.16101" lon="4.58779">
        <ele>383</ele>
        <time>2023-10-18T15:09:54.734+00:00</time>
      </trkpt>
      <trkpt lat="46.16105" lon="4.58781">
        <ele>383</ele>
        <time>2023-10-18T15:09:59.074+00:00</time>
      </trkpt>
      <trkpt lat="46.16109" lon="4.58782">
        <ele>383</ele>
        <time>2023-10-18T15:10:03.626+00:00</time>
      </trkpt>
      <trkpt lat="46.16113" lon="4.58784">
        <ele>383</ele>
        <time>2023-10-18T15:10:08.034+00:00</time>
      </trkpt>
      <trkpt lat="46.16117" lon="4.58786">
        <ele>383</ele>
        <time>2023-10-18T15:10:12.534+00:00</time>
      </trkpt>
      <trkpt lat="46.1612" lon="4.5879">
        <ele>383</ele>
        <time>2023-10-18T15:10:17.474+00:00</time>
      </trkpt>
      <trkpt lat="46.16124" lon="4.58793">
        <ele>383</ele>
        <time>2023-10-18T15:10:22.094+00:00</time>
      </trkpt>
      <trkpt lat="46.16128" lon="4.58794">
        <ele>389</ele>
        <time>2023-10-18T15:10:26.554+00:00</time>
      </trkpt>
      <trkpt lat="46.16132" lon="4.58793">
        <ele>389</ele>
        <time>2023-10-18T15:10:30.434+00:00</time>
      </trkpt>
      <trkpt lat="46.16137" lon="4.58794">
        <ele>389</ele>
        <time>2023-10-18T15:10:35.174+00:00</time>
      </trkpt>
      <trkpt lat="46.16141" lon="4.58796">
        <ele>389</ele>
        <time>2023-10-18T15:10:39.374+00:00</time>
      </trkpt>
      <trkpt lat="46.16144" lon="4.58799">
        <ele>389</ele>
        <time>2023-10-18T15:10:43.758+00:00</time>
      </trkpt>
      <trkpt lat="46.16148" lon="4.58802">
        <ele>389</ele>
        <time>2023-10-18T15:10:47.994+00:00</time>
      </trkpt>
      <trkpt lat="46.16151" lon="4.58805">
        <ele>389</ele>
        <time>2023-10-18T15:10:51.894+00:00</time>
      </trkpt>
      <trkpt lat="46.16155" lon="4.58808">
        <ele>394</ele>
        <time>2023-10-18T15:10:56.074+00:00</time>
      </trkpt>
      <trkpt lat="46.16158" lon="4.58811">
        <ele>394</ele>
        <time>2023-10-18T15:11:00.474+00:00</time>
      </trkpt>
      <trkpt lat="46.16162" lon="4.58814">
        <ele>394</ele>
        <time>2023-10-18T15:11:04.834+00:00</time>
      </trkpt>
      <trkpt lat="46.16164" lon="4.58816">
        <ele>394</ele>
        <time>2023-10-18T15:11:09.094+00:00</time>
      </trkpt>
      <trkpt lat="46.16167" lon="4.58818">
        <ele>394</ele>
        <time>2023-10-18T15:11:13.494+00:00</time>
      </trkpt>
      <trkpt lat="46.1617" lon="4.58822">
        <ele>395</ele>
        <time>2023-10-18T15:11:18.334+00:00</time>
      </trkpt>
      <trkpt lat="46.16173" lon="4.58825">
        <ele>395</ele>
        <time>2023-10-18T15:11:22.174+00:00</time>
      </trkpt>
      <trkpt lat="46.16176" lon="4.58826">
        <ele>395</ele>
        <time>2023-10-18T15:11:27.238+00:00</time>
      </trkpt>
      <trkpt lat="46.16179" lon="4.58827">
        <ele>395</ele>
        <time>2023-10-18T15:11:31.034+00:00</time>
      </trkpt>
      <trkpt lat="46.16181" lon="4.58831">
        <ele>400</ele>
        <time>2023-10-18T15:11:35.574+00:00</time>
      </trkpt>
      <trkpt lat="46.16183" lon="4.58836">
        <ele>400</ele>
        <time>2023-10-18T15:11:39.757+00:00</time>
      </trkpt>
      <trkpt lat="46.16185" lon="4.58839">
        <ele>400</ele>
        <time>2023-10-18T15:11:44.214+00:00</time>
      </trkpt>
      <trkpt lat="46.16186" lon="4.58843">
        <ele>400</ele>
        <time>2023-10-18T15:11:48.174+00:00</time>
      </trkpt>
      <trkpt lat="46.16187" lon="4.58847">
        <ele>400</ele>
        <time>2023-10-18T15:11:52.974+00:00</time>
      </trkpt>
      <trkpt lat="46.16189" lon="4.58851">
        <ele>399</ele>
        <time>2023-10-18T15:11:57.254+00:00</time>
      </trkpt>
      <trkpt lat="46.16192" lon="4.58856">
        <ele>399</ele>
        <time>2023-10-18T15:12:01.394+00:00</time>
      </trkpt>
      <trkpt lat="46.16196" lon="4.58859">
        <ele>399</ele>
        <time>2023-10-18T15:12:05.798+00:00</time>
      </trkpt>
      <trkpt lat="46.16199" lon="4.58863">
        <ele>399</ele>
        <time>2023-10-18T15:12:10.214+00:00</time>
      </trkpt>
      <trkpt lat="46.16201" lon="4.58866">
        <ele>399</ele>
        <time>2023-10-18T15:12:14.614+00:00</time>
      </trkpt>
      <trkpt lat="46.16205" lon="4.58866">
        <ele>399</ele>
        <time>2023-10-18T15:12:18.994+00:00</time>
      </trkpt>
      <trkpt lat="46.16208" lon="4.58865">
        <ele>399</ele>
        <time>2023-10-18T15:12:23.214+00:00</time>
      </trkpt>
      <trkpt lat="46.16211" lon="4.58866">
        <ele>405</ele>
        <time>2023-10-18T15:12:27.174+00:00</time>
      </trkpt>
      <trkpt lat="46.16215" lon="4.58868">
        <ele>405</ele>
        <time>2023-10-18T15:12:32.314+00:00</time>
      </trkpt>
      <trkpt lat="46.16219" lon="4.5887">
        <ele>405</ele>
        <time>2023-10-18T15:12:36.414+00:00</time>
      </trkpt>
      <trkpt lat="46.16223" lon="4.5887">
        <ele>405</ele>
        <time>2023-10-18T15:12:40.854+00:00</time>
      </trkpt>
      <trkpt lat="46.16227" lon="4.58871">
        <ele>405</ele>
        <time>2023-10-18T15:12:45.238+00:00</time>
      </trkpt>
      <trkpt lat="46.1623" lon="4.58873">
        <ele>405</ele>
        <time>2023-10-18T15:12:49.034+00:00</time>
      </trkpt>
      <trkpt lat="46.16234" lon="4.58876">
        <ele>402</ele>
        <time>2023-10-18T15:12:53.614+00:00</time>
      </trkpt>
      <trkpt lat="46.16239" lon="4.58878">
        <ele>409</ele>
        <time>2023-10-18T15:12:58.074+00:00</time>
      </trkpt>
      <trkpt lat="46.16243" lon="4.58879">
        <ele>409</ele>
        <time>2023-10-18T15:13:02.558+00:00</time>
      </trkpt>
      <trkpt lat="46.16246" lon="4.58879">
        <ele>409</ele>
        <time>2023-10-18T15:13:06.434+00:00</time>
      </trkpt>
      <trkpt lat="46.1625" lon="4.5888">
        <ele>409</ele>
        <time>2023-10-18T15:13:10.894+00:00</time>
      </trkpt>
      <trkpt lat="46.16253" lon="4.58883">
        <ele>409</ele>
        <time>2023-10-18T15:13:15.314+00:00</time>
      </trkpt>
      <trkpt lat="46.16256" lon="4.58887">
        <ele>409</ele>
        <time>2023-10-18T15:13:19.634+00:00</time>
      </trkpt>
      <trkpt lat="46.16259" lon="4.58891">
        <ele>409</ele>
        <time>2023-10-18T15:13:23.654+00:00</time>
      </trkpt>
      <trkpt lat="46.16263" lon="4.58893">
        <ele>409</ele>
        <time>2023-10-18T15:13:28.098+00:00</time>
      </trkpt>
      <trkpt lat="46.16266" lon="4.58894">
        <ele>415</ele>
        <time>2023-10-18T15:13:32.074+00:00</time>
      </trkpt>
      <trkpt lat="46.16269" lon="4.58895">
        <ele>415</ele>
        <time>2023-10-18T15:13:36.554+00:00</time>
      </trkpt>
      <trkpt lat="46.16273" lon="4.58895">
        <ele>415</ele>
        <time>2023-10-18T15:13:40.554+00:00</time>
      </trkpt>
      <trkpt lat="46.16277" lon="4.58896">
        <ele>415</ele>
        <time>2023-10-18T15:13:45.034+00:00</time>
      </trkpt>
      <trkpt lat="46.16281" lon="4.58895">
        <ele>415</ele>
        <time>2023-10-18T15:13:49.454+00:00</time>
      </trkpt>
      <trkpt lat="46.16287" lon="4.58893">
        <ele>415</ele>
        <time>2023-10-18T15:13:54.014+00:00</time>
      </trkpt>
      <trkpt lat="46.16292" lon="4.58892">
        <ele>415</ele>
        <time>2023-10-18T15:13:58.574+00:00</time>
      </trkpt>
      <trkpt lat="46.16297" lon="4.58891">
        <ele>415</ele>
        <time>2023-10-18T15:14:03.134+00:00</time>
      </trkpt>
      <trkpt lat="46.16301" lon="4.58889">
        <ele>415</ele>
        <time>2023-10-18T15:14:07.633+00:00</time>
      </trkpt>
      <trkpt lat="46.16307" lon="4.58888">
        <ele>415</ele>
        <time>2023-10-18T15:14:11.954+00:00</time>
      </trkpt>
      <trkpt lat="46.16312" lon="4.58886">
        <ele>415</ele>
        <time>2023-10-18T15:14:16.194+00:00</time>
      </trkpt>
      <trkpt lat="46.16316" lon="4.58884">
        <ele>415</ele>
        <time>2023-10-18T15:14:20.474+00:00</time>
      </trkpt>
      <trkpt lat="46.16321" lon="4.58885">
        <ele>416</ele>
        <time>2023-10-18T15:14:24.714+00:00</time>
      </trkpt>
      <trkpt lat="46.16327" lon="4.58888">
        <ele>416</ele>
        <time>2023-10-18T15:14:29.494+00:00</time>
      </trkpt>
      <trkpt lat="46.16331" lon="4.5889">
        <ele>416</ele>
        <time>2023-10-18T15:14:33.294+00:00</time>
      </trkpt>
      <trkpt lat="46.16336" lon="4.58893">
        <ele>416</ele>
        <time>2023-10-18T15:14:38.174+00:00</time>
      </trkpt>
      <trkpt lat="46.1634" lon="4.58896">
        <ele>416</ele>
        <time>2023-10-18T15:14:42.374+00:00</time>
      </trkpt>
      <trkpt lat="46.16345" lon="4.58901">
        <ele>416</ele>
        <time>2023-10-18T15:14:47.598+00:00</time>
      </trkpt>
      <trkpt lat="46.16349" lon="4.58905">
        <ele>421</ele>
        <time>2023-10-18T15:14:51.994+00:00</time>
      </trkpt>
      <trkpt lat="46.16354" lon="4.58907">
        <ele>421</ele>
        <time>2023-10-18T15:14:56.454+00:00</time>
      </trkpt>
      <trkpt lat="46.16358" lon="4.5891">
        <ele>421</ele>
        <time>2023-10-18T15:15:00.874+00:00</time>
      </trkpt>
      <trkpt lat="46.16363" lon="4.58914">
        <ele>421</ele>
        <time>2023-10-18T15:15:05.154+00:00</time>
      </trkpt>
      <trkpt lat="46.16366" lon="4.58917">
        <ele>421</ele>
        <time>2023-10-18T15:15:09.434+00:00</time>
      </trkpt>
      <trkpt lat="46.16369" lon="4.58919">
        <ele>421</ele>
        <time>2023-10-18T15:15:13.294+00:00</time>
      </trkpt>
      <trkpt lat="46.16373" lon="4.58922">
        <ele>421</ele>
        <time>2023-10-18T15:15:17.954+00:00</time>
      </trkpt>
      <trkpt lat="46.16377" lon="4.58925">
        <ele>425</ele>
        <time>2023-10-18T15:15:22.274+00:00</time>
      </trkpt>
      <trkpt lat="46.16381" lon="4.58927">
        <ele>425</ele>
        <time>2023-10-18T15:15:26.494+00:00</time>
      </trkpt>
      <trkpt lat="46.16384" lon="4.58926">
        <ele>425</ele>
        <time>2023-10-18T15:15:30.334+00:00</time>
      </trkpt>
      <trkpt lat="46.16388" lon="4.58922">
        <ele>425</ele>
        <time>2023-10-18T15:15:35.214+00:00</time>
      </trkpt>
      <trkpt lat="46.16395" lon="4.5892">
        <ele>425</ele>
        <time>2023-10-18T15:18:39.214+00:00</time>
      </trkpt>
      <trkpt lat="46.16395" lon="4.58921">
        <ele>425</ele>
        <time>2023-10-18T15:18:43.734+00:00</time>
      </trkpt>
      <trkpt lat="46.16397" lon="4.58922">
        <ele>425</ele>
        <time>2023-10-18T15:18:48.214+00:00</time>
      </trkpt>
      <trkpt lat="46.16397" lon="4.58922">
        <ele>425</ele>
        <time>2023-10-18T15:18:53.474+00:00</time>
      </trkpt>
      <trkpt lat="46.16399" lon="4.58923">
        <ele>425</ele>
        <time>2023-10-18T15:18:57.914+00:00</time>
      </trkpt>
      <trkpt lat="46.16402" lon="4.58923">
        <ele>425</ele>
        <time>2023-10-18T15:19:02.194+00:00</time>
      </trkpt>
      <trkpt lat="46.16405" lon="4.58922">
        <ele>428</ele>
        <time>2023-10-18T15:19:06.154+00:00</time>
      </trkpt>
      <trkpt lat="46.16407" lon="4.58923">
        <ele>428</ele>
        <time>2023-10-18T15:19:10.214+00:00</time>
      </trkpt>
      <trkpt lat="46.16411" lon="4.58923">
        <ele>428</ele>
        <time>2023-10-18T15:19:15.374+00:00</time>
      </trkpt>
      <trkpt lat="46.16414" lon="4.58924">
        <ele>428</ele>
        <time>2023-10-18T15:19:19.754+00:00</time>
      </trkpt>
      <trkpt lat="46.16417" lon="4.58924">
        <ele>428</ele>
        <time>2023-10-18T15:19:24.314+00:00</time>
      </trkpt>
      <trkpt lat="46.16421" lon="4.58924">
        <ele>428</ele>
        <time>2023-10-18T15:19:28.714+00:00</time>
      </trkpt>
      <trkpt lat="46.16424" lon="4.58926">
        <ele>428</ele>
        <time>2023-10-18T15:19:33.154+00:00</time>
      </trkpt>
      <trkpt lat="46.16427" lon="4.58928">
        <ele>428</ele>
        <time>2023-10-18T15:19:38.118+00:00</time>
      </trkpt>
      <trkpt lat="46.16429" lon="4.58928">
        <ele>428</ele>
        <time>2023-10-18T15:19:41.954+00:00</time>
      </trkpt>
      <trkpt lat="46.16431" lon="4.58928">
        <ele>433</ele>
        <time>2023-10-18T15:19:46.374+00:00</time>
      </trkpt>
      <trkpt lat="46.16435" lon="4.58928">
        <ele>433</ele>
        <time>2023-10-18T15:19:50.414+00:00</time>
      </trkpt>
      <trkpt lat="46.16438" lon="4.58929">
        <ele>433</ele>
        <time>2023-10-18T15:19:54.974+00:00</time>
      </trkpt>
      <trkpt lat="46.16447" lon="4.58931">
        <ele>437</ele>
        <time>2023-10-18T15:20:17.914+00:00</time>
      </trkpt>
      <trkpt lat="46.16448" lon="4.58931">
        <ele>433</ele>
        <time>2023-10-18T15:20:22.434+00:00</time>
      </trkpt>
      <trkpt lat="46.16453" lon="4.58928">
        <ele>433</ele>
        <time>2023-10-18T15:20:26.874+00:00</time>
      </trkpt>
      <trkpt lat="46.16456" lon="4.58926">
        <ele>433</ele>
        <time>2023-10-18T15:20:31.458+00:00</time>
      </trkpt>
      <trkpt lat="46.16459" lon="4.58924">
        <ele>439</ele>
        <time>2023-10-18T15:20:35.998+00:00</time>
      </trkpt>
      <trkpt lat="46.16462" lon="4.58922">
        <ele>439</ele>
        <time>2023-10-18T15:20:39.934+00:00</time>
      </trkpt>
      <trkpt lat="46.16465" lon="4.5892">
        <ele>439</ele>
        <time>2023-10-18T15:20:44.034+00:00</time>
      </trkpt>
      <trkpt lat="46.16469" lon="4.58918">
        <ele>439</ele>
        <time>2023-10-18T15:20:48.314+00:00</time>
      </trkpt>
      <trkpt lat="46.16472" lon="4.58916">
        <ele>439</ele>
        <time>2023-10-18T15:20:52.714+00:00</time>
      </trkpt>
      <trkpt lat="46.16475" lon="4.58914">
        <ele>439</ele>
        <time>2023-10-18T15:20:57.174+00:00</time>
      </trkpt>
      <trkpt lat="46.16478" lon="4.58913">
        <ele>439</ele>
        <time>2023-10-18T15:21:01.694+00:00</time>
      </trkpt>
      <trkpt lat="46.16482" lon="4.58912">
        <ele>439</ele>
        <time>2023-10-18T15:21:06.054+00:00</time>
      </trkpt>
      <trkpt lat="46.16484" lon="4.58912">
        <ele>439</ele>
        <time>2023-10-18T15:21:10.494+00:00</time>
      </trkpt>
      <trkpt lat="46.16486" lon="4.58912">
        <ele>445</ele>
        <time>2023-10-18T15:21:14.514+00:00</time>
      </trkpt>
      <trkpt lat="46.1649" lon="4.58913">
        <ele>445</ele>
        <time>2023-10-18T15:21:18.774+00:00</time>
      </trkpt>
      <trkpt lat="46.16494" lon="4.58912">
        <ele>445</ele>
        <time>2023-10-18T15:21:23.234+00:00</time>
      </trkpt>
      <trkpt lat="46.16497" lon="4.5891">
        <ele>445</ele>
        <time>2023-10-18T15:21:27.174+00:00</time>
      </trkpt>
      <trkpt lat="46.16501" lon="4.58909">
        <ele>445</ele>
        <time>2023-10-18T15:21:31.194+00:00</time>
      </trkpt>
      <trkpt lat="46.16504" lon="4.58908">
        <ele>445</ele>
        <time>2023-10-18T15:21:35.654+00:00</time>
      </trkpt>
      <trkpt lat="46.16507" lon="4.58907">
        <ele>445</ele>
        <time>2023-10-18T15:21:40.194+00:00</time>
      </trkpt>
      <trkpt lat="46.1651" lon="4.58906">
        <ele>445</ele>
        <time>2023-10-18T15:21:45.234+00:00</time>
      </trkpt>
      <trkpt lat="46.16513" lon="4.58904">
        <ele>445</ele>
        <time>2023-10-18T15:21:49.174+00:00</time>
      </trkpt>
      <trkpt lat="46.16516" lon="4.58904">
        <ele>452</ele>
        <time>2023-10-18T15:21:53.014+00:00</time>
      </trkpt>
      <trkpt lat="46.1652" lon="4.58903">
        <ele>452</ele>
        <time>2023-10-18T15:21:57.294+00:00</time>
      </trkpt>
      <trkpt lat="46.16524" lon="4.58902">
        <ele>447</ele>
        <time>2023-10-18T15:22:01.754+00:00</time>
      </trkpt>
      <trkpt lat="46.16527" lon="4.58899">
        <ele>447</ele>
        <time>2023-10-18T15:22:06.314+00:00</time>
      </trkpt>
      <trkpt lat="46.16535" lon="4.58898">
        <ele>447</ele>
        <time>2023-10-18T15:22:25.634+00:00</time>
      </trkpt>
      <trkpt lat="46.16535" lon="4.58898">
        <ele>447</ele>
        <time>2023-10-18T15:22:30.214+00:00</time>
      </trkpt>
      <trkpt lat="46.16538" lon="4.58896">
        <ele>447</ele>
        <time>2023-10-18T15:22:34.234+00:00</time>
      </trkpt>
      <trkpt lat="46.16542" lon="4.58892">
        <ele>455</ele>
        <time>2023-10-18T15:22:38.774+00:00</time>
      </trkpt>
      <trkpt lat="46.16547" lon="4.58887">
        <ele>455</ele>
        <time>2023-10-18T15:22:43.194+00:00</time>
      </trkpt>
      <trkpt lat="46.16549" lon="4.5889">
        <ele>455</ele>
        <time>2023-10-18T15:22:47.114+00:00</time>
      </trkpt>
      <trkpt lat="46.16547" lon="4.58896">
        <ele>455</ele>
        <time>2023-10-18T15:22:51.633+00:00</time>
      </trkpt>
      <trkpt lat="46.16544" lon="4.58901">
        <ele>455</ele>
        <time>2023-10-18T15:22:55.634+00:00</time>
      </trkpt>
      <trkpt lat="46.16541" lon="4.58906">
        <ele>452</ele>
        <time>2023-10-18T15:23:00.654+00:00</time>
      </trkpt>
      <trkpt lat="46.16538" lon="4.5891">
        <ele>452</ele>
        <time>2023-10-18T15:23:05.214+00:00</time>
      </trkpt>
      <trkpt lat="46.16538" lon="4.58914">
        <ele>452</ele>
        <time>2023-10-18T15:23:09.174+00:00</time>
      </trkpt>
      <trkpt lat="46.16537" lon="4.58918">
        <ele>452</ele>
        <time>2023-10-18T15:23:13.794+00:00</time>
      </trkpt>
      <trkpt lat="46.16531" lon="4.58923">
        <ele>452</ele>
        <time>2023-10-18T15:23:18.154+00:00</time>
      </trkpt>
      <trkpt lat="46.16524" lon="4.58927">
        <ele>452</ele>
        <time>2023-10-18T15:23:22.514+00:00</time>
      </trkpt>
      <trkpt lat="46.16518" lon="4.5893">
        <ele>452</ele>
        <time>2023-10-18T15:23:26.434+00:00</time>
      </trkpt>
      <trkpt lat="46.16513" lon="4.58934">
        <ele>448</ele>
        <time>2023-10-18T15:23:31.154+00:00</time>
      </trkpt>
      <trkpt lat="46.16509" lon="4.58939">
        <ele>448</ele>
        <time>2023-10-18T15:23:35.094+00:00</time>
      </trkpt>
      <trkpt lat="46.16506" lon="4.58945">
        <ele>448</ele>
        <time>2023-10-18T15:23:39.417+00:00</time>
      </trkpt>
      <trkpt lat="46.16505" lon="4.58952">
        <ele>448</ele>
        <time>2023-10-18T15:23:43.414+00:00</time>
      </trkpt>
      <trkpt lat="46.16505" lon="4.5896">
        <ele>448</ele>
        <time>2023-10-18T15:23:47.854+00:00</time>
      </trkpt>
      <trkpt lat="46.16506" lon="4.58967">
        <ele>448</ele>
        <time>2023-10-18T15:23:52.314+00:00</time>
      </trkpt>
      <trkpt lat="46.16509" lon="4.58972">
        <ele>448</ele>
        <time>2023-10-18T15:23:56.774+00:00</time>
      </trkpt>
      <trkpt lat="46.16514" lon="4.58973">
        <ele>456</ele>
        <time>2023-10-18T15:24:01.314+00:00</time>
      </trkpt>
      <trkpt lat="46.16517" lon="4.58972">
        <ele>456</ele>
        <time>2023-10-18T15:24:05.414+00:00</time>
      </trkpt>
      <trkpt lat="46.1652" lon="4.58973">
        <ele>456</ele>
        <time>2023-10-18T15:24:09.854+00:00</time>
      </trkpt>
      <trkpt lat="46.16524" lon="4.58975">
        <ele>456</ele>
        <time>2023-10-18T15:24:14.274+00:00</time>
      </trkpt>
      <trkpt lat="46.16528" lon="4.58977">
        <ele>456</ele>
        <time>2023-10-18T15:24:18.635+00:00</time>
      </trkpt>
      <trkpt lat="46.16532" lon="4.58978">
        <ele>456</ele>
        <time>2023-10-18T15:24:23.234+00:00</time>
      </trkpt>
      <trkpt lat="46.16535" lon="4.5898">
        <ele>456</ele>
        <time>2023-10-18T15:24:27.314+00:00</time>
      </trkpt>
      <trkpt lat="46.16541" lon="4.58981">
        <ele>456</ele>
        <time>2023-10-18T15:24:36.014+00:00</time>
      </trkpt>
      <trkpt lat="46.16542" lon="4.58983">
        <ele>456</ele>
        <time>2023-10-18T15:24:39.954+00:00</time>
      </trkpt>
      <trkpt lat="46.16543" lon="4.58982">
        <ele>463</ele>
        <time>2023-10-18T15:24:44.635+00:00</time>
      </trkpt>
      <trkpt lat="46.16545" lon="4.5898">
        <ele>463</ele>
        <time>2023-10-18T15:24:49.194+00:00</time>
      </trkpt>
      <trkpt lat="46.1655" lon="4.58981">
        <ele>463</ele>
        <time>2023-10-18T15:24:53.638+00:00</time>
      </trkpt>
      <trkpt lat="46.16555" lon="4.5898">
        <ele>463</ele>
        <time>2023-10-18T15:24:58.658+00:00</time>
      </trkpt>
      <trkpt lat="46.16558" lon="4.5898">
        <ele>463</ele>
        <time>2023-10-18T15:25:02.754+00:00</time>
      </trkpt>
      <trkpt lat="46.16561" lon="4.58979">
        <ele>463</ele>
        <time>2023-10-18T15:25:07.214+00:00</time>
      </trkpt>
      <trkpt lat="46.16564" lon="4.58978">
        <ele>463</ele>
        <time>2023-10-18T15:25:11.214+00:00</time>
      </trkpt>
      <trkpt lat="46.16567" lon="4.58977">
        <ele>463</ele>
        <time>2023-10-18T15:25:16.154+00:00</time>
      </trkpt>
      <trkpt lat="46.1657" lon="4.58978">
        <ele>469</ele>
        <time>2023-10-18T15:25:20.494+00:00</time>
      </trkpt>
      <trkpt lat="46.16572" lon="4.58979">
        <ele>469</ele>
        <time>2023-10-18T15:25:25.114+00:00</time>
      </trkpt>
      <trkpt lat="46.16576" lon="4.58982">
        <ele>469</ele>
        <time>2023-10-18T15:25:30.438+00:00</time>
      </trkpt>
      <trkpt lat="46.16577" lon="4.58984">
        <ele>469</ele>
        <time>2023-10-18T15:25:34.274+00:00</time>
      </trkpt>
      <trkpt lat="46.16581" lon="4.58984">
        <ele>469</ele>
        <time>2023-10-18T15:25:39.314+00:00</time>
      </trkpt>
      <trkpt lat="46.16584" lon="4.58985">
        <ele>469</ele>
        <time>2023-10-18T15:25:43.174+00:00</time>
      </trkpt>
      <trkpt lat="46.16589" lon="4.58986">
        <ele>469</ele>
        <time>2023-10-18T15:25:47.674+00:00</time>
      </trkpt>
      <trkpt lat="46.16593" lon="4.58988">
        <ele>469</ele>
        <time>2023-10-18T15:25:52.134+00:00</time>
      </trkpt>
      <trkpt lat="46.16595" lon="4.58989">
        <ele>469</ele>
        <time>2023-10-18T15:25:57.314+00:00</time>
      </trkpt>
      <trkpt lat="46.16596" lon="4.5899">
        <ele>469</ele>
        <time>2023-10-18T15:26:01.814+00:00</time>
      </trkpt>
      <trkpt lat="46.16597" lon="4.58993">
        <ele>474</ele>
        <time>2023-10-18T15:26:06.314+00:00</time>
      </trkpt>
      <trkpt lat="46.16601" lon="4.58996">
        <ele>474</ele>
        <time>2023-10-18T15:26:10.874+00:00</time>
      </trkpt>
      <trkpt lat="46.16605" lon="4.58997">
        <ele>474</ele>
        <time>2023-10-18T15:26:15.314+00:00</time>
      </trkpt>
      <trkpt lat="46.16608" lon="4.58998">
        <ele>474</ele>
        <time>2023-10-18T15:26:20.454+00:00</time>
      </trkpt>
      <trkpt lat="46.16612" lon="4.58999">
        <ele>474</ele>
        <time>2023-10-18T15:26:25.474+00:00</time>
      </trkpt>
      <trkpt lat="46.16614" lon="4.59001">
        <ele>474</ele>
        <time>2023-10-18T15:26:29.834+00:00</time>
      </trkpt>
      <trkpt lat="46.16618" lon="4.59004">
        <ele>474</ele>
        <time>2023-10-18T15:26:34.454+00:00</time>
      </trkpt>
      <trkpt lat="46.16621" lon="4.59004">
        <ele>474</ele>
        <time>2023-10-18T15:26:38.554+00:00</time>
      </trkpt>
      <trkpt lat="46.16624" lon="4.59006">
        <ele>474</ele>
        <time>2023-10-18T15:26:42.894+00:00</time>
      </trkpt>
      <trkpt lat="46.16627" lon="4.59007">
        <ele>481</ele>
        <time>2023-10-18T15:26:47.454+00:00</time>
      </trkpt>
      <trkpt lat="46.1663" lon="4.59007">
        <ele>481</ele>
        <time>2023-10-18T15:26:51.494+00:00</time>
      </trkpt>
      <trkpt lat="46.16633" lon="4.59004">
        <ele>481</ele>
        <time>2023-10-18T15:26:56.614+00:00</time>
      </trkpt>
      <trkpt lat="46.16636" lon="4.59001">
        <ele>481</ele>
        <time>2023-10-18T15:27:01.214+00:00</time>
      </trkpt>
      <trkpt lat="46.16639" lon="4.58998">
        <ele>481</ele>
        <time>2023-10-18T15:27:05.154+00:00</time>
      </trkpt>
      <trkpt lat="46.16642" lon="4.58997">
        <ele>481</ele>
        <time>2023-10-18T15:27:09.174+00:00</time>
      </trkpt>
      <trkpt lat="46.16646" lon="4.58997">
        <ele>481</ele>
        <time>2023-10-18T15:27:14.134+00:00</time>
      </trkpt>
      <trkpt lat="46.16649" lon="4.58995">
        <ele>481</ele>
        <time>2023-10-18T15:27:18.633+00:00</time>
      </trkpt>
      <trkpt lat="46.16651" lon="4.58994">
        <ele>481</ele>
        <time>2023-10-18T15:27:23.194+00:00</time>
      </trkpt>
      <trkpt lat="46.16653" lon="4.58993">
        <ele>487</ele>
        <time>2023-10-18T15:27:27.738+00:00</time>
      </trkpt>
      <trkpt lat="46.16657" lon="4.58992">
        <ele>487</ele>
        <time>2023-10-18T15:27:32.418+00:00</time>
      </trkpt>
      <trkpt lat="46.16661" lon="4.58991">
        <ele>487</ele>
        <time>2023-10-18T15:27:36.314+00:00</time>
      </trkpt>
      <trkpt lat="46.16664" lon="4.5899">
        <ele>487</ele>
        <time>2023-10-18T15:27:41.234+00:00</time>
      </trkpt>
      <trkpt lat="46.16667" lon="4.5899">
        <ele>487</ele>
        <time>2023-10-18T15:27:45.854+00:00</time>
      </trkpt>
      <trkpt lat="46.16669" lon="4.58991">
        <ele>487</ele>
        <time>2023-10-18T15:27:49.714+00:00</time>
      </trkpt>
      <trkpt lat="46.16673" lon="4.58991">
        <ele>487</ele>
        <time>2023-10-18T15:27:54.234+00:00</time>
      </trkpt>
      <trkpt lat="46.16675" lon="4.58991">
        <ele>487</ele>
        <time>2023-10-18T15:27:58.474+00:00</time>
      </trkpt>
      <trkpt lat="46.16678" lon="4.5899">
        <ele>487</ele>
        <time>2023-10-18T15:28:02.814+00:00</time>
      </trkpt>
      <trkpt lat="46.16681" lon="4.58991">
        <ele>492</ele>
        <time>2023-10-18T15:28:07.314+00:00</time>
      </trkpt>
      <trkpt lat="46.16684" lon="4.58991">
        <ele>492</ele>
        <time>2023-10-18T15:28:11.614+00:00</time>
      </trkpt>
      <trkpt lat="46.16688" lon="4.58991">
        <ele>492</ele>
        <time>2023-10-18T15:28:16.034+00:00</time>
      </trkpt>
      <trkpt lat="46.1669" lon="4.58991">
        <ele>492</ele>
        <time>2023-10-18T15:28:20.574+00:00</time>
      </trkpt>
      <trkpt lat="46.16694" lon="4.58992">
        <ele>492</ele>
        <time>2023-10-18T15:28:24.934+00:00</time>
      </trkpt>
      <trkpt lat="46.16697" lon="4.58992">
        <ele>492</ele>
        <time>2023-10-18T15:28:29.314+00:00</time>
      </trkpt>
      <trkpt lat="46.16701" lon="4.58994">
        <ele>492</ele>
        <time>2023-10-18T15:28:33.794+00:00</time>
      </trkpt>
      <trkpt lat="46.16703" lon="4.58995">
        <ele>492</ele>
        <time>2023-10-18T15:28:38.274+00:00</time>
      </trkpt>
      <trkpt lat="46.16706" lon="4.58997">
        <ele>492</ele>
        <time>2023-10-18T15:28:42.894+00:00</time>
      </trkpt>
      <trkpt lat="46.1671" lon="4.58999">
        <ele>498</ele>
        <time>2023-10-18T15:28:47.434+00:00</time>
      </trkpt>
      <trkpt lat="46.16713" lon="4.58997">
        <ele>498</ele>
        <time>2023-10-18T15:28:52.034+00:00</time>
      </trkpt>
      <trkpt lat="46.16716" lon="4.58994">
        <ele>498</ele>
        <time>2023-10-18T15:28:56.474+00:00</time>
      </trkpt>
      <trkpt lat="46.16719" lon="4.58993">
        <ele>498</ele>
        <time>2023-10-18T15:29:00.674+00:00</time>
      </trkpt>
      <trkpt lat="46.16722" lon="4.58992">
        <ele>498</ele>
        <time>2023-10-18T15:29:05.254+00:00</time>
      </trkpt>
      <trkpt lat="46.16725" lon="4.5899">
        <ele>498</ele>
        <time>2023-10-18T15:29:09.494+00:00</time>
      </trkpt>
      <trkpt lat="46.16728" lon="4.5899">
        <ele>498</ele>
        <time>2023-10-18T15:29:13.414+00:00</time>
      </trkpt>
      <trkpt lat="46.16731" lon="4.58988">
        <ele>498</ele>
        <time>2023-10-18T15:29:17.797+00:00</time>
      </trkpt>
      <trkpt lat="46.16733" lon="4.58985">
        <ele>497</ele>
        <time>2023-10-18T15:29:22.214+00:00</time>
      </trkpt>
      <trkpt lat="46.16737" lon="4.58982">
        <ele>505</ele>
        <time>2023-10-18T15:29:27.174+00:00</time>
      </trkpt>
      <trkpt lat="46.16741" lon="4.58981">
        <ele>505</ele>
        <time>2023-10-18T15:29:32.194+00:00</time>
      </trkpt>
      <trkpt lat="46.16744" lon="4.5898">
        <ele>505</ele>
        <time>2023-10-18T15:29:37.438+00:00</time>
      </trkpt>
      <trkpt lat="46.16747" lon="4.58979">
        <ele>505</ele>
        <time>2023-10-18T15:29:41.774+00:00</time>
      </trkpt>
      <trkpt lat="46.1675" lon="4.58978">
        <ele>505</ele>
        <time>2023-10-18T15:29:46.234+00:00</time>
      </trkpt>
      <trkpt lat="46.16754" lon="4.58979">
        <ele>505</ele>
        <time>2023-10-18T15:29:51.368+00:00</time>
      </trkpt>
      <trkpt lat="46.16757" lon="4.58979">
        <ele>505</ele>
        <time>2023-10-18T15:29:55.494+00:00</time>
      </trkpt>
      <trkpt lat="46.16761" lon="4.58978">
        <ele>505</ele>
        <time>2023-10-18T15:29:59.934+00:00</time>
      </trkpt>
      <trkpt lat="46.16764" lon="4.58978">
        <ele>512</ele>
        <time>2023-10-18T15:30:04.354+00:00</time>
      </trkpt>
      <trkpt lat="46.16768" lon="4.58977">
        <ele>512</ele>
        <time>2023-10-18T15:30:08.874+00:00</time>
      </trkpt>
      <trkpt lat="46.16772" lon="4.58977">
        <ele>512</ele>
        <time>2023-10-18T15:30:13.194+00:00</time>
      </trkpt>
      <trkpt lat="46.16775" lon="4.58976">
        <ele>512</ele>
        <time>2023-10-18T15:30:17.814+00:00</time>
      </trkpt>
      <trkpt lat="46.16778" lon="4.58976">
        <ele>512</ele>
        <time>2023-10-18T15:30:22.370+00:00</time>
      </trkpt>
      <trkpt lat="46.16781" lon="4.58975">
        <ele>512</ele>
        <time>2023-10-18T15:30:26.314+00:00</time>
      </trkpt>
      <trkpt lat="46.16783" lon="4.58975">
        <ele>512</ele>
        <time>2023-10-18T15:30:30.114+00:00</time>
      </trkpt>
      <trkpt lat="46.16786" lon="4.58974">
        <ele>512</ele>
        <time>2023-10-18T15:30:34.134+00:00</time>
      </trkpt>
      <trkpt lat="46.1679" lon="4.58974">
        <ele>512</ele>
        <time>2023-10-18T15:30:39.154+00:00</time>
      </trkpt>
      <trkpt lat="46.16793" lon="4.58975">
        <ele>518</ele>
        <time>2023-10-18T15:30:43.635+00:00</time>
      </trkpt>
      <trkpt lat="46.16796" lon="4.58977">
        <ele>518</ele>
        <time>2023-10-18T15:30:47.734+00:00</time>
      </trkpt>
      <trkpt lat="46.168" lon="4.58977">
        <ele>518</ele>
        <time>2023-10-18T15:30:52.034+00:00</time>
      </trkpt>
      <trkpt lat="46.16803" lon="4.58975">
        <ele>518</ele>
        <time>2023-10-18T15:30:56.754+00:00</time>
      </trkpt>
      <trkpt lat="46.16806" lon="4.58971">
        <ele>518</ele>
        <time>2023-10-18T15:31:00.674+00:00</time>
      </trkpt>
      <trkpt lat="46.16808" lon="4.58966">
        <ele>518</ele>
        <time>2023-10-18T15:31:05.174+00:00</time>
      </trkpt>
      <trkpt lat="46.1681" lon="4.58962">
        <ele>518</ele>
        <time>2023-10-18T15:31:09.794+00:00</time>
      </trkpt>
      <trkpt lat="46.16813" lon="4.5896">
        <ele>518</ele>
        <time>2023-10-18T15:31:14.274+00:00</time>
      </trkpt>
      <trkpt lat="46.16816" lon="4.58958">
        <ele>515</ele>
        <time>2023-10-18T15:31:18.274+00:00</time>
      </trkpt>
      <trkpt lat="46.16819" lon="4.58957">
        <ele>515</ele>
        <time>2023-10-18T15:31:22.630+00:00</time>
      </trkpt>
      <trkpt lat="46.16822" lon="4.58957">
        <ele>520</ele>
        <time>2023-10-18T15:31:26.654+00:00</time>
      </trkpt>
      <trkpt lat="46.16825" lon="4.58957">
        <ele>520</ele>
        <time>2023-10-18T15:31:31.314+00:00</time>
      </trkpt>
      <trkpt lat="46.16829" lon="4.58958">
        <ele>520</ele>
        <time>2023-10-18T15:31:35.314+00:00</time>
      </trkpt>
      <trkpt lat="46.16834" lon="4.58958">
        <ele>520</ele>
        <time>2023-10-18T15:31:43.694+00:00</time>
      </trkpt>
      <trkpt lat="46.16836" lon="4.58959">
        <ele>525</ele>
        <time>2023-10-18T15:31:47.814+00:00</time>
      </trkpt>
      <trkpt lat="46.16838" lon="4.58959">
        <ele>525</ele>
        <time>2023-10-18T15:31:51.774+00:00</time>
      </trkpt>
      <trkpt lat="46.1684" lon="4.5896">
        <ele>525</ele>
        <time>2023-10-18T15:31:56.314+00:00</time>
      </trkpt>
      <trkpt lat="46.16843" lon="4.58961">
        <ele>525</ele>
        <time>2023-10-18T15:32:00.914+00:00</time>
      </trkpt>
      <trkpt lat="46.16843" lon="4.58961">
        <ele>525</ele>
        <time>2023-10-18T15:32:04.734+00:00</time>
      </trkpt>
      <trkpt lat="46.16844" lon="4.58962">
        <ele>525</ele>
        <time>2023-10-18T15:32:08.774+00:00</time>
      </trkpt>
      <trkpt lat="46.16847" lon="4.58963">
        <ele>525</ele>
        <time>2023-10-18T15:32:13.314+00:00</time>
      </trkpt>
      <trkpt lat="46.1685" lon="4.58963">
        <ele>530</ele>
        <time>2023-10-18T15:32:17.154+00:00</time>
      </trkpt>
      <trkpt lat="46.16854" lon="4.58962">
        <ele>530</ele>
        <time>2023-10-18T15:32:22.594+00:00</time>
      </trkpt>
      <trkpt lat="46.16858" lon="4.58962">
        <ele>530</ele>
        <time>2023-10-18T15:32:27.034+00:00</time>
      </trkpt>
      <trkpt lat="46.16861" lon="4.58962">
        <ele>530</ele>
        <time>2023-10-18T15:32:31.438+00:00</time>
      </trkpt>
      <trkpt lat="46.16863" lon="4.58963">
        <ele>530</ele>
        <time>2023-10-18T15:32:35.314+00:00</time>
      </trkpt>
      <trkpt lat="46.16867" lon="4.58963">
        <ele>530</ele>
        <time>2023-10-18T15:32:39.894+00:00</time>
      </trkpt>
      <trkpt lat="46.1687" lon="4.58964">
        <ele>530</ele>
        <time>2023-10-18T15:32:44.494+00:00</time>
      </trkpt>
      <trkpt lat="46.16873" lon="4.58966">
        <ele>530</ele>
        <time>2023-10-18T15:32:48.434+00:00</time>
      </trkpt>
      <trkpt lat="46.16876" lon="4.58967">
        <ele>534</ele>
        <time>2023-10-18T15:32:52.454+00:00</time>
      </trkpt>
      <trkpt lat="46.16879" lon="4.58969">
        <ele>534</ele>
        <time>2023-10-18T15:32:56.974+00:00</time>
      </trkpt>
      <trkpt lat="46.16881" lon="4.58972">
        <ele>534</ele>
        <time>2023-10-18T15:33:01.494+00:00</time>
      </trkpt>
      <trkpt lat="46.16882" lon="4.58976">
        <ele>534</ele>
        <time>2023-10-18T15:33:05.954+00:00</time>
      </trkpt>
      <trkpt lat="46.16884" lon="4.58979">
        <ele>534</ele>
        <time>2023-10-18T15:33:10.314+00:00</time>
      </trkpt>
      <trkpt lat="46.16885" lon="4.58983">
        <ele>534</ele>
        <time>2023-10-18T15:33:15.574+00:00</time>
      </trkpt>
      <trkpt lat="46.16888" lon="4.58986">
        <ele>534</ele>
        <time>2023-10-18T15:33:20.614+00:00</time>
      </trkpt>
      <trkpt lat="46.1689" lon="4.5899">
        <ele>536</ele>
        <time>2023-10-18T15:33:25.154+00:00</time>
      </trkpt>
      <trkpt lat="46.16891" lon="4.58999">
        <ele>536</ele>
        <time>2023-10-18T15:37:22.632+00:00</time>
      </trkpt>
      <trkpt lat="46.16891" lon="4.58999">
        <ele>536</ele>
        <time>2023-10-18T15:37:41.635+00:00</time>
      </trkpt>
      <trkpt lat="46.16892" lon="4.59">
        <ele>536</ele>
        <time>2023-10-18T15:37:45.636+00:00</time>
      </trkpt>
      <trkpt lat="46.16893" lon="4.59001">
        <ele>536</ele>
        <time>2023-10-18T15:37:49.634+00:00</time>
      </trkpt>
      <trkpt lat="46.16897" lon="4.59008">
        <ele>536</ele>
        <time>2023-10-18T15:37:54.154+00:00</time>
      </trkpt>
      <trkpt lat="46.169" lon="4.59014">
        <ele>535</ele>
        <time>2023-10-18T15:38:03.614+00:00</time>
      </trkpt>
      <trkpt lat="46.16903" lon="4.59015">
        <ele>543</ele>
        <time>2023-10-18T15:38:08.214+00:00</time>
      </trkpt>
      <trkpt lat="46.16906" lon="4.59012">
        <ele>541</ele>
        <time>2023-10-18T15:38:12.074+00:00</time>
      </trkpt>
      <trkpt lat="46.16907" lon="4.59009">
        <ele>541</ele>
        <time>2023-10-18T15:38:16.614+00:00</time>
      </trkpt>
      <trkpt lat="46.16911" lon="4.59005">
        <ele>541</ele>
        <time>2023-10-18T15:38:21.138+00:00</time>
      </trkpt>
      <trkpt lat="46.16915" lon="4.59002">
        <ele>541</ele>
        <time>2023-10-18T15:38:25.254+00:00</time>
      </trkpt>
      <trkpt lat="46.16919" lon="4.58999">
        <ele>541</ele>
        <time>2023-10-18T15:38:29.294+00:00</time>
      </trkpt>
      <trkpt lat="46.16922" lon="4.59">
        <ele>541</ele>
        <time>2023-10-18T15:38:33.834+00:00</time>
      </trkpt>
      <trkpt lat="46.16925" lon="4.59005">
        <ele>541</ele>
        <time>2023-10-18T15:38:38.214+00:00</time>
      </trkpt>
      <trkpt lat="46.16925" lon="4.59011">
        <ele>541</ele>
        <time>2023-10-18T15:38:42.674+00:00</time>
      </trkpt>
      <trkpt lat="46.16925" lon="4.59016">
        <ele>543</ele>
        <time>2023-10-18T15:38:47.118+00:00</time>
      </trkpt>
      <trkpt lat="46.16928" lon="4.59019">
        <ele>543</ele>
        <time>2023-10-18T15:38:51.178+00:00</time>
      </trkpt>
      <trkpt lat="46.1693" lon="4.59021">
        <ele>543</ele>
        <time>2023-10-18T15:38:55.594+00:00</time>
      </trkpt>
      <trkpt lat="46.16932" lon="4.59027">
        <ele>545</ele>
        <time>2023-10-18T15:39:00.638+00:00</time>
      </trkpt>
      <trkpt lat="46.16935" lon="4.59031">
        <ele>545</ele>
        <time>2023-10-18T15:39:04.614+00:00</time>
      </trkpt>
      <trkpt lat="46.16938" lon="4.59033">
        <ele>545</ele>
        <time>2023-10-18T15:39:09.154+00:00</time>
      </trkpt>
      <trkpt lat="46.16942" lon="4.59037">
        <ele>545</ele>
        <time>2023-10-18T15:39:13.594+00:00</time>
      </trkpt>
      <trkpt lat="46.16945" lon="4.5904">
        <ele>545</ele>
        <time>2023-10-18T15:39:17.934+00:00</time>
      </trkpt>
      <trkpt lat="46.16948" lon="4.59043">
        <ele>545</ele>
        <time>2023-10-18T15:39:22.234+00:00</time>
      </trkpt>
      <trkpt lat="46.16952" lon="4.59045">
        <ele>545</ele>
        <time>2023-10-18T15:39:26.834+00:00</time>
      </trkpt>
      <trkpt lat="46.16956" lon="4.59047">
        <ele>545</ele>
        <time>2023-10-18T15:39:31.534+00:00</time>
      </trkpt>
      <trkpt lat="46.1696" lon="4.5905">
        <ele>547</ele>
        <time>2023-10-18T15:39:36.020+00:00</time>
      </trkpt>
      <trkpt lat="46.16962" lon="4.59051">
        <ele>547</ele>
        <time>2023-10-18T15:39:40.034+00:00</time>
      </trkpt>
      <trkpt lat="46.16967" lon="4.59052">
        <ele>547</ele>
        <time>2023-10-18T15:39:45.382+00:00</time>
      </trkpt>
      <trkpt lat="46.16969" lon="4.59051">
        <ele>547</ele>
        <time>2023-10-18T15:39:49.434+00:00</time>
      </trkpt>
      <trkpt lat="46.16973" lon="4.59053">
        <ele>547</ele>
        <time>2023-10-18T15:39:54.034+00:00</time>
      </trkpt>
      <trkpt lat="46.16976" lon="4.59057">
        <ele>547</ele>
        <time>2023-10-18T15:39:58.154+00:00</time>
      </trkpt>
      <trkpt lat="46.16976" lon="4.59064">
        <ele>547</ele>
        <time>2023-10-18T15:40:02.694+00:00</time>
      </trkpt>
      <trkpt lat="46.16979" lon="4.59068">
        <ele>547</ele>
        <time>2023-10-18T15:40:07.314+00:00</time>
      </trkpt>
      <trkpt lat="46.16983" lon="4.59068">
        <ele>547</ele>
        <time>2023-10-18T15:40:11.894+00:00</time>
      </trkpt>
      <trkpt lat="46.16987" lon="4.59068">
        <ele>548</ele>
        <time>2023-10-18T15:40:15.894+00:00</time>
      </trkpt>
      <trkpt lat="46.1699" lon="4.59074">
        <ele>547</ele>
        <time>2023-10-18T15:40:20.480+00:00</time>
      </trkpt>
      <trkpt lat="46.16992" lon="4.59077">
        <ele>547</ele>
        <time>2023-10-18T15:40:24.314+00:00</time>
      </trkpt>
      <trkpt lat="46.16998" lon="4.59079">
        <ele>547</ele>
        <time>2023-10-18T15:40:29.494+00:00</time>
      </trkpt>
      <trkpt lat="46.17" lon="4.59086">
        <ele>547</ele>
        <time>2023-10-18T15:42:36.494+00:00</time>
      </trkpt>
      <trkpt lat="46.17001" lon="4.59086">
        <ele>547</ele>
        <time>2023-10-18T15:42:41.635+00:00</time>
      </trkpt>
      <trkpt lat="46.17002" lon="4.59086">
        <ele>547</ele>
        <time>2023-10-18T15:42:46.194+00:00</time>
      </trkpt>
      <trkpt lat="46.17002" lon="4.59087">
        <ele>547</ele>
        <time>2023-10-18T15:42:51.314+00:00</time>
      </trkpt>
      <trkpt lat="46.17002" lon="4.5909">
        <ele>547</ele>
        <time>2023-10-18T15:42:55.414+00:00</time>
      </trkpt>
      <trkpt lat="46.17006" lon="4.59094">
        <ele>547</ele>
        <time>2023-10-18T15:42:59.414+00:00</time>
      </trkpt>
      <trkpt lat="46.1701" lon="4.59095">
        <ele>547</ele>
        <time>2023-10-18T15:43:03.614+00:00</time>
      </trkpt>
      <trkpt lat="46.17015" lon="4.59095">
        <ele>551</ele>
        <time>2023-10-18T15:43:07.774+00:00</time>
      </trkpt>
      <trkpt lat="46.1702" lon="4.59097">
        <ele>551</ele>
        <time>2023-10-18T15:43:12.194+00:00</time>
      </trkpt>
      <trkpt lat="46.17024" lon="4.59099">
        <ele>551</ele>
        <time>2023-10-18T15:43:16.814+00:00</time>
      </trkpt>
      <trkpt lat="46.17027" lon="4.59101">
        <ele>551</ele>
        <time>2023-10-18T15:43:21.014+00:00</time>
      </trkpt>
      <trkpt lat="46.1703" lon="4.59104">
        <ele>551</ele>
        <time>2023-10-18T15:43:25.634+00:00</time>
      </trkpt>
      <trkpt lat="46.17033" lon="4.59106">
        <ele>551</ele>
        <time>2023-10-18T15:43:30.214+00:00</time>
      </trkpt>
      <trkpt lat="46.17037" lon="4.59108">
        <ele>551</ele>
        <time>2023-10-18T15:43:34.874+00:00</time>
      </trkpt>
      <trkpt lat="46.1704" lon="4.5911">
        <ele>551</ele>
        <time>2023-10-18T15:43:39.314+00:00</time>
      </trkpt>
      <trkpt lat="46.17042" lon="4.59111">
        <ele>557</ele>
        <time>2023-10-18T15:43:43.454+00:00</time>
      </trkpt>
      <trkpt lat="46.17046" lon="4.59113">
        <ele>557</ele>
        <time>2023-10-18T15:43:47.954+00:00</time>
      </trkpt>
      <trkpt lat="46.17049" lon="4.59115">
        <ele>557</ele>
        <time>2023-10-18T15:43:52.054+00:00</time>
      </trkpt>
      <trkpt lat="46.17052" lon="4.59116">
        <ele>557</ele>
        <time>2023-10-18T15:43:56.642+00:00</time>
      </trkpt>
      <trkpt lat="46.17055" lon="4.59116">
        <ele>557</ele>
        <time>2023-10-18T15:44:00.880+00:00</time>
      </trkpt>
      <trkpt lat="46.17059" lon="4.59116">
        <ele>557</ele>
        <time>2023-10-18T15:44:04.774+00:00</time>
      </trkpt>
      <trkpt lat="46.17067" lon="4.59113">
        <ele>557</ele>
        <time>2023-10-18T15:44:53.639+00:00</time>
      </trkpt>
      <trkpt lat="46.17067" lon="4.59113">
        <ele>557</ele>
        <time>2023-10-18T15:44:58.636+00:00</time>
      </trkpt>
      <trkpt lat="46.17067" lon="4.59113">
        <ele>557</ele>
        <time>2023-10-18T15:45:26.637+00:00</time>
      </trkpt>
      <trkpt lat="46.17068" lon="4.59113">
        <ele>557</ele>
        <time>2023-10-18T15:45:31.639+00:00</time>
      </trkpt>
      <trkpt lat="46.1707" lon="4.59109">
        <ele>564</ele>
        <time>2023-10-18T15:45:36.174+00:00</time>
      </trkpt>
      <trkpt lat="46.17074" lon="4.5911">
        <ele>564</ele>
        <time>2023-10-18T15:45:41.314+00:00</time>
      </trkpt>
      <trkpt lat="46.17078" lon="4.59114">
        <ele>564</ele>
        <time>2023-10-18T15:45:45.874+00:00</time>
      </trkpt>
      <trkpt lat="46.17082" lon="4.59114">
        <ele>564</ele>
        <time>2023-10-18T15:45:50.374+00:00</time>
      </trkpt>
      <trkpt lat="46.17085" lon="4.59109">
        <ele>564</ele>
        <time>2023-10-18T15:45:54.474+00:00</time>
      </trkpt>
      <trkpt lat="46.17087" lon="4.59105">
        <ele>564</ele>
        <time>2023-10-18T15:45:59.074+00:00</time>
      </trkpt>
      <trkpt lat="46.17089" lon="4.59103">
        <ele>564</ele>
        <time>2023-10-18T15:46:03.074+00:00</time>
      </trkpt>
      <trkpt lat="46.17092" lon="4.59098">
        <ele>564</ele>
        <time>2023-10-18T15:46:07.637+00:00</time>
      </trkpt>
      <trkpt lat="46.17097" lon="4.59095">
        <ele>562</ele>
        <time>2023-10-18T15:46:12.174+00:00</time>
      </trkpt>
      <trkpt lat="46.17101" lon="4.59095">
        <ele>569</ele>
        <time>2023-10-18T15:46:16.174+00:00</time>
      </trkpt>
      <trkpt lat="46.17104" lon="4.59093">
        <ele>569</ele>
        <time>2023-10-18T15:46:20.174+00:00</time>
      </trkpt>
      <trkpt lat="46.17109" lon="4.59092">
        <ele>569</ele>
        <time>2023-10-18T15:46:24.780+00:00</time>
      </trkpt>
      <trkpt lat="46.17112" lon="4.5909">
        <ele>569</ele>
        <time>2023-10-18T15:46:28.774+00:00</time>
      </trkpt>
      <trkpt lat="46.17115" lon="4.59088">
        <ele>569</ele>
        <time>2023-10-18T15:46:33.294+00:00</time>
      </trkpt>
      <trkpt lat="46.17119" lon="4.59089">
        <ele>569</ele>
        <time>2023-10-18T15:46:37.214+00:00</time>
      </trkpt>
      <trkpt lat="46.17124" lon="4.59089">
        <ele>569</ele>
        <time>2023-10-18T15:46:42.014+00:00</time>
      </trkpt>
      <trkpt lat="46.17128" lon="4.59091">
        <ele>574</ele>
        <time>2023-10-18T15:46:46.614+00:00</time>
      </trkpt>
      <trkpt lat="46.17131" lon="4.59093">
        <ele>574</ele>
        <time>2023-10-18T15:46:50.814+00:00</time>
      </trkpt>
      <trkpt lat="46.17134" lon="4.59095">
        <ele>574</ele>
        <time>2023-10-18T15:46:55.014+00:00</time>
      </trkpt>
      <trkpt lat="46.17136" lon="4.59098">
        <ele>577</ele>
        <time>2023-10-18T15:46:59.214+00:00</time>
      </trkpt>
      <trkpt lat="46.17139" lon="4.59102">
        <ele>577</ele>
        <time>2023-10-18T15:47:03.814+00:00</time>
      </trkpt>
      <trkpt lat="46.17141" lon="4.59108">
        <ele>577</ele>
        <time>2023-10-18T15:47:08.314+00:00</time>
      </trkpt>
      <trkpt lat="46.17142" lon="4.59112">
        <ele>577</ele>
        <time>2023-10-18T15:47:12.434+00:00</time>
      </trkpt>
      <trkpt lat="46.17145" lon="4.59118">
        <ele>577</ele>
        <time>2023-10-18T15:47:17.534+00:00</time>
      </trkpt>
      <trkpt lat="46.17149" lon="4.59122">
        <ele>577</ele>
        <time>2023-10-18T15:47:21.634+00:00</time>
      </trkpt>
      <trkpt lat="46.17151" lon="4.59124">
        <ele>577</ele>
        <time>2023-10-18T15:47:25.734+00:00</time>
      </trkpt>
      <trkpt lat="46.17154" lon="4.59127">
        <ele>579</ele>
        <time>2023-10-18T15:47:29.834+00:00</time>
      </trkpt>
      <trkpt lat="46.17157" lon="4.59129">
        <ele>579</ele>
        <time>2023-10-18T15:47:33.834+00:00</time>
      </trkpt>
      <trkpt lat="46.1716" lon="4.59133">
        <ele>579</ele>
        <time>2023-10-18T15:47:38.603+00:00</time>
      </trkpt>
      <trkpt lat="46.17163" lon="4.59135">
        <ele>579</ele>
        <time>2023-10-18T15:47:42.622+00:00</time>
      </trkpt>
      <trkpt lat="46.17166" lon="4.59137">
        <ele>579</ele>
        <time>2023-10-18T15:47:46.634+00:00</time>
      </trkpt>
      <trkpt lat="46.17168" lon="4.59138">
        <ele>579</ele>
        <time>2023-10-18T15:47:50.834+00:00</time>
      </trkpt>
      <trkpt lat="46.17172" lon="4.5914">
        <ele>579</ele>
        <time>2023-10-18T15:47:55.034+00:00</time>
      </trkpt>
      <trkpt lat="46.17176" lon="4.59141">
        <ele>579</ele>
        <time>2023-10-18T15:47:59.834+00:00</time>
      </trkpt>
      <trkpt lat="46.1718" lon="4.59142">
        <ele>579</ele>
        <time>2023-10-18T15:48:04.034+00:00</time>
      </trkpt>
      <trkpt lat="46.17183" lon="4.59144">
        <ele>584</ele>
        <time>2023-10-18T15:48:08.639+00:00</time>
      </trkpt>
      <trkpt lat="46.17186" lon="4.59146">
        <ele>584</ele>
        <time>2023-10-18T15:48:12.654+00:00</time>
      </trkpt>
      <trkpt lat="46.17189" lon="4.59146">
        <ele>584</ele>
        <time>2023-10-18T15:48:16.754+00:00</time>
      </trkpt>
      <trkpt lat="46.17192" lon="4.59148">
        <ele>584</ele>
        <time>2023-10-18T15:48:21.314+00:00</time>
      </trkpt>
      <trkpt lat="46.17196" lon="4.59149">
        <ele>584</ele>
        <time>2023-10-18T15:48:25.294+00:00</time>
      </trkpt>
      <trkpt lat="46.17199" lon="4.59154">
        <ele>584</ele>
        <time>2023-10-18T15:48:29.794+00:00</time>
      </trkpt>
      <trkpt lat="46.17203" lon="4.59158">
        <ele>584</ele>
        <time>2023-10-18T15:48:34.294+00:00</time>
      </trkpt>
      <trkpt lat="46.17206" lon="4.59161">
        <ele>584</ele>
        <time>2023-10-18T15:48:38.314+00:00</time>
      </trkpt>
      <trkpt lat="46.1721" lon="4.59164">
        <ele>590</ele>
        <time>2023-10-18T15:48:42.814+00:00</time>
      </trkpt>
      <trkpt lat="46.17213" lon="4.59166">
        <ele>590</ele>
        <time>2023-10-18T15:48:47.314+00:00</time>
      </trkpt>
      <trkpt lat="46.17217" lon="4.59167">
        <ele>590</ele>
        <time>2023-10-18T15:48:51.434+00:00</time>
      </trkpt>
      <trkpt lat="46.17221" lon="4.59168">
        <ele>590</ele>
        <time>2023-10-18T15:48:56.034+00:00</time>
      </trkpt>
      <trkpt lat="46.17224" lon="4.59168">
        <ele>590</ele>
        <time>2023-10-18T15:49:00.542+00:00</time>
      </trkpt>
      <trkpt lat="46.17227" lon="4.59169">
        <ele>590</ele>
        <time>2023-10-18T15:49:04.634+00:00</time>
      </trkpt>
      <trkpt lat="46.1723" lon="4.59171">
        <ele>590</ele>
        <time>2023-10-18T15:49:09.154+00:00</time>
      </trkpt>
      <trkpt lat="46.17234" lon="4.59173">
        <ele>590</ele>
        <time>2023-10-18T15:49:13.754+00:00</time>
      </trkpt>
      <trkpt lat="46.17238" lon="4.59176">
        <ele>596</ele>
        <time>2023-10-18T15:49:18.314+00:00</time>
      </trkpt>
      <trkpt lat="46.17241" lon="4.59178">
        <ele>596</ele>
        <time>2023-10-18T15:49:22.854+00:00</time>
      </trkpt>
      <trkpt lat="46.17245" lon="4.59181">
        <ele>594</ele>
        <time>2023-10-18T15:49:27.454+00:00</time>
      </trkpt>
      <trkpt lat="46.17247" lon="4.59183">
        <ele>594</ele>
        <time>2023-10-18T15:49:31.854+00:00</time>
      </trkpt>
      <trkpt lat="46.17251" lon="4.59187">
        <ele>594</ele>
        <time>2023-10-18T15:49:36.462+00:00</time>
      </trkpt>
      <trkpt lat="46.17253" lon="4.59189">
        <ele>594</ele>
        <time>2023-10-18T15:49:40.654+00:00</time>
      </trkpt>
      <trkpt lat="46.17255" lon="4.59197">
        <ele>594</ele>
        <time>2023-10-18T15:51:47.636+00:00</time>
      </trkpt>
      <trkpt lat="46.17255" lon="4.59198">
        <ele>594</ele>
        <time>2023-10-18T15:52:01.639+00:00</time>
      </trkpt>
      <trkpt lat="46.17256" lon="4.59202">
        <ele>594</ele>
        <time>2023-10-18T15:52:06.182+00:00</time>
      </trkpt>
      <trkpt lat="46.17256" lon="4.59207">
        <ele>594</ele>
        <time>2023-10-18T15:52:10.174+00:00</time>
      </trkpt>
      <trkpt lat="46.17255" lon="4.59211">
        <ele>591</ele>
        <time>2023-10-18T15:52:15.134+00:00</time>
      </trkpt>
      <trkpt lat="46.17252" lon="4.59218">
        <ele>591</ele>
        <time>2023-10-18T15:52:19.834+00:00</time>
      </trkpt>
      <trkpt lat="46.1725" lon="4.59223">
        <ele>591</ele>
        <time>2023-10-18T15:52:23.834+00:00</time>
      </trkpt>
      <trkpt lat="46.1725" lon="4.5923">
        <ele>591</ele>
        <time>2023-10-18T15:52:28.623+00:00</time>
      </trkpt>
      <trkpt lat="46.17251" lon="4.59236">
        <ele>591</ele>
        <time>2023-10-18T15:52:32.934+00:00</time>
      </trkpt>
      <trkpt lat="46.17252" lon="4.59242">
        <ele>588</ele>
        <time>2023-10-18T15:52:37.434+00:00</time>
      </trkpt>
      <trkpt lat="46.17254" lon="4.59248">
        <ele>588</ele>
        <time>2023-10-18T15:52:41.834+00:00</time>
      </trkpt>
      <trkpt lat="46.17256" lon="4.59255">
        <ele>588</ele>
        <time>2023-10-18T15:52:46.314+00:00</time>
      </trkpt>
      <trkpt lat="46.17258" lon="4.5926">
        <ele>588</ele>
        <time>2023-10-18T15:52:50.454+00:00</time>
      </trkpt>
      <trkpt lat="46.17261" lon="4.59264">
        <ele>583</ele>
        <time>2023-10-18T15:52:54.474+00:00</time>
      </trkpt>
      <trkpt lat="46.17264" lon="4.59271">
        <ele>583</ele>
        <time>2023-10-18T15:52:59.074+00:00</time>
      </trkpt>
      <trkpt lat="46.17267" lon="4.59276">
        <ele>590</ele>
        <time>2023-10-18T15:53:03.094+00:00</time>
      </trkpt>
      <trkpt lat="46.17271" lon="4.59281">
        <ele>590</ele>
        <time>2023-10-18T15:53:07.614+00:00</time>
      </trkpt>
      <trkpt lat="46.17274" lon="4.59284">
        <ele>590</ele>
        <time>2023-10-18T15:53:11.634+00:00</time>
      </trkpt>
      <trkpt lat="46.17276" lon="4.59286">
        <ele>590</ele>
        <time>2023-10-18T15:53:15.234+00:00</time>
      </trkpt>
      <trkpt lat="46.1728" lon="4.59289">
        <ele>590</ele>
        <time>2023-10-18T15:53:20.234+00:00</time>
      </trkpt>
      <trkpt lat="46.17284" lon="4.59292">
        <ele>584</ele>
        <time>2023-10-18T15:53:24.834+00:00</time>
      </trkpt>
      <trkpt lat="46.17288" lon="4.59295">
        <ele>584</ele>
        <time>2023-10-18T15:53:29.634+00:00</time>
      </trkpt>
      <trkpt lat="46.1729" lon="4.593">
        <ele>584</ele>
        <time>2023-10-18T15:53:34.234+00:00</time>
      </trkpt>
      <trkpt lat="46.17292" lon="4.59305">
        <ele>591</ele>
        <time>2023-10-18T15:53:38.314+00:00</time>
      </trkpt>
      <trkpt lat="46.17295" lon="4.59309">
        <ele>591</ele>
        <time>2023-10-18T15:53:42.254+00:00</time>
      </trkpt>
      <trkpt lat="46.173" lon="4.59315">
        <ele>591</ele>
        <time>2023-10-18T15:53:46.454+00:00</time>
      </trkpt>
      <trkpt lat="46.17303" lon="4.59322">
        <ele>582</ele>
        <time>2023-10-18T15:53:50.354+00:00</time>
      </trkpt>
      <trkpt lat="46.17308" lon="4.59327">
        <ele>582</ele>
        <time>2023-10-18T15:53:54.954+00:00</time>
      </trkpt>
      <trkpt lat="46.17312" lon="4.59332">
        <ele>582</ele>
        <time>2023-10-18T15:53:59.374+00:00</time>
      </trkpt>
      <trkpt lat="46.17315" lon="4.59335">
        <ele>582</ele>
        <time>2023-10-18T15:54:03.374+00:00</time>
      </trkpt>
      <trkpt lat="46.17317" lon="4.5934">
        <ele>582</ele>
        <time>2023-10-18T15:54:07.314+00:00</time>
      </trkpt>
      <trkpt lat="46.1732" lon="4.59345">
        <ele>590</ele>
        <time>2023-10-18T15:54:11.694+00:00</time>
      </trkpt>
      <trkpt lat="46.17323" lon="4.59349">
        <ele>584</ele>
        <time>2023-10-18T15:54:15.794+00:00</time>
      </trkpt>
      <trkpt lat="46.17326" lon="4.59356">
        <ele>584</ele>
        <time>2023-10-18T15:54:19.814+00:00</time>
      </trkpt>
      <trkpt lat="46.17327" lon="4.59363">
        <ele>584</ele>
        <time>2023-10-18T15:54:23.814+00:00</time>
      </trkpt>
      <trkpt lat="46.1733" lon="4.5937">
        <ele>584</ele>
        <time>2023-10-18T15:54:28.454+00:00</time>
      </trkpt>
      <trkpt lat="46.17332" lon="4.59378">
        <ele>577</ele>
        <time>2023-10-18T15:54:32.434+00:00</time>
      </trkpt>
      <trkpt lat="46.17334" lon="4.59384">
        <ele>577</ele>
        <time>2023-10-18T15:54:36.474+00:00</time>
      </trkpt>
      <trkpt lat="46.17336" lon="4.59393">
        <ele>577</ele>
        <time>2023-10-18T15:54:40.954+00:00</time>
      </trkpt>
      <trkpt lat="46.17338" lon="4.594">
        <ele>577</ele>
        <time>2023-10-18T15:54:45.014+00:00</time>
      </trkpt>
      <trkpt lat="46.1734" lon="4.59406">
        <ele>573</ele>
        <time>2023-10-18T15:54:49.214+00:00</time>
      </trkpt>
      <trkpt lat="46.17343" lon="4.59411">
        <ele>573</ele>
        <time>2023-10-18T15:54:53.574+00:00</time>
      </trkpt>
      <trkpt lat="46.17344" lon="4.59417">
        <ele>573</ele>
        <time>2023-10-18T15:54:57.514+00:00</time>
      </trkpt>
      <trkpt lat="46.17347" lon="4.59422">
        <ele>583</ele>
        <time>2023-10-18T15:55:01.614+00:00</time>
      </trkpt>
      <trkpt lat="46.17349" lon="4.59428">
        <ele>583</ele>
        <time>2023-10-18T15:55:06.254+00:00</time>
      </trkpt>
      <trkpt lat="46.1735" lon="4.59434">
        <ele>581</ele>
        <time>2023-10-18T15:55:10.194+00:00</time>
      </trkpt>
      <trkpt lat="46.17351" lon="4.5944">
        <ele>581</ele>
        <time>2023-10-18T15:55:14.214+00:00</time>
      </trkpt>
      <trkpt lat="46.17353" lon="4.59446">
        <ele>581</ele>
        <time>2023-10-18T15:55:18.214+00:00</time>
      </trkpt>
      <trkpt lat="46.17355" lon="4.59452">
        <ele>581</ele>
        <time>2023-10-18T15:55:22.214+00:00</time>
      </trkpt>
      <trkpt lat="46.17357" lon="4.59459">
        <ele>576</ele>
        <time>2023-10-18T15:55:26.914+00:00</time>
      </trkpt>
      <trkpt lat="46.17359" lon="4.59467">
        <ele>576</ele>
        <time>2023-10-18T15:55:31.553+00:00</time>
      </trkpt>
      <trkpt lat="46.17361" lon="4.59473">
        <ele>576</ele>
        <time>2023-10-18T15:55:35.414+00:00</time>
      </trkpt>
      <trkpt lat="46.17362" lon="4.5948">
        <ele>576</ele>
        <time>2023-10-18T15:55:40.639+00:00</time>
      </trkpt>
      <trkpt lat="46.17363" lon="4.59486">
        <ele>569</ele>
        <time>2023-10-18T15:55:44.754+00:00</time>
      </trkpt>
      <trkpt lat="46.17364" lon="4.59492">
        <ele>569</ele>
        <time>2023-10-18T15:55:48.774+00:00</time>
      </trkpt>
      <trkpt lat="46.17366" lon="4.59499">
        <ele>569</ele>
        <time>2023-10-18T15:55:53.194+00:00</time>
      </trkpt>
      <trkpt lat="46.17368" lon="4.59506">
        <ele>569</ele>
        <time>2023-10-18T15:55:57.694+00:00</time>
      </trkpt>
      <trkpt lat="46.1737" lon="4.59512">
        <ele>569</ele>
        <time>2023-10-18T15:56:02.294+00:00</time>
      </trkpt>
      <trkpt lat="46.17371" lon="4.59517">
        <ele>563</ele>
        <time>2023-10-18T15:56:06.194+00:00</time>
      </trkpt>
      <trkpt lat="46.1737" lon="4.59524">
        <ele>563</ele>
        <time>2023-10-18T15:56:10.094+00:00</time>
      </trkpt>
      <trkpt lat="46.17371" lon="4.59531">
        <ele>563</ele>
        <time>2023-10-18T15:56:14.614+00:00</time>
      </trkpt>
      <trkpt lat="46.17374" lon="4.59537">
        <ele>563</ele>
        <time>2023-10-18T15:56:19.214+00:00</time>
      </trkpt>
      <trkpt lat="46.17375" lon="4.59543">
        <ele>569</ele>
        <time>2023-10-18T15:56:23.534+00:00</time>
      </trkpt>
      <trkpt lat="46.17376" lon="4.59547">
        <ele>569</ele>
        <time>2023-10-18T15:56:27.634+00:00</time>
      </trkpt>
      <trkpt lat="46.17377" lon="4.59553">
        <ele>569</ele>
        <time>2023-10-18T15:56:31.654+00:00</time>
      </trkpt>
      <trkpt lat="46.17379" lon="4.5956">
        <ele>569</ele>
        <time>2023-10-18T15:56:36.214+00:00</time>
      </trkpt>
      <trkpt lat="46.17382" lon="4.59565">
        <ele>569</ele>
        <time>2023-10-18T15:56:40.114+00:00</time>
      </trkpt>
      <trkpt lat="46.17382" lon="4.59575">
        <ele>565</ele>
        <time>2023-10-18T15:56:44.534+00:00</time>
      </trkpt>
      <trkpt lat="46.17384" lon="4.59582">
        <ele>565</ele>
        <time>2023-10-18T15:56:49.154+00:00</time>
      </trkpt>
      <trkpt lat="46.17387" lon="4.59586">
        <ele>565</ele>
        <time>2023-10-18T15:56:53.636+00:00</time>
      </trkpt>
      <trkpt lat="46.1739" lon="4.59591">
        <ele>565</ele>
        <time>2023-10-18T15:56:58.174+00:00</time>
      </trkpt>
      <trkpt lat="46.17393" lon="4.59595">
        <ele>565</ele>
        <time>2023-10-18T15:57:02.614+00:00</time>
      </trkpt>
      <trkpt lat="46.17397" lon="4.59598">
        <ele>561</ele>
        <time>2023-10-18T15:57:06.641+00:00</time>
      </trkpt>
      <trkpt lat="46.17403" lon="4.596">
        <ele>561</ele>
        <time>2023-10-18T15:57:11.234+00:00</time>
      </trkpt>
      <trkpt lat="46.17407" lon="4.59603">
        <ele>565</ele>
        <time>2023-10-18T15:57:15.433+00:00</time>
      </trkpt>
      <trkpt lat="46.17411" lon="4.59607">
        <ele>565</ele>
        <time>2023-10-18T15:57:19.314+00:00</time>
      </trkpt>
      <trkpt lat="46.17415" lon="4.59616">
        <ele>565</ele>
        <time>2023-10-18T15:57:23.834+00:00</time>
      </trkpt>
      <trkpt lat="46.1742" lon="4.59617">
        <ele>565</ele>
        <time>2023-10-18T15:57:28.034+00:00</time>
      </trkpt>
      <trkpt lat="46.17424" lon="4.59618">
        <ele>565</ele>
        <time>2023-10-18T15:57:32.134+00:00</time>
      </trkpt>
      <trkpt lat="46.17429" lon="4.59619">
        <ele>565</ele>
        <time>2023-10-18T15:57:36.634+00:00</time>
      </trkpt>
      <trkpt lat="46.17433" lon="4.59622">
        <ele>565</ele>
        <time>2023-10-18T15:57:40.834+00:00</time>
      </trkpt>
      <trkpt lat="46.17438" lon="4.59623">
        <ele>565</ele>
        <time>2023-10-18T15:57:44.934+00:00</time>
      </trkpt>
      <trkpt lat="46.17445" lon="4.59625">
        <ele>565</ele>
        <time>2023-10-18T15:57:48.934+00:00</time>
      </trkpt>
      <trkpt lat="46.17451" lon="4.59627">
        <ele>561</ele>
        <time>2023-10-18T15:57:53.534+00:00</time>
      </trkpt>
      <trkpt lat="46.17457" lon="4.59629">
        <ele>561</ele>
        <time>2023-10-18T15:57:57.554+00:00</time>
      </trkpt>
      <trkpt lat="46.17463" lon="4.59634">
        <ele>561</ele>
        <time>2023-10-18T15:58:02.154+00:00</time>
      </trkpt>
      <trkpt lat="46.17468" lon="4.59637">
        <ele>561</ele>
        <time>2023-10-18T15:58:06.154+00:00</time>
      </trkpt>
      <trkpt lat="46.17473" lon="4.59641">
        <ele>561</ele>
        <time>2023-10-18T15:58:10.654+00:00</time>
      </trkpt>
      <trkpt lat="46.17477" lon="4.59644">
        <ele>561</ele>
        <time>2023-10-18T15:58:14.754+00:00</time>
      </trkpt>
      <trkpt lat="46.17481" lon="4.59648">
        <ele>561</ele>
        <time>2023-10-18T15:58:19.154+00:00</time>
      </trkpt>
      <trkpt lat="46.17486" lon="4.59652">
        <ele>561</ele>
        <time>2023-10-18T15:58:23.634+00:00</time>
      </trkpt>
      <trkpt lat="46.1749" lon="4.59656">
        <ele>561</ele>
        <time>2023-10-18T15:58:28.174+00:00</time>
      </trkpt>
      <trkpt lat="46.17495" lon="4.59659">
        <ele>561</ele>
        <time>2023-10-18T15:58:32.637+00:00</time>
      </trkpt>
      <trkpt lat="46.17501" lon="4.59662">
        <ele>561</ele>
        <time>2023-10-18T15:58:37.614+00:00</time>
      </trkpt>
      <trkpt lat="46.17507" lon="4.59663">
        <ele>561</ele>
        <time>2023-10-18T15:58:42.214+00:00</time>
      </trkpt>
      <trkpt lat="46.17513" lon="4.59666">
        <ele>561</ele>
        <time>2023-10-18T15:58:46.734+00:00</time>
      </trkpt>
      <trkpt lat="46.17517" lon="4.59669">
        <ele>563</ele>
        <time>2023-10-18T15:58:50.834+00:00</time>
      </trkpt>
      <trkpt lat="46.17521" lon="4.59672">
        <ele>563</ele>
        <time>2023-10-18T15:58:54.934+00:00</time>
      </trkpt>
      <trkpt lat="46.17524" lon="4.59678">
        <ele>563</ele>
        <time>2023-10-18T15:58:59.034+00:00</time>
      </trkpt>
      <trkpt lat="46.17526" lon="4.59684">
        <ele>560</ele>
        <time>2023-10-18T15:59:03.034+00:00</time>
      </trkpt>
      <trkpt lat="46.17529" lon="4.59694">
        <ele>560</ele>
        <time>2023-10-18T15:59:07.314+00:00</time>
      </trkpt>
      <trkpt lat="46.17529" lon="4.59702">
        <ele>560</ele>
        <time>2023-10-18T15:59:11.714+00:00</time>
      </trkpt>
      <trkpt lat="46.17529" lon="4.5971">
        <ele>559</ele>
        <time>2023-10-18T15:59:16.254+00:00</time>
      </trkpt>
      <trkpt lat="46.17529" lon="4.59718">
        <ele>559</ele>
        <time>2023-10-18T15:59:19.834+00:00</time>
      </trkpt>
      <trkpt lat="46.17529" lon="4.59725">
        <ele>559</ele>
        <time>2023-10-18T15:59:24.368+00:00</time>
      </trkpt>
      <trkpt lat="46.17527" lon="4.59733">
        <ele>559</ele>
        <time>2023-10-18T15:59:28.434+00:00</time>
      </trkpt>
      <trkpt lat="46.17524" lon="4.59739">
        <ele>560</ele>
        <time>2023-10-18T15:59:32.314+00:00</time>
      </trkpt>
      <trkpt lat="46.17523" lon="4.59747">
        <ele>560</ele>
        <time>2023-10-18T15:59:36.834+00:00</time>
      </trkpt>
      <trkpt lat="46.17521" lon="4.59756">
        <ele>560</ele>
        <time>2023-10-18T15:59:41.434+00:00</time>
      </trkpt>
      <trkpt lat="46.17521" lon="4.59766">
        <ele>561</ele>
        <time>2023-10-18T15:59:46.234+00:00</time>
      </trkpt>
      <trkpt lat="46.17521" lon="4.59774">
        <ele>561</ele>
        <time>2023-10-18T15:59:50.793+00:00</time>
      </trkpt>
      <trkpt lat="46.17521" lon="4.59782">
        <ele>561</ele>
        <time>2023-10-18T15:59:55.234+00:00</time>
      </trkpt>
      <trkpt lat="46.1752" lon="4.59789">
        <ele>561</ele>
        <time>2023-10-18T16:00:00.434+00:00</time>
      </trkpt>
      <trkpt lat="46.17518" lon="4.59796">
        <ele>562</ele>
        <time>2023-10-18T16:00:04.635+00:00</time>
      </trkpt>
      <trkpt lat="46.17517" lon="4.59802">
        <ele>562</ele>
        <time>2023-10-18T16:00:08.534+00:00</time>
      </trkpt>
      <trkpt lat="46.17519" lon="4.59808">
        <ele>562</ele>
        <time>2023-10-18T16:00:13.234+00:00</time>
      </trkpt>
      <trkpt lat="46.17518" lon="4.59814">
        <ele>562</ele>
        <time>2023-10-18T16:00:17.834+00:00</time>
      </trkpt>
      <trkpt lat="46.17517" lon="4.59818">
        <ele>562</ele>
        <time>2023-10-18T16:00:22.034+00:00</time>
      </trkpt>
      <trkpt lat="46.17517" lon="4.59827">
        <ele>562</ele>
        <time>2023-10-18T16:00:26.635+00:00</time>
      </trkpt>
      <trkpt lat="46.17517" lon="4.59834">
        <ele>562</ele>
        <time>2023-10-18T16:00:31.234+00:00</time>
      </trkpt>
      <trkpt lat="46.1752" lon="4.5984">
        <ele>562</ele>
        <time>2023-10-18T16:00:36.034+00:00</time>
      </trkpt>
    </trkseg>
  </trk>
</gpx>